GFSSGP_prec_precacc_024.txt.gz
Total_Precipitation_Accumulation
0.00 0.00 0.00 0.00 0.00 0.00 0.00 0.00 0.00 0.03 0.05 0.03 0.05 0.07 0.10 0.08 0.19 0.33 0.19 0.08 0.03 0.13 0.01 0.06 0.15 0.01 0.01 0.03 0.03 0.04 0.05 0.02 0.03 0.03 0.01 0.01 0.02 0.04 0.02 0.00 0.00 0.00 0.00 0.00 0.00 0.00 0.00 0.00 0.01
0.00 0.00 0.00 0.00 0.00 0.00 0.00 0.00 0.00 0.02 0.06 0.07 0.07 0.07 0.09 0.17 0.17 0.30 0.21 0.12 0.17 0.09 0.01 0.04 0.14 0.05 0.02 0.03 0.03 0.02 0.02 0.02 0.02 0.03 0.03 0.01 0.01 0.01 0.00 0.00 0.00 0.00 0.00 0.00 0.00 0.00 0.00 0.00 0.00
0.00 0.00 0.00 0.00 0.00 0.00 0.00 0.00 0.00 0.01 0.02 0.02 0.01 0.04 0.13 0.30 0.35 0.46 0.21 0.08 0.09 0.03 0.03 0.07 0.05 0.05 0.04 0.06 0.05 0.04 0.04 0.01 0.01 0.02 0.02 0.00 0.00 0.00 0.00 0.00 0.00 0.00 0.00 0.00 0.00 0.00 0.00 0.00 0.00
0.00 0.00 0.00 0.00 0.00 0.00 0.00 0.00 0.00 0.00 0.01 0.04 0.02 0.04 0.09 0.15 0.21 0.16 0.09 0.18 0.20 0.29 0.06 0.06 0.01 0.06 0.07 0.06 0.02 0.01 0.01 0.00 0.00 0.00 0.00 0.00 0.00 0.00 0.00 0.00 0.00 0.00 0.00 0.00 0.00 0.00 0.00 0.00 0.00
0.00 0.00 0.00 0.00 0.00 0.00 0.00 0.00 0.00 0.00 0.00 0.01 0.00 0.00 0.04 0.04 0.07 0.04 0.14 0.23 0.52 0.20 0.07 0.01 0.07 0.16 0.13 0.06 0.00 0.00 0.00 0.00 0.00 0.00 0.00 0.00 0.00 0.00 0.00 0.00 0.00 0.00 0.00 0.00 0.00 0.00 0.00 0.00 0.00
0.00 0.00 0.00 0.00 0.00 0.00 0.00 0.00 0.00 0.01 0.01 0.00 0.00 0.03 0.09 0.12 0.19 0.04 0.08 0.14 0.36 0.07 0.01 0.06 0.16 0.18 0.15 0.02 0.00 0.00 0.00 0.00 0.00 0.00 0.00 0.00 0.00 0.00 0.00 0.00 0.00 0.00 0.00 0.00 0.00 0.00 0.00 0.00 0.00
0.00 0.00 0.00 0.00 0.00 0.00 0.00 0.03 0.03 0.01 0.00 0.00 0.00 0.05 0.05 0.07 0.15 0.04 0.04 0.10 0.07 0.03 0.02 0.08 0.06 0.09 0.05 0.00 0.00 0.00 0.00 0.00 0.00 0.00 0.00 0.00 0.00 0.00 0.00 0.00 0.00 0.00 0.00 0.00 0.00 0.00 0.00 0.00 0.00
0.00 0.00 0.00 0.00 0.00 0.00 0.03 0.05 0.02 0.01 0.00 0.01 0.02 0.03 0.03 0.02 0.02 0.05 0.06 0.04 0.02 0.01 0.04 0.06 0.05 0.01 0.00 0.00 0.00 0.00 0.00 0.00 0.00 0.00 0.00 0.00 0.00 0.00 0.00 0.00 0.00 0.00 0.00 0.00 0.00 0.00 0.00 0.00 0.00
0.00 0.00 0.00 0.00 0.00 0.01 0.00 0.01 0.01 0.00 0.00 0.01 0.01 0.00 0.00 0.01 0.01 0.02 0.06 0.05 0.04 0.04 0.02 0.01 0.00 0.00 0.00 0.00 0.00 0.00 0.00 0.00 0.00 0.00 0.00 0.00 0.00 0.00 0.00 0.00 0.00 0.00 0.00 0.00 0.00 0.00 0.00 0.00 0.00
0.00 0.00 0.00 0.00 0.00 0.02 0.01 0.00 0.00 0.00 0.01 0.02 0.01 0.00 0.00 0.01 0.00 0.00 0.01 0.01 0.01 0.01 0.00 0.00 0.00 0.01 0.00 0.00 0.00 0.00 0.00 0.00 0.00 0.00 0.00 0.00 0.00 0.00 0.00 0.00 0.00 0.00 0.00 0.00 0.00 0.00 0.00 0.00 0.00
0.00 0.00 0.00 0.00 0.00 0.00 0.00 0.00 0.00 0.00 0.00 0.00 0.00 0.01 0.01 0.02 0.01 0.01 0.01 0.01 0.00 0.00 0.00 0.00 0.00 0.00 0.00 0.00 0.00 0.00 0.00 0.00 0.00 0.00 0.00 0.00 0.00 0.00 0.00 0.00 0.00 0.01 0.00 0.00 0.00 0.00 0.00 0.00 0.00
0.00 0.00 0.00 0.00 0.00 0.00 0.00 0.00 0.00 0.00 0.00 0.00 0.00 0.00 0.00 0.00 0.00 0.00 0.00 0.00 0.00 0.00 0.00 0.00 0.00 0.00 0.00 0.00 0.00 0.00 0.00 0.00 0.01 0.00 0.00 0.01 0.01 0.00 0.00 0.00 0.00 0.00 0.00 0.00 0.00 0.00 0.00 0.00 0.00
0.00 0.00 0.00 0.00 0.00 0.00 0.00 0.00 0.00 0.00 0.00 0.00 0.00 0.00 0.00 0.00 0.00 0.00 0.00 0.00 0.00 0.00 0.00 0.02 0.00 0.00 0.00 0.00 0.00 0.00 0.00 0.01 0.02 0.00 0.02 0.01 0.00 0.00 0.00 0.00 0.00 0.00 0.00 0.00 0.00 0.00 0.00 0.00 0.00
0.00 0.00 0.00 0.00 0.00 0.00 0.00 0.00 0.00 0.00 0.00 0.00 0.00 0.00 0.00 0.00 0.00 0.00 0.00 0.00 0.00 0.00 0.06 0.11 0.06 0.01 0.00 0.00 0.00 0.02 0.09 0.09 0.07 0.08 0.18 0.11 0.01 0.00 0.00 0.00 0.00 0.00 0.00 0.00 0.00 0.00 0.00 0.00 0.00
0.00 0.00 0.00 0.00 0.00 0.00 0.00 0.00 0.00 0.00 0.00 0.00 0.00 0.00 0.00 0.00 0.00 0.00 0.00 0.00 0.00 0.00 0.02 0.51 0.67 0.10 0.05 0.01 0.09 0.22 0.22 0.08 0.02 0.13 0.24 0.11 0.01 0.00 0.00 0.00 0.00 0.00 0.00 0.00 0.00 0.00 0.00 0.00 0.00
0.00 0.00 0.00 0.00 0.00 0.00 0.00 0.00 0.00 0.00 0.00 0.00 0.00 0.00 0.00 0.00 0.00 0.00 0.00 0.01 0.01 0.02 0.17 1.10 0.96 0.19 0.16 0.12 0.23 0.45 0.29 0.09 0.05 0.08 0.09 0.03 0.00 0.00 0.00 0.00 0.00 0.00 0.00 0.00 0.00 0.00 0.00 0.00 0.00
0.00 0.00 0.00 0.00 0.00 0.00 0.00 0.00 0.00 0.00 0.00 0.00 0.00 0.00 0.00 0.00 0.00 0.00 0.02 0.02 0.02 0.02 0.28 0.77 0.68 0.35 0.49 0.82 0.97 0.55 0.08 0.01 0.01 0.02 0.02 0.01 0.00 0.00 0.00 0.00 0.00 0.00 0.00 0.00 0.00 0.00 0.00 0.01 0.00
0.00 0.00 0.00 0.00 0.00 0.00 0.00 0.00 0.00 0.00 0.00 0.00 0.00 0.00 0.00 0.00 0.00 0.02 0.08 0.06 0.03 0.06 0.44 0.71 0.71 0.91 1.15 0.85 0.27 0.06 0.01 0.01 0.01 0.02 0.01 0.00 0.00 0.00 0.00 0.00 0.00 0.00 0.00 0.00 0.00 0.00 0.00 0.00 0.00
0.00 0.00 0.00 0.00 0.00 0.00 0.00 0.00 0.00 0.00 0.00 0.00 0.00 0.00 0.00 0.00 0.01 0.05 0.08 0.11 0.12 0.19 0.49 0.63 0.79 0.61 0.27 0.08 0.04 0.03 0.04 0.04 0.02 0.00 0.00 0.00 0.00 0.00 0.00 0.00 0.00 0.00 0.00 0.00 0.00 0.00 0.00 0.00 0.00
0.00 0.00 0.00 0.00 0.00 0.00 0.00 0.00 0.00 0.00 0.00 0.00 0.00 0.00 0.00 0.00 0.00 0.01 0.02 0.08 0.22 0.43 0.46 0.35 0.28 0.12 0.02 0.02 0.04 0.05 0.03 0.01 0.00 0.00 0.00 0.00 0.00 0.00 0.00 0.00 0.00 0.00 0.00 0.00 0.00 0.00 0.00 0.00 0.00
0.00 0.00 0.00 0.00 0.00 0.00 0.00 0.00 0.00 0.00 0.00 0.00 0.00 0.00 0.00 0.00 0.03 0.05 0.09 0.12 0.12 0.10 0.05 0.01 0.00 0.00 0.00 0.02 0.01 0.00 0.00 0.00 0.00 0.00 0.00 0.00 0.00 0.00 0.00 0.00 0.00 0.00 0.00 0.00 0.00 0.00 0.00 0.00 0.00
0.00 0.00 0.00 0.00 0.00 0.00 0.00 0.00 0.00 0.00 0.00 0.00 0.00 0.00 0.01 0.02 0.02 0.01 0.00 0.00 0.00 0.00 0.00 0.00 0.00 0.00 0.00 0.00 0.00 0.00 0.00 0.00 0.00 0.00 0.00 0.00 0.00 0.00 0.00 0.00 0.00 0.00 0.00 0.00 0.00 0.00 0.00 0.00 0.00
0.00 0.00 0.00 0.00 0.00 0.00 0.00 0.00 0.00 0.00 0.00 0.00 0.00 0.00 0.00 0.00 0.00 0.00 0.00 0.00 0.00 0.00 0.00 0.00 0.00 0.00 0.00 0.00 0.00 0.00 0.00 0.00 0.00 0.00 0.00 0.00 0.00 0.00 0.00 0.00 0.00 0.00 0.00 0.00 0.00 0.00 0.00 0.00 0.00
0.00 0.00 0.00 0.00 0.00 0.00 0.00 0.02 0.01 0.01 0.00 0.00 0.00 0.00 0.00 0.00 0.00 0.00 0.00 0.00 0.00 0.00 0.00 0.00 0.00 0.00 0.00 0.00 0.00 0.00 0.00 0.00 0.00 0.00 0.00 0.00 0.00 0.00 0.01 0.00 0.00 0.00 0.00 0.00 0.00 0.00 0.00 0.00 0.00
0.00 0.00 0.00 0.01 0.00 0.01 0.03 0.02 0.00 0.00 0.00 0.00 0.00 0.00 0.00 0.00 0.00 0.00 0.00 0.00 0.00 0.00 0.00 0.00 0.00 0.00 0.00 0.00 0.00 0.00 0.00 0.00 0.00 0.00 0.00 0.00 0.01 0.01 0.00 0.00 0.00 0.00 0.00 0.00 0.00 0.01 0.00 0.00 0.00
0.00 0.00 0.00 0.00 0.01 0.01 0.00 0.00 0.00 0.00 0.00 0.00 0.00 0.00 0.00 0.00 0.00 0.00 0.00 0.00 0.00 0.00 0.00 0.00 0.00 0.00 0.00 0.00 0.00 0.00 0.00 0.00 0.00 0.00 0.00 0.00 0.00 0.00 0.00 0.00 0.00 0.00 0.00 0.00 0.01 0.02 0.01 0.01 0.02
0.00 0.00 0.00 0.00 0.00 0.00 0.00 0.00 0.00 0.00 0.00 0.00 0.00 0.00 0.00 0.00 0.00 0.00 0.00 0.00 0.00 0.00 0.00 0.00 0.00 0.00 0.00 0.00 0.00 0.00 0.00 0.00 0.00 0.00 0.00 0.00 0.00 0.00 0.00 0.00 0.00 0.00 0.00 0.00 0.00 0.01 0.02 0.03 0.02
0.00 0.00 0.00 0.00 0.00 0.00 0.00 0.00 0.00 0.00 0.00 0.00 0.00 0.00 0.00 0.00 0.00 0.00 0.00 0.00 0.00 0.00 0.00 0.00 0.00 0.00 0.00 0.00 0.00 0.00 0.00 0.00 0.00 0.00 0.00 0.00 0.00 0.00 0.00 0.00 0.00 0.00 0.00 0.00 0.01 0.01 0.02 0.02 0.02
0.00 0.00 0.00 0.00 0.00 0.00 0.00 0.00 0.00 0.00 0.00 0.00 0.00 0.00 0.00 0.00 0.00 0.00 0.00 0.00 0.00 0.00 0.00 0.00 0.00 0.00 0.00 0.00 0.00 0.00 0.00 0.00 0.00 0.00 0.00 0.00 0.00 0.00 0.01 0.00 0.00 0.00 0.00 0.01 0.02 0.04 0.03 0.02 0.02
0.00 0.00 0.00 0.00 0.00 0.00 0.00 0.00 0.00 0.00 0.00 0.00 0.00 0.00 0.00 0.00 0.00 0.00 0.00 0.00 0.00 0.00 0.00 0.00 0.00 0.00 0.00 0.00 0.00 0.00 0.00 0.00 0.00 0.00 0.00 0.00 0.01 0.02 0.01 0.00 0.01 0.02 0.04 0.06 0.06 0.02 0.01 0.01 0.01

GFSSGP_prec_precacc_030.txt.gz
Total_Precipitation_Accumulation
0.00 0.00 0.00 0.00 0.00 0.00 0.00 0.00 0.00 0.09 0.08 0.04 0.06 0.09 0.11 0.11 0.26 0.51 0.38 0.25 0.10 0.17 0.01 0.06 0.15 0.01 0.01 0.03 0.03 0.04 0.05 0.02 0.03 0.03 0.01 0.01 0.02 0.04 0.02 0.00 0.00 0.00 0.00 0.00 0.00 0.00 0.00 0.00 0.01
0.00 0.00 0.00 0.00 0.00 0.00 0.00 0.00 0.00 0.05 0.09 0.09 0.08 0.08 0.10 0.17 0.18 0.38 0.35 0.34 0.25 0.11 0.01 0.04 0.14 0.07 0.04 0.05 0.06 0.02 0.02 0.02 0.02 0.03 0.03 0.01 0.01 0.01 0.00 0.00 0.00 0.00 0.00 0.00 0.00 0.00 0.00 0.00 0.00
0.00 0.00 0.00 0.00 0.00 0.00 0.00 0.01 0.02 0.01 0.03 0.02 0.03 0.05 0.14 0.30 0.35 0.52 0.31 0.35 0.28 0.08 0.05 0.07 0.07 0.12 0.13 0.15 0.12 0.04 0.04 0.01 0.01 0.02 0.02 0.00 0.00 0.00 0.00 0.00 0.00 0.00 0.00 0.00 0.00 0.00 0.00 0.00 0.00
0.00 0.00 0.00 0.00 0.00 0.00 0.00 0.01 0.10 0.01 0.02 0.04 0.03 0.05 0.10 0.16 0.21 0.16 0.11 0.35 0.50 0.52 0.28 0.10 0.09 0.20 0.23 0.26 0.10 0.02 0.01 0.00 0.00 0.00 0.00 0.00 0.00 0.00 0.00 0.00 0.00 0.00 0.00 0.00 0.00 0.00 0.00 0.00 0.00
0.00 0.00 0.00 0.00 0.00 0.00 0.00 0.00 0.01 0.02 0.04 0.04 0.04 0.01 0.05 0.04 0.07 0.07 0.21 0.45 1.09 0.95 0.67 0.11 0.24 0.40 0.36 0.25 0.04 0.00 0.00 0.00 0.00 0.00 0.00 0.00 0.00 0.00 0.00 0.00 0.00 0.00 0.00 0.00 0.00 0.00 0.00 0.00 0.00
0.00 0.00 0.00 0.00 0.00 0.00 0.00 0.00 0.01 0.07 0.16 0.15 0.06 0.04 0.11 0.12 0.19 0.09 0.36 0.55 1.29 0.77 1.00 0.43 0.41 0.40 0.45 0.13 0.00 0.00 0.00 0.00 0.00 0.00 0.00 0.00 0.00 0.00 0.00 0.00 0.00 0.00 0.00 0.00 0.00 0.00 0.00 0.00 0.00
0.00 0.00 0.00 0.00 0.00 0.00 0.00 0.04 0.12 0.21 0.07 0.02 0.00 0.06 0.07 0.09 0.15 0.10 0.35 0.66 0.95 1.39 1.32 1.34 0.51 0.27 0.18 0.00 0.00 0.00 0.00 0.00 0.00 0.00 0.00 0.00 0.00 0.00 0.00 0.00 0.00 0.00 0.00 0.00 0.00 0.00 0.00 0.00 0.00
0.00 0.00 0.00 0.00 0.00 0.01 0.04 0.05 0.05 0.08 0.09 0.08 0.03 0.19 0.06 0.02 0.07 0.34 0.51 0.67 0.52 1.82 1.53 0.84 0.47 0.14 0.02 0.00 0.00 0.00 0.00 0.00 0.00 0.00 0.00 0.00 0.00 0.00 0.00 0.00 0.00 0.00 0.00 0.00 0.00 0.00 0.00 0.00 0.00
0.00 0.00 0.00 0.00 0.01 0.02 0.04 0.05 0.03 0.00 0.00 0.01 0.02 0.07 0.05 0.02 0.05 0.33 0.58 1.33 1.65 1.42 1.29 1.08 0.49 0.21 0.02 0.00 0.00 0.00 0.00 0.00 0.00 0.00 0.00 0.00 0.00 0.00 0.00 0.00 0.00 0.00 0.00 0.00 0.00 0.00 0.00 0.00 0.00
0.00 0.00 0.00 0.00 0.01 0.07 0.20 0.23 0.04 0.01 0.03 0.03 0.02 0.02 0.01 0.03 0.06 0.15 0.44 0.60 1.34 0.87 0.64 0.29 0.16 0.09 0.04 0.00 0.00 0.00 0.00 0.00 0.00 0.00 0.00 0.02 0.00 0.00 0.00 0.00 0.00 0.00 0.00 0.00 0.00 0.00 0.00 0.00 0.00
0.00 0.00 0.00 0.00 0.00 0.06 0.09 0.02 0.00 0.00 0.05 0.10 0.12 0.10 0.02 0.06 0.07 0.15 0.24 0.40 0.47 0.25 0.03 0.01 0.03 0.01 0.00 0.00 0.00 0.00 0.00 0.00 0.01 0.04 0.05 0.05 0.01 0.01 0.01 0.03 0.00 0.01 0.00 0.00 0.00 0.00 0.00 0.00 0.00
0.00 0.00 0.00 0.00 0.00 0.00 0.00 0.00 0.00 0.03 0.43 0.21 0.34 0.08 0.02 0.01 0.01 0.07 0.09 0.09 0.04 0.02 0.00 0.00 0.00 0.00 0.00 0.00 0.00 0.00 0.00 0.02 0.08 0.09 0.05 0.05 0.04 0.03 0.00 0.01 0.00 0.00 0.00 0.00 0.00 0.00 0.00 0.00 0.00
0.00 0.00 0.00 0.00 0.01 0.00 0.00 0.00 0.01 0.05 0.01 0.07 0.09 0.02 0.00 0.00 0.00 0.00 0.01 0.02 0.00 0.00 0.00 0.02 0.00 0.00 0.00 0.00 0.00 0.01 0.03 0.07 0.11 0.05 0.04 0.03 0.01 0.02 0.00 0.00 0.00 0.00 0.00 0.00 0.00 0.00 0.00 0.00 0.00
0.00 0.00 0.00 0.00 0.00 0.00 0.00 0.00 0.03 0.04 0.02 0.03 0.01 0.00 0.00 0.00 0.00 0.00 0.00 0.00 0.00 0.00 0.06 0.11 0.06 0.01 0.00 0.00 0.03 0.04 0.11 0.10 0.08 0.08 0.18 0.13 0.02 0.00 0.00 0.00 0.00 0.00 0.00 0.00 0.00 0.00 0.00 0.00 0.00
0.00 0.00 0.00 0.00 0.00 0.00 0.00 0.00 0.00 0.00 0.00 0.00 0.00 0.00 0.00 0.00 0.00 0.00 0.00 0.00 0.00 0.00 0.02 0.51 0.67 0.10 0.05 0.02 0.10 0.22 0.22 0.08 0.02 0.13 0.24 0.11 0.01 0.00 0.00 0.00 0.00 0.00 0.00 0.00 0.00 0.00 0.00 0.00 0.00
0.00 0.00 0.00 0.00 0.00 0.00 0.01 0.01 0.00 0.00 0.00 0.00 0.00 0.00 0.00 0.00 0.00 0.00 0.00 0.01 0.01 0.02 0.17 1.10 0.97 0.20 0.16 0.13 0.25 0.55 0.35 0.10 0.05 0.08 0.09 0.03 0.01 0.01 0.00 0.00 0.00 0.00 0.00 0.00 0.00 0.00 0.00 0.00 0.00
0.00 0.00 0.00 0.00 0.00 0.00 0.00 0.00 0.00 0.00 0.00 0.00 0.00 0.00 0.00 0.00 0.00 0.00 0.02 0.02 0.02 0.02 0.28 0.77 0.68 0.38 0.58 0.95 1.18 0.66 0.09 0.02 0.01 0.02 0.03 0.02 0.01 0.00 0.00 0.00 0.00 0.00 0.00 0.00 0.00 0.00 0.00 0.01 0.00
0.00 0.00 0.00 0.00 0.00 0.00 0.00 0.00 0.00 0.00 0.00 0.00 0.00 0.00 0.00 0.00 0.00 0.02 0.08 0.06 0.03 0.06 0.44 0.72 0.71 0.95 1.25 1.06 0.31 0.06 0.01 0.01 0.01 0.02 0.01 0.00 0.00 0.00 0.00 0.00 0.00 0.00 0.00 0.00 0.00 0.00 0.00 0.00 0.00
0.00 0.00 0.00 0.00 0.00 0.00 0.00 0.00 0.00 0.00 0.00 0.00 0.00 0.00 0.00 0.00 0.01 0.05 0.08 0.11 0.12 0.19 0.51 0.68 0.82 0.62 0.28 0.09 0.05 0.03 0.04 0.04 0.02 0.00 0.00 0.00 0.00 0.00 0.00 0.00 0.00 0.00 0.00 0.00 0.00 0.00 0.00 0.00 0.00
0.00 0.00 0.00 0.00 0.00 0.00 0.00 0.00 0.00 0.00 0.00 0.00 0.00 0.00 0.00 0.00 0.00 0.01 0.02 0.08 0.22 0.43 0.47 0.37 0.30 0.15 0.09 0.05 0.05 0.05 0.03 0.01 0.00 0.00 0.00 0.00 0.00 0.00 0.00 0.00 0.00 0.00 0.00 0.00 0.00 0.00 0.00 0.00 0.00
0.00 0.00 0.00 0.00 0.00 0.00 0.00 0.00 0.00 0.00 0.00 0.00 0.00 0.00 0.00 0.00 0.03 0.05 0.09 0.12 0.12 0.10 0.06 0.04 0.04 0.05 0.08 0.03 0.01 0.00 0.00 0.00 0.00 0.00 0.00 0.00 0.00 0.00 0.00 0.00 0.00 0.00 0.00 0.00 0.00 0.00 0.00 0.00 0.00
0.00 0.00 0.00 0.00 0.00 0.00 0.00 0.00 0.02 0.01 0.00 0.00 0.00 0.00 0.01 0.02 0.02 0.01 0.00 0.00 0.00 0.01 0.01 0.02 0.03 0.01 0.01 0.00 0.00 0.00 0.00 0.00 0.00 0.00 0.00 0.00 0.00 0.00 0.00 0.00 0.00 0.00 0.00 0.00 0.00 0.00 0.00 0.00 0.00
0.00 0.00 0.00 0.00 0.00 0.06 0.02 0.01 0.02 0.01 0.00 0.00 0.00 0.00 0.00 0.00 0.00 0.00 0.00 0.01 0.00 0.00 0.00 0.01 0.00 0.00 0.00 0.00 0.00 0.00 0.00 0.00 0.00 0.00 0.00 0.00 0.00 0.00 0.00 0.00 0.00 0.00 0.00 0.00 0.00 0.00 0.00 0.00 0.00
0.00 0.00 0.00 0.00 0.00 0.01 0.01 0.03 0.01 0.01 0.01 0.02 0.00 0.00 0.00 0.00 0.00 0.00 0.00 0.00 0.00 0.00 0.00 0.00 0.00 0.00 0.00 0.00 0.00 0.00 0.00 0.00 0.00 0.00 0.00 0.00 0.00 0.00 0.01 0.00 0.00 0.00 0.00 0.00 0.00 0.00 0.00 0.00 0.00
0.00 0.00 0.00 0.07 0.01 0.01 0.03 0.02 0.00 0.00 0.01 0.10 0.04 0.00 0.00 0.00 0.00 0.00 0.00 0.00 0.00 0.00 0.00 0.00 0.00 0.00 0.00 0.00 0.00 0.00 0.00 0.00 0.00 0.00 0.00 0.00 0.01 0.01 0.00 0.00 0.00 0.00 0.00 0.00 0.00 0.01 0.01 0.00 0.01
0.00 0.00 0.00 0.08 0.04 0.01 0.00 0.00 0.00 0.00 0.00 0.00 0.00 0.00 0.00 0.00 0.00 0.00 0.00 0.00 0.00 0.00 0.00 0.00 0.00 0.00 0.00 0.00 0.00 0.00 0.00 0.00 0.00 0.00 0.00 0.00 0.00 0.00 0.00 0.00 0.00 0.00 0.00 0.00 0.01 0.02 0.02 0.04 0.06
0.00 0.00 0.00 0.00 0.00 0.00 0.00 0.00 0.00 0.00 0.00 0.00 0.00 0.00 0.00 0.00 0.00 0.00 0.00 0.00 0.00 0.00 0.00 0.00 0.00 0.00 0.00 0.00 0.00 0.00 0.00 0.00 0.00 0.00 0.00 0.00 0.00 0.00 0.00 0.00 0.00 0.00 0.00 0.00 0.01 0.02 0.03 0.05 0.07
0.00 0.00 0.00 0.00 0.00 0.00 0.00 0.00 0.00 0.00 0.00 0.00 0.00 0.00 0.00 0.00 0.00 0.00 0.00 0.00 0.00 0.00 0.00 0.00 0.00 0.00 0.00 0.00 0.00 0.00 0.00 0.00 0.00 0.00 0.00 0.00 0.00 0.00 0.00 0.00 0.00 0.00 0.00 0.00 0.01 0.01 0.03 0.06 0.06
0.00 0.00 0.00 0.00 0.00 0.00 0.00 0.00 0.00 0.00 0.00 0.00 0.00 0.00 0.00 0.00 0.00 0.00 0.00 0.00 0.00 0.00 0.00 0.00 0.00 0.00 0.00 0.00 0.00 0.00 0.00 0.00 0.00 0.00 0.00 0.00 0.00 0.00 0.01 0.00 0.00 0.00 0.00 0.01 0.03 0.05 0.05 0.05 0.05
0.00 0.00 0.00 0.00 0.00 0.00 0.00 0.00 0.00 0.00 0.00 0.00 0.00 0.00 0.00 0.00 0.00 0.00 0.00 0.00 0.00 0.00 0.00 0.00 0.00 0.00 0.00 0.00 0.00 0.00 0.00 0.00 0.00 0.00 0.00 0.00 0.01 0.02 0.01 0.00 0.01 0.02 0.04 0.06 0.07 0.04 0.02 0.02 0.02

GFSSGP_prec_precacc_033.txt.gz
Total_Precipitation_Accumulation
0.00 0.00 0.00 0.00 0.00 0.00 0.00 0.00 0.00 0.10 0.09 0.04 0.06 0.09 0.11 0.11 0.27 0.52 0.40 0.39 0.18 0.25 0.04 0.06 0.15 0.01 0.01 0.03 0.03 0.04 0.05 0.02 0.03 0.03 0.01 0.01 0.02 0.04 0.02 0.00 0.00 0.00 0.00 0.00 0.00 0.00 0.00 0.00 0.01
0.00 0.00 0.00 0.00 0.00 0.00 0.00 0.00 0.02 0.08 0.13 0.09 0.09 0.09 0.11 0.18 0.18 0.38 0.37 0.39 0.27 0.14 0.03 0.04 0.15 0.07 0.05 0.07 0.06 0.02 0.02 0.02 0.02 0.03 0.03 0.01 0.01 0.01 0.00 0.00 0.00 0.00 0.00 0.00 0.00 0.00 0.00 0.00 0.00
0.00 0.00 0.00 0.00 0.00 0.00 0.00 0.02 0.03 0.02 0.03 0.03 0.03 0.05 0.14 0.30 0.35 0.52 0.33 0.39 0.30 0.09 0.06 0.08 0.11 0.17 0.19 0.19 0.12 0.04 0.04 0.01 0.01 0.02 0.02 0.00 0.00 0.00 0.00 0.00 0.00 0.00 0.00 0.00 0.00 0.00 0.00 0.00 0.00
0.00 0.00 0.00 0.00 0.00 0.00 0.00 0.01 0.10 0.02 0.04 0.06 0.03 0.05 0.10 0.17 0.22 0.19 0.19 0.39 0.54 0.53 0.29 0.12 0.12 0.36 0.39 0.30 0.11 0.02 0.01 0.00 0.00 0.00 0.00 0.00 0.00 0.00 0.00 0.00 0.00 0.00 0.00 0.00 0.00 0.00 0.00 0.00 0.00
0.00 0.00 0.00 0.00 0.00 0.00 0.00 0.00 0.01 0.03 0.08 0.08 0.05 0.02 0.05 0.04 0.09 0.20 0.46 0.57 1.13 0.99 0.68 0.12 0.28 0.58 0.46 0.27 0.04 0.00 0.00 0.00 0.00 0.00 0.00 0.00 0.00 0.00 0.00 0.00 0.00 0.00 0.00 0.00 0.00 0.00 0.00 0.00 0.00
0.00 0.00 0.00 0.00 0.00 0.00 0.01 0.01 0.01 0.07 0.19 0.19 0.12 0.22 0.16 0.12 0.21 0.27 0.95 1.09 1.53 0.82 1.01 0.47 0.57 0.65 0.57 0.14 0.00 0.00 0.00 0.00 0.00 0.00 0.00 0.00 0.00 0.00 0.00 0.00 0.00 0.00 0.00 0.00 0.00 0.00 0.00 0.00 0.00
0.00 0.00 0.00 0.00 0.00 0.00 0.00 0.06 0.17 0.24 0.10 0.03 0.01 0.15 0.17 0.10 0.16 0.23 0.62 1.25 1.56 1.66 1.54 1.73 0.86 0.47 0.23 0.01 0.00 0.00 0.00 0.00 0.00 0.00 0.00 0.00 0.00 0.00 0.00 0.00 0.00 0.00 0.00 0.00 0.00 0.00 0.00 0.00 0.00
0.00 0.00 0.00 0.00 0.00 0.01 0.07 0.12 0.12 0.10 0.09 0.08 0.03 0.20 0.15 0.12 0.09 0.45 0.64 0.84 1.01 2.32 1.93 1.57 1.25 0.37 0.03 0.00 0.00 0.00 0.00 0.00 0.00 0.00 0.00 0.00 0.00 0.00 0.00 0.00 0.00 0.00 0.00 0.00 0.00 0.00 0.00 0.00 0.00
0.00 0.00 0.00 0.00 0.01 0.03 0.08 0.09 0.16 0.18 0.03 0.02 0.02 0.08 0.17 0.30 0.20 0.47 0.76 1.40 1.80 1.86 1.78 2.13 1.35 0.36 0.02 0.00 0.00 0.00 0.00 0.00 0.00 0.00 0.00 0.00 0.00 0.00 0.00 0.00 0.00 0.00 0.00 0.00 0.00 0.00 0.00 0.00 0.00
0.00 0.00 0.00 0.00 0.01 0.08 0.25 0.29 0.26 0.12 0.11 0.06 0.09 0.26 0.25 0.18 0.17 0.22 0.69 0.95 1.50 1.25 1.65 1.02 0.51 0.16 0.04 0.00 0.00 0.00 0.00 0.00 0.00 0.00 0.00 0.02 0.00 0.00 0.00 0.00 0.00 0.00 0.00 0.00 0.00 0.00 0.00 0.00 0.00
0.00 0.00 0.00 0.00 0.00 0.06 0.09 0.02 0.01 0.04 0.08 0.11 0.24 0.40 0.31 0.16 0.21 0.23 0.32 0.66 0.60 0.38 0.17 0.11 0.16 0.01 0.00 0.00 0.00 0.00 0.00 0.00 0.01 0.04 0.05 0.05 0.02 0.02 0.02 0.04 0.00 0.01 0.00 0.00 0.00 0.00 0.00 0.00 0.00
0.00 0.00 0.00 0.00 0.00 0.01 0.00 0.00 0.00 0.05 0.43 0.21 0.35 0.15 0.25 0.16 0.16 0.21 0.27 0.24 0.11 0.09 0.02 0.01 0.01 0.00 0.00 0.00 0.00 0.00 0.00 0.02 0.08 0.09 0.05 0.05 0.05 0.05 0.01 0.01 0.00 0.00 0.00 0.00 0.00 0.00 0.00 0.00 0.00
0.00 0.00 0.00 0.00 0.02 0.01 0.01 0.00 0.01 0.05 0.01 0.07 0.09 0.06 0.09 0.11 0.08 0.10 0.12 0.11 0.00 0.01 0.01 0.02 0.00 0.00 0.00 0.00 0.00 0.01 0.03 0.07 0.11 0.05 0.04 0.03 0.01 0.02 0.01 0.00 0.00 0.00 0.00 0.00 0.00 0.00 0.00 0.00 0.00
0.00 0.00 0.00 0.00 0.01 0.01 0.01 0.01 0.03 0.06 0.04 0.03 0.02 0.03 0.02 0.03 0.02 0.03 0.01 0.00 0.00 0.00 0.06 0.11 0.06 0.01 0.00 0.00 0.03 0.04 0.11 0.10 0.08 0.08 0.18 0.13 0.02 0.00 0.00 0.00 0.00 0.00 0.00 0.00 0.00 0.00 0.00 0.00 0.00
0.00 0.00 0.00 0.00 0.00 0.00 0.02 0.01 0.01 0.01 0.02 0.00 0.00 0.00 0.00 0.02 0.01 0.01 0.00 0.00 0.00 0.00 0.02 0.51 0.67 0.10 0.05 0.02 0.10 0.22 0.22 0.08 0.02 0.13 0.24 0.11 0.01 0.00 0.00 0.00 0.00 0.00 0.00 0.00 0.00 0.00 0.00 0.00 0.00
0.00 0.00 0.00 0.00 0.00 0.00 0.01 0.01 0.02 0.01 0.00 0.00 0.00 0.00 0.00 0.01 0.00 0.00 0.00 0.01 0.01 0.02 0.17 1.10 0.97 0.20 0.16 0.13 0.25 0.55 0.35 0.10 0.05 0.08 0.09 0.03 0.01 0.01 0.00 0.00 0.00 0.00 0.00 0.00 0.00 0.00 0.00 0.00 0.00
0.00 0.00 0.00 0.00 0.00 0.00 0.00 0.00 0.00 0.00 0.00 0.00 0.00 0.00 0.00 0.00 0.00 0.00 0.02 0.02 0.02 0.03 0.29 0.77 0.68 0.40 0.59 0.96 1.18 0.67 0.09 0.02 0.01 0.02 0.03 0.02 0.01 0.00 0.00 0.00 0.00 0.00 0.00 0.00 0.00 0.00 0.00 0.01 0.00
0.00 0.00 0.00 0.00 0.00 0.00 0.00 0.00 0.00 0.00 0.00 0.00 0.00 0.00 0.01 0.00 0.00 0.02 0.08 0.06 0.03 0.07 0.46 0.73 0.72 0.98 1.25 1.07 0.32 0.07 0.01 0.01 0.01 0.02 0.01 0.00 0.00 0.00 0.00 0.00 0.00 0.00 0.00 0.00 0.00 0.00 0.00 0.00 0.00
0.00 0.00 0.00 0.00 0.00 0.00 0.00 0.00 0.00 0.00 0.00 0.00 0.00 0.00 0.01 0.00 0.01 0.05 0.08 0.11 0.12 0.19 0.54 0.68 0.82 0.62 0.28 0.09 0.06 0.04 0.04 0.04 0.02 0.00 0.00 0.00 0.00 0.00 0.00 0.00 0.00 0.00 0.00 0.00 0.00 0.00 0.00 0.00 0.00
0.00 0.00 0.00 0.00 0.00 0.00 0.00 0.00 0.00 0.00 0.00 0.00 0.00 0.00 0.00 0.00 0.00 0.01 0.02 0.08 0.22 0.43 0.47 0.37 0.30 0.16 0.10 0.07 0.07 0.05 0.03 0.01 0.00 0.00 0.00 0.00 0.00 0.00 0.00 0.00 0.00 0.00 0.00 0.00 0.00 0.00 0.00 0.00 0.00
0.00 0.00 0.00 0.00 0.00 0.00 0.00 0.00 0.00 0.00 0.00 0.00 0.00 0.00 0.00 0.01 0.03 0.05 0.09 0.12 0.12 0.10 0.06 0.07 0.10 0.05 0.09 0.06 0.01 0.00 0.00 0.00 0.00 0.00 0.00 0.00 0.00 0.00 0.00 0.00 0.00 0.00 0.00 0.00 0.00 0.00 0.00 0.00 0.00
0.00 0.00 0.00 0.00 0.00 0.00 0.00 0.00 0.02 0.01 0.00 0.00 0.00 0.00 0.01 0.02 0.02 0.02 0.01 0.00 0.00 0.04 0.06 0.08 0.04 0.01 0.01 0.00 0.00 0.00 0.00 0.00 0.00 0.00 0.00 0.00 0.00 0.00 0.00 0.00 0.00 0.00 0.00 0.00 0.00 0.00 0.00 0.00 0.00
0.00 0.00 0.00 0.00 0.00 0.06 0.02 0.01 0.02 0.02 0.00 0.00 0.00 0.00 0.00 0.00 0.00 0.01 0.00 0.01 0.00 0.00 0.03 0.03 0.01 0.01 0.00 0.00 0.00 0.00 0.00 0.00 0.00 0.00 0.00 0.00 0.00 0.00 0.00 0.00 0.00 0.00 0.00 0.00 0.00 0.00 0.00 0.00 0.00
0.00 0.00 0.00 0.00 0.00 0.01 0.01 0.03 0.02 0.01 0.01 0.03 0.02 0.00 0.00 0.00 0.04 0.03 0.00 0.00 0.01 0.01 0.00 0.01 0.00 0.00 0.00 0.00 0.00 0.00 0.00 0.00 0.00 0.00 0.00 0.00 0.00 0.00 0.01 0.00 0.00 0.00 0.00 0.00 0.00 0.00 0.00 0.00 0.00
0.00 0.00 0.00 0.07 0.01 0.01 0.03 0.03 0.01 0.00 0.02 0.11 0.07 0.00 0.00 0.00 0.03 0.00 0.00 0.00 0.00 0.00 0.00 0.00 0.00 0.00 0.00 0.00 0.00 0.00 0.00 0.00 0.00 0.00 0.00 0.00 0.01 0.01 0.00 0.00 0.00 0.00 0.00 0.00 0.00 0.01 0.01 0.00 0.01
0.00 0.00 0.00 0.09 0.06 0.02 0.01 0.01 0.00 0.00 0.00 0.00 0.00 0.00 0.00 0.00 0.00 0.00 0.00 0.00 0.00 0.00 0.00 0.00 0.00 0.00 0.00 0.00 0.00 0.00 0.00 0.00 0.00 0.00 0.00 0.00 0.00 0.00 0.00 0.00 0.00 0.00 0.00 0.00 0.01 0.02 0.02 0.04 0.06
0.00 0.00 0.00 0.00 0.01 0.00 0.00 0.00 0.00 0.00 0.00 0.00 0.00 0.00 0.00 0.00 0.00 0.00 0.00 0.00 0.00 0.00 0.00 0.00 0.00 0.00 0.00 0.00 0.00 0.00 0.00 0.00 0.00 0.00 0.00 0.00 0.00 0.00 0.00 0.00 0.00 0.00 0.00 0.00 0.01 0.02 0.03 0.05 0.07
0.00 0.00 0.00 0.00 0.00 0.00 0.00 0.00 0.01 0.01 0.00 0.00 0.00 0.00 0.00 0.00 0.00 0.00 0.00 0.00 0.00 0.00 0.00 0.00 0.00 0.00 0.00 0.00 0.00 0.00 0.00 0.00 0.00 0.00 0.00 0.00 0.00 0.00 0.00 0.00 0.00 0.00 0.00 0.00 0.01 0.01 0.03 0.06 0.06
0.00 0.00 0.00 0.00 0.00 0.00 0.00 0.00 0.00 0.00 0.00 0.00 0.00 0.00 0.00 0.00 0.00 0.00 0.00 0.00 0.00 0.00 0.00 0.00 0.00 0.00 0.00 0.00 0.00 0.00 0.00 0.00 0.00 0.00 0.00 0.00 0.00 0.00 0.01 0.00 0.00 0.00 0.00 0.01 0.03 0.05 0.05 0.05 0.05
0.00 0.00 0.01 0.00 0.00 0.00 0.00 0.00 0.00 0.00 0.00 0.00 0.00 0.00 0.00 0.00 0.00 0.00 0.00 0.00 0.00 0.00 0.00 0.00 0.00 0.00 0.00 0.00 0.00 0.00 0.00 0.00 0.00 0.00 0.00 0.00 0.01 0.02 0.01 0.00 0.01 0.02 0.04 0.06 0.07 0.04 0.02 0.02 0.02

GFSSGP_prec_precacc_039.txt.gz
Total_Precipitation_Accumulation
0.00 0.00 0.00 0.00 0.00 0.00 0.00 0.00 0.00 0.11 0.09 0.04 0.06 0.09 0.11 0.11 0.28 0.53 0.42 0.47 0.19 0.26 0.05 0.06 0.15 0.01 0.01 0.03 0.03 0.04 0.05 0.02 0.03 0.03 0.01 0.01 0.02 0.04 0.02 0.00 0.00 0.00 0.00 0.00 0.00 0.00 0.00 0.00 0.01
0.00 0.00 0.00 0.00 0.00 0.00 0.00 0.00 0.02 0.09 0.13 0.10 0.09 0.09 0.11 0.18 0.19 0.39 0.40 0.43 0.29 0.15 0.04 0.05 0.15 0.08 0.05 0.07 0.06 0.02 0.02 0.02 0.02 0.03 0.03 0.01 0.01 0.01 0.00 0.00 0.00 0.00 0.00 0.00 0.00 0.00 0.00 0.00 0.00
0.00 0.00 0.00 0.00 0.00 0.00 0.00 0.02 0.04 0.04 0.09 0.08 0.05 0.05 0.14 0.31 0.36 0.52 0.39 0.52 0.35 0.11 0.07 0.09 0.12 0.19 0.22 0.20 0.12 0.04 0.04 0.01 0.01 0.02 0.02 0.00 0.00 0.00 0.00 0.00 0.00 0.00 0.00 0.00 0.00 0.00 0.00 0.00 0.00
0.00 0.00 0.00 0.00 0.00 0.00 0.00 0.01 0.10 0.03 0.08 0.11 0.07 0.06 0.11 0.22 0.22 0.20 0.26 0.50 0.61 0.54 0.30 0.15 0.15 0.42 0.45 0.31 0.11 0.02 0.01 0.00 0.00 0.00 0.00 0.00 0.00 0.00 0.00 0.00 0.00 0.00 0.00 0.00 0.00 0.00 0.00 0.00 0.00
0.00 0.00 0.00 0.00 0.00 0.00 0.00 0.00 0.01 0.06 0.14 0.13 0.10 0.03 0.07 0.08 0.11 0.27 0.53 0.65 1.21 1.06 0.76 0.22 0.36 0.64 0.52 0.27 0.04 0.00 0.00 0.00 0.00 0.00 0.00 0.00 0.00 0.00 0.00 0.00 0.00 0.00 0.00 0.00 0.00 0.00 0.00 0.00 0.00
0.00 0.00 0.00 0.00 0.00 0.00 0.02 0.02 0.06 0.19 0.28 0.28 0.15 0.24 0.17 0.23 0.26 0.41 1.16 1.45 1.84 1.11 1.19 0.71 0.88 0.83 0.62 0.14 0.00 0.00 0.00 0.00 0.00 0.00 0.00 0.00 0.00 0.00 0.00 0.00 0.00 0.00 0.00 0.00 0.00 0.00 0.00 0.00 0.00
0.00 0.00 0.00 0.00 0.00 0.00 0.01 0.10 0.29 0.38 0.18 0.06 0.04 0.16 0.19 0.29 0.25 0.29 0.90 3.07 3.77 3.71 3.46 2.77 1.37 0.69 0.29 0.01 0.00 0.00 0.00 0.00 0.00 0.00 0.00 0.00 0.00 0.00 0.00 0.00 0.00 0.00 0.00 0.00 0.00 0.00 0.00 0.00 0.00
0.00 0.00 0.00 0.00 0.00 0.02 0.08 0.17 0.18 0.18 0.13 0.11 0.05 0.25 0.20 0.32 0.28 0.57 0.85 2.37 3.61 5.80 5.16 3.62 2.07 0.60 0.08 0.01 0.00 0.00 0.00 0.00 0.00 0.00 0.00 0.00 0.00 0.00 0.00 0.00 0.00 0.00 0.00 0.00 0.00 0.00 0.00 0.00 0.00
0.00 0.00 0.00 0.00 0.01 0.04 0.09 0.13 0.19 0.19 0.03 0.03 0.05 0.13 0.29 0.55 0.49 0.58 0.83 1.62 3.03 3.39 3.13 2.94 1.84 0.63 0.07 0.01 0.00 0.00 0.00 0.00 0.00 0.00 0.00 0.00 0.00 0.00 0.00 0.00 0.00 0.00 0.00 0.00 0.00 0.00 0.00 0.00 0.00
0.00 0.00 0.00 0.00 0.01 0.08 0.25 0.29 0.26 0.12 0.12 0.08 0.17 0.41 0.53 0.46 0.44 0.36 0.74 1.09 1.72 1.68 2.18 1.38 0.70 0.23 0.05 0.00 0.00 0.00 0.00 0.00 0.00 0.00 0.00 0.02 0.00 0.00 0.00 0.00 0.00 0.00 0.00 0.00 0.00 0.00 0.00 0.00 0.00
0.00 0.00 0.00 0.00 0.01 0.08 0.09 0.02 0.01 0.04 0.08 0.15 0.29 0.55 0.52 0.37 0.32 0.25 0.32 0.68 0.64 0.41 0.29 0.19 0.18 0.01 0.00 0.00 0.00 0.00 0.00 0.00 0.01 0.04 0.05 0.05 0.02 0.02 0.02 0.04 0.00 0.01 0.00 0.00 0.00 0.00 0.00 0.00 0.00
0.00 0.00 0.00 0.00 0.00 0.01 0.01 0.01 0.00 0.05 0.43 0.25 0.37 0.15 0.26 0.21 0.20 0.22 0.27 0.24 0.11 0.09 0.02 0.01 0.02 0.00 0.00 0.00 0.00 0.00 0.00 0.02 0.08 0.09 0.05 0.06 0.05 0.05 0.01 0.01 0.00 0.00 0.00 0.00 0.00 0.00 0.00 0.00 0.00
0.00 0.00 0.00 0.00 0.03 0.02 0.07 0.04 0.01 0.05 0.01 0.12 0.13 0.07 0.09 0.13 0.10 0.11 0.12 0.11 0.00 0.01 0.01 0.02 0.01 0.00 0.00 0.00 0.00 0.01 0.03 0.07 0.11 0.05 0.04 0.03 0.01 0.02 0.01 0.00 0.00 0.00 0.00 0.00 0.00 0.00 0.00 0.00 0.00
0.00 0.00 0.00 0.00 0.02 0.01 0.04 0.02 0.03 0.06 0.04 0.03 0.04 0.05 0.03 0.05 0.02 0.03 0.01 0.00 0.00 0.00 0.06 0.11 0.07 0.01 0.00 0.00 0.03 0.04 0.11 0.10 0.08 0.08 0.18 0.13 0.02 0.00 0.00 0.00 0.00 0.00 0.00 0.00 0.00 0.00 0.00 0.00 0.00
0.00 0.00 0.00 0.00 0.00 0.01 0.03 0.01 0.01 0.01 0.02 0.00 0.00 0.00 0.02 0.08 0.03 0.01 0.00 0.00 0.00 0.00 0.02 0.51 0.67 0.10 0.05 0.02 0.10 0.22 0.22 0.08 0.03 0.13 0.24 0.11 0.01 0.00 0.00 0.00 0.00 0.00 0.00 0.00 0.00 0.00 0.00 0.00 0.00
0.00 0.00 0.00 0.00 0.00 0.00 0.01 0.01 0.03 0.01 0.00 0.00 0.00 0.00 0.03 0.04 0.02 0.01 0.00 0.01 0.01 0.02 0.17 1.10 0.97 0.20 0.16 0.13 0.25 0.55 0.35 0.11 0.05 0.08 0.09 0.03 0.01 0.01 0.00 0.00 0.00 0.00 0.00 0.00 0.00 0.00 0.00 0.00 0.00
0.00 0.00 0.00 0.00 0.00 0.00 0.00 0.00 0.01 0.02 0.00 0.00 0.00 0.00 0.00 0.00 0.02 0.00 0.02 0.02 0.02 0.03 0.29 0.77 0.68 0.40 0.59 0.96 1.18 0.67 0.10 0.02 0.01 0.02 0.03 0.02 0.01 0.00 0.00 0.00 0.00 0.00 0.00 0.00 0.00 0.00 0.00 0.01 0.00
0.00 0.00 0.00 0.00 0.00 0.00 0.00 0.00 0.00 0.01 0.00 0.00 0.00 0.00 0.01 0.00 0.00 0.02 0.08 0.06 0.03 0.07 0.46 0.73 0.72 0.98 1.25 1.07 0.32 0.07 0.01 0.01 0.01 0.02 0.01 0.00 0.00 0.00 0.00 0.00 0.00 0.00 0.00 0.00 0.00 0.00 0.00 0.00 0.00
0.00 0.00 0.00 0.00 0.00 0.00 0.00 0.00 0.00 0.00 0.00 0.00 0.00 0.00 0.01 0.00 0.01 0.05 0.08 0.11 0.12 0.19 0.54 0.68 0.82 0.62 0.28 0.09 0.06 0.04 0.04 0.04 0.02 0.00 0.00 0.00 0.00 0.00 0.00 0.00 0.00 0.00 0.00 0.00 0.00 0.00 0.00 0.00 0.00
0.00 0.00 0.00 0.00 0.00 0.00 0.00 0.00 0.00 0.00 0.00 0.00 0.00 0.00 0.00 0.00 0.00 0.01 0.02 0.08 0.22 0.43 0.48 0.40 0.31 0.16 0.10 0.07 0.07 0.05 0.03 0.01 0.00 0.00 0.00 0.00 0.00 0.00 0.00 0.00 0.00 0.00 0.00 0.00 0.00 0.00 0.00 0.00 0.00
0.00 0.00 0.00 0.00 0.00 0.00 0.00 0.00 0.00 0.00 0.00 0.00 0.00 0.02 0.00 0.01 0.03 0.05 0.09 0.12 0.12 0.10 0.06 0.08 0.13 0.07 0.09 0.06 0.01 0.00 0.00 0.00 0.00 0.00 0.00 0.00 0.00 0.00 0.00 0.00 0.00 0.00 0.00 0.00 0.00 0.00 0.00 0.00 0.00
0.00 0.00 0.00 0.00 0.00 0.00 0.00 0.00 0.02 0.01 0.00 0.00 0.00 0.01 0.02 0.03 0.03 0.02 0.01 0.01 0.00 0.05 0.08 0.12 0.10 0.09 0.03 0.01 0.00 0.00 0.00 0.00 0.00 0.00 0.00 0.00 0.00 0.00 0.00 0.00 0.00 0.00 0.00 0.00 0.00 0.00 0.00 0.00 0.00
0.00 0.00 0.00 0.00 0.00 0.06 0.02 0.01 0.02 0.02 0.00 0.00 0.00 0.00 0.01 0.00 0.00 0.02 0.01 0.03 0.05 0.04 0.08 0.09 0.10 0.10 0.03 0.01 0.00 0.01 0.00 0.00 0.00 0.00 0.00 0.00 0.00 0.00 0.00 0.00 0.00 0.00 0.00 0.00 0.00 0.00 0.00 0.00 0.00
0.00 0.00 0.00 0.00 0.00 0.01 0.01 0.03 0.02 0.01 0.01 0.03 0.02 0.00 0.00 0.01 0.08 0.06 0.04 0.06 0.06 0.07 0.20 0.11 0.10 0.06 0.02 0.02 0.00 0.02 0.01 0.01 0.00 0.00 0.00 0.00 0.00 0.00 0.01 0.00 0.00 0.00 0.00 0.00 0.00 0.00 0.00 0.00 0.00
0.00 0.00 0.00 0.07 0.01 0.01 0.03 0.03 0.01 0.00 0.02 0.11 0.07 0.00 0.00 0.01 0.04 0.02 0.02 0.05 0.05 0.09 0.20 0.10 0.04 0.04 0.03 0.01 0.00 0.00 0.03 0.03 0.03 0.00 0.00 0.00 0.01 0.01 0.00 0.00 0.00 0.00 0.00 0.00 0.00 0.01 0.01 0.00 0.01
0.00 0.00 0.01 0.09 0.06 0.02 0.02 0.01 0.00 0.00 0.00 0.00 0.00 0.00 0.00 0.00 0.00 0.01 0.02 0.03 0.05 0.16 0.17 0.08 0.02 0.02 0.02 0.00 0.00 0.00 0.01 0.03 0.04 0.01 0.00 0.00 0.00 0.00 0.00 0.00 0.00 0.00 0.00 0.00 0.01 0.02 0.02 0.04 0.06
0.00 0.00 0.00 0.00 0.01 0.00 0.00 0.00 0.00 0.00 0.00 0.00 0.00 0.00 0.00 0.00 0.00 0.00 0.00 0.00 0.01 0.17 0.13 0.03 0.01 0.01 0.01 0.00 0.00 0.00 0.01 0.02 0.06 0.02 0.01 0.00 0.00 0.00 0.00 0.00 0.00 0.00 0.00 0.00 0.01 0.02 0.03 0.05 0.07
0.00 0.00 0.00 0.00 0.00 0.00 0.00 0.00 0.01 0.01 0.00 0.00 0.00 0.00 0.00 0.00 0.00 0.00 0.00 0.00 0.00 0.03 0.01 0.00 0.00 0.00 0.00 0.00 0.00 0.02 0.02 0.02 0.02 0.01 0.00 0.00 0.00 0.00 0.00 0.00 0.00 0.00 0.00 0.00 0.01 0.01 0.03 0.06 0.06
0.00 0.00 0.00 0.00 0.00 0.00 0.00 0.00 0.00 0.00 0.00 0.00 0.00 0.00 0.00 0.00 0.00 0.00 0.00 0.00 0.00 0.00 0.00 0.00 0.00 0.00 0.00 0.00 0.00 0.01 0.01 0.01 0.00 0.00 0.00 0.00 0.00 0.00 0.01 0.00 0.00 0.00 0.00 0.01 0.03 0.05 0.05 0.05 0.05
0.00 0.00 0.01 0.00 0.00 0.00 0.00 0.00 0.00 0.00 0.00 0.00 0.00 0.00 0.00 0.00 0.00 0.00 0.00 0.00 0.00 0.00 0.00 0.00 0.00 0.00 0.00 0.01 0.01 0.02 0.02 0.01 0.00 0.00 0.00 0.00 0.01 0.02 0.01 0.00 0.01 0.02 0.04 0.06 0.07 0.04 0.02 0.02 0.02

GFSSGP_prec_precacc_042.txt.gz
Total_Precipitation_Accumulation
0.00 0.00 0.00 0.00 0.00 0.00 0.00 0.00 0.00 0.11 0.09 0.04 0.07 0.09 0.12 0.15 0.31 0.54 0.42 0.47 0.19 0.27 0.06 0.06 0.15 0.01 0.01 0.03 0.03 0.04 0.05 0.02 0.03 0.03 0.01 0.01 0.02 0.04 0.02 0.00 0.00 0.00 0.00 0.00 0.00 0.00 0.00 0.00 0.01
0.00 0.00 0.00 0.00 0.00 0.00 0.00 0.00 0.02 0.09 0.15 0.14 0.12 0.10 0.12 0.20 0.23 0.40 0.42 0.46 0.30 0.16 0.05 0.05 0.15 0.08 0.05 0.07 0.06 0.02 0.02 0.02 0.02 0.03 0.03 0.01 0.01 0.01 0.00 0.00 0.00 0.00 0.00 0.00 0.00 0.00 0.00 0.00 0.00
0.00 0.00 0.00 0.00 0.00 0.00 0.00 0.02 0.04 0.08 0.14 0.10 0.08 0.06 0.15 0.32 0.36 0.53 0.42 0.56 0.41 0.14 0.07 0.11 0.13 0.19 0.22 0.20 0.12 0.04 0.04 0.01 0.01 0.02 0.02 0.00 0.00 0.00 0.00 0.00 0.00 0.00 0.00 0.00 0.00 0.00 0.00 0.00 0.00
0.00 0.00 0.00 0.00 0.00 0.00 0.00 0.01 0.10 0.03 0.09 0.11 0.07 0.07 0.13 0.24 0.23 0.21 0.27 0.65 0.79 0.59 0.31 0.21 0.19 0.42 0.45 0.31 0.11 0.02 0.01 0.00 0.00 0.00 0.00 0.00 0.00 0.00 0.00 0.00 0.00 0.00 0.00 0.00 0.00 0.00 0.00 0.00 0.00
0.00 0.00 0.00 0.00 0.00 0.00 0.00 0.00 0.01 0.06 0.14 0.13 0.11 0.04 0.08 0.10 0.14 0.27 0.56 0.90 1.45 1.29 0.94 0.36 0.47 0.64 0.52 0.27 0.04 0.00 0.00 0.00 0.00 0.00 0.00 0.00 0.00 0.00 0.00 0.00 0.00 0.00 0.00 0.00 0.00 0.00 0.00 0.00 0.00
0.00 0.00 0.00 0.00 0.00 0.00 0.02 0.02 0.06 0.19 0.28 0.29 0.17 0.25 0.20 0.26 0.28 0.42 1.20 1.60 2.00 1.51 1.69 0.95 1.08 0.95 0.63 0.14 0.00 0.00 0.00 0.00 0.00 0.00 0.00 0.00 0.00 0.00 0.00 0.00 0.00 0.00 0.00 0.00 0.00 0.00 0.00 0.00 0.00
0.00 0.00 0.00 0.00 0.00 0.00 0.01 0.10 0.30 0.42 0.21 0.11 0.04 0.16 0.22 0.36 0.29 0.31 0.92 3.08 3.84 4.25 4.39 3.62 1.94 0.94 0.34 0.01 0.00 0.00 0.00 0.00 0.00 0.00 0.00 0.00 0.00 0.00 0.00 0.00 0.00 0.00 0.00 0.00 0.00 0.00 0.00 0.00 0.00
0.00 0.00 0.00 0.00 0.00 0.02 0.08 0.17 0.18 0.19 0.20 0.14 0.06 0.25 0.23 0.40 0.33 0.58 0.87 2.38 3.69 6.70 6.35 4.33 2.39 0.80 0.10 0.01 0.00 0.00 0.00 0.00 0.00 0.00 0.00 0.00 0.00 0.00 0.00 0.00 0.00 0.00 0.00 0.00 0.00 0.00 0.00 0.00 0.00
0.00 0.00 0.00 0.00 0.01 0.04 0.09 0.13 0.19 0.21 0.04 0.03 0.05 0.14 0.32 0.62 0.54 0.60 0.83 1.63 3.15 3.85 3.91 3.92 2.18 0.66 0.08 0.01 0.00 0.00 0.00 0.00 0.00 0.00 0.00 0.00 0.00 0.00 0.00 0.00 0.00 0.00 0.00 0.00 0.00 0.00 0.00 0.00 0.00
0.00 0.00 0.00 0.00 0.01 0.08 0.25 0.29 0.27 0.13 0.12 0.08 0.18 0.43 0.59 0.51 0.48 0.38 0.74 1.09 1.73 1.81 2.47 1.68 0.87 0.28 0.08 0.02 0.00 0.00 0.00 0.00 0.00 0.00 0.00 0.02 0.00 0.00 0.00 0.00 0.00 0.00 0.00 0.00 0.00 0.00 0.00 0.00 0.00
0.00 0.00 0.00 0.00 0.01 0.08 0.09 0.02 0.01 0.04 0.08 0.16 0.30 0.57 0.60 0.44 0.38 0.26 0.33 0.69 0.65 0.42 0.31 0.30 0.31 0.09 0.03 0.00 0.00 0.00 0.00 0.00 0.01 0.04 0.05 0.05 0.02 0.02 0.02 0.04 0.00 0.01 0.00 0.00 0.00 0.00 0.00 0.00 0.00
0.00 0.00 0.00 0.00 0.00 0.01 0.01 0.01 0.00 0.05 0.43 0.25 0.40 0.22 0.30 0.23 0.20 0.22 0.27 0.25 0.12 0.09 0.03 0.05 0.06 0.01 0.00 0.00 0.00 0.00 0.00 0.02 0.08 0.09 0.05 0.06 0.05 0.05 0.01 0.01 0.00 0.00 0.00 0.00 0.00 0.00 0.00 0.00 0.00
0.00 0.00 0.00 0.00 0.03 0.02 0.07 0.04 0.01 0.05 0.01 0.12 0.15 0.07 0.10 0.13 0.10 0.11 0.12 0.11 0.00 0.01 0.01 0.02 0.01 0.00 0.00 0.00 0.00 0.01 0.03 0.07 0.11 0.05 0.04 0.03 0.01 0.02 0.01 0.00 0.00 0.00 0.00 0.00 0.00 0.00 0.00 0.00 0.00
0.00 0.00 0.00 0.00 0.02 0.01 0.04 0.02 0.03 0.06 0.04 0.03 0.04 0.05 0.03 0.05 0.02 0.03 0.01 0.00 0.00 0.00 0.06 0.11 0.07 0.01 0.00 0.00 0.03 0.04 0.11 0.10 0.08 0.09 0.19 0.14 0.02 0.00 0.00 0.00 0.00 0.00 0.00 0.00 0.00 0.00 0.00 0.00 0.00
0.00 0.00 0.00 0.00 0.01 0.01 0.03 0.01 0.01 0.01 0.02 0.00 0.00 0.00 0.02 0.08 0.03 0.01 0.00 0.00 0.00 0.00 0.02 0.51 0.67 0.10 0.05 0.02 0.10 0.22 0.22 0.09 0.05 0.15 0.26 0.14 0.02 0.00 0.00 0.00 0.00 0.00 0.00 0.00 0.00 0.00 0.00 0.00 0.00
0.00 0.00 0.00 0.00 0.00 0.00 0.01 0.01 0.03 0.01 0.00 0.00 0.00 0.00 0.03 0.04 0.02 0.01 0.00 0.01 0.01 0.02 0.17 1.10 0.97 0.20 0.16 0.13 0.25 0.55 0.35 0.13 0.09 0.10 0.10 0.04 0.01 0.01 0.00 0.00 0.00 0.00 0.00 0.00 0.00 0.00 0.00 0.00 0.00
0.00 0.00 0.00 0.00 0.00 0.00 0.00 0.00 0.01 0.02 0.00 0.00 0.00 0.00 0.00 0.00 0.02 0.00 0.02 0.02 0.02 0.03 0.29 0.77 0.68 0.40 0.59 0.96 1.18 0.67 0.13 0.06 0.03 0.04 0.04 0.02 0.01 0.00 0.00 0.00 0.00 0.00 0.00 0.00 0.00 0.00 0.00 0.01 0.00
0.00 0.00 0.00 0.00 0.00 0.00 0.00 0.00 0.00 0.01 0.00 0.00 0.00 0.00 0.01 0.00 0.00 0.02 0.08 0.06 0.03 0.07 0.46 0.73 0.72 0.98 1.25 1.07 0.32 0.07 0.03 0.04 0.02 0.02 0.01 0.00 0.00 0.00 0.00 0.00 0.00 0.00 0.00 0.00 0.00 0.00 0.00 0.00 0.00
0.00 0.00 0.00 0.00 0.00 0.00 0.00 0.00 0.00 0.00 0.00 0.00 0.00 0.00 0.01 0.00 0.01 0.05 0.08 0.11 0.12 0.19 0.54 0.68 0.82 0.62 0.28 0.09 0.06 0.04 0.04 0.05 0.02 0.00 0.00 0.00 0.00 0.00 0.00 0.00 0.00 0.00 0.00 0.00 0.00 0.00 0.00 0.00 0.00
0.00 0.00 0.00 0.00 0.00 0.00 0.00 0.00 0.00 0.00 0.00 0.00 0.00 0.00 0.00 0.00 0.00 0.01 0.02 0.08 0.22 0.43 0.48 0.40 0.31 0.16 0.10 0.07 0.07 0.05 0.03 0.01 0.00 0.00 0.00 0.00 0.00 0.00 0.00 0.00 0.00 0.00 0.00 0.00 0.00 0.00 0.00 0.00 0.00
0.00 0.00 0.00 0.00 0.00 0.00 0.00 0.00 0.00 0.00 0.00 0.00 0.00 0.02 0.00 0.01 0.03 0.05 0.09 0.12 0.12 0.10 0.06 0.08 0.13 0.07 0.09 0.06 0.01 0.00 0.00 0.00 0.00 0.00 0.00 0.00 0.00 0.00 0.00 0.00 0.00 0.00 0.00 0.00 0.00 0.00 0.00 0.00 0.00
0.00 0.00 0.00 0.00 0.00 0.00 0.00 0.00 0.02 0.01 0.00 0.00 0.00 0.01 0.02 0.03 0.03 0.02 0.01 0.01 0.00 0.05 0.08 0.12 0.10 0.09 0.03 0.01 0.00 0.00 0.00 0.00 0.00 0.00 0.00 0.00 0.00 0.00 0.00 0.00 0.00 0.00 0.00 0.00 0.00 0.00 0.00 0.00 0.00
0.00 0.00 0.00 0.00 0.00 0.06 0.02 0.01 0.02 0.02 0.00 0.00 0.00 0.00 0.01 0.00 0.00 0.02 0.01 0.03 0.05 0.04 0.08 0.09 0.10 0.13 0.04 0.02 0.00 0.01 0.01 0.00 0.00 0.00 0.00 0.00 0.00 0.00 0.00 0.00 0.00 0.00 0.00 0.00 0.00 0.00 0.00 0.00 0.00
0.00 0.00 0.00 0.00 0.00 0.01 0.01 0.03 0.02 0.01 0.01 0.03 0.02 0.00 0.00 0.01 0.08 0.06 0.04 0.06 0.06 0.07 0.20 0.11 0.10 0.08 0.07 0.04 0.01 0.04 0.07 0.06 0.03 0.03 0.01 0.00 0.00 0.00 0.01 0.00 0.00 0.00 0.00 0.00 0.00 0.01 0.00 0.00 0.00
0.00 0.00 0.00 0.07 0.01 0.01 0.03 0.03 0.01 0.00 0.02 0.11 0.07 0.00 0.00 0.01 0.04 0.02 0.02 0.05 0.05 0.09 0.20 0.10 0.04 0.05 0.04 0.03 0.03 0.03 0.10 0.07 0.07 0.04 0.02 0.01 0.01 0.01 0.00 0.00 0.00 0.00 0.01 0.02 0.02 0.02 0.01 0.00 0.01
0.00 0.00 0.01 0.09 0.06 0.02 0.02 0.01 0.00 0.00 0.00 0.00 0.00 0.00 0.00 0.00 0.00 0.01 0.02 0.04 0.07 0.17 0.18 0.08 0.03 0.05 0.04 0.01 0.02 0.01 0.05 0.08 0.11 0.07 0.04 0.01 0.00 0.00 0.00 0.00 0.00 0.02 0.05 0.04 0.01 0.02 0.02 0.04 0.06
0.00 0.00 0.00 0.00 0.01 0.00 0.00 0.00 0.00 0.00 0.00 0.00 0.00 0.00 0.00 0.00 0.00 0.00 0.01 0.00 0.02 0.23 0.16 0.04 0.02 0.01 0.02 0.02 0.01 0.01 0.04 0.10 0.22 0.10 0.03 0.01 0.00 0.00 0.00 0.01 0.04 0.05 0.01 0.00 0.01 0.02 0.03 0.05 0.07
0.00 0.00 0.00 0.00 0.00 0.00 0.00 0.00 0.01 0.01 0.00 0.00 0.00 0.00 0.00 0.00 0.00 0.00 0.00 0.00 0.01 0.06 0.03 0.00 0.00 0.00 0.00 0.00 0.04 0.07 0.10 0.12 0.11 0.08 0.03 0.02 0.01 0.01 0.01 0.02 0.01 0.00 0.00 0.00 0.01 0.01 0.03 0.06 0.06
0.00 0.00 0.00 0.00 0.00 0.00 0.00 0.00 0.00 0.00 0.00 0.00 0.00 0.00 0.00 0.00 0.00 0.00 0.00 0.00 0.00 0.00 0.00 0.00 0.00 0.00 0.00 0.00 0.01 0.06 0.08 0.09 0.09 0.06 0.03 0.01 0.00 0.01 0.01 0.00 0.00 0.00 0.00 0.01 0.03 0.05 0.05 0.05 0.05
0.00 0.00 0.01 0.00 0.00 0.00 0.00 0.00 0.00 0.00 0.00 0.00 0.00 0.00 0.00 0.00 0.00 0.00 0.00 0.00 0.00 0.00 0.00 0.01 0.01 0.02 0.03 0.07 0.08 0.13 0.11 0.08 0.04 0.03 0.01 0.00 0.01 0.02 0.01 0.00 0.01 0.02 0.04 0.06 0.07 0.04 0.02 0.02 0.02

GFSSGP_prec_precacc_045.txt.gz
Total_Precipitation_Accumulation
0.00 0.00 0.00 0.00 0.00 0.00 0.00 0.00 0.00 0.11 0.09 0.06 0.08 0.10 0.14 0.20 0.37 0.56 0.42 0.50 0.21 0.28 0.06 0.07 0.15 0.01 0.01 0.03 0.03 0.04 0.05 0.02 0.03 0.03 0.01 0.01 0.02 0.04 0.02 0.00 0.00 0.00 0.00 0.00 0.00 0.00 0.00 0.00 0.01
0.00 0.00 0.00 0.00 0.00 0.00 0.00 0.00 0.02 0.09 0.16 0.19 0.18 0.12 0.12 0.22 0.25 0.42 0.47 0.51 0.32 0.18 0.06 0.06 0.16 0.08 0.05 0.07 0.06 0.02 0.02 0.02 0.02 0.03 0.03 0.01 0.01 0.01 0.00 0.00 0.00 0.00 0.00 0.00 0.00 0.00 0.00 0.00 0.00
0.00 0.00 0.00 0.00 0.00 0.00 0.00 0.02 0.04 0.08 0.16 0.14 0.09 0.07 0.15 0.32 0.37 0.56 0.44 0.62 0.44 0.15 0.08 0.12 0.13 0.19 0.22 0.20 0.12 0.04 0.04 0.01 0.01 0.02 0.02 0.00 0.00 0.00 0.00 0.00 0.00 0.00 0.00 0.00 0.00 0.00 0.00 0.00 0.00
0.00 0.00 0.00 0.00 0.00 0.00 0.00 0.01 0.10 0.03 0.09 0.11 0.07 0.07 0.14 0.25 0.25 0.25 0.29 0.72 0.88 0.63 0.32 0.25 0.23 0.46 0.45 0.31 0.11 0.02 0.01 0.00 0.00 0.00 0.00 0.00 0.00 0.00 0.00 0.00 0.00 0.00 0.00 0.00 0.00 0.00 0.00 0.00 0.00
0.00 0.00 0.00 0.00 0.00 0.00 0.00 0.00 0.01 0.06 0.14 0.13 0.11 0.06 0.10 0.14 0.16 0.28 0.57 0.94 1.53 1.36 1.11 0.53 0.62 0.71 0.52 0.27 0.04 0.00 0.00 0.00 0.00 0.00 0.00 0.00 0.00 0.00 0.00 0.00 0.00 0.00 0.00 0.00 0.00 0.00 0.00 0.00 0.00
0.00 0.00 0.00 0.00 0.00 0.00 0.02 0.02 0.06 0.19 0.28 0.29 0.17 0.25 0.24 0.27 0.33 0.44 1.21 1.68 2.18 1.84 2.04 1.22 1.26 1.07 0.65 0.14 0.00 0.00 0.00 0.00 0.00 0.00 0.00 0.00 0.00 0.00 0.00 0.00 0.00 0.00 0.00 0.00 0.00 0.00 0.00 0.00 0.00
0.00 0.00 0.00 0.00 0.00 0.00 0.02 0.10 0.31 0.44 0.22 0.11 0.05 0.16 0.25 0.38 0.31 0.33 0.92 3.13 4.10 4.73 5.04 4.15 2.45 1.33 0.48 0.01 0.00 0.00 0.00 0.00 0.00 0.00 0.00 0.00 0.00 0.00 0.00 0.00 0.00 0.00 0.00 0.00 0.00 0.00 0.00 0.00 0.00
0.00 0.00 0.00 0.00 0.00 0.02 0.08 0.17 0.22 0.24 0.22 0.14 0.06 0.25 0.24 0.42 0.34 0.58 0.87 2.39 3.73 6.91 6.88 4.89 3.18 1.22 0.24 0.04 0.00 0.00 0.00 0.00 0.00 0.00 0.00 0.00 0.00 0.00 0.00 0.00 0.00 0.00 0.00 0.00 0.00 0.00 0.00 0.00 0.00
0.00 0.00 0.00 0.00 0.01 0.04 0.09 0.14 0.21 0.22 0.05 0.03 0.05 0.14 0.33 0.65 0.55 0.60 0.83 1.63 3.15 3.90 4.25 4.51 2.66 1.05 0.23 0.06 0.01 0.02 0.01 0.00 0.00 0.00 0.00 0.00 0.00 0.00 0.00 0.00 0.00 0.00 0.00 0.00 0.00 0.00 0.00 0.00 0.00
0.00 0.00 0.00 0.00 0.01 0.08 0.25 0.29 0.27 0.13 0.12 0.08 0.19 0.45 0.63 0.54 0.49 0.38 0.74 1.09 1.74 1.85 2.58 2.02 1.35 0.50 0.18 0.04 0.01 0.01 0.00 0.00 0.00 0.00 0.00 0.02 0.00 0.00 0.00 0.00 0.00 0.00 0.00 0.00 0.00 0.00 0.00 0.00 0.00
0.00 0.00 0.00 0.00 0.01 0.08 0.09 0.02 0.01 0.04 0.08 0.16 0.31 0.60 0.63 0.45 0.39 0.26 0.33 0.71 0.65 0.43 0.32 0.32 0.39 0.20 0.07 0.02 0.02 0.01 0.00 0.00 0.01 0.04 0.05 0.05 0.02 0.02 0.02 0.04 0.00 0.01 0.00 0.00 0.00 0.00 0.00 0.00 0.00
0.00 0.00 0.00 0.00 0.00 0.01 0.01 0.01 0.00 0.05 0.43 0.25 0.42 0.25 0.34 0.25 0.22 0.25 0.28 0.26 0.14 0.13 0.05 0.05 0.07 0.09 0.07 0.02 0.00 0.00 0.00 0.02 0.08 0.09 0.05 0.06 0.05 0.05 0.01 0.01 0.00 0.00 0.00 0.00 0.00 0.00 0.00 0.00 0.00
0.00 0.00 0.00 0.00 0.03 0.02 0.07 0.04 0.01 0.05 0.01 0.12 0.16 0.09 0.10 0.14 0.10 0.12 0.12 0.11 0.00 0.02 0.02 0.03 0.02 0.05 0.03 0.00 0.00 0.01 0.03 0.07 0.11 0.05 0.04 0.03 0.01 0.02 0.01 0.00 0.00 0.00 0.00 0.00 0.00 0.00 0.00 0.00 0.00
0.00 0.00 0.00 0.00 0.02 0.02 0.04 0.02 0.03 0.06 0.04 0.03 0.04 0.05 0.03 0.05 0.03 0.03 0.01 0.00 0.00 0.00 0.06 0.12 0.07 0.01 0.00 0.00 0.03 0.04 0.11 0.10 0.08 0.09 0.19 0.14 0.02 0.00 0.00 0.00 0.00 0.00 0.00 0.00 0.00 0.00 0.00 0.00 0.00
0.00 0.00 0.00 0.00 0.01 0.02 0.04 0.01 0.01 0.01 0.02 0.00 0.00 0.00 0.02 0.08 0.03 0.01 0.00 0.00 0.00 0.00 0.02 0.51 0.67 0.10 0.05 0.02 0.10 0.22 0.22 0.09 0.05 0.16 0.29 0.17 0.04 0.00 0.01 0.00 0.00 0.00 0.00 0.00 0.00 0.00 0.00 0.00 0.00
0.00 0.00 0.00 0.00 0.00 0.02 0.01 0.01 0.03 0.01 0.00 0.00 0.00 0.00 0.03 0.04 0.02 0.01 0.00 0.01 0.01 0.02 0.17 1.10 0.97 0.20 0.16 0.13 0.25 0.55 0.35 0.14 0.10 0.13 0.13 0.05 0.02 0.01 0.00 0.00 0.00 0.00 0.00 0.00 0.00 0.00 0.00 0.00 0.00
0.00 0.00 0.00 0.00 0.00 0.01 0.00 0.00 0.01 0.02 0.00 0.00 0.00 0.00 0.00 0.00 0.02 0.00 0.02 0.02 0.02 0.03 0.29 0.77 0.68 0.40 0.59 0.96 1.18 0.67 0.13 0.06 0.04 0.05 0.05 0.03 0.02 0.00 0.00 0.00 0.00 0.00 0.00 0.00 0.00 0.00 0.00 0.01 0.00
0.00 0.00 0.00 0.00 0.00 0.00 0.00 0.00 0.00 0.01 0.00 0.00 0.00 0.00 0.01 0.00 0.00 0.02 0.08 0.06 0.03 0.07 0.46 0.73 0.72 0.98 1.25 1.07 0.32 0.07 0.03 0.05 0.03 0.04 0.02 0.01 0.00 0.00 0.00 0.00 0.00 0.00 0.00 0.00 0.00 0.00 0.00 0.00 0.00
0.00 0.00 0.00 0.00 0.00 0.00 0.00 0.00 0.00 0.00 0.00 0.00 0.00 0.00 0.01 0.00 0.01 0.05 0.08 0.11 0.12 0.19 0.54 0.68 0.82 0.62 0.28 0.09 0.06 0.04 0.04 0.06 0.02 0.01 0.00 0.00 0.00 0.00 0.00 0.00 0.00 0.00 0.00 0.00 0.00 0.00 0.00 0.00 0.00
0.00 0.00 0.00 0.00 0.00 0.00 0.00 0.00 0.00 0.00 0.00 0.00 0.00 0.00 0.00 0.00 0.00 0.01 0.02 0.08 0.22 0.43 0.48 0.40 0.31 0.16 0.10 0.07 0.07 0.05 0.03 0.01 0.00 0.00 0.00 0.00 0.00 0.00 0.00 0.00 0.00 0.00 0.00 0.00 0.00 0.00 0.00 0.00 0.00
0.00 0.00 0.00 0.00 0.00 0.00 0.00 0.00 0.00 0.00 0.00 0.00 0.00 0.02 0.00 0.01 0.03 0.05 0.09 0.12 0.12 0.10 0.06 0.08 0.13 0.07 0.09 0.06 0.01 0.00 0.00 0.00 0.00 0.00 0.00 0.00 0.00 0.00 0.00 0.00 0.00 0.00 0.00 0.00 0.00 0.00 0.00 0.00 0.00
0.00 0.00 0.00 0.00 0.00 0.00 0.00 0.00 0.02 0.01 0.00 0.00 0.00 0.01 0.02 0.03 0.03 0.02 0.01 0.01 0.00 0.05 0.08 0.12 0.10 0.09 0.03 0.01 0.00 0.00 0.00 0.00 0.02 0.05 0.02 0.01 0.00 0.00 0.00 0.00 0.00 0.00 0.00 0.00 0.00 0.00 0.00 0.00 0.00
0.00 0.00 0.00 0.00 0.00 0.06 0.02 0.01 0.02 0.02 0.00 0.00 0.00 0.00 0.01 0.00 0.00 0.02 0.01 0.03 0.05 0.04 0.08 0.09 0.10 0.13 0.04 0.02 0.00 0.01 0.01 0.01 0.03 0.04 0.02 0.00 0.00 0.00 0.00 0.00 0.00 0.00 0.00 0.00 0.00 0.00 0.00 0.00 0.00
0.00 0.00 0.00 0.00 0.00 0.01 0.01 0.03 0.02 0.01 0.01 0.03 0.02 0.00 0.00 0.01 0.08 0.06 0.04 0.06 0.06 0.07 0.20 0.11 0.11 0.08 0.07 0.04 0.01 0.04 0.07 0.06 0.04 0.05 0.02 0.01 0.00 0.01 0.01 0.00 0.00 0.00 0.00 0.00 0.00 0.01 0.01 0.00 0.00
0.00 0.00 0.00 0.07 0.01 0.01 0.03 0.03 0.01 0.00 0.02 0.11 0.07 0.00 0.00 0.01 0.04 0.02 0.02 0.05 0.05 0.09 0.20 0.10 0.04 0.06 0.04 0.03 0.04 0.05 0.11 0.07 0.07 0.05 0.04 0.04 0.03 0.02 0.01 0.00 0.00 0.00 0.01 0.02 0.06 0.08 0.03 0.00 0.01
0.00 0.00 0.01 0.09 0.06 0.02 0.02 0.01 0.00 0.00 0.00 0.00 0.00 0.00 0.00 0.00 0.00 0.01 0.02 0.05 0.07 0.17 0.18 0.08 0.03 0.06 0.06 0.08 0.05 0.03 0.06 0.09 0.12 0.10 0.08 0.05 0.03 0.02 0.01 0.00 0.00 0.03 0.07 0.08 0.05 0.03 0.02 0.04 0.06
0.00 0.00 0.00 0.00 0.01 0.00 0.00 0.00 0.00 0.00 0.00 0.00 0.00 0.00 0.00 0.00 0.00 0.00 0.01 0.00 0.02 0.23 0.16 0.04 0.02 0.01 0.03 0.10 0.05 0.02 0.05 0.11 0.26 0.16 0.09 0.05 0.03 0.02 0.01 0.02 0.05 0.06 0.02 0.01 0.01 0.02 0.03 0.05 0.07
0.00 0.00 0.00 0.00 0.00 0.00 0.00 0.00 0.01 0.01 0.00 0.00 0.00 0.00 0.00 0.00 0.00 0.00 0.00 0.00 0.01 0.06 0.03 0.01 0.00 0.01 0.00 0.01 0.07 0.08 0.12 0.14 0.16 0.16 0.12 0.09 0.04 0.02 0.02 0.02 0.01 0.00 0.00 0.00 0.01 0.01 0.03 0.06 0.06
0.00 0.00 0.00 0.00 0.00 0.00 0.00 0.00 0.00 0.00 0.00 0.00 0.00 0.00 0.00 0.00 0.00 0.00 0.00 0.00 0.00 0.00 0.00 0.00 0.00 0.01 0.01 0.01 0.03 0.07 0.12 0.17 0.22 0.19 0.13 0.06 0.03 0.02 0.01 0.01 0.00 0.00 0.01 0.01 0.03 0.05 0.05 0.05 0.05
0.00 0.00 0.01 0.00 0.00 0.00 0.00 0.00 0.00 0.00 0.00 0.00 0.00 0.00 0.00 0.00 0.00 0.00 0.00 0.00 0.00 0.00 0.00 0.01 0.01 0.03 0.05 0.09 0.12 0.19 0.20 0.20 0.16 0.13 0.08 0.04 0.03 0.03 0.02 0.01 0.02 0.03 0.05 0.06 0.07 0.04 0.03 0.02 0.02

GFSSGP_prec_precacc_048.txt.gz
Total_Precipitation_Accumulation
0.00 0.00 0.00 0.00 0.00 0.00 0.00 0.00 0.00 0.11 0.09 0.06 0.08 0.10 0.15 0.21 0.42 0.61 0.43 0.51 0.22 0.29 0.09 0.08 0.16 0.01 0.01 0.03 0.03 0.04 0.05 0.02 0.03 0.03 0.01 0.01 0.02 0.04 0.02 0.00 0.00 0.00 0.00 0.00 0.00 0.00 0.00 0.00 0.01
0.00 0.00 0.00 0.00 0.00 0.00 0.00 0.00 0.02 0.09 0.16 0.20 0.22 0.13 0.15 0.25 0.27 0.44 0.50 0.53 0.34 0.19 0.09 0.07 0.16 0.08 0.05 0.07 0.06 0.02 0.02 0.02 0.02 0.03 0.03 0.01 0.01 0.01 0.00 0.00 0.00 0.00 0.00 0.00 0.00 0.00 0.00 0.00 0.00
0.00 0.00 0.00 0.00 0.00 0.00 0.00 0.02 0.04 0.08 0.16 0.15 0.09 0.08 0.17 0.36 0.40 0.59 0.46 0.67 0.47 0.17 0.10 0.13 0.13 0.19 0.22 0.20 0.12 0.04 0.04 0.01 0.01 0.02 0.02 0.00 0.00 0.00 0.00 0.00 0.00 0.00 0.00 0.00 0.00 0.00 0.00 0.00 0.00
0.00 0.00 0.00 0.00 0.00 0.00 0.00 0.01 0.10 0.03 0.09 0.11 0.07 0.07 0.15 0.27 0.30 0.27 0.31 0.76 0.90 0.65 0.36 0.27 0.24 0.47 0.45 0.31 0.11 0.02 0.01 0.00 0.00 0.00 0.00 0.00 0.00 0.00 0.00 0.00 0.00 0.00 0.00 0.00 0.00 0.00 0.00 0.00 0.00
0.00 0.00 0.00 0.00 0.00 0.00 0.00 0.00 0.01 0.06 0.14 0.13 0.11 0.06 0.11 0.17 0.19 0.30 0.59 1.00 1.58 1.41 1.23 0.63 0.71 0.79 0.53 0.27 0.04 0.00 0.00 0.00 0.00 0.00 0.00 0.00 0.00 0.00 0.00 0.00 0.00 0.00 0.00 0.00 0.00 0.00 0.00 0.00 0.00
0.00 0.00 0.00 0.00 0.00 0.00 0.02 0.02 0.06 0.19 0.28 0.29 0.17 0.25 0.25 0.27 0.34 0.45 1.24 1.72 2.40 2.21 2.29 1.40 1.38 1.14 0.69 0.16 0.00 0.00 0.00 0.00 0.00 0.00 0.00 0.00 0.00 0.00 0.00 0.00 0.00 0.00 0.00 0.00 0.00 0.00 0.00 0.00 0.00
0.00 0.00 0.00 0.00 0.00 0.00 0.02 0.10 0.31 0.44 0.22 0.11 0.05 0.16 0.28 0.39 0.31 0.33 0.95 3.18 4.26 5.36 5.75 4.41 2.55 1.40 0.54 0.08 0.02 0.00 0.00 0.00 0.00 0.00 0.00 0.00 0.00 0.00 0.00 0.00 0.00 0.00 0.00 0.00 0.00 0.00 0.00 0.00 0.00
0.00 0.00 0.00 0.00 0.00 0.02 0.08 0.17 0.22 0.24 0.22 0.14 0.06 0.29 0.26 0.44 0.34 0.59 0.88 2.41 3.82 7.32 7.84 5.18 3.42 1.54 0.37 0.10 0.04 0.00 0.00 0.00 0.00 0.00 0.00 0.00 0.00 0.00 0.00 0.00 0.00 0.00 0.00 0.00 0.00 0.00 0.00 0.00 0.00
0.00 0.00 0.00 0.00 0.01 0.04 0.09 0.14 0.21 0.22 0.05 0.03 0.05 0.15 0.33 0.66 0.55 0.60 0.83 1.65 3.20 4.05 4.56 4.71 2.84 1.38 0.47 0.19 0.12 0.04 0.01 0.00 0.00 0.00 0.00 0.00 0.00 0.00 0.00 0.00 0.00 0.00 0.00 0.00 0.00 0.00 0.00 0.00 0.00
0.00 0.00 0.00 0.00 0.01 0.08 0.27 0.30 0.27 0.13 0.12 0.08 0.20 0.47 0.66 0.58 0.49 0.39 0.75 1.09 1.75 1.87 2.67 2.19 1.47 0.68 0.35 0.18 0.14 0.02 0.00 0.00 0.00 0.00 0.00 0.02 0.00 0.00 0.00 0.00 0.00 0.00 0.00 0.00 0.00 0.00 0.00 0.00 0.00
0.00 0.00 0.00 0.00 0.01 0.08 0.10 0.02 0.01 0.04 0.08 0.16 0.32 0.65 0.70 0.51 0.40 0.27 0.33 0.71 0.66 0.46 0.44 0.56 0.59 0.36 0.23 0.09 0.07 0.01 0.00 0.00 0.01 0.04 0.05 0.05 0.02 0.02 0.02 0.04 0.00 0.01 0.00 0.00 0.00 0.00 0.00 0.00 0.00
0.00 0.00 0.00 0.00 0.00 0.01 0.01 0.01 0.00 0.05 0.43 0.25 0.43 0.33 0.43 0.28 0.22 0.25 0.29 0.27 0.18 0.18 0.15 0.21 0.17 0.22 0.11 0.06 0.04 0.04 0.02 0.02 0.08 0.09 0.05 0.06 0.05 0.05 0.01 0.01 0.00 0.00 0.00 0.00 0.00 0.00 0.00 0.00 0.00
0.00 0.00 0.00 0.00 0.03 0.02 0.07 0.04 0.01 0.05 0.01 0.12 0.18 0.14 0.13 0.14 0.11 0.12 0.12 0.12 0.02 0.10 0.06 0.10 0.05 0.07 0.07 0.04 0.03 0.03 0.03 0.07 0.11 0.05 0.04 0.03 0.01 0.02 0.01 0.00 0.00 0.00 0.00 0.00 0.00 0.00 0.00 0.00 0.00
0.00 0.00 0.00 0.00 0.02 0.02 0.04 0.02 0.03 0.06 0.04 0.03 0.05 0.06 0.04 0.06 0.03 0.03 0.02 0.00 0.00 0.01 0.07 0.14 0.11 0.03 0.03 0.02 0.05 0.05 0.11 0.10 0.08 0.09 0.19 0.14 0.02 0.00 0.00 0.00 0.00 0.00 0.00 0.00 0.00 0.00 0.00 0.00 0.00
0.00 0.00 0.00 0.00 0.01 0.02 0.04 0.01 0.01 0.01 0.02 0.00 0.00 0.00 0.02 0.08 0.03 0.01 0.00 0.00 0.00 0.00 0.02 0.51 0.69 0.14 0.09 0.02 0.10 0.22 0.22 0.09 0.05 0.16 0.29 0.18 0.04 0.00 0.01 0.00 0.00 0.00 0.00 0.00 0.00 0.00 0.00 0.00 0.00
0.00 0.00 0.00 0.00 0.00 0.02 0.01 0.01 0.03 0.01 0.00 0.00 0.00 0.00 0.03 0.04 0.02 0.01 0.00 0.01 0.01 0.02 0.17 1.10 0.98 0.22 0.18 0.13 0.25 0.55 0.35 0.14 0.10 0.13 0.13 0.06 0.02 0.01 0.01 0.00 0.00 0.00 0.00 0.00 0.00 0.00 0.00 0.00 0.00
0.00 0.00 0.00 0.00 0.00 0.01 0.00 0.00 0.01 0.02 0.00 0.00 0.00 0.00 0.00 0.00 0.02 0.00 0.02 0.02 0.02 0.03 0.29 0.77 0.68 0.40 0.59 0.96 1.18 0.67 0.13 0.06 0.04 0.06 0.06 0.04 0.03 0.03 0.01 0.00 0.00 0.00 0.00 0.00 0.00 0.00 0.00 0.01 0.00
0.00 0.00 0.00 0.00 0.00 0.00 0.00 0.00 0.00 0.01 0.00 0.00 0.00 0.00 0.01 0.00 0.00 0.02 0.08 0.06 0.03 0.07 0.46 0.73 0.72 0.98 1.26 1.07 0.32 0.07 0.03 0.05 0.03 0.04 0.02 0.01 0.02 0.01 0.00 0.00 0.00 0.00 0.00 0.00 0.00 0.00 0.00 0.00 0.00
0.00 0.00 0.00 0.00 0.00 0.00 0.00 0.00 0.00 0.00 0.00 0.00 0.00 0.00 0.01 0.00 0.01 0.05 0.08 0.11 0.12 0.19 0.54 0.68 0.82 0.63 0.31 0.10 0.06 0.04 0.04 0.06 0.03 0.01 0.00 0.00 0.01 0.00 0.00 0.00 0.00 0.00 0.00 0.00 0.00 0.00 0.00 0.00 0.00
0.00 0.00 0.00 0.00 0.00 0.00 0.00 0.00 0.00 0.00 0.00 0.00 0.00 0.00 0.00 0.00 0.00 0.01 0.02 0.08 0.22 0.43 0.48 0.40 0.31 0.16 0.10 0.07 0.07 0.05 0.03 0.01 0.00 0.00 0.00 0.00 0.00 0.00 0.00 0.00 0.00 0.00 0.00 0.00 0.00 0.00 0.00 0.00 0.00
0.00 0.00 0.00 0.00 0.00 0.00 0.00 0.00 0.00 0.00 0.00 0.00 0.00 0.02 0.00 0.01 0.03 0.05 0.09 0.12 0.12 0.10 0.06 0.08 0.13 0.07 0.09 0.06 0.01 0.00 0.00 0.00 0.00 0.01 0.02 0.01 0.00 0.00 0.00 0.00 0.00 0.00 0.00 0.00 0.00 0.00 0.00 0.00 0.00
0.00 0.00 0.00 0.00 0.00 0.00 0.00 0.00 0.02 0.01 0.00 0.00 0.00 0.01 0.02 0.03 0.03 0.02 0.01 0.01 0.00 0.05 0.08 0.12 0.10 0.09 0.03 0.01 0.00 0.00 0.00 0.00 0.02 0.06 0.03 0.02 0.00 0.00 0.00 0.00 0.00 0.00 0.00 0.00 0.00 0.00 0.00 0.00 0.00
0.00 0.00 0.00 0.00 0.00 0.06 0.02 0.01 0.02 0.02 0.00 0.00 0.00 0.00 0.01 0.00 0.00 0.02 0.01 0.03 0.05 0.04 0.08 0.09 0.10 0.13 0.04 0.02 0.00 0.01 0.01 0.01 0.03 0.04 0.04 0.02 0.01 0.00 0.00 0.00 0.00 0.00 0.00 0.00 0.00 0.00 0.00 0.00 0.00
0.00 0.00 0.00 0.00 0.00 0.01 0.01 0.03 0.02 0.01 0.01 0.03 0.02 0.00 0.00 0.01 0.08 0.06 0.04 0.06 0.06 0.07 0.20 0.11 0.11 0.08 0.07 0.04 0.01 0.04 0.07 0.07 0.04 0.05 0.03 0.02 0.02 0.02 0.01 0.00 0.00 0.00 0.00 0.00 0.00 0.01 0.01 0.01 0.00
0.00 0.00 0.00 0.07 0.02 0.01 0.03 0.03 0.01 0.00 0.02 0.11 0.07 0.00 0.00 0.01 0.04 0.02 0.02 0.05 0.05 0.09 0.20 0.10 0.04 0.06 0.04 0.03 0.06 0.10 0.15 0.10 0.08 0.06 0.05 0.05 0.04 0.04 0.02 0.01 0.00 0.01 0.01 0.02 0.06 0.08 0.04 0.01 0.01
0.00 0.00 0.01 0.09 0.06 0.02 0.02 0.01 0.00 0.00 0.00 0.00 0.00 0.00 0.00 0.00 0.00 0.01 0.02 0.05 0.07 0.17 0.18 0.08 0.03 0.06 0.06 0.09 0.06 0.08 0.14 0.12 0.13 0.11 0.08 0.06 0.04 0.03 0.02 0.01 0.01 0.04 0.07 0.08 0.05 0.03 0.02 0.04 0.06
0.00 0.00 0.00 0.00 0.01 0.00 0.00 0.00 0.00 0.00 0.00 0.00 0.00 0.00 0.00 0.00 0.00 0.00 0.01 0.00 0.02 0.23 0.17 0.04 0.02 0.01 0.03 0.12 0.11 0.06 0.16 0.16 0.28 0.17 0.09 0.07 0.07 0.06 0.04 0.03 0.05 0.06 0.02 0.01 0.01 0.02 0.04 0.06 0.07
0.00 0.00 0.00 0.00 0.00 0.00 0.00 0.00 0.01 0.01 0.00 0.00 0.00 0.00 0.00 0.00 0.00 0.00 0.00 0.00 0.01 0.06 0.05 0.01 0.00 0.01 0.00 0.01 0.07 0.09 0.12 0.15 0.18 0.18 0.14 0.15 0.10 0.06 0.04 0.03 0.01 0.00 0.01 0.01 0.01 0.02 0.05 0.08 0.07
0.00 0.00 0.00 0.00 0.00 0.00 0.00 0.00 0.00 0.00 0.00 0.00 0.00 0.00 0.00 0.00 0.00 0.00 0.00 0.00 0.00 0.00 0.00 0.00 0.01 0.01 0.01 0.01 0.03 0.07 0.13 0.18 0.23 0.23 0.18 0.12 0.07 0.04 0.03 0.01 0.01 0.01 0.01 0.03 0.06 0.10 0.08 0.07 0.08
0.00 0.00 0.01 0.00 0.00 0.00 0.00 0.00 0.00 0.00 0.00 0.00 0.00 0.00 0.00 0.00 0.00 0.00 0.00 0.00 0.00 0.00 0.00 0.01 0.01 0.03 0.05 0.09 0.12 0.19 0.20 0.21 0.17 0.16 0.13 0.10 0.08 0.06 0.03 0.03 0.05 0.07 0.07 0.10 0.13 0.10 0.09 0.06 0.02

GFSSGP_prec_precacc_051.txt.gz
Total_Precipitation_Accumulation
0.00 0.00 0.00 0.00 0.00 0.00 0.00 0.00 0.00 0.11 0.09 0.06 0.08 0.10 0.16 0.32 0.62 0.74 0.51 0.52 0.23 0.35 0.18 0.08 0.16 0.02 0.01 0.03 0.03 0.04 0.05 0.02 0.03 0.03 0.01 0.01 0.02 0.04 0.02 0.00 0.00 0.00 0.01 0.00 0.00 0.00 0.00 0.00 0.01
0.00 0.00 0.00 0.00 0.00 0.00 0.00 0.00 0.02 0.09 0.16 0.20 0.22 0.13 0.16 0.35 0.33 0.47 0.54 0.56 0.41 0.25 0.22 0.10 0.16 0.09 0.05 0.07 0.06 0.02 0.02 0.02 0.02 0.03 0.03 0.01 0.01 0.01 0.00 0.00 0.00 0.00 0.00 0.00 0.00 0.00 0.00 0.00 0.00
0.00 0.00 0.00 0.00 0.00 0.00 0.00 0.02 0.04 0.08 0.16 0.15 0.09 0.08 0.19 0.40 0.40 0.59 0.47 0.88 0.82 0.35 0.29 0.14 0.14 0.20 0.22 0.20 0.12 0.04 0.04 0.01 0.01 0.02 0.02 0.00 0.00 0.00 0.00 0.00 0.00 0.00 0.00 0.00 0.00 0.00 0.00 0.00 0.00
0.00 0.00 0.00 0.00 0.00 0.00 0.00 0.01 0.10 0.03 0.09 0.11 0.07 0.07 0.15 0.28 0.30 0.28 0.32 0.78 1.11 0.83 0.42 0.28 0.24 0.47 0.45 0.31 0.11 0.02 0.01 0.00 0.00 0.00 0.00 0.00 0.00 0.00 0.00 0.00 0.00 0.00 0.00 0.00 0.00 0.00 0.00 0.00 0.00
0.00 0.00 0.00 0.00 0.00 0.00 0.00 0.00 0.01 0.06 0.14 0.13 0.11 0.06 0.11 0.19 0.20 0.30 0.60 1.12 1.70 1.55 1.35 0.65 0.73 0.80 0.53 0.27 0.04 0.00 0.00 0.00 0.00 0.00 0.00 0.00 0.00 0.00 0.00 0.00 0.00 0.00 0.00 0.00 0.00 0.00 0.00 0.00 0.00
0.00 0.00 0.00 0.00 0.00 0.00 0.02 0.02 0.06 0.19 0.28 0.29 0.17 0.26 0.27 0.28 0.36 0.47 1.27 1.75 2.58 2.46 2.59 1.56 1.51 1.19 0.70 0.16 0.01 0.00 0.00 0.00 0.00 0.00 0.00 0.00 0.00 0.00 0.00 0.00 0.00 0.00 0.00 0.00 0.00 0.00 0.00 0.00 0.00
0.00 0.00 0.00 0.00 0.00 0.00 0.02 0.10 0.31 0.44 0.22 0.11 0.05 0.21 0.30 0.40 0.32 0.34 1.02 3.22 4.41 5.70 6.37 4.63 2.71 1.51 0.59 0.08 0.03 0.01 0.00 0.00 0.00 0.00 0.00 0.00 0.00 0.00 0.00 0.00 0.00 0.00 0.00 0.00 0.00 0.00 0.00 0.00 0.00
0.00 0.00 0.00 0.00 0.00 0.02 0.08 0.17 0.22 0.24 0.22 0.14 0.06 0.32 0.31 0.44 0.35 0.60 0.90 2.44 3.97 7.64 8.50 5.68 3.71 1.69 0.45 0.13 0.05 0.04 0.02 0.00 0.00 0.00 0.00 0.00 0.00 0.00 0.00 0.00 0.00 0.00 0.00 0.00 0.00 0.00 0.00 0.00 0.00
0.00 0.00 0.00 0.00 0.01 0.04 0.09 0.14 0.21 0.22 0.05 0.03 0.05 0.17 0.42 0.68 0.56 0.62 0.88 1.67 3.34 4.27 4.67 5.16 3.38 1.71 0.56 0.24 0.18 0.10 0.02 0.00 0.00 0.00 0.00 0.00 0.00 0.00 0.00 0.00 0.00 0.00 0.00 0.00 0.00 0.00 0.00 0.00 0.00
0.00 0.00 0.00 0.00 0.01 0.08 0.27 0.30 0.27 0.13 0.12 0.08 0.23 0.50 0.72 0.69 0.53 0.39 0.76 1.13 1.81 2.03 2.78 2.29 1.62 0.80 0.41 0.27 0.24 0.13 0.02 0.00 0.00 0.00 0.00 0.02 0.00 0.00 0.00 0.00 0.00 0.00 0.00 0.00 0.00 0.00 0.00 0.00 0.00
0.00 0.00 0.00 0.00 0.01 0.08 0.10 0.02 0.01 0.04 0.09 0.17 0.37 0.73 0.85 0.66 0.48 0.27 0.33 0.71 0.69 0.51 0.50 0.61 0.67 0.44 0.30 0.18 0.19 0.12 0.02 0.00 0.01 0.04 0.05 0.05 0.02 0.02 0.02 0.04 0.00 0.01 0.00 0.00 0.00 0.00 0.00 0.00 0.00
0.00 0.00 0.00 0.00 0.00 0.01 0.01 0.01 0.00 0.05 0.44 0.25 0.46 0.41 0.54 0.31 0.22 0.25 0.29 0.27 0.19 0.24 0.20 0.32 0.28 0.38 0.35 0.29 0.22 0.11 0.03 0.02 0.08 0.09 0.05 0.06 0.05 0.05 0.01 0.01 0.00 0.00 0.00 0.00 0.00 0.00 0.00 0.00 0.00
0.00 0.00 0.00 0.00 0.03 0.02 0.07 0.04 0.01 0.05 0.02 0.12 0.19 0.19 0.21 0.16 0.11 0.12 0.13 0.14 0.07 0.16 0.15 0.20 0.20 0.23 0.18 0.14 0.09 0.06 0.04 0.07 0.12 0.06 0.04 0.03 0.01 0.02 0.01 0.00 0.00 0.00 0.00 0.00 0.00 0.00 0.00 0.00 0.00
0.00 0.00 0.00 0.00 0.02 0.02 0.04 0.02 0.03 0.06 0.04 0.03 0.06 0.07 0.05 0.06 0.03 0.03 0.02 0.01 0.07 0.12 0.24 0.26 0.27 0.16 0.10 0.04 0.06 0.06 0.11 0.10 0.09 0.09 0.19 0.14 0.02 0.00 0.00 0.00 0.00 0.00 0.00 0.00 0.00 0.00 0.00 0.00 0.00
0.00 0.00 0.00 0.00 0.01 0.02 0.04 0.07 0.02 0.01 0.02 0.00 0.00 0.00 0.02 0.08 0.04 0.01 0.00 0.00 0.01 0.04 0.06 0.55 0.71 0.16 0.11 0.03 0.11 0.23 0.23 0.09 0.05 0.16 0.29 0.18 0.04 0.00 0.01 0.00 0.00 0.00 0.00 0.00 0.00 0.00 0.00 0.00 0.00
0.00 0.00 0.00 0.01 0.00 0.02 0.03 0.30 0.04 0.01 0.00 0.00 0.00 0.00 0.03 0.04 0.02 0.01 0.00 0.01 0.01 0.02 0.17 1.11 0.98 0.22 0.20 0.14 0.26 0.56 0.36 0.14 0.10 0.13 0.14 0.06 0.03 0.02 0.01 0.00 0.00 0.00 0.00 0.00 0.00 0.00 0.00 0.00 0.00
0.00 0.00 0.00 0.00 0.00 0.01 0.01 0.07 0.01 0.02 0.00 0.00 0.00 0.00 0.00 0.00 0.02 0.00 0.02 0.02 0.02 0.03 0.29 0.78 0.70 0.42 0.61 0.97 1.18 0.67 0.13 0.06 0.05 0.08 0.10 0.06 0.05 0.05 0.02 0.00 0.00 0.00 0.00 0.00 0.00 0.00 0.00 0.01 0.00
0.00 0.00 0.00 0.00 0.00 0.00 0.00 0.01 0.01 0.01 0.00 0.00 0.00 0.00 0.01 0.00 0.00 0.02 0.08 0.06 0.03 0.07 0.46 0.73 0.72 1.00 1.29 1.09 0.32 0.07 0.03 0.05 0.05 0.08 0.05 0.04 0.04 0.01 0.00 0.00 0.00 0.00 0.00 0.00 0.00 0.00 0.00 0.00 0.00
0.00 0.00 0.00 0.00 0.00 0.00 0.00 0.00 0.00 0.00 0.00 0.00 0.00 0.00 0.01 0.00 0.01 0.05 0.08 0.11 0.12 0.19 0.54 0.68 0.82 0.64 0.36 0.11 0.06 0.04 0.04 0.06 0.03 0.04 0.01 0.02 0.02 0.00 0.00 0.00 0.00 0.00 0.00 0.00 0.00 0.00 0.00 0.00 0.00
0.00 0.00 0.00 0.00 0.00 0.00 0.00 0.00 0.00 0.00 0.00 0.00 0.00 0.00 0.00 0.00 0.00 0.01 0.02 0.08 0.22 0.43 0.48 0.40 0.31 0.17 0.16 0.10 0.07 0.05 0.03 0.01 0.00 0.01 0.02 0.02 0.03 0.00 0.00 0.00 0.00 0.00 0.00 0.00 0.00 0.00 0.00 0.00 0.00
0.00 0.00 0.00 0.00 0.00 0.00 0.00 0.00 0.00 0.00 0.00 0.00 0.00 0.02 0.00 0.01 0.03 0.05 0.09 0.12 0.12 0.10 0.06 0.08 0.13 0.08 0.12 0.06 0.01 0.00 0.00 0.00 0.00 0.01 0.03 0.03 0.01 0.00 0.00 0.00 0.00 0.00 0.00 0.00 0.00 0.00 0.00 0.00 0.00
0.00 0.00 0.00 0.00 0.00 0.00 0.00 0.00 0.02 0.01 0.00 0.00 0.00 0.01 0.02 0.03 0.03 0.02 0.01 0.01 0.00 0.05 0.08 0.12 0.10 0.09 0.03 0.01 0.00 0.00 0.00 0.00 0.02 0.06 0.03 0.03 0.03 0.02 0.00 0.00 0.00 0.00 0.00 0.00 0.00 0.00 0.00 0.00 0.00
0.00 0.00 0.00 0.00 0.00 0.06 0.02 0.01 0.02 0.02 0.00 0.00 0.00 0.00 0.01 0.00 0.00 0.02 0.01 0.03 0.05 0.04 0.08 0.09 0.10 0.13 0.04 0.02 0.00 0.01 0.01 0.01 0.03 0.04 0.05 0.03 0.01 0.01 0.01 0.01 0.01 0.00 0.00 0.00 0.00 0.00 0.00 0.00 0.00
0.00 0.00 0.00 0.00 0.00 0.01 0.01 0.03 0.02 0.01 0.01 0.03 0.02 0.00 0.00 0.01 0.08 0.06 0.04 0.06 0.06 0.07 0.20 0.11 0.11 0.08 0.07 0.04 0.01 0.04 0.07 0.07 0.04 0.05 0.04 0.03 0.02 0.02 0.02 0.02 0.01 0.01 0.00 0.00 0.00 0.01 0.01 0.01 0.00
0.00 0.00 0.01 0.09 0.02 0.01 0.03 0.03 0.01 0.01 0.02 0.11 0.07 0.00 0.00 0.01 0.04 0.02 0.02 0.05 0.05 0.09 0.20 0.10 0.04 0.06 0.04 0.03 0.06 0.10 0.15 0.10 0.08 0.06 0.05 0.05 0.04 0.04 0.03 0.03 0.02 0.01 0.01 0.02 0.06 0.08 0.04 0.01 0.01
0.00 0.00 0.01 0.14 0.08 0.03 0.03 0.01 0.00 0.00 0.00 0.00 0.00 0.00 0.00 0.00 0.00 0.01 0.02 0.05 0.07 0.17 0.18 0.08 0.03 0.06 0.06 0.12 0.16 0.14 0.15 0.12 0.13 0.11 0.08 0.06 0.05 0.04 0.03 0.02 0.02 0.04 0.07 0.08 0.05 0.03 0.03 0.04 0.06
0.00 0.00 0.00 0.01 0.02 0.00 0.01 0.00 0.00 0.00 0.00 0.00 0.00 0.00 0.00 0.00 0.00 0.00 0.01 0.00 0.02 0.23 0.17 0.04 0.02 0.01 0.03 0.15 0.22 0.13 0.21 0.17 0.28 0.17 0.10 0.09 0.12 0.08 0.05 0.05 0.06 0.06 0.02 0.02 0.03 0.05 0.05 0.06 0.08
0.00 0.00 0.00 0.00 0.02 0.01 0.00 0.00 0.01 0.01 0.00 0.00 0.00 0.00 0.00 0.00 0.00 0.00 0.00 0.00 0.01 0.06 0.05 0.01 0.00 0.01 0.00 0.01 0.07 0.09 0.12 0.17 0.19 0.19 0.19 0.22 0.16 0.09 0.06 0.04 0.02 0.01 0.02 0.02 0.01 0.02 0.05 0.12 0.11
0.00 0.00 0.00 0.00 0.00 0.01 0.00 0.00 0.00 0.00 0.00 0.00 0.00 0.00 0.00 0.00 0.00 0.00 0.00 0.00 0.00 0.00 0.00 0.00 0.01 0.01 0.01 0.01 0.03 0.07 0.14 0.18 0.24 0.24 0.23 0.16 0.09 0.06 0.04 0.03 0.02 0.01 0.02 0.04 0.08 0.13 0.11 0.11 0.15
0.00 0.00 0.01 0.00 0.00 0.00 0.00 0.00 0.00 0.00 0.00 0.00 0.00 0.00 0.00 0.00 0.00 0.00 0.00 0.00 0.00 0.00 0.00 0.01 0.01 0.03 0.05 0.09 0.12 0.20 0.21 0.21 0.18 0.17 0.14 0.10 0.09 0.07 0.04 0.05 0.10 0.12 0.17 0.24 0.26 0.16 0.13 0.13 0.10

GFSSGP_prec_precacc_054.txt.gz
Total_Precipitation_Accumulation
0.00 0.00 0.00 0.00 0.00 0.00 0.00 0.00 0.00 0.11 0.09 0.06 0.13 0.18 0.23 0.35 0.62 0.76 0.63 1.12 1.05 0.64 0.19 0.09 0.17 0.02 0.02 0.04 0.03 0.04 0.05 0.02 0.03 0.03 0.01 0.01 0.02 0.04 0.02 0.00 0.00 0.00 0.01 0.00 0.00 0.00 0.00 0.00 0.01
0.00 0.00 0.00 0.00 0.00 0.00 0.00 0.00 0.02 0.09 0.16 0.24 0.26 0.18 0.17 0.55 0.45 0.48 0.60 0.70 0.61 0.42 0.23 0.14 0.21 0.10 0.07 0.07 0.06 0.02 0.02 0.02 0.02 0.03 0.03 0.01 0.01 0.01 0.00 0.00 0.00 0.01 0.00 0.00 0.00 0.00 0.00 0.00 0.00
0.00 0.00 0.00 0.00 0.00 0.00 0.00 0.02 0.04 0.08 0.16 0.15 0.09 0.08 0.28 0.97 0.69 0.69 0.48 0.90 0.94 0.48 0.34 0.28 0.46 0.24 0.23 0.20 0.12 0.04 0.04 0.01 0.01 0.02 0.02 0.00 0.00 0.00 0.00 0.00 0.01 0.01 0.00 0.00 0.00 0.00 0.00 0.00 0.00
0.00 0.00 0.00 0.00 0.00 0.00 0.00 0.01 0.10 0.03 0.09 0.11 0.07 0.12 0.39 0.42 0.41 0.45 0.41 0.81 1.29 1.12 0.54 0.35 0.41 0.59 0.46 0.31 0.11 0.02 0.01 0.00 0.00 0.00 0.00 0.00 0.00 0.00 0.00 0.00 0.00 0.01 0.00 0.00 0.00 0.00 0.00 0.00 0.00
0.00 0.00 0.00 0.00 0.00 0.00 0.00 0.00 0.01 0.06 0.14 0.14 0.12 0.06 0.67 0.44 0.24 0.36 0.68 1.25 1.83 1.75 1.51 0.72 0.83 0.88 0.54 0.27 0.04 0.00 0.00 0.00 0.00 0.00 0.00 0.00 0.00 0.00 0.00 0.00 0.00 0.00 0.00 0.00 0.00 0.00 0.00 0.00 0.00
0.00 0.00 0.00 0.00 0.00 0.00 0.02 0.02 0.06 0.19 0.28 0.29 0.17 0.27 0.64 0.42 0.42 0.55 1.32 1.90 2.84 2.78 2.75 1.65 1.59 1.29 0.75 0.18 0.01 0.00 0.00 0.00 0.00 0.00 0.00 0.00 0.00 0.00 0.00 0.01 0.01 0.00 0.00 0.00 0.00 0.00 0.00 0.00 0.00
0.00 0.00 0.00 0.00 0.00 0.00 0.02 0.10 0.31 0.45 0.26 0.12 0.05 0.30 0.49 0.49 0.41 0.41 1.08 3.28 4.59 5.96 6.60 4.77 2.83 1.63 0.68 0.15 0.04 0.01 0.00 0.00 0.00 0.00 0.00 0.00 0.00 0.00 0.00 0.00 0.00 0.00 0.00 0.00 0.00 0.00 0.00 0.00 0.00
0.00 0.00 0.00 0.00 0.00 0.02 0.08 0.17 0.22 0.24 0.38 0.36 0.09 0.47 0.83 0.55 0.41 0.65 0.93 2.53 4.28 8.02 8.72 5.80 3.89 1.85 0.70 0.35 0.12 0.07 0.03 0.01 0.00 0.00 0.00 0.00 0.00 0.00 0.00 0.00 0.00 0.00 0.00 0.00 0.00 0.00 0.00 0.00 0.00
0.00 0.00 0.00 0.00 0.01 0.04 0.10 0.14 0.33 0.24 0.07 0.14 0.16 0.29 0.60 0.76 0.69 0.67 0.91 1.72 3.54 4.61 4.78 5.26 3.57 1.83 0.83 0.66 0.40 0.16 0.07 0.01 0.00 0.00 0.00 0.00 0.00 0.00 0.00 0.00 0.00 0.00 0.00 0.00 0.00 0.00 0.00 0.00 0.00
0.00 0.00 0.00 0.00 0.01 0.08 0.27 0.30 0.28 0.13 0.12 0.13 0.35 0.52 0.74 0.72 0.59 0.44 0.77 1.17 1.85 2.20 2.92 2.36 1.67 0.83 0.46 0.32 0.32 0.25 0.11 0.03 0.00 0.00 0.00 0.02 0.00 0.00 0.00 0.00 0.00 0.00 0.00 0.00 0.00 0.00 0.00 0.00 0.00
0.00 0.00 0.00 0.00 0.01 0.08 0.10 0.06 0.12 0.05 0.16 0.25 0.78 0.78 0.87 0.71 0.50 0.29 0.33 0.72 0.70 0.60 0.60 0.69 0.77 0.47 0.31 0.20 0.22 0.16 0.10 0.05 0.01 0.04 0.05 0.05 0.02 0.02 0.02 0.04 0.00 0.01 0.00 0.00 0.00 0.00 0.00 0.00 0.00
0.00 0.00 0.00 0.00 0.00 0.01 0.01 0.09 0.17 0.07 0.44 0.27 0.47 0.42 0.54 0.31 0.23 0.25 0.29 0.29 0.21 0.28 0.28 0.37 0.33 0.43 0.37 0.31 0.28 0.22 0.16 0.05 0.09 0.10 0.05 0.06 0.05 0.05 0.01 0.01 0.00 0.00 0.00 0.00 0.00 0.00 0.00 0.00 0.00
0.00 0.00 0.00 0.00 0.03 0.02 0.07 0.04 0.01 0.07 0.04 0.12 0.19 0.20 0.21 0.16 0.11 0.12 0.13 0.14 0.11 0.20 0.24 0.28 0.26 0.29 0.26 0.26 0.29 0.26 0.17 0.11 0.15 0.06 0.05 0.03 0.01 0.02 0.01 0.00 0.00 0.00 0.00 0.00 0.00 0.00 0.00 0.00 0.00
0.00 0.00 0.00 0.00 0.02 0.02 0.04 0.07 0.09 0.29 0.09 0.03 0.06 0.07 0.05 0.06 0.03 0.03 0.02 0.01 0.09 0.18 0.32 0.47 0.40 0.25 0.30 0.29 0.26 0.22 0.15 0.11 0.09 0.10 0.21 0.15 0.02 0.00 0.01 0.01 0.00 0.00 0.00 0.00 0.00 0.00 0.00 0.00 0.00
0.00 0.00 0.00 0.00 0.01 0.02 0.04 0.10 0.17 0.36 0.09 0.00 0.00 0.00 0.02 0.09 0.04 0.01 0.00 0.00 0.02 0.07 0.13 0.67 0.83 0.31 0.26 0.15 0.23 0.27 0.24 0.09 0.05 0.16 0.30 0.19 0.05 0.00 0.01 0.00 0.00 0.00 0.00 0.00 0.00 0.00 0.00 0.00 0.00
0.00 0.00 0.00 0.02 0.00 0.02 0.04 0.48 0.14 0.05 0.03 0.00 0.00 0.00 0.03 0.05 0.02 0.01 0.00 0.01 0.01 0.02 0.17 1.11 0.99 0.24 0.24 0.18 0.30 0.56 0.36 0.14 0.11 0.13 0.14 0.07 0.03 0.03 0.01 0.00 0.00 0.00 0.00 0.00 0.00 0.00 0.00 0.00 0.00
0.00 0.00 0.00 0.00 0.00 0.01 0.02 0.18 0.15 0.05 0.02 0.00 0.00 0.00 0.00 0.00 0.02 0.00 0.02 0.02 0.02 0.03 0.29 0.78 0.70 0.42 0.61 0.97 1.18 0.67 0.13 0.06 0.05 0.08 0.11 0.07 0.07 0.08 0.04 0.01 0.00 0.00 0.00 0.00 0.00 0.00 0.00 0.01 0.00
0.00 0.00 0.00 0.00 0.00 0.00 0.00 0.02 0.14 0.04 0.00 0.00 0.00 0.00 0.01 0.00 0.00 0.02 0.08 0.06 0.03 0.07 0.46 0.73 0.72 1.00 1.30 1.10 0.32 0.07 0.04 0.05 0.05 0.08 0.05 0.08 0.10 0.08 0.06 0.04 0.01 0.00 0.00 0.00 0.00 0.00 0.00 0.00 0.00
0.00 0.00 0.00 0.00 0.00 0.00 0.00 0.00 0.01 0.02 0.00 0.00 0.00 0.00 0.01 0.00 0.01 0.05 0.08 0.11 0.12 0.19 0.54 0.68 0.82 0.64 0.36 0.12 0.06 0.04 0.04 0.06 0.03 0.04 0.01 0.04 0.07 0.04 0.06 0.06 0.01 0.00 0.00 0.00 0.00 0.00 0.00 0.00 0.00
0.00 0.00 0.00 0.00 0.00 0.00 0.00 0.00 0.00 0.01 0.04 0.00 0.00 0.00 0.00 0.00 0.00 0.01 0.02 0.08 0.22 0.43 0.48 0.40 0.31 0.17 0.16 0.10 0.07 0.05 0.03 0.01 0.00 0.01 0.02 0.05 0.10 0.03 0.01 0.02 0.01 0.01 0.00 0.00 0.00 0.00 0.00 0.00 0.00
0.00 0.00 0.00 0.00 0.00 0.00 0.00 0.00 0.00 0.00 0.01 0.00 0.00 0.02 0.00 0.01 0.03 0.05 0.09 0.12 0.12 0.10 0.06 0.08 0.13 0.08 0.12 0.06 0.01 0.00 0.00 0.00 0.00 0.01 0.03 0.04 0.04 0.03 0.00 0.00 0.00 0.00 0.00 0.00 0.00 0.00 0.00 0.00 0.00
0.00 0.00 0.00 0.00 0.00 0.00 0.00 0.00 0.02 0.01 0.00 0.00 0.00 0.01 0.02 0.03 0.03 0.02 0.01 0.01 0.00 0.05 0.08 0.12 0.10 0.09 0.03 0.01 0.00 0.00 0.00 0.00 0.02 0.06 0.03 0.03 0.03 0.04 0.01 0.00 0.00 0.00 0.00 0.00 0.00 0.00 0.00 0.00 0.00
0.00 0.00 0.00 0.00 0.00 0.06 0.02 0.01 0.02 0.02 0.00 0.00 0.00 0.00 0.01 0.00 0.00 0.02 0.01 0.03 0.05 0.04 0.08 0.09 0.10 0.13 0.04 0.02 0.00 0.01 0.01 0.01 0.03 0.04 0.05 0.03 0.01 0.01 0.02 0.01 0.01 0.01 0.00 0.00 0.00 0.00 0.00 0.00 0.00
0.00 0.00 0.00 0.00 0.00 0.01 0.01 0.03 0.02 0.01 0.02 0.03 0.02 0.00 0.00 0.01 0.08 0.06 0.04 0.06 0.06 0.07 0.20 0.11 0.11 0.08 0.07 0.04 0.01 0.05 0.09 0.07 0.04 0.05 0.04 0.04 0.02 0.02 0.02 0.02 0.02 0.02 0.02 0.03 0.02 0.02 0.02 0.01 0.01
0.00 0.00 0.01 0.10 0.02 0.01 0.03 0.03 0.01 0.01 0.02 0.11 0.07 0.00 0.00 0.01 0.04 0.02 0.02 0.05 0.05 0.09 0.20 0.10 0.04 0.06 0.04 0.03 0.06 0.10 0.19 0.14 0.08 0.06 0.06 0.09 0.05 0.05 0.05 0.05 0.03 0.02 0.02 0.04 0.07 0.09 0.05 0.01 0.02
0.00 0.00 0.01 0.17 0.12 0.04 0.05 0.01 0.00 0.00 0.00 0.00 0.00 0.00 0.00 0.00 0.00 0.01 0.02 0.05 0.07 0.17 0.18 0.08 0.03 0.06 0.06 0.13 0.25 0.22 0.21 0.28 0.36 0.17 0.09 0.12 0.06 0.06 0.06 0.06 0.03 0.05 0.08 0.08 0.05 0.04 0.04 0.07 0.12
0.00 0.00 0.00 0.01 0.02 0.03 0.04 0.00 0.00 0.00 0.00 0.00 0.00 0.00 0.00 0.00 0.00 0.00 0.01 0.00 0.02 0.23 0.17 0.04 0.02 0.01 0.03 0.15 0.26 0.15 0.36 0.63 0.49 0.32 0.24 0.19 0.22 0.21 0.12 0.12 0.11 0.09 0.04 0.03 0.04 0.06 0.07 0.07 0.10
0.00 0.00 0.00 0.00 0.05 0.05 0.00 0.00 0.01 0.01 0.00 0.00 0.00 0.00 0.00 0.00 0.00 0.00 0.00 0.00 0.01 0.06 0.05 0.01 0.00 0.01 0.01 0.03 0.09 0.11 0.18 0.30 0.33 0.28 0.20 0.29 0.30 0.26 0.19 0.15 0.09 0.04 0.03 0.02 0.02 0.03 0.06 0.13 0.15
0.00 0.00 0.00 0.00 0.00 0.04 0.03 0.00 0.00 0.00 0.00 0.00 0.00 0.00 0.00 0.00 0.00 0.00 0.00 0.00 0.00 0.00 0.00 0.00 0.01 0.01 0.04 0.18 0.20 0.15 0.23 0.24 0.28 0.25 0.27 0.21 0.17 0.16 0.08 0.05 0.04 0.02 0.03 0.06 0.12 0.20 0.22 0.26 0.26
0.00 0.00 0.01 0.01 0.00 0.01 0.01 0.00 0.00 0.00 0.00 0.00 0.00 0.00 0.00 0.00 0.00 0.00 0.00 0.00 0.00 0.00 0.00 0.01 0.01 0.05 0.13 0.36 0.39 0.32 0.28 0.26 0.23 0.24 0.19 0.15 0.10 0.08 0.05 0.05 0.10 0.14 0.23 0.32 0.36 0.27 0.22 0.17 0.14

GFSSGP_prec_precacc_057.txt.gz
Total_Precipitation_Accumulation
0.00 0.00 0.00 0.00 0.00 0.00 0.00 0.00 0.00 0.11 0.09 0.06 0.13 0.18 0.23 0.35 0.62 0.79 0.63 1.12 1.12 1.10 0.87 1.26 0.44 0.08 0.02 0.04 0.03 0.04 0.05 0.02 0.03 0.03 0.01 0.01 0.02 0.04 0.02 0.00 0.00 0.00 0.01 0.00 0.00 0.00 0.00 0.00 0.01
0.00 0.00 0.00 0.00 0.00 0.00 0.00 0.00 0.02 0.09 0.16 0.24 0.26 0.18 0.17 0.55 0.45 0.49 0.63 0.70 0.61 0.46 0.32 0.52 0.52 0.18 0.08 0.07 0.06 0.02 0.02 0.02 0.02 0.03 0.03 0.01 0.01 0.01 0.00 0.00 0.00 0.01 0.00 0.00 0.00 0.00 0.00 0.00 0.00
0.00 0.00 0.00 0.00 0.00 0.00 0.00 0.02 0.04 0.08 0.16 0.15 0.09 0.08 0.31 1.03 0.77 0.70 0.51 0.90 0.95 0.51 0.40 0.31 0.66 0.52 0.31 0.20 0.12 0.04 0.04 0.01 0.01 0.02 0.02 0.01 0.00 0.00 0.00 0.00 0.01 0.01 0.00 0.00 0.00 0.00 0.00 0.00 0.00
0.00 0.00 0.00 0.00 0.00 0.00 0.00 0.01 0.10 0.03 0.09 0.11 0.07 0.12 0.43 0.55 0.61 0.50 0.46 0.84 1.36 1.12 0.57 0.43 0.71 1.54 1.07 0.36 0.11 0.02 0.01 0.00 0.00 0.00 0.00 0.00 0.00 0.00 0.00 0.00 0.00 0.01 0.00 0.00 0.00 0.00 0.00 0.00 0.00
0.00 0.00 0.00 0.00 0.00 0.00 0.00 0.00 0.01 0.06 0.14 0.14 0.12 0.07 0.74 0.69 0.41 0.66 1.08 1.47 1.88 1.77 1.52 0.76 0.97 1.19 1.47 0.78 0.12 0.00 0.00 0.00 0.00 0.00 0.00 0.00 0.00 0.00 0.00 0.00 0.00 0.00 0.00 0.00 0.00 0.00 0.00 0.00 0.00
0.00 0.00 0.00 0.00 0.00 0.00 0.02 0.02 0.06 0.19 0.28 0.29 0.18 0.30 0.70 0.44 0.52 0.78 1.85 2.11 2.95 2.81 2.77 1.70 1.71 1.49 0.95 0.46 0.39 0.04 0.00 0.00 0.00 0.00 0.00 0.00 0.00 0.00 0.00 0.01 0.01 0.00 0.00 0.00 0.00 0.00 0.00 0.00 0.00
0.00 0.00 0.00 0.00 0.00 0.00 0.02 0.10 0.33 0.58 0.31 0.13 0.10 0.51 0.99 0.79 0.56 0.65 1.53 3.46 4.65 5.99 6.62 4.86 2.96 1.77 0.97 0.41 0.23 0.12 0.01 0.00 0.00 0.00 0.00 0.00 0.00 0.01 0.00 0.00 0.00 0.00 0.00 0.00 0.00 0.00 0.00 0.00 0.00
0.00 0.00 0.00 0.00 0.00 0.02 0.08 0.18 0.24 0.28 0.45 0.39 0.13 0.69 1.00 0.63 0.56 0.86 1.12 2.66 4.30 8.07 8.84 5.99 4.00 1.95 0.83 0.62 0.30 0.13 0.07 0.01 0.00 0.00 0.00 0.00 0.03 0.02 0.00 0.00 0.00 0.00 0.00 0.00 0.00 0.00 0.00 0.00 0.00
0.00 0.00 0.00 0.00 0.01 0.04 0.10 0.14 0.33 0.26 0.21 0.31 0.21 0.48 0.64 0.77 0.75 0.80 0.96 1.80 3.56 4.67 4.95 5.43 3.67 1.91 0.92 0.86 0.62 0.24 0.11 0.01 0.00 0.00 0.02 0.03 0.06 0.08 0.02 0.00 0.00 0.00 0.00 0.00 0.00 0.00 0.00 0.00 0.00
0.00 0.00 0.00 0.00 0.01 0.08 0.27 0.30 0.29 0.16 0.33 0.22 0.37 0.52 0.79 0.78 0.62 0.57 0.86 1.18 1.88 2.23 2.95 2.41 1.73 0.88 0.50 0.33 0.34 0.32 0.21 0.06 0.00 0.01 0.02 0.03 0.02 0.02 0.01 0.00 0.00 0.00 0.00 0.00 0.00 0.00 0.00 0.00 0.00
0.00 0.00 0.00 0.00 0.01 0.08 0.10 0.06 0.12 0.07 0.24 0.37 0.80 0.78 0.90 0.74 0.51 0.29 0.36 0.75 0.71 0.64 0.64 0.71 0.83 0.51 0.34 0.22 0.22 0.16 0.12 0.08 0.01 0.04 0.05 0.05 0.03 0.02 0.02 0.04 0.00 0.01 0.00 0.00 0.00 0.00 0.00 0.00 0.00
0.00 0.00 0.00 0.00 0.00 0.01 0.01 0.09 0.18 0.18 0.67 0.35 0.47 0.42 0.55 0.32 0.23 0.26 0.29 0.31 0.24 0.32 0.36 0.45 0.38 0.49 0.42 0.32 0.28 0.22 0.16 0.06 0.10 0.11 0.05 0.06 0.05 0.05 0.01 0.01 0.00 0.00 0.00 0.00 0.00 0.00 0.00 0.00 0.00
0.00 0.00 0.00 0.00 0.03 0.02 0.07 0.04 0.08 0.65 0.28 0.16 0.19 0.20 0.22 0.16 0.12 0.12 0.13 0.15 0.14 0.26 0.35 0.46 0.32 0.36 0.32 0.30 0.31 0.27 0.19 0.13 0.20 0.08 0.06 0.03 0.01 0.03 0.01 0.00 0.00 0.00 0.00 0.00 0.00 0.00 0.00 0.00 0.00
0.00 0.00 0.00 0.00 0.02 0.02 0.04 0.07 0.11 0.65 0.30 0.05 0.06 0.07 0.05 0.06 0.04 0.04 0.02 0.02 0.12 0.29 0.40 0.52 0.56 0.27 0.32 0.31 0.31 0.30 0.22 0.15 0.16 0.13 0.23 0.15 0.03 0.01 0.01 0.01 0.00 0.00 0.00 0.00 0.00 0.00 0.00 0.00 0.00
0.00 0.00 0.00 0.00 0.01 0.02 0.04 0.10 0.17 0.40 0.14 0.05 0.00 0.01 0.04 0.09 0.04 0.01 0.00 0.00 0.02 0.10 0.16 0.71 0.91 0.41 0.28 0.16 0.29 0.35 0.31 0.14 0.11 0.20 0.31 0.19 0.05 0.00 0.01 0.00 0.01 0.00 0.00 0.00 0.00 0.00 0.00 0.00 0.00
0.00 0.00 0.00 0.02 0.00 0.02 0.04 0.48 0.14 0.06 0.07 0.06 0.00 0.00 0.03 0.05 0.02 0.01 0.00 0.01 0.01 0.02 0.19 1.13 1.01 0.26 0.27 0.19 0.31 0.58 0.37 0.16 0.14 0.15 0.15 0.07 0.03 0.03 0.01 0.02 0.00 0.00 0.00 0.00 0.00 0.00 0.00 0.00 0.00
0.00 0.00 0.00 0.00 0.00 0.01 0.02 0.19 0.15 0.05 0.06 0.08 0.01 0.00 0.00 0.00 0.02 0.00 0.02 0.02 0.02 0.03 0.29 0.78 0.70 0.42 0.62 0.98 1.18 0.67 0.13 0.07 0.05 0.08 0.11 0.07 0.07 0.08 0.04 0.01 0.00 0.01 0.02 0.00 0.00 0.00 0.00 0.01 0.00
0.00 0.00 0.00 0.00 0.00 0.00 0.00 0.02 0.15 0.05 0.06 0.06 0.02 0.00 0.01 0.00 0.00 0.02 0.08 0.06 0.03 0.07 0.46 0.73 0.72 1.00 1.30 1.10 0.32 0.07 0.04 0.05 0.05 0.08 0.05 0.08 0.10 0.08 0.07 0.05 0.03 0.04 0.01 0.00 0.00 0.00 0.00 0.00 0.00
0.00 0.00 0.00 0.00 0.00 0.00 0.00 0.01 0.02 0.03 0.04 0.04 0.02 0.01 0.01 0.00 0.01 0.05 0.08 0.11 0.12 0.19 0.54 0.68 0.82 0.64 0.36 0.12 0.06 0.04 0.04 0.06 0.03 0.04 0.01 0.04 0.07 0.04 0.07 0.09 0.07 0.08 0.00 0.00 0.00 0.00 0.00 0.00 0.00
0.00 0.00 0.00 0.00 0.00 0.00 0.00 0.00 0.00 0.01 0.17 0.03 0.01 0.01 0.00 0.00 0.00 0.01 0.02 0.08 0.22 0.43 0.48 0.40 0.31 0.17 0.16 0.10 0.07 0.05 0.03 0.01 0.00 0.01 0.03 0.06 0.10 0.04 0.04 0.07 0.04 0.03 0.00 0.00 0.00 0.00 0.00 0.00 0.00
0.00 0.00 0.00 0.00 0.00 0.00 0.00 0.00 0.00 0.00 0.02 0.04 0.03 0.03 0.00 0.01 0.03 0.05 0.09 0.12 0.12 0.10 0.06 0.08 0.13 0.08 0.12 0.06 0.01 0.00 0.00 0.00 0.00 0.01 0.03 0.04 0.04 0.03 0.00 0.04 0.01 0.00 0.00 0.00 0.00 0.00 0.00 0.00 0.00
0.00 0.00 0.00 0.00 0.00 0.00 0.00 0.00 0.02 0.01 0.00 0.05 0.01 0.01 0.02 0.03 0.03 0.02 0.01 0.01 0.00 0.05 0.08 0.12 0.10 0.09 0.03 0.01 0.01 0.00 0.00 0.00 0.02 0.06 0.03 0.04 0.05 0.05 0.02 0.01 0.00 0.00 0.00 0.00 0.00 0.00 0.00 0.00 0.00
0.00 0.00 0.00 0.00 0.00 0.06 0.02 0.01 0.02 0.02 0.00 0.00 0.01 0.01 0.01 0.00 0.00 0.02 0.01 0.03 0.05 0.04 0.08 0.09 0.10 0.13 0.04 0.02 0.00 0.02 0.01 0.01 0.03 0.04 0.05 0.03 0.02 0.03 0.03 0.01 0.03 0.01 0.01 0.01 0.00 0.00 0.00 0.00 0.00
0.00 0.00 0.00 0.00 0.00 0.01 0.01 0.03 0.02 0.01 0.02 0.03 0.02 0.01 0.00 0.01 0.08 0.06 0.04 0.06 0.06 0.07 0.20 0.11 0.11 0.08 0.07 0.04 0.01 0.06 0.13 0.08 0.06 0.05 0.04 0.05 0.04 0.02 0.04 0.04 0.03 0.04 0.04 0.05 0.04 0.04 0.05 0.04 0.02
0.00 0.00 0.01 0.10 0.02 0.01 0.03 0.03 0.01 0.01 0.02 0.11 0.07 0.00 0.00 0.01 0.04 0.02 0.02 0.05 0.05 0.09 0.20 0.10 0.04 0.06 0.04 0.03 0.06 0.10 0.21 0.17 0.17 0.09 0.06 0.13 0.09 0.05 0.07 0.14 0.08 0.05 0.07 0.06 0.08 0.10 0.07 0.05 0.04
0.00 0.00 0.01 0.17 0.12 0.04 0.05 0.01 0.00 0.00 0.00 0.00 0.00 0.00 0.00 0.00 0.00 0.01 0.02 0.05 0.07 0.17 0.18 0.08 0.03 0.06 0.06 0.13 0.25 0.22 0.21 0.28 0.40 0.30 0.15 0.24 0.15 0.10 0.12 0.13 0.21 0.13 0.11 0.10 0.08 0.07 0.08 0.11 0.14
0.00 0.00 0.00 0.01 0.02 0.04 0.04 0.01 0.00 0.00 0.00 0.00 0.00 0.00 0.00 0.00 0.00 0.00 0.01 0.00 0.02 0.23 0.17 0.04 0.02 0.02 0.03 0.15 0.26 0.15 0.36 0.63 0.50 0.40 0.34 0.33 0.34 0.34 0.29 0.34 0.34 0.27 0.16 0.08 0.06 0.08 0.08 0.09 0.13
0.00 0.00 0.00 0.00 0.05 0.05 0.00 0.00 0.01 0.01 0.00 0.00 0.00 0.00 0.00 0.00 0.00 0.00 0.00 0.00 0.01 0.06 0.05 0.01 0.02 0.06 0.04 0.05 0.09 0.12 0.18 0.30 0.36 0.32 0.27 0.40 0.50 0.35 0.43 0.41 0.29 0.14 0.05 0.03 0.03 0.03 0.08 0.19 0.25
0.00 0.00 0.00 0.00 0.00 0.04 0.03 0.00 0.00 0.00 0.00 0.00 0.00 0.00 0.00 0.00 0.00 0.00 0.00 0.00 0.00 0.00 0.00 0.00 0.01 0.08 0.12 0.30 0.33 0.25 0.34 0.34 0.42 0.31 0.37 0.28 0.24 0.35 0.38 0.17 0.06 0.03 0.04 0.07 0.13 0.21 0.25 0.27 0.30
0.00 0.00 0.01 0.01 0.00 0.01 0.01 0.00 0.00 0.00 0.00 0.00 0.00 0.00 0.00 0.00 0.00 0.00 0.00 0.00 0.00 0.00 0.00 0.01 0.01 0.12 0.27 0.67 0.85 0.57 0.67 0.55 0.44 0.33 0.24 0.25 0.18 0.14 0.09 0.07 0.10 0.14 0.23 0.32 0.36 0.28 0.23 0.21 0.18

GFSSGP_prec_precacc_060.txt.gz
Total_Precipitation_Accumulation
0.00 0.00 0.00 0.00 0.00 0.00 0.00 0.00 0.00 0.11 0.09 0.06 0.13 0.18 0.23 0.35 0.63 0.79 0.63 1.12 1.12 1.11 0.88 1.94 1.72 0.98 0.10 0.04 0.03 0.04 0.05 0.02 0.03 0.03 0.01 0.01 0.02 0.04 0.02 0.00 0.00 0.00 0.01 0.00 0.00 0.00 0.00 0.00 0.01
0.00 0.00 0.00 0.00 0.00 0.00 0.00 0.00 0.02 0.09 0.16 0.24 0.26 0.18 0.17 0.55 0.46 0.50 0.65 0.70 0.61 0.46 0.32 0.64 1.63 1.54 0.37 0.08 0.06 0.02 0.02 0.02 0.02 0.03 0.03 0.01 0.01 0.01 0.00 0.00 0.00 0.01 0.00 0.00 0.00 0.00 0.00 0.00 0.00
0.00 0.00 0.00 0.00 0.00 0.00 0.00 0.02 0.04 0.08 0.16 0.15 0.09 0.08 0.31 1.03 0.77 0.70 0.52 0.91 0.95 0.51 0.42 0.35 0.72 0.77 0.50 0.24 0.13 0.04 0.04 0.01 0.01 0.02 0.02 0.01 0.00 0.00 0.00 0.00 0.01 0.01 0.00 0.00 0.00 0.00 0.00 0.00 0.00
0.00 0.00 0.00 0.00 0.00 0.00 0.00 0.01 0.10 0.03 0.09 0.11 0.07 0.12 0.43 0.55 0.62 0.51 0.47 0.85 1.36 1.13 0.66 0.60 1.13 1.90 1.44 0.79 0.32 0.07 0.01 0.00 0.00 0.00 0.00 0.00 0.00 0.00 0.00 0.00 0.00 0.01 0.00 0.00 0.00 0.00 0.00 0.00 0.00
0.00 0.00 0.00 0.00 0.00 0.00 0.00 0.00 0.01 0.06 0.14 0.14 0.12 0.07 0.74 0.69 0.42 0.66 1.13 1.59 1.97 1.86 1.67 1.02 1.42 1.63 1.99 2.24 1.30 0.31 0.00 0.00 0.00 0.00 0.00 0.00 0.00 0.00 0.00 0.00 0.00 0.00 0.00 0.00 0.00 0.00 0.00 0.00 0.00
0.00 0.00 0.00 0.00 0.00 0.00 0.02 0.02 0.06 0.19 0.28 0.29 0.19 0.31 0.71 0.44 0.52 0.81 2.00 2.47 3.10 2.99 2.97 1.94 1.99 1.78 1.05 1.10 2.34 0.92 0.02 0.00 0.00 0.01 0.01 0.00 0.00 0.00 0.00 0.01 0.01 0.00 0.00 0.00 0.00 0.00 0.00 0.00 0.00
0.00 0.00 0.00 0.00 0.00 0.00 0.02 0.10 0.33 0.58 0.31 0.13 0.10 0.51 0.99 0.79 0.56 0.66 1.61 3.70 5.05 6.27 6.76 5.10 3.16 1.92 1.09 0.55 1.12 1.04 0.12 0.01 0.00 0.01 0.02 0.02 0.01 0.01 0.00 0.00 0.00 0.00 0.00 0.00 0.00 0.00 0.00 0.00 0.00
0.00 0.00 0.00 0.00 0.00 0.02 0.08 0.18 0.24 0.28 0.45 0.39 0.14 0.69 1.00 0.63 0.56 0.86 1.17 2.89 4.37 8.19 8.91 6.09 4.09 2.12 0.94 0.78 0.56 0.33 0.12 0.03 0.00 0.00 0.01 0.05 0.05 0.02 0.00 0.00 0.00 0.00 0.00 0.00 0.00 0.00 0.00 0.00 0.00
0.00 0.00 0.00 0.00 0.01 0.04 0.10 0.14 0.33 0.26 0.22 0.31 0.21 0.48 0.64 0.77 0.76 0.80 1.00 1.85 3.59 4.72 4.98 5.54 3.85 2.06 1.09 1.06 0.87 0.38 0.13 0.02 0.00 0.02 0.06 0.04 0.07 0.08 0.02 0.00 0.00 0.00 0.00 0.00 0.00 0.00 0.00 0.00 0.00
0.00 0.00 0.00 0.00 0.01 0.08 0.27 0.30 0.29 0.16 0.34 0.23 0.37 0.52 0.80 0.81 0.64 0.58 0.88 1.20 1.90 2.26 3.01 2.43 1.77 0.91 0.60 0.51 0.43 0.34 0.21 0.06 0.00 0.01 0.03 0.06 0.04 0.03 0.01 0.00 0.00 0.00 0.00 0.00 0.00 0.00 0.00 0.00 0.00
0.00 0.00 0.00 0.00 0.01 0.08 0.10 0.06 0.12 0.07 0.26 0.43 0.81 0.78 0.91 0.76 0.54 0.31 0.37 0.76 0.74 0.69 0.69 0.73 0.85 0.53 0.37 0.27 0.23 0.16 0.12 0.08 0.03 0.05 0.06 0.07 0.03 0.02 0.02 0.04 0.00 0.01 0.00 0.00 0.00 0.00 0.00 0.00 0.00
0.00 0.00 0.00 0.00 0.00 0.01 0.01 0.09 0.18 0.18 0.75 0.41 0.48 0.42 0.55 0.33 0.24 0.27 0.30 0.32 0.31 0.40 0.46 0.52 0.41 0.52 0.45 0.34 0.29 0.22 0.16 0.06 0.11 0.11 0.06 0.06 0.05 0.05 0.01 0.01 0.00 0.00 0.00 0.00 0.00 0.00 0.00 0.00 0.00
0.00 0.00 0.00 0.00 0.03 0.02 0.07 0.04 0.08 0.65 0.29 0.16 0.19 0.20 0.23 0.16 0.12 0.13 0.13 0.15 0.17 0.33 0.45 0.52 0.33 0.37 0.33 0.31 0.32 0.28 0.19 0.13 0.20 0.08 0.06 0.03 0.01 0.03 0.01 0.00 0.00 0.00 0.00 0.00 0.00 0.00 0.00 0.00 0.00
0.00 0.00 0.00 0.00 0.02 0.02 0.04 0.07 0.11 0.65 0.30 0.05 0.06 0.07 0.06 0.06 0.04 0.04 0.03 0.02 0.15 0.36 0.46 0.61 0.61 0.29 0.33 0.34 0.36 0.34 0.23 0.16 0.16 0.13 0.23 0.15 0.03 0.01 0.01 0.01 0.00 0.00 0.00 0.00 0.00 0.00 0.00 0.00 0.00
0.00 0.00 0.00 0.00 0.01 0.02 0.04 0.10 0.17 0.40 0.14 0.05 0.00 0.01 0.05 0.09 0.04 0.01 0.00 0.00 0.03 0.13 0.19 0.81 0.96 0.48 0.30 0.16 0.30 0.37 0.32 0.15 0.11 0.21 0.31 0.19 0.05 0.00 0.01 0.01 0.01 0.00 0.00 0.00 0.00 0.00 0.00 0.00 0.00
0.00 0.00 0.00 0.02 0.00 0.02 0.04 0.48 0.14 0.06 0.07 0.06 0.00 0.00 0.03 0.05 0.02 0.01 0.00 0.01 0.01 0.02 0.21 1.19 1.06 0.28 0.32 0.20 0.31 0.58 0.37 0.16 0.14 0.16 0.15 0.07 0.03 0.03 0.01 0.04 0.03 0.00 0.00 0.00 0.00 0.00 0.00 0.00 0.00
0.00 0.00 0.00 0.00 0.00 0.01 0.02 0.19 0.15 0.05 0.06 0.08 0.01 0.00 0.00 0.00 0.02 0.00 0.02 0.02 0.02 0.03 0.29 0.82 0.73 0.44 0.63 0.98 1.18 0.67 0.13 0.07 0.05 0.08 0.11 0.08 0.07 0.08 0.04 0.02 0.00 0.01 0.02 0.00 0.00 0.00 0.00 0.01 0.00
0.00 0.00 0.00 0.00 0.00 0.00 0.00 0.02 0.15 0.05 0.06 0.06 0.02 0.00 0.01 0.00 0.00 0.02 0.08 0.06 0.03 0.07 0.46 0.73 0.73 1.00 1.30 1.10 0.32 0.07 0.04 0.05 0.05 0.08 0.05 0.08 0.10 0.08 0.07 0.05 0.03 0.04 0.05 0.00 0.00 0.00 0.00 0.00 0.00
0.00 0.00 0.00 0.00 0.00 0.00 0.00 0.01 0.02 0.03 0.04 0.04 0.02 0.01 0.01 0.00 0.01 0.05 0.08 0.11 0.12 0.19 0.54 0.68 0.82 0.64 0.36 0.12 0.06 0.04 0.04 0.06 0.03 0.04 0.01 0.04 0.07 0.04 0.07 0.09 0.07 0.09 0.04 0.01 0.00 0.00 0.00 0.00 0.00
0.00 0.00 0.00 0.00 0.00 0.00 0.00 0.00 0.00 0.01 0.17 0.03 0.01 0.01 0.00 0.00 0.00 0.01 0.02 0.08 0.22 0.43 0.48 0.40 0.31 0.17 0.16 0.10 0.07 0.05 0.03 0.01 0.00 0.01 0.03 0.06 0.10 0.04 0.04 0.07 0.04 0.03 0.02 0.00 0.00 0.00 0.00 0.00 0.00
0.00 0.00 0.00 0.00 0.00 0.00 0.00 0.00 0.00 0.00 0.02 0.05 0.03 0.03 0.00 0.01 0.03 0.05 0.09 0.12 0.12 0.10 0.06 0.08 0.13 0.08 0.12 0.06 0.01 0.00 0.00 0.00 0.00 0.01 0.03 0.04 0.04 0.03 0.00 0.04 0.01 0.00 0.00 0.00 0.00 0.00 0.00 0.00 0.00
0.00 0.00 0.00 0.00 0.00 0.00 0.00 0.00 0.02 0.01 0.00 0.05 0.01 0.01 0.02 0.03 0.03 0.02 0.01 0.01 0.00 0.05 0.08 0.12 0.10 0.09 0.03 0.01 0.01 0.00 0.00 0.00 0.02 0.06 0.03 0.04 0.05 0.05 0.02 0.01 0.01 0.00 0.00 0.00 0.00 0.00 0.00 0.00 0.00
0.00 0.00 0.00 0.00 0.00 0.06 0.02 0.01 0.02 0.02 0.00 0.00 0.01 0.01 0.01 0.00 0.00 0.02 0.01 0.03 0.05 0.04 0.08 0.09 0.10 0.13 0.04 0.02 0.00 0.02 0.01 0.01 0.03 0.04 0.05 0.03 0.02 0.03 0.03 0.02 0.06 0.02 0.01 0.04 0.05 0.02 0.01 0.01 0.01
0.00 0.00 0.00 0.00 0.00 0.01 0.01 0.03 0.02 0.01 0.02 0.03 0.02 0.01 0.00 0.01 0.08 0.06 0.04 0.06 0.06 0.07 0.20 0.11 0.11 0.08 0.07 0.04 0.01 0.06 0.13 0.08 0.06 0.05 0.04 0.05 0.04 0.02 0.04 0.05 0.03 0.05 0.04 0.09 0.11 0.08 0.06 0.05 0.04
0.00 0.00 0.01 0.10 0.02 0.01 0.03 0.03 0.01 0.01 0.02 0.11 0.07 0.00 0.00 0.01 0.04 0.02 0.02 0.05 0.05 0.09 0.20 0.10 0.04 0.06 0.04 0.03 0.06 0.10 0.21 0.17 0.17 0.09 0.06 0.13 0.09 0.05 0.07 0.15 0.11 0.09 0.18 0.19 0.19 0.16 0.10 0.07 0.16
0.00 0.00 0.01 0.17 0.12 0.04 0.05 0.01 0.00 0.00 0.00 0.00 0.00 0.00 0.00 0.00 0.00 0.01 0.02 0.05 0.07 0.17 0.18 0.08 0.03 0.06 0.06 0.13 0.25 0.22 0.21 0.28 0.40 0.30 0.16 0.24 0.15 0.10 0.12 0.21 0.35 0.31 0.29 0.25 0.18 0.12 0.12 0.13 0.19
0.00 0.00 0.00 0.01 0.02 0.04 0.04 0.01 0.00 0.00 0.00 0.00 0.00 0.00 0.00 0.00 0.00 0.00 0.01 0.00 0.02 0.23 0.17 0.04 0.02 0.02 0.03 0.15 0.26 0.15 0.36 0.63 0.50 0.40 0.37 0.34 0.35 0.34 0.29 0.36 0.47 0.47 0.36 0.34 0.19 0.14 0.10 0.09 0.14
0.00 0.00 0.00 0.00 0.05 0.05 0.00 0.00 0.01 0.01 0.00 0.00 0.00 0.00 0.00 0.00 0.00 0.00 0.00 0.00 0.01 0.06 0.05 0.01 0.02 0.06 0.08 0.05 0.09 0.12 0.18 0.30 0.40 0.33 0.37 0.57 0.54 0.35 0.43 0.45 0.44 0.36 0.22 0.14 0.09 0.06 0.09 0.20 0.26
0.00 0.00 0.00 0.00 0.00 0.04 0.03 0.00 0.00 0.00 0.00 0.00 0.00 0.00 0.00 0.00 0.00 0.00 0.00 0.00 0.00 0.00 0.00 0.00 0.01 0.09 0.16 0.34 0.39 0.26 0.37 0.35 0.58 0.57 0.72 0.57 0.46 0.44 0.50 0.35 0.19 0.08 0.11 0.12 0.14 0.22 0.26 0.28 0.31
0.00 0.00 0.01 0.01 0.00 0.01 0.01 0.00 0.00 0.00 0.00 0.00 0.00 0.00 0.00 0.00 0.00 0.00 0.00 0.00 0.00 0.00 0.00 0.01 0.01 0.13 0.34 0.93 1.08 0.71 0.85 0.70 0.66 0.75 0.72 0.72 0.51 0.21 0.15 0.17 0.14 0.16 0.23 0.32 0.37 0.28 0.24 0.22 0.19

GFSSGP_prec_precacc_063.txt.gz
Total_Precipitation_Accumulation
0.00 0.00 0.00 0.00 0.00 0.00 0.00 0.00 0.00 0.11 0.09 0.06 0.13 0.18 0.23 0.35 0.63 0.80 0.64 1.12 1.13 1.12 0.89 2.01 2.04 1.66 0.90 0.42 0.13 0.05 0.05 0.03 0.03 0.03 0.01 0.01 0.02 0.04 0.02 0.00 0.00 0.00 0.01 0.00 0.00 0.00 0.00 0.00 0.01
0.00 0.00 0.00 0.00 0.00 0.00 0.00 0.00 0.02 0.09 0.16 0.24 0.26 0.18 0.17 0.55 0.47 0.50 0.66 0.71 0.61 0.48 0.32 0.67 1.66 1.69 1.13 0.68 0.31 0.07 0.02 0.02 0.02 0.03 0.03 0.01 0.01 0.01 0.00 0.00 0.00 0.01 0.00 0.00 0.00 0.00 0.00 0.00 0.00
0.00 0.00 0.00 0.00 0.00 0.00 0.00 0.02 0.04 0.08 0.16 0.15 0.09 0.08 0.31 1.03 0.77 0.70 0.53 0.91 0.96 0.51 0.42 0.35 0.74 0.78 0.67 0.61 0.41 0.13 0.04 0.01 0.01 0.02 0.02 0.01 0.00 0.00 0.00 0.00 0.01 0.01 0.00 0.00 0.00 0.00 0.00 0.00 0.00
0.00 0.00 0.00 0.00 0.00 0.00 0.00 0.01 0.10 0.03 0.09 0.11 0.07 0.12 0.43 0.55 0.63 0.51 0.48 0.85 1.36 1.13 0.66 0.60 1.15 1.92 1.56 1.00 0.48 0.17 0.05 0.01 0.00 0.00 0.00 0.00 0.00 0.00 0.00 0.00 0.00 0.01 0.00 0.00 0.00 0.00 0.00 0.00 0.00
0.00 0.00 0.00 0.00 0.00 0.00 0.00 0.00 0.01 0.06 0.14 0.14 0.12 0.07 0.74 0.69 0.42 0.66 1.13 1.59 2.03 1.88 1.72 1.04 1.47 1.76 2.19 2.43 1.47 0.72 0.35 0.05 0.01 0.00 0.00 0.00 0.00 0.00 0.00 0.00 0.00 0.00 0.00 0.00 0.00 0.00 0.00 0.00 0.00
0.00 0.00 0.00 0.00 0.00 0.00 0.02 0.02 0.06 0.19 0.28 0.29 0.19 0.31 0.71 0.44 0.52 0.81 2.00 2.47 3.12 3.02 3.12 2.13 2.11 2.43 1.75 1.31 2.52 1.61 0.63 0.13 0.03 0.02 0.01 0.00 0.00 0.00 0.00 0.01 0.01 0.00 0.00 0.00 0.00 0.00 0.00 0.00 0.00
0.00 0.00 0.00 0.00 0.00 0.00 0.02 0.10 0.33 0.58 0.31 0.13 0.10 0.51 0.99 0.79 0.56 0.66 1.62 3.71 5.10 6.67 7.09 5.41 3.49 3.07 2.80 1.33 1.38 1.53 0.66 0.16 0.08 0.02 0.02 0.02 0.01 0.01 0.00 0.00 0.00 0.00 0.00 0.00 0.00 0.00 0.00 0.00 0.00
0.00 0.00 0.00 0.00 0.00 0.02 0.08 0.18 0.24 0.28 0.45 0.39 0.14 0.69 1.00 0.63 0.56 0.86 1.18 2.90 4.40 8.90 9.55 6.50 4.38 2.32 1.23 1.14 0.67 0.49 0.33 0.18 0.10 0.05 0.03 0.05 0.05 0.02 0.00 0.00 0.00 0.00 0.00 0.00 0.00 0.00 0.00 0.00 0.00
0.00 0.00 0.00 0.00 0.01 0.04 0.10 0.14 0.33 0.26 0.22 0.31 0.21 0.48 0.64 0.77 0.77 0.81 1.03 1.89 3.63 4.94 5.21 5.74 4.08 2.24 1.23 1.21 0.98 0.48 0.24 0.21 0.23 0.14 0.11 0.04 0.07 0.08 0.02 0.00 0.00 0.00 0.00 0.00 0.00 0.00 0.00 0.00 0.00
0.00 0.00 0.00 0.00 0.01 0.08 0.27 0.30 0.29 0.16 0.34 0.23 0.37 0.52 0.80 0.81 0.64 0.60 0.91 1.25 1.99 2.35 3.15 2.51 1.89 1.03 0.68 0.80 0.78 0.46 0.30 0.11 0.19 0.20 0.08 0.06 0.04 0.03 0.01 0.00 0.00 0.00 0.00 0.00 0.00 0.00 0.00 0.00 0.00
0.00 0.00 0.00 0.00 0.01 0.08 0.10 0.06 0.12 0.07 0.26 0.43 0.81 0.78 0.91 0.76 0.54 0.31 0.38 0.79 0.78 0.80 0.82 0.85 0.98 0.65 0.43 0.36 0.36 0.17 0.14 0.10 0.08 0.13 0.10 0.07 0.03 0.02 0.02 0.04 0.00 0.01 0.00 0.00 0.00 0.00 0.00 0.00 0.00
0.00 0.00 0.00 0.00 0.00 0.01 0.01 0.09 0.18 0.18 0.75 0.41 0.48 0.42 0.55 0.33 0.24 0.27 0.30 0.33 0.33 0.50 0.62 0.76 0.59 0.66 0.55 0.44 0.37 0.24 0.17 0.07 0.12 0.12 0.07 0.06 0.05 0.05 0.01 0.01 0.00 0.00 0.00 0.00 0.00 0.00 0.00 0.00 0.00
0.00 0.00 0.00 0.00 0.03 0.02 0.07 0.04 0.08 0.65 0.29 0.16 0.19 0.20 0.23 0.16 0.12 0.13 0.13 0.15 0.18 0.39 0.60 0.75 0.51 0.50 0.46 0.40 0.37 0.29 0.19 0.13 0.20 0.09 0.08 0.03 0.01 0.03 0.01 0.00 0.00 0.00 0.00 0.00 0.00 0.00 0.00 0.00 0.00
0.00 0.00 0.00 0.00 0.02 0.02 0.04 0.07 0.11 0.65 0.30 0.05 0.06 0.07 0.06 0.06 0.04 0.04 0.03 0.02 0.15 0.38 0.58 0.79 0.86 0.42 0.41 0.42 0.41 0.40 0.27 0.17 0.16 0.14 0.24 0.15 0.03 0.01 0.01 0.01 0.00 0.00 0.00 0.00 0.00 0.00 0.00 0.00 0.00
0.00 0.00 0.00 0.00 0.01 0.02 0.04 0.10 0.17 0.40 0.14 0.05 0.00 0.01 0.05 0.09 0.04 0.01 0.00 0.00 0.03 0.14 0.25 0.88 1.15 0.64 0.40 0.19 0.33 0.40 0.37 0.18 0.12 0.21 0.31 0.19 0.05 0.00 0.01 0.01 0.01 0.00 0.00 0.00 0.00 0.00 0.00 0.00 0.00
0.00 0.00 0.00 0.02 0.00 0.02 0.04 0.48 0.14 0.06 0.07 0.06 0.00 0.00 0.03 0.05 0.02 0.01 0.00 0.01 0.01 0.02 0.22 1.23 1.15 0.47 0.47 0.25 0.34 0.61 0.39 0.17 0.14 0.16 0.15 0.07 0.03 0.03 0.01 0.04 0.03 0.00 0.00 0.00 0.00 0.00 0.00 0.00 0.00
0.00 0.00 0.00 0.00 0.00 0.01 0.02 0.19 0.15 0.05 0.06 0.08 0.01 0.00 0.00 0.00 0.02 0.00 0.02 0.02 0.02 0.03 0.30 0.86 0.79 0.53 0.66 1.03 1.22 0.68 0.15 0.07 0.06 0.08 0.11 0.08 0.07 0.08 0.04 0.02 0.00 0.01 0.02 0.00 0.00 0.00 0.00 0.01 0.00
0.00 0.00 0.00 0.00 0.00 0.00 0.00 0.02 0.15 0.05 0.06 0.06 0.02 0.00 0.01 0.00 0.00 0.02 0.08 0.06 0.03 0.07 0.46 0.73 0.74 1.04 1.33 1.11 0.34 0.08 0.05 0.05 0.05 0.08 0.05 0.08 0.10 0.08 0.07 0.05 0.03 0.05 0.05 0.00 0.00 0.00 0.00 0.00 0.00
0.00 0.00 0.00 0.00 0.00 0.00 0.00 0.01 0.02 0.03 0.04 0.04 0.02 0.01 0.01 0.00 0.01 0.05 0.08 0.11 0.12 0.19 0.55 0.68 0.82 0.64 0.36 0.12 0.06 0.05 0.06 0.06 0.03 0.04 0.01 0.05 0.07 0.05 0.07 0.09 0.07 0.09 0.04 0.01 0.00 0.00 0.00 0.00 0.00
0.00 0.00 0.00 0.00 0.00 0.00 0.00 0.00 0.00 0.01 0.17 0.03 0.01 0.01 0.00 0.00 0.00 0.01 0.02 0.08 0.22 0.43 0.48 0.40 0.31 0.17 0.16 0.10 0.07 0.05 0.03 0.01 0.00 0.01 0.03 0.06 0.10 0.04 0.04 0.07 0.04 0.03 0.02 0.02 0.00 0.00 0.00 0.00 0.00
0.00 0.00 0.00 0.00 0.00 0.00 0.00 0.00 0.00 0.00 0.02 0.05 0.03 0.03 0.00 0.01 0.03 0.05 0.09 0.12 0.12 0.10 0.06 0.08 0.13 0.08 0.12 0.06 0.01 0.00 0.00 0.00 0.00 0.01 0.03 0.04 0.04 0.03 0.00 0.04 0.01 0.00 0.00 0.00 0.00 0.00 0.01 0.01 0.00
0.00 0.00 0.00 0.00 0.00 0.00 0.00 0.00 0.02 0.01 0.00 0.05 0.01 0.01 0.02 0.03 0.03 0.02 0.01 0.01 0.00 0.05 0.08 0.12 0.10 0.09 0.03 0.01 0.01 0.00 0.00 0.00 0.02 0.06 0.03 0.04 0.05 0.05 0.02 0.01 0.01 0.00 0.00 0.00 0.00 0.02 0.02 0.03 0.02
0.00 0.00 0.00 0.00 0.00 0.06 0.02 0.01 0.02 0.02 0.00 0.00 0.01 0.01 0.01 0.00 0.00 0.02 0.01 0.03 0.05 0.04 0.08 0.09 0.10 0.13 0.04 0.02 0.00 0.02 0.01 0.01 0.03 0.04 0.05 0.03 0.02 0.03 0.03 0.02 0.06 0.02 0.01 0.04 0.05 0.03 0.05 0.05 0.03
0.00 0.00 0.00 0.00 0.00 0.01 0.01 0.03 0.02 0.01 0.02 0.03 0.02 0.01 0.00 0.01 0.08 0.06 0.04 0.06 0.06 0.07 0.20 0.11 0.11 0.08 0.07 0.04 0.01 0.06 0.13 0.08 0.06 0.05 0.04 0.05 0.04 0.02 0.04 0.05 0.03 0.06 0.04 0.09 0.12 0.16 0.12 0.10 0.08
0.00 0.00 0.01 0.10 0.02 0.01 0.03 0.03 0.01 0.01 0.02 0.11 0.07 0.00 0.00 0.01 0.04 0.02 0.02 0.05 0.05 0.09 0.20 0.10 0.04 0.06 0.04 0.03 0.06 0.10 0.21 0.17 0.17 0.09 0.06 0.13 0.09 0.05 0.07 0.15 0.11 0.09 0.20 0.24 0.31 0.29 0.20 0.18 0.20
0.00 0.00 0.01 0.17 0.12 0.04 0.05 0.01 0.00 0.00 0.00 0.00 0.00 0.00 0.00 0.00 0.00 0.01 0.02 0.05 0.07 0.17 0.18 0.08 0.03 0.06 0.06 0.13 0.25 0.22 0.21 0.28 0.40 0.30 0.16 0.24 0.15 0.10 0.13 0.21 0.35 0.32 0.32 0.32 0.34 0.40 0.51 0.31 0.24
0.00 0.00 0.00 0.01 0.02 0.04 0.04 0.01 0.00 0.00 0.00 0.00 0.00 0.00 0.00 0.00 0.00 0.00 0.01 0.00 0.02 0.23 0.17 0.05 0.03 0.02 0.03 0.15 0.26 0.15 0.36 0.63 0.51 0.40 0.37 0.37 0.39 0.36 0.30 0.36 0.47 0.48 0.40 0.51 0.56 0.47 0.25 0.14 0.15
0.00 0.00 0.00 0.00 0.05 0.05 0.00 0.00 0.01 0.01 0.00 0.00 0.00 0.00 0.00 0.00 0.00 0.00 0.00 0.00 0.01 0.06 0.05 0.02 0.06 0.14 0.14 0.05 0.09 0.12 0.18 0.30 0.40 0.33 0.37 0.59 0.63 0.47 0.51 0.48 0.47 0.41 0.31 0.31 0.33 0.21 0.13 0.21 0.26
0.00 0.00 0.00 0.00 0.00 0.04 0.03 0.00 0.00 0.00 0.00 0.00 0.00 0.00 0.00 0.00 0.00 0.00 0.00 0.00 0.00 0.00 0.00 0.00 0.01 0.15 0.29 0.46 0.42 0.27 0.37 0.35 0.58 0.60 0.75 0.59 0.55 0.63 0.65 0.41 0.27 0.20 0.31 0.28 0.21 0.27 0.27 0.28 0.31
0.00 0.00 0.01 0.01 0.00 0.01 0.01 0.00 0.00 0.00 0.00 0.00 0.00 0.00 0.00 0.00 0.00 0.00 0.00 0.00 0.00 0.00 0.00 0.01 0.01 0.13 0.41 1.16 1.24 0.78 0.89 0.78 0.73 0.80 0.77 0.81 0.80 0.74 0.53 0.30 0.21 0.22 0.28 0.37 0.41 0.30 0.25 0.22 0.20

GFSSGP_prec_precacc_066.txt.gz
Total_Precipitation_Accumulation
0.00 0.00 0.00 0.00 0.00 0.00 0.00 0.00 0.00 0.11 0.09 0.06 0.13 0.18 0.23 0.35 0.63 0.80 0.64 1.12 1.13 1.13 0.91 2.06 2.06 1.66 0.92 0.48 0.26 0.16 0.08 0.03 0.03 0.03 0.01 0.01 0.02 0.04 0.02 0.00 0.00 0.00 0.01 0.00 0.00 0.00 0.00 0.00 0.01
0.00 0.00 0.00 0.00 0.00 0.00 0.00 0.00 0.02 0.09 0.16 0.24 0.26 0.18 0.17 0.55 0.47 0.50 0.66 0.71 0.61 0.52 0.49 0.79 1.68 1.71 1.13 0.72 0.40 0.26 0.12 0.02 0.02 0.03 0.03 0.01 0.01 0.01 0.00 0.00 0.00 0.01 0.00 0.00 0.00 0.01 0.00 0.00 0.00
0.00 0.00 0.00 0.00 0.00 0.00 0.00 0.02 0.04 0.08 0.16 0.15 0.09 0.08 0.31 1.03 0.77 0.70 0.53 0.91 0.96 0.54 0.51 0.45 0.83 0.80 0.67 0.61 0.45 0.36 0.27 0.06 0.01 0.02 0.02 0.01 0.00 0.00 0.00 0.00 0.01 0.01 0.00 0.00 0.00 0.00 0.00 0.00 0.00
0.00 0.00 0.00 0.00 0.00 0.00 0.00 0.01 0.10 0.03 0.09 0.11 0.07 0.12 0.43 0.55 0.63 0.51 0.48 0.85 1.38 1.15 0.67 0.71 1.23 1.93 1.56 1.00 0.54 0.29 0.22 0.09 0.00 0.00 0.00 0.00 0.00 0.00 0.00 0.00 0.00 0.01 0.00 0.00 0.00 0.00 0.00 0.00 0.00
0.00 0.00 0.00 0.00 0.00 0.00 0.00 0.00 0.01 0.06 0.14 0.14 0.12 0.07 0.74 0.69 0.42 0.66 1.13 1.59 2.03 1.91 1.76 1.09 1.50 1.77 2.23 2.46 1.54 0.86 0.47 0.13 0.01 0.00 0.00 0.00 0.00 0.00 0.00 0.00 0.00 0.00 0.00 0.00 0.00 0.00 0.00 0.00 0.00
0.00 0.00 0.00 0.00 0.00 0.00 0.02 0.02 0.06 0.19 0.28 0.29 0.19 0.31 0.71 0.44 0.52 0.81 2.00 2.48 3.12 3.04 3.18 2.23 2.22 2.46 1.85 1.46 2.60 1.81 0.82 0.25 0.04 0.02 0.02 0.01 0.00 0.00 0.00 0.01 0.01 0.00 0.00 0.00 0.00 0.00 0.00 0.00 0.00
0.00 0.00 0.00 0.00 0.00 0.00 0.02 0.10 0.33 0.58 0.31 0.13 0.10 0.51 0.99 0.79 0.56 0.66 1.63 3.72 5.11 6.75 7.31 5.63 3.60 3.17 3.32 1.96 1.59 1.89 1.02 0.26 0.11 0.02 0.02 0.02 0.01 0.01 0.00 0.00 0.00 0.00 0.00 0.00 0.00 0.00 0.00 0.00 0.00
0.00 0.00 0.00 0.00 0.00 0.02 0.08 0.18 0.24 0.28 0.45 0.39 0.14 0.69 1.00 0.63 0.56 0.86 1.20 2.90 4.42 8.91 9.60 6.73 4.77 2.74 1.45 2.01 1.67 1.20 0.70 0.40 0.17 0.06 0.03 0.05 0.05 0.02 0.00 0.00 0.00 0.00 0.00 0.00 0.00 0.00 0.00 0.00 0.00
0.00 0.00 0.00 0.00 0.01 0.04 0.10 0.14 0.33 0.26 0.22 0.31 0.21 0.48 0.64 0.77 0.77 0.82 1.06 1.89 3.63 4.94 5.23 6.49 5.89 3.08 1.46 1.39 1.46 0.80 0.43 0.44 0.38 0.19 0.12 0.04 0.07 0.08 0.02 0.00 0.00 0.00 0.00 0.00 0.00 0.00 0.00 0.00 0.00
0.00 0.00 0.00 0.00 0.01 0.08 0.27 0.30 0.29 0.16 0.34 0.23 0.37 0.52 0.80 0.81 0.65 0.60 0.92 1.26 2.02 2.38 3.26 2.73 2.66 1.45 0.79 0.85 0.81 0.55 0.40 0.27 0.48 0.31 0.11 0.06 0.04 0.03 0.01 0.00 0.00 0.00 0.00 0.00 0.00 0.00 0.00 0.00 0.00
0.00 0.00 0.00 0.00 0.01 0.08 0.10 0.06 0.12 0.07 0.26 0.43 0.81 0.78 0.91 0.76 0.54 0.31 0.39 0.80 0.84 0.92 1.01 1.01 1.12 0.87 0.57 0.39 0.37 0.19 0.18 0.19 0.29 0.31 0.17 0.07 0.03 0.02 0.02 0.04 0.00 0.01 0.00 0.00 0.00 0.00 0.00 0.00 0.00
0.00 0.00 0.00 0.00 0.00 0.01 0.01 0.09 0.18 0.18 0.75 0.41 0.48 0.42 0.55 0.33 0.24 0.27 0.30 0.33 0.35 0.53 0.73 0.92 0.75 0.88 0.72 0.46 0.37 0.25 0.17 0.08 0.19 0.20 0.12 0.06 0.05 0.05 0.01 0.01 0.00 0.00 0.00 0.00 0.00 0.00 0.00 0.00 0.00
0.00 0.00 0.00 0.00 0.03 0.02 0.07 0.04 0.08 0.65 0.29 0.16 0.19 0.20 0.23 0.16 0.12 0.13 0.13 0.15 0.18 0.40 0.69 0.84 0.67 0.66 0.60 0.46 0.40 0.31 0.20 0.13 0.21 0.11 0.10 0.03 0.01 0.03 0.01 0.00 0.00 0.00 0.00 0.00 0.00 0.00 0.00 0.00 0.00
0.00 0.00 0.00 0.00 0.02 0.02 0.04 0.07 0.11 0.65 0.30 0.05 0.06 0.07 0.06 0.06 0.04 0.04 0.03 0.03 0.15 0.39 0.60 0.87 0.96 0.59 0.50 0.48 0.46 0.43 0.31 0.18 0.18 0.15 0.27 0.15 0.03 0.01 0.01 0.01 0.00 0.00 0.00 0.00 0.00 0.00 0.00 0.00 0.00
0.00 0.00 0.00 0.00 0.01 0.02 0.04 0.10 0.17 0.40 0.14 0.05 0.00 0.01 0.05 0.09 0.04 0.01 0.00 0.01 0.03 0.15 0.27 1.08 1.29 0.95 0.60 0.32 0.42 0.47 0.41 0.24 0.16 0.23 0.34 0.19 0.05 0.00 0.01 0.01 0.01 0.00 0.00 0.00 0.00 0.00 0.00 0.00 0.00
0.00 0.00 0.00 0.02 0.00 0.02 0.04 0.48 0.14 0.06 0.07 0.06 0.00 0.00 0.03 0.05 0.02 0.01 0.00 0.01 0.01 0.02 0.23 1.28 1.27 0.73 0.73 0.46 0.40 0.67 0.43 0.22 0.20 0.22 0.18 0.07 0.03 0.03 0.01 0.04 0.03 0.00 0.00 0.00 0.00 0.00 0.00 0.00 0.00
0.00 0.00 0.00 0.00 0.00 0.01 0.02 0.19 0.15 0.05 0.06 0.08 0.01 0.00 0.00 0.00 0.02 0.00 0.02 0.02 0.02 0.03 0.30 0.87 0.88 0.65 0.84 1.18 1.29 0.72 0.17 0.11 0.10 0.12 0.13 0.08 0.07 0.08 0.04 0.02 0.00 0.01 0.02 0.00 0.00 0.00 0.00 0.01 0.00
0.00 0.00 0.00 0.00 0.00 0.00 0.00 0.02 0.15 0.05 0.06 0.06 0.02 0.00 0.01 0.00 0.00 0.02 0.08 0.06 0.03 0.07 0.46 0.74 0.79 1.11 1.47 1.18 0.45 0.14 0.07 0.06 0.07 0.11 0.06 0.09 0.10 0.08 0.07 0.05 0.03 0.05 0.05 0.00 0.00 0.00 0.00 0.00 0.00
0.00 0.00 0.00 0.00 0.00 0.00 0.00 0.01 0.02 0.03 0.04 0.04 0.02 0.01 0.01 0.00 0.01 0.05 0.08 0.11 0.12 0.19 0.55 0.68 0.83 0.66 0.40 0.14 0.14 0.09 0.10 0.07 0.05 0.06 0.02 0.05 0.07 0.05 0.07 0.09 0.08 0.10 0.05 0.01 0.00 0.00 0.00 0.00 0.00
0.00 0.00 0.00 0.00 0.00 0.00 0.00 0.00 0.00 0.01 0.17 0.03 0.01 0.01 0.00 0.00 0.00 0.01 0.02 0.08 0.22 0.43 0.48 0.40 0.31 0.17 0.16 0.10 0.08 0.06 0.07 0.02 0.00 0.01 0.03 0.06 0.10 0.05 0.08 0.09 0.05 0.05 0.04 0.02 0.00 0.00 0.00 0.00 0.00
0.00 0.00 0.00 0.00 0.00 0.00 0.00 0.00 0.00 0.00 0.02 0.05 0.03 0.03 0.00 0.01 0.03 0.05 0.09 0.12 0.12 0.10 0.06 0.08 0.13 0.08 0.12 0.06 0.01 0.00 0.01 0.01 0.00 0.01 0.04 0.04 0.05 0.05 0.03 0.10 0.07 0.05 0.01 0.00 0.00 0.00 0.01 0.01 0.01
0.00 0.00 0.00 0.00 0.00 0.00 0.00 0.00 0.02 0.01 0.00 0.05 0.01 0.01 0.02 0.03 0.03 0.02 0.01 0.01 0.00 0.05 0.08 0.12 0.10 0.09 0.03 0.01 0.01 0.00 0.00 0.01 0.02 0.06 0.03 0.04 0.05 0.05 0.02 0.01 0.01 0.02 0.00 0.00 0.00 0.02 0.02 0.03 0.02
0.00 0.00 0.00 0.00 0.00 0.06 0.02 0.01 0.02 0.02 0.00 0.00 0.01 0.01 0.01 0.00 0.00 0.02 0.01 0.03 0.05 0.04 0.08 0.09 0.10 0.13 0.04 0.02 0.00 0.02 0.01 0.01 0.03 0.04 0.05 0.03 0.02 0.03 0.03 0.02 0.06 0.02 0.01 0.04 0.05 0.04 0.05 0.06 0.05
0.00 0.00 0.00 0.00 0.00 0.01 0.01 0.03 0.02 0.01 0.02 0.03 0.02 0.01 0.00 0.01 0.08 0.06 0.04 0.06 0.06 0.07 0.20 0.11 0.11 0.08 0.07 0.04 0.01 0.06 0.13 0.08 0.06 0.05 0.04 0.05 0.04 0.02 0.04 0.05 0.03 0.06 0.04 0.09 0.12 0.16 0.15 0.19 0.15
0.00 0.00 0.01 0.10 0.02 0.01 0.03 0.03 0.01 0.01 0.02 0.11 0.07 0.00 0.00 0.01 0.04 0.02 0.02 0.05 0.05 0.09 0.20 0.10 0.04 0.06 0.04 0.03 0.06 0.10 0.21 0.17 0.17 0.09 0.06 0.13 0.09 0.05 0.07 0.15 0.11 0.09 0.20 0.24 0.31 0.33 0.30 0.33 0.41
0.00 0.00 0.01 0.17 0.12 0.04 0.05 0.01 0.00 0.00 0.00 0.00 0.00 0.00 0.00 0.00 0.00 0.01 0.02 0.05 0.07 0.17 0.18 0.08 0.03 0.06 0.06 0.13 0.25 0.22 0.21 0.28 0.40 0.30 0.16 0.24 0.15 0.10 0.13 0.21 0.35 0.32 0.32 0.32 0.35 0.46 0.63 0.73 0.67
0.00 0.00 0.00 0.01 0.02 0.04 0.04 0.01 0.00 0.00 0.00 0.00 0.00 0.00 0.00 0.00 0.00 0.00 0.01 0.00 0.02 0.23 0.17 0.05 0.03 0.02 0.03 0.15 0.26 0.15 0.36 0.63 0.51 0.40 0.37 0.37 0.39 0.36 0.30 0.36 0.47 0.48 0.40 0.51 0.58 0.56 0.41 0.31 0.25
0.00 0.00 0.00 0.00 0.05 0.05 0.00 0.00 0.01 0.01 0.00 0.00 0.00 0.00 0.00 0.00 0.00 0.00 0.00 0.00 0.01 0.06 0.05 0.02 0.07 0.20 0.17 0.06 0.09 0.12 0.18 0.30 0.40 0.33 0.37 0.59 0.63 0.47 0.52 0.50 0.49 0.42 0.31 0.32 0.35 0.31 0.25 0.29 0.29
0.00 0.00 0.00 0.00 0.00 0.04 0.03 0.00 0.00 0.00 0.00 0.00 0.00 0.00 0.00 0.00 0.00 0.00 0.00 0.00 0.00 0.00 0.00 0.00 0.01 0.16 0.36 0.55 0.45 0.27 0.37 0.35 0.58 0.60 0.75 0.59 0.55 0.64 0.68 0.48 0.36 0.29 0.42 0.42 0.31 0.33 0.34 0.34 0.36
0.00 0.00 0.01 0.01 0.00 0.01 0.01 0.00 0.00 0.00 0.00 0.00 0.00 0.00 0.00 0.00 0.00 0.00 0.00 0.00 0.00 0.00 0.00 0.01 0.01 0.13 0.43 1.26 1.31 0.80 0.90 0.78 0.75 0.81 0.77 0.81 0.80 0.75 0.58 0.39 0.30 0.30 0.35 0.50 0.57 0.40 0.31 0.26 0.23

GFSSGP_prec_precacc_069.txt.gz
Total_Precipitation_Accumulation
0.00 0.00 0.00 0.00 0.00 0.00 0.00 0.00 0.00 0.11 0.09 0.06 0.13 0.18 0.23 0.35 0.63 0.80 0.64 1.12 1.13 1.14 0.91 2.06 2.06 1.66 0.92 0.48 0.26 0.16 0.08 0.03 0.03 0.03 0.01 0.01 0.02 0.04 0.02 0.00 0.00 0.00 0.01 0.00 0.00 0.00 0.01 0.01 0.01
0.00 0.00 0.00 0.00 0.00 0.00 0.00 0.00 0.02 0.09 0.16 0.24 0.26 0.18 0.17 0.55 0.47 0.50 0.66 0.71 0.63 0.55 0.59 0.83 1.69 1.72 1.13 0.72 0.40 0.26 0.13 0.03 0.02 0.03 0.03 0.01 0.01 0.01 0.00 0.00 0.00 0.01 0.00 0.00 0.00 0.01 0.01 0.00 0.00
0.00 0.00 0.00 0.00 0.00 0.00 0.00 0.02 0.04 0.08 0.16 0.15 0.09 0.08 0.31 1.03 0.77 0.70 0.53 0.92 1.00 0.61 0.76 0.47 0.89 0.86 0.67 0.61 0.45 0.36 0.27 0.06 0.01 0.02 0.02 0.01 0.00 0.01 0.01 0.00 0.01 0.01 0.01 0.00 0.01 0.00 0.00 0.00 0.00
0.00 0.00 0.00 0.00 0.00 0.00 0.00 0.01 0.10 0.03 0.09 0.11 0.07 0.12 0.43 0.55 0.63 0.51 0.48 0.85 1.43 1.25 1.09 0.77 1.25 1.93 1.56 1.00 0.54 0.29 0.22 0.10 0.01 0.00 0.00 0.00 0.00 0.01 0.01 0.00 0.01 0.01 0.01 0.01 0.00 0.00 0.00 0.00 0.00
0.00 0.00 0.00 0.00 0.00 0.00 0.00 0.00 0.01 0.06 0.14 0.14 0.12 0.07 0.74 0.69 0.42 0.66 1.13 1.60 2.06 1.97 2.14 1.23 1.51 1.77 2.23 2.48 1.56 0.86 0.47 0.13 0.02 0.00 0.00 0.00 0.00 0.01 0.01 0.01 0.00 0.01 0.00 0.00 0.00 0.00 0.00 0.00 0.00
0.00 0.00 0.00 0.00 0.00 0.00 0.02 0.02 0.06 0.19 0.28 0.29 0.19 0.31 0.71 0.44 0.52 0.81 2.00 2.48 3.18 3.14 3.39 2.42 2.25 2.46 1.86 1.49 2.62 1.82 0.85 0.29 0.07 0.02 0.02 0.01 0.00 0.01 0.01 0.01 0.01 0.00 0.00 0.00 0.00 0.00 0.00 0.00 0.00
0.00 0.00 0.00 0.00 0.00 0.00 0.02 0.10 0.33 0.58 0.31 0.13 0.10 0.51 0.99 0.79 0.56 0.66 1.63 3.73 5.16 6.79 7.45 5.94 3.76 3.25 3.36 2.05 1.68 1.96 1.17 0.40 0.19 0.04 0.02 0.02 0.01 0.02 0.00 0.00 0.00 0.00 0.00 0.00 0.00 0.00 0.00 0.00 0.00
0.00 0.00 0.00 0.00 0.00 0.02 0.08 0.18 0.24 0.28 0.45 0.39 0.14 0.69 1.00 0.63 0.56 0.86 1.20 2.91 4.46 9.03 9.71 6.87 4.95 3.04 1.54 2.08 1.77 1.34 0.87 0.61 0.32 0.12 0.04 0.05 0.05 0.02 0.00 0.00 0.00 0.00 0.00 0.00 0.00 0.00 0.00 0.00 0.00
0.00 0.00 0.00 0.00 0.01 0.04 0.10 0.14 0.33 0.26 0.22 0.31 0.21 0.48 0.64 0.77 0.77 0.82 1.07 1.94 3.68 5.04 5.28 6.56 6.19 3.56 2.18 1.72 1.90 1.40 0.93 0.69 0.58 0.31 0.14 0.04 0.07 0.08 0.02 0.00 0.00 0.00 0.00 0.00 0.00 0.00 0.00 0.00 0.00
0.00 0.00 0.00 0.00 0.01 0.08 0.27 0.30 0.29 0.16 0.34 0.23 0.37 0.52 0.80 0.81 0.65 0.60 0.93 1.28 2.03 2.39 3.28 2.84 3.14 2.47 1.59 1.62 1.72 1.07 0.86 0.46 0.58 0.45 0.13 0.06 0.04 0.03 0.01 0.00 0.00 0.00 0.00 0.00 0.00 0.00 0.00 0.00 0.00
0.00 0.00 0.00 0.00 0.01 0.08 0.10 0.06 0.12 0.07 0.26 0.43 0.81 0.78 0.91 0.76 0.54 0.31 0.40 0.82 0.86 0.92 1.03 1.13 1.37 1.12 0.78 0.76 0.59 0.42 0.34 0.30 0.35 0.42 0.17 0.07 0.03 0.02 0.02 0.04 0.00 0.01 0.00 0.00 0.00 0.00 0.00 0.00 0.00
0.00 0.00 0.00 0.00 0.00 0.01 0.01 0.09 0.18 0.18 0.75 0.41 0.48 0.42 0.55 0.33 0.24 0.27 0.30 0.33 0.35 0.54 0.75 0.98 0.78 0.96 0.96 0.63 0.40 0.30 0.19 0.12 0.21 0.24 0.12 0.06 0.05 0.05 0.01 0.01 0.00 0.00 0.00 0.00 0.00 0.00 0.00 0.00 0.00
0.00 0.00 0.00 0.00 0.03 0.02 0.07 0.04 0.08 0.65 0.29 0.16 0.19 0.20 0.23 0.16 0.12 0.13 0.13 0.15 0.18 0.40 0.69 0.94 0.73 0.76 0.71 0.53 0.40 0.31 0.20 0.14 0.23 0.12 0.10 0.03 0.01 0.03 0.01 0.00 0.00 0.00 0.00 0.00 0.00 0.00 0.00 0.00 0.00
0.00 0.00 0.00 0.00 0.02 0.02 0.04 0.07 0.11 0.65 0.30 0.05 0.06 0.07 0.06 0.06 0.04 0.04 0.03 0.03 0.15 0.39 0.60 0.98 1.12 0.78 0.76 0.58 0.47 0.45 0.32 0.18 0.18 0.16 0.27 0.15 0.03 0.01 0.01 0.01 0.00 0.00 0.00 0.00 0.00 0.00 0.00 0.00 0.00
0.00 0.00 0.00 0.00 0.01 0.02 0.04 0.10 0.17 0.40 0.14 0.05 0.00 0.01 0.05 0.09 0.04 0.01 0.00 0.01 0.03 0.15 0.28 1.12 1.46 1.03 0.92 0.46 0.45 0.54 0.54 0.27 0.16 0.23 0.34 0.19 0.05 0.00 0.01 0.01 0.01 0.00 0.00 0.00 0.00 0.00 0.00 0.00 0.00
0.00 0.00 0.00 0.02 0.00 0.02 0.04 0.48 0.14 0.06 0.07 0.06 0.00 0.00 0.03 0.05 0.02 0.01 0.00 0.01 0.01 0.02 0.24 1.28 1.38 0.93 0.95 0.75 0.52 0.97 0.56 0.27 0.22 0.23 0.19 0.07 0.03 0.03 0.01 0.04 0.03 0.00 0.00 0.00 0.00 0.00 0.00 0.00 0.00
0.00 0.00 0.00 0.00 0.00 0.01 0.02 0.19 0.15 0.05 0.06 0.08 0.01 0.00 0.00 0.00 0.02 0.00 0.02 0.02 0.02 0.03 0.30 0.87 0.94 0.92 1.22 1.43 1.38 0.92 0.34 0.14 0.16 0.19 0.17 0.08 0.07 0.08 0.04 0.02 0.00 0.01 0.02 0.00 0.00 0.00 0.00 0.01 0.00
0.00 0.00 0.00 0.00 0.00 0.00 0.00 0.02 0.15 0.05 0.06 0.06 0.02 0.00 0.01 0.00 0.00 0.02 0.08 0.06 0.03 0.07 0.46 0.74 0.81 1.24 1.58 1.25 0.51 0.16 0.13 0.09 0.10 0.18 0.12 0.09 0.10 0.08 0.07 0.05 0.03 0.05 0.05 0.00 0.00 0.00 0.00 0.00 0.00
0.00 0.00 0.00 0.00 0.00 0.00 0.00 0.01 0.02 0.03 0.04 0.04 0.02 0.01 0.01 0.00 0.01 0.05 0.08 0.11 0.12 0.20 0.55 0.68 0.83 0.68 0.43 0.16 0.16 0.11 0.12 0.08 0.06 0.08 0.08 0.08 0.07 0.05 0.07 0.09 0.08 0.10 0.05 0.02 0.00 0.01 0.01 0.01 0.00
0.00 0.00 0.00 0.00 0.00 0.00 0.00 0.00 0.00 0.01 0.17 0.03 0.01 0.01 0.00 0.00 0.00 0.01 0.02 0.08 0.22 0.43 0.48 0.40 0.31 0.17 0.16 0.11 0.09 0.07 0.09 0.06 0.03 0.04 0.07 0.09 0.10 0.05 0.08 0.09 0.05 0.05 0.05 0.05 0.03 0.04 0.02 0.03 0.01
0.00 0.00 0.00 0.00 0.00 0.00 0.00 0.00 0.00 0.00 0.02 0.05 0.03 0.03 0.00 0.01 0.03 0.05 0.09 0.12 0.12 0.10 0.06 0.08 0.13 0.08 0.12 0.06 0.03 0.02 0.05 0.10 0.05 0.05 0.09 0.09 0.06 0.05 0.03 0.11 0.09 0.08 0.05 0.05 0.06 0.06 0.04 0.03 0.02
0.00 0.00 0.00 0.00 0.00 0.00 0.00 0.00 0.02 0.01 0.00 0.05 0.01 0.01 0.02 0.03 0.03 0.02 0.01 0.01 0.00 0.05 0.08 0.12 0.10 0.09 0.03 0.01 0.01 0.01 0.01 0.04 0.06 0.07 0.06 0.08 0.07 0.06 0.02 0.02 0.03 0.05 0.05 0.05 0.05 0.06 0.03 0.03 0.03
0.00 0.00 0.00 0.00 0.00 0.06 0.02 0.01 0.02 0.02 0.00 0.00 0.01 0.01 0.01 0.00 0.00 0.02 0.01 0.03 0.05 0.04 0.08 0.09 0.10 0.13 0.04 0.02 0.00 0.02 0.01 0.01 0.04 0.06 0.07 0.06 0.04 0.04 0.04 0.02 0.07 0.03 0.02 0.05 0.06 0.05 0.05 0.06 0.05
0.00 0.00 0.00 0.00 0.00 0.01 0.01 0.03 0.02 0.01 0.02 0.03 0.02 0.01 0.00 0.01 0.08 0.06 0.04 0.06 0.06 0.07 0.20 0.11 0.11 0.08 0.07 0.04 0.01 0.06 0.13 0.08 0.06 0.05 0.04 0.05 0.04 0.02 0.05 0.05 0.04 0.06 0.04 0.09 0.12 0.16 0.15 0.19 0.18
0.00 0.00 0.01 0.10 0.02 0.01 0.03 0.03 0.01 0.01 0.02 0.11 0.07 0.00 0.00 0.01 0.04 0.02 0.02 0.05 0.05 0.09 0.20 0.10 0.04 0.06 0.04 0.03 0.06 0.10 0.21 0.17 0.17 0.09 0.06 0.13 0.09 0.05 0.07 0.15 0.11 0.09 0.20 0.24 0.31 0.33 0.30 0.33 0.43
0.00 0.00 0.01 0.17 0.12 0.04 0.05 0.01 0.00 0.00 0.00 0.00 0.00 0.00 0.00 0.00 0.00 0.01 0.02 0.05 0.07 0.17 0.18 0.08 0.03 0.06 0.06 0.13 0.25 0.22 0.21 0.28 0.40 0.30 0.16 0.24 0.15 0.10 0.13 0.21 0.35 0.32 0.32 0.32 0.35 0.46 0.63 0.73 0.68
0.00 0.00 0.00 0.01 0.02 0.04 0.04 0.01 0.00 0.00 0.00 0.00 0.00 0.00 0.00 0.00 0.00 0.00 0.01 0.00 0.02 0.23 0.17 0.05 0.03 0.02 0.03 0.15 0.26 0.15 0.36 0.63 0.51 0.40 0.37 0.37 0.39 0.36 0.30 0.36 0.47 0.48 0.40 0.51 0.58 0.56 0.41 0.32 0.28
0.00 0.00 0.00 0.00 0.05 0.05 0.00 0.00 0.01 0.01 0.00 0.00 0.00 0.00 0.00 0.00 0.00 0.00 0.00 0.00 0.01 0.06 0.05 0.02 0.07 0.21 0.18 0.06 0.09 0.12 0.18 0.30 0.40 0.33 0.37 0.59 0.63 0.47 0.52 0.50 0.49 0.42 0.31 0.32 0.35 0.31 0.25 0.29 0.31
0.00 0.00 0.00 0.00 0.00 0.04 0.03 0.00 0.00 0.00 0.00 0.00 0.00 0.00 0.00 0.00 0.00 0.00 0.00 0.00 0.00 0.00 0.00 0.00 0.01 0.16 0.37 0.59 0.48 0.27 0.37 0.35 0.58 0.60 0.75 0.59 0.55 0.64 0.68 0.48 0.36 0.29 0.43 0.47 0.36 0.36 0.36 0.37 0.39
0.00 0.00 0.01 0.01 0.00 0.01 0.01 0.00 0.00 0.00 0.00 0.00 0.00 0.00 0.00 0.00 0.00 0.00 0.00 0.00 0.00 0.00 0.00 0.01 0.01 0.13 0.43 1.29 1.38 0.85 0.90 0.78 0.75 0.81 0.77 0.81 0.80 0.75 0.58 0.39 0.31 0.33 0.39 0.57 0.72 0.62 0.53 0.48 0.43

GFSSGP_prec_precacc_072.txt.gz
Total_Precipitation_Accumulation
0.00 0.00 0.00 0.00 0.00 0.00 0.00 0.00 0.00 0.11 0.09 0.06 0.13 0.18 0.23 0.35 0.63 0.80 0.64 1.13 1.14 1.14 0.92 2.07 2.06 1.71 0.95 0.49 0.26 0.16 0.08 0.03 0.03 0.03 0.01 0.01 0.02 0.04 0.02 0.00 0.00 0.02 0.02 0.01 0.00 0.00 0.01 0.01 0.01
0.00 0.00 0.00 0.00 0.00 0.00 0.00 0.00 0.02 0.09 0.16 0.24 0.26 0.18 0.17 0.55 0.47 0.50 0.66 0.71 0.64 0.56 0.59 0.85 1.77 1.89 1.20 0.73 0.41 0.26 0.13 0.03 0.02 0.03 0.03 0.02 0.01 0.01 0.00 0.00 0.00 0.01 0.01 0.01 0.00 0.01 0.01 0.00 0.00
0.00 0.00 0.00 0.00 0.00 0.00 0.00 0.02 0.04 0.08 0.16 0.15 0.09 0.08 0.31 1.03 0.77 0.70 0.53 0.92 1.01 0.66 0.82 0.54 1.09 1.26 1.24 0.78 0.46 0.36 0.27 0.06 0.01 0.02 0.02 0.01 0.00 0.01 0.01 0.00 0.01 0.01 0.01 0.00 0.01 0.01 0.01 0.00 0.00
0.00 0.00 0.00 0.00 0.00 0.00 0.00 0.01 0.10 0.03 0.09 0.11 0.07 0.12 0.43 0.55 0.63 0.51 0.48 0.86 1.45 1.33 1.46 1.06 1.42 2.22 1.95 1.68 0.65 0.29 0.22 0.10 0.01 0.00 0.00 0.00 0.00 0.01 0.01 0.01 0.01 0.01 0.01 0.01 0.00 0.00 0.00 0.00 0.00
0.00 0.00 0.00 0.00 0.00 0.00 0.00 0.00 0.01 0.06 0.14 0.14 0.12 0.07 0.74 0.69 0.42 0.66 1.14 1.60 2.09 2.02 2.37 1.33 1.52 1.80 2.35 2.92 1.77 0.88 0.47 0.13 0.02 0.00 0.00 0.00 0.00 0.01 0.01 0.01 0.01 0.02 0.01 0.01 0.00 0.00 0.00 0.00 0.00
0.00 0.00 0.00 0.00 0.00 0.00 0.02 0.02 0.06 0.19 0.28 0.29 0.19 0.31 0.71 0.44 0.52 0.81 2.00 2.48 3.21 3.15 3.44 2.43 2.25 2.47 1.90 1.75 2.85 1.94 0.86 0.30 0.08 0.02 0.03 0.01 0.00 0.01 0.01 0.01 0.02 0.02 0.01 0.00 0.00 0.00 0.00 0.00 0.00
0.00 0.00 0.00 0.00 0.00 0.00 0.02 0.10 0.33 0.58 0.31 0.13 0.10 0.51 0.99 0.79 0.56 0.66 1.63 3.73 5.19 6.82 7.52 6.00 3.78 3.26 3.41 2.20 1.93 2.34 1.47 0.46 0.19 0.04 0.05 0.03 0.01 0.02 0.00 0.00 0.01 0.01 0.00 0.00 0.00 0.00 0.00 0.00 0.00
0.00 0.00 0.00 0.00 0.00 0.02 0.08 0.18 0.24 0.28 0.45 0.39 0.14 0.69 1.00 0.63 0.56 0.86 1.20 2.92 4.48 9.08 9.74 7.07 5.01 3.07 1.65 2.29 1.89 1.46 1.13 0.84 0.42 0.16 0.06 0.06 0.05 0.02 0.00 0.00 0.00 0.00 0.00 0.00 0.00 0.00 0.00 0.00 0.00
0.00 0.00 0.00 0.00 0.01 0.04 0.10 0.14 0.33 0.26 0.22 0.31 0.21 0.48 0.64 0.77 0.77 0.82 1.07 1.94 3.71 5.12 5.30 6.60 6.27 3.80 2.54 2.25 2.13 1.52 1.07 0.87 0.78 0.48 0.22 0.07 0.07 0.08 0.02 0.00 0.00 0.00 0.00 0.00 0.00 0.00 0.00 0.00 0.00
0.00 0.00 0.00 0.00 0.01 0.08 0.27 0.30 0.29 0.16 0.34 0.23 0.37 0.52 0.80 0.81 0.65 0.60 0.93 1.28 2.04 2.39 3.28 2.86 3.19 2.73 1.98 2.73 2.66 1.44 1.10 0.65 0.70 0.58 0.25 0.12 0.06 0.03 0.01 0.00 0.01 0.00 0.00 0.00 0.00 0.00 0.00 0.00 0.00
0.00 0.00 0.00 0.00 0.01 0.08 0.10 0.06 0.12 0.07 0.26 0.43 0.81 0.78 0.91 0.76 0.54 0.31 0.40 0.83 0.86 0.93 1.05 1.20 1.43 1.24 1.18 1.66 1.33 1.16 0.80 0.60 0.54 0.58 0.28 0.12 0.05 0.02 0.02 0.04 0.00 0.01 0.00 0.00 0.00 0.00 0.00 0.00 0.00
0.00 0.00 0.00 0.00 0.00 0.01 0.01 0.09 0.18 0.18 0.75 0.41 0.48 0.42 0.55 0.33 0.24 0.27 0.30 0.33 0.35 0.54 0.75 0.99 0.79 0.99 1.13 1.17 0.79 0.60 0.48 0.36 0.40 0.42 0.21 0.08 0.05 0.05 0.01 0.01 0.00 0.00 0.00 0.00 0.00 0.00 0.00 0.00 0.00
0.00 0.00 0.00 0.00 0.03 0.02 0.07 0.04 0.08 0.65 0.29 0.16 0.19 0.20 0.23 0.16 0.12 0.13 0.13 0.15 0.18 0.40 0.70 0.94 0.75 0.78 0.82 0.65 0.55 0.43 0.26 0.28 0.38 0.27 0.16 0.04 0.01 0.03 0.01 0.00 0.00 0.00 0.00 0.00 0.00 0.00 0.00 0.00 0.00
0.00 0.00 0.00 0.00 0.02 0.02 0.04 0.07 0.11 0.65 0.30 0.05 0.06 0.07 0.06 0.06 0.04 0.04 0.03 0.03 0.15 0.39 0.61 0.99 1.19 0.83 0.85 0.63 0.55 0.50 0.35 0.23 0.29 0.26 0.28 0.15 0.03 0.01 0.01 0.01 0.00 0.00 0.00 0.00 0.00 0.00 0.00 0.00 0.00
0.00 0.00 0.00 0.00 0.01 0.02 0.04 0.10 0.17 0.40 0.14 0.05 0.00 0.01 0.05 0.09 0.04 0.01 0.00 0.01 0.03 0.15 0.28 1.13 1.60 1.15 1.01 0.58 0.58 0.60 0.57 0.29 0.21 0.29 0.34 0.19 0.05 0.00 0.01 0.01 0.01 0.00 0.00 0.00 0.00 0.00 0.00 0.00 0.00
0.00 0.00 0.00 0.02 0.00 0.02 0.04 0.48 0.14 0.06 0.07 0.06 0.00 0.00 0.03 0.05 0.02 0.01 0.00 0.01 0.01 0.03 0.24 1.31 1.41 0.97 1.02 0.79 0.70 1.10 0.63 0.34 0.26 0.26 0.19 0.07 0.03 0.03 0.01 0.04 0.03 0.00 0.00 0.00 0.00 0.00 0.00 0.00 0.00
0.00 0.00 0.00 0.00 0.00 0.01 0.02 0.19 0.15 0.05 0.06 0.08 0.01 0.00 0.00 0.00 0.02 0.00 0.02 0.02 0.02 0.04 0.31 0.88 0.95 0.98 1.27 1.51 1.50 1.03 0.50 0.25 0.22 0.21 0.17 0.08 0.07 0.08 0.04 0.02 0.00 0.01 0.02 0.00 0.00 0.00 0.00 0.01 0.00
0.00 0.00 0.00 0.00 0.00 0.00 0.00 0.02 0.15 0.05 0.06 0.06 0.02 0.00 0.01 0.00 0.00 0.02 0.08 0.06 0.03 0.07 0.47 0.75 0.82 1.31 1.78 1.38 0.59 0.24 0.23 0.21 0.22 0.27 0.14 0.10 0.10 0.08 0.07 0.05 0.03 0.05 0.05 0.00 0.00 0.00 0.00 0.00 0.00
0.00 0.00 0.00 0.00 0.00 0.00 0.00 0.01 0.02 0.03 0.04 0.04 0.02 0.01 0.01 0.00 0.01 0.05 0.08 0.11 0.12 0.20 0.55 0.69 0.84 0.71 0.49 0.24 0.19 0.17 0.17 0.14 0.13 0.14 0.11 0.08 0.07 0.05 0.07 0.09 0.08 0.10 0.05 0.02 0.00 0.01 0.03 0.01 0.00
0.00 0.00 0.00 0.00 0.00 0.00 0.00 0.00 0.00 0.01 0.17 0.03 0.01 0.01 0.00 0.00 0.00 0.01 0.02 0.08 0.22 0.43 0.48 0.40 0.31 0.18 0.17 0.13 0.10 0.11 0.13 0.09 0.05 0.09 0.10 0.12 0.11 0.05 0.08 0.09 0.05 0.05 0.05 0.05 0.03 0.04 0.03 0.05 0.05
0.00 0.00 0.00 0.00 0.00 0.00 0.00 0.00 0.00 0.00 0.02 0.05 0.03 0.03 0.00 0.01 0.03 0.05 0.09 0.12 0.12 0.10 0.06 0.09 0.14 0.08 0.12 0.06 0.04 0.04 0.08 0.13 0.07 0.09 0.14 0.16 0.07 0.05 0.03 0.11 0.09 0.08 0.05 0.05 0.06 0.06 0.04 0.04 0.05
0.00 0.00 0.00 0.00 0.00 0.00 0.00 0.00 0.02 0.01 0.00 0.05 0.01 0.01 0.02 0.03 0.03 0.02 0.01 0.01 0.00 0.05 0.08 0.12 0.10 0.09 0.03 0.01 0.01 0.01 0.01 0.04 0.06 0.07 0.09 0.18 0.13 0.06 0.03 0.02 0.04 0.05 0.05 0.08 0.07 0.06 0.04 0.06 0.11
0.00 0.00 0.00 0.00 0.00 0.06 0.02 0.01 0.02 0.02 0.00 0.00 0.01 0.01 0.01 0.00 0.00 0.02 0.01 0.03 0.05 0.04 0.08 0.09 0.10 0.13 0.04 0.02 0.00 0.02 0.01 0.01 0.05 0.07 0.10 0.16 0.19 0.06 0.05 0.03 0.09 0.05 0.03 0.11 0.13 0.07 0.06 0.07 0.12
0.00 0.00 0.00 0.00 0.00 0.01 0.01 0.03 0.02 0.01 0.02 0.03 0.02 0.01 0.00 0.01 0.08 0.06 0.04 0.06 0.06 0.07 0.20 0.11 0.11 0.08 0.07 0.04 0.01 0.06 0.13 0.08 0.06 0.07 0.05 0.08 0.12 0.07 0.06 0.06 0.06 0.10 0.08 0.15 0.18 0.22 0.21 0.23 0.22
0.00 0.00 0.01 0.10 0.02 0.01 0.03 0.03 0.01 0.01 0.02 0.11 0.07 0.00 0.00 0.01 0.04 0.02 0.02 0.05 0.05 0.09 0.20 0.10 0.04 0.06 0.04 0.03 0.06 0.10 0.21 0.17 0.17 0.09 0.06 0.13 0.09 0.05 0.08 0.15 0.11 0.10 0.22 0.26 0.34 0.37 0.35 0.36 0.45
0.00 0.00 0.01 0.17 0.12 0.04 0.05 0.01 0.00 0.00 0.00 0.00 0.00 0.00 0.00 0.00 0.00 0.01 0.02 0.05 0.07 0.17 0.18 0.08 0.03 0.06 0.06 0.13 0.25 0.22 0.21 0.28 0.40 0.30 0.16 0.24 0.15 0.10 0.13 0.21 0.36 0.32 0.33 0.34 0.38 0.48 0.64 0.74 0.69
0.00 0.00 0.00 0.01 0.02 0.04 0.04 0.01 0.00 0.00 0.00 0.00 0.00 0.00 0.00 0.00 0.00 0.00 0.01 0.00 0.02 0.23 0.17 0.05 0.03 0.02 0.03 0.15 0.26 0.15 0.36 0.63 0.51 0.40 0.37 0.37 0.39 0.36 0.30 0.36 0.47 0.48 0.40 0.52 0.59 0.56 0.41 0.32 0.28
0.00 0.00 0.00 0.00 0.05 0.05 0.00 0.00 0.01 0.01 0.00 0.00 0.00 0.00 0.00 0.00 0.00 0.00 0.00 0.00 0.01 0.06 0.05 0.02 0.07 0.21 0.18 0.06 0.09 0.12 0.18 0.30 0.40 0.33 0.37 0.59 0.63 0.47 0.52 0.50 0.49 0.42 0.31 0.32 0.35 0.31 0.25 0.29 0.31
0.00 0.00 0.00 0.00 0.00 0.04 0.03 0.00 0.00 0.00 0.00 0.00 0.00 0.00 0.00 0.00 0.00 0.00 0.00 0.00 0.00 0.00 0.00 0.00 0.01 0.16 0.37 0.59 0.48 0.27 0.37 0.35 0.58 0.60 0.75 0.59 0.55 0.64 0.68 0.48 0.36 0.29 0.43 0.47 0.36 0.36 0.36 0.37 0.39
0.00 0.00 0.01 0.01 0.00 0.01 0.01 0.00 0.00 0.00 0.00 0.00 0.00 0.00 0.00 0.00 0.00 0.00 0.00 0.00 0.00 0.00 0.00 0.01 0.01 0.13 0.43 1.29 1.38 0.85 0.90 0.78 0.75 0.81 0.77 0.81 0.80 0.75 0.58 0.39 0.31 0.33 0.39 0.57 0.72 0.62 0.54 0.50 0.46

GFSSGP_prec_precacc_075.txt.gz
Total_Precipitation_Accumulation
0.00 0.00 0.00 0.00 0.00 0.00 0.00 0.00 0.00 0.11 0.09 0.06 0.13 0.18 0.23 0.35 0.63 0.80 0.64 1.13 1.14 1.14 0.92 2.07 2.06 1.72 1.12 0.58 0.27 0.17 0.08 0.03 0.03 0.03 0.01 0.01 0.03 0.05 0.02 0.00 0.00 0.02 0.03 0.01 0.01 0.01 0.01 0.01 0.01
0.00 0.00 0.00 0.00 0.00 0.00 0.00 0.00 0.02 0.09 0.16 0.24 0.26 0.18 0.17 0.55 0.47 0.50 0.66 0.71 0.64 0.56 0.60 0.89 1.78 1.94 1.50 1.07 0.55 0.30 0.13 0.03 0.02 0.03 0.03 0.02 0.01 0.02 0.00 0.01 0.00 0.01 0.02 0.01 0.00 0.01 0.01 0.00 0.00
0.00 0.00 0.00 0.00 0.00 0.00 0.00 0.02 0.04 0.08 0.16 0.15 0.09 0.08 0.31 1.03 0.77 0.70 0.53 0.92 1.01 0.67 0.85 0.72 1.13 1.38 1.63 1.76 1.34 0.63 0.32 0.06 0.01 0.02 0.02 0.01 0.00 0.01 0.01 0.00 0.01 0.01 0.01 0.00 0.01 0.01 0.01 0.00 0.00
0.00 0.00 0.00 0.00 0.00 0.00 0.00 0.01 0.10 0.03 0.09 0.11 0.07 0.12 0.43 0.55 0.63 0.51 0.48 0.86 1.45 1.35 1.54 1.20 1.73 2.64 2.27 2.15 2.03 1.10 0.33 0.10 0.01 0.00 0.00 0.00 0.00 0.01 0.01 0.01 0.01 0.01 0.01 0.01 0.01 0.01 0.00 0.00 0.00
0.00 0.00 0.00 0.00 0.00 0.00 0.00 0.00 0.01 0.06 0.14 0.14 0.12 0.07 0.74 0.69 0.42 0.66 1.14 1.60 2.09 2.05 2.43 1.40 1.57 1.89 2.38 3.05 2.67 2.00 0.88 0.16 0.02 0.00 0.00 0.00 0.00 0.01 0.01 0.02 0.01 0.02 0.01 0.01 0.01 0.00 0.00 0.00 0.00
0.00 0.00 0.00 0.00 0.00 0.00 0.02 0.02 0.06 0.19 0.28 0.29 0.19 0.31 0.71 0.44 0.52 0.81 2.00 2.48 3.22 3.16 3.44 2.48 2.26 2.50 1.95 1.82 3.51 2.75 1.54 0.43 0.08 0.02 0.03 0.01 0.00 0.01 0.02 0.02 0.02 0.02 0.01 0.00 0.00 0.00 0.00 0.00 0.00
0.00 0.00 0.00 0.00 0.00 0.00 0.02 0.10 0.33 0.58 0.31 0.13 0.10 0.51 0.99 0.79 0.56 0.66 1.63 3.73 5.19 6.82 7.52 6.05 3.81 3.27 3.54 2.37 2.27 3.10 2.26 0.76 0.22 0.09 0.11 0.04 0.02 0.02 0.00 0.01 0.01 0.01 0.00 0.00 0.00 0.00 0.00 0.00 0.00
0.00 0.00 0.00 0.00 0.00 0.02 0.08 0.18 0.24 0.28 0.45 0.39 0.14 0.69 1.00 0.63 0.56 0.86 1.20 2.92 4.49 9.09 9.74 7.09 5.09 3.13 1.70 2.44 2.18 2.08 1.97 1.67 0.85 0.31 0.19 0.17 0.11 0.03 0.00 0.00 0.01 0.00 0.00 0.00 0.00 0.00 0.00 0.00 0.00
0.00 0.00 0.00 0.00 0.01 0.04 0.10 0.14 0.33 0.26 0.22 0.31 0.21 0.48 0.64 0.77 0.77 0.82 1.07 1.95 3.71 5.13 5.30 6.63 6.35 3.89 2.63 2.38 2.26 1.68 1.34 1.39 1.35 0.71 0.34 0.28 0.18 0.11 0.03 0.02 0.00 0.00 0.00 0.00 0.00 0.00 0.00 0.00 0.00
0.00 0.00 0.00 0.00 0.01 0.08 0.27 0.30 0.29 0.16 0.34 0.23 0.37 0.52 0.80 0.81 0.65 0.60 0.93 1.29 2.06 2.40 3.30 2.91 3.22 2.77 2.03 2.83 2.91 1.61 1.26 0.85 0.96 0.78 0.36 0.37 0.23 0.06 0.03 0.02 0.01 0.00 0.00 0.00 0.00 0.00 0.00 0.00 0.00
0.00 0.00 0.00 0.00 0.01 0.08 0.10 0.06 0.12 0.07 0.26 0.43 0.81 0.78 0.91 0.76 0.54 0.31 0.40 0.83 0.87 0.94 1.06 1.22 1.45 1.28 1.20 1.70 1.43 1.40 1.14 0.93 0.66 0.73 0.44 0.38 0.29 0.05 0.05 0.07 0.01 0.01 0.00 0.00 0.00 0.00 0.00 0.00 0.00
0.00 0.00 0.00 0.00 0.00 0.01 0.01 0.09 0.18 0.18 0.75 0.41 0.48 0.42 0.55 0.33 0.24 0.27 0.30 0.33 0.35 0.55 0.76 1.01 0.79 0.99 1.13 1.32 1.16 0.76 0.80 0.84 0.65 0.63 0.47 0.34 0.23 0.07 0.03 0.03 0.00 0.00 0.00 0.00 0.00 0.00 0.00 0.00 0.00
0.00 0.00 0.00 0.00 0.03 0.02 0.07 0.04 0.08 0.65 0.29 0.16 0.19 0.20 0.23 0.16 0.12 0.13 0.13 0.15 0.19 0.41 0.70 0.95 0.77 0.79 0.83 0.67 0.76 0.61 0.40 0.66 0.61 0.50 0.46 0.31 0.08 0.04 0.02 0.02 0.00 0.00 0.00 0.00 0.00 0.00 0.00 0.00 0.00
0.00 0.00 0.00 0.00 0.02 0.02 0.04 0.07 0.11 0.65 0.30 0.05 0.06 0.07 0.06 0.06 0.04 0.04 0.03 0.03 0.15 0.40 0.62 0.99 1.20 0.85 0.87 0.64 0.60 0.56 0.45 0.41 0.60 0.56 0.53 0.35 0.06 0.01 0.02 0.02 0.01 0.00 0.00 0.00 0.00 0.00 0.00 0.00 0.00
0.00 0.00 0.00 0.00 0.01 0.02 0.04 0.10 0.17 0.40 0.14 0.05 0.00 0.01 0.05 0.09 0.04 0.01 0.00 0.01 0.03 0.15 0.29 1.14 1.60 1.18 1.04 0.60 0.66 0.64 0.62 0.40 0.40 0.52 0.53 0.30 0.06 0.00 0.01 0.01 0.01 0.00 0.00 0.00 0.00 0.00 0.00 0.00 0.00
0.00 0.00 0.00 0.02 0.00 0.02 0.04 0.48 0.14 0.06 0.07 0.06 0.00 0.00 0.03 0.05 0.02 0.01 0.00 0.01 0.01 0.03 0.25 1.32 1.41 0.98 1.07 0.81 0.90 1.25 0.67 0.41 0.35 0.39 0.29 0.12 0.03 0.03 0.01 0.04 0.03 0.00 0.00 0.00 0.00 0.00 0.00 0.00 0.00
0.00 0.00 0.00 0.00 0.00 0.01 0.02 0.19 0.15 0.05 0.06 0.08 0.01 0.00 0.00 0.00 0.02 0.00 0.02 0.02 0.02 0.04 0.31 0.89 0.97 0.99 1.32 1.59 1.62 1.15 0.61 0.29 0.27 0.26 0.20 0.09 0.07 0.08 0.04 0.02 0.00 0.01 0.02 0.00 0.00 0.00 0.00 0.01 0.00
0.00 0.00 0.00 0.00 0.00 0.00 0.00 0.02 0.15 0.05 0.06 0.06 0.02 0.00 0.01 0.00 0.00 0.02 0.08 0.06 0.03 0.07 0.47 0.76 0.83 1.32 1.79 1.48 0.64 0.37 0.36 0.26 0.29 0.28 0.15 0.10 0.10 0.08 0.07 0.05 0.03 0.05 0.05 0.00 0.00 0.00 0.00 0.00 0.00
0.00 0.00 0.00 0.00 0.00 0.00 0.00 0.01 0.02 0.03 0.04 0.04 0.02 0.01 0.01 0.00 0.01 0.05 0.08 0.11 0.12 0.20 0.55 0.70 0.85 0.71 0.50 0.30 0.27 0.22 0.23 0.16 0.16 0.15 0.11 0.08 0.07 0.05 0.07 0.09 0.08 0.10 0.05 0.02 0.00 0.01 0.03 0.01 0.00
0.00 0.00 0.00 0.00 0.00 0.00 0.00 0.00 0.00 0.01 0.17 0.03 0.01 0.01 0.00 0.00 0.00 0.01 0.02 0.08 0.22 0.43 0.48 0.41 0.32 0.18 0.17 0.13 0.12 0.12 0.13 0.10 0.06 0.09 0.10 0.12 0.11 0.05 0.08 0.09 0.05 0.05 0.05 0.05 0.03 0.04 0.03 0.05 0.05
0.00 0.00 0.00 0.00 0.00 0.00 0.00 0.00 0.00 0.00 0.02 0.05 0.03 0.03 0.00 0.01 0.03 0.05 0.09 0.12 0.12 0.10 0.06 0.09 0.14 0.08 0.13 0.07 0.05 0.05 0.13 0.22 0.14 0.13 0.15 0.16 0.07 0.05 0.03 0.11 0.09 0.08 0.05 0.05 0.06 0.06 0.05 0.10 0.06
0.00 0.00 0.00 0.00 0.00 0.00 0.00 0.00 0.02 0.01 0.00 0.05 0.01 0.01 0.02 0.03 0.03 0.02 0.01 0.01 0.00 0.05 0.08 0.12 0.10 0.09 0.03 0.01 0.02 0.01 0.02 0.08 0.10 0.11 0.10 0.18 0.13 0.06 0.03 0.02 0.04 0.05 0.05 0.08 0.07 0.06 0.04 0.16 0.22
0.00 0.00 0.00 0.00 0.00 0.06 0.02 0.01 0.02 0.02 0.00 0.00 0.01 0.01 0.01 0.00 0.00 0.02 0.01 0.03 0.05 0.04 0.08 0.09 0.10 0.13 0.04 0.02 0.01 0.02 0.02 0.02 0.06 0.11 0.16 0.19 0.22 0.07 0.05 0.03 0.09 0.06 0.03 0.13 0.18 0.11 0.08 0.14 0.23
0.00 0.00 0.00 0.00 0.00 0.01 0.01 0.03 0.02 0.01 0.02 0.03 0.02 0.01 0.00 0.01 0.08 0.06 0.04 0.06 0.06 0.07 0.20 0.11 0.11 0.08 0.07 0.05 0.02 0.06 0.13 0.09 0.06 0.08 0.06 0.11 0.17 0.12 0.07 0.06 0.06 0.10 0.10 0.17 0.22 0.27 0.27 0.31 0.31
0.00 0.00 0.01 0.10 0.02 0.01 0.03 0.03 0.01 0.01 0.02 0.11 0.07 0.00 0.00 0.01 0.04 0.02 0.02 0.05 0.05 0.09 0.20 0.10 0.04 0.06 0.04 0.03 0.06 0.10 0.21 0.18 0.17 0.09 0.06 0.13 0.10 0.07 0.08 0.16 0.12 0.10 0.23 0.27 0.37 0.40 0.38 0.41 0.49
0.00 0.00 0.01 0.17 0.12 0.04 0.05 0.01 0.00 0.00 0.00 0.00 0.00 0.00 0.00 0.00 0.00 0.01 0.02 0.05 0.07 0.17 0.18 0.08 0.03 0.06 0.06 0.13 0.25 0.22 0.21 0.28 0.40 0.30 0.16 0.24 0.15 0.10 0.13 0.21 0.36 0.32 0.33 0.34 0.38 0.49 0.67 0.77 0.73
0.00 0.00 0.00 0.01 0.02 0.04 0.04 0.01 0.00 0.00 0.00 0.00 0.00 0.00 0.00 0.00 0.00 0.00 0.01 0.00 0.02 0.23 0.17 0.05 0.03 0.02 0.03 0.15 0.26 0.15 0.36 0.63 0.51 0.40 0.37 0.37 0.39 0.36 0.30 0.36 0.47 0.48 0.40 0.52 0.60 0.58 0.43 0.34 0.30
0.00 0.00 0.00 0.00 0.05 0.05 0.00 0.00 0.01 0.01 0.00 0.00 0.00 0.00 0.00 0.00 0.00 0.00 0.00 0.00 0.01 0.06 0.05 0.02 0.07 0.21 0.18 0.06 0.09 0.12 0.18 0.30 0.40 0.33 0.37 0.59 0.63 0.47 0.52 0.50 0.49 0.42 0.31 0.33 0.37 0.33 0.26 0.32 0.34
0.00 0.00 0.00 0.00 0.00 0.04 0.03 0.00 0.00 0.00 0.00 0.00 0.00 0.00 0.00 0.00 0.00 0.00 0.00 0.00 0.00 0.00 0.00 0.00 0.01 0.16 0.37 0.59 0.48 0.27 0.37 0.35 0.58 0.60 0.75 0.59 0.55 0.64 0.68 0.48 0.36 0.29 0.43 0.48 0.37 0.37 0.37 0.38 0.42
0.00 0.00 0.01 0.01 0.01 0.01 0.01 0.00 0.00 0.00 0.00 0.00 0.00 0.00 0.00 0.00 0.00 0.00 0.00 0.00 0.00 0.00 0.00 0.01 0.01 0.13 0.43 1.29 1.38 0.85 0.90 0.78 0.75 0.81 0.77 0.81 0.80 0.75 0.58 0.39 0.31 0.33 0.39 0.57 0.72 0.62 0.54 0.50 0.47

GFSSGP_prec_precacc_078.txt.gz
Total_Precipitation_Accumulation
0.00 0.00 0.00 0.00 0.00 0.00 0.00 0.00 0.00 0.11 0.09 0.06 0.13 0.18 0.23 0.35 0.63 0.80 0.65 1.13 1.14 1.14 0.93 2.08 2.06 1.72 1.15 0.62 0.30 0.18 0.09 0.03 0.03 0.03 0.01 0.01 0.03 0.05 0.02 0.00 0.00 0.02 0.04 0.02 0.02 0.01 0.01 0.01 0.01
0.00 0.00 0.00 0.00 0.00 0.00 0.00 0.00 0.02 0.09 0.16 0.24 0.26 0.18 0.17 0.55 0.47 0.50 0.66 0.71 0.64 0.56 0.60 0.89 1.78 1.94 1.59 1.34 0.98 0.65 0.30 0.06 0.02 0.03 0.03 0.02 0.01 0.02 0.01 0.01 0.01 0.02 0.02 0.02 0.01 0.02 0.01 0.00 0.00
0.00 0.00 0.00 0.00 0.00 0.00 0.00 0.02 0.04 0.08 0.16 0.15 0.09 0.08 0.31 1.03 0.77 0.70 0.53 0.92 1.01 0.67 0.86 0.73 1.15 1.43 1.68 1.85 2.07 1.63 0.94 0.20 0.02 0.03 0.02 0.01 0.00 0.02 0.02 0.01 0.01 0.01 0.02 0.01 0.02 0.01 0.01 0.00 0.00
0.00 0.00 0.00 0.00 0.00 0.00 0.00 0.01 0.10 0.03 0.09 0.11 0.07 0.12 0.43 0.55 0.63 0.51 0.48 0.86 1.45 1.35 1.55 1.22 1.80 2.79 2.32 2.22 2.46 2.15 1.54 0.84 0.11 0.04 0.00 0.00 0.00 0.01 0.01 0.01 0.02 0.03 0.01 0.01 0.01 0.01 0.00 0.00 0.00
0.00 0.00 0.00 0.00 0.00 0.00 0.00 0.00 0.01 0.06 0.14 0.14 0.12 0.07 0.74 0.69 0.42 0.66 1.14 1.60 2.09 2.06 2.45 1.43 1.64 1.98 2.39 3.05 2.70 2.26 2.21 1.42 0.34 0.05 0.01 0.01 0.00 0.01 0.01 0.02 0.03 0.02 0.01 0.01 0.01 0.00 0.00 0.00 0.00
0.00 0.00 0.00 0.00 0.00 0.00 0.02 0.02 0.06 0.19 0.28 0.29 0.19 0.31 0.71 0.44 0.52 0.81 2.00 2.48 3.22 3.16 3.45 2.48 2.32 2.55 1.95 1.82 3.52 2.87 2.62 1.86 0.63 0.13 0.04 0.01 0.00 0.01 0.02 0.02 0.02 0.02 0.01 0.00 0.00 0.00 0.00 0.00 0.00
0.00 0.00 0.00 0.00 0.00 0.00 0.02 0.10 0.33 0.58 0.31 0.13 0.10 0.51 0.99 0.79 0.56 0.66 1.63 3.73 5.19 6.82 7.53 6.08 3.82 3.27 3.54 2.37 2.28 3.14 3.02 2.33 0.98 0.23 0.13 0.04 0.02 0.03 0.00 0.01 0.01 0.01 0.00 0.00 0.00 0.00 0.00 0.00 0.00
0.00 0.00 0.00 0.00 0.00 0.02 0.08 0.18 0.24 0.28 0.45 0.39 0.14 0.69 1.00 0.63 0.56 0.86 1.20 2.92 4.49 9.09 9.74 7.10 5.12 3.15 1.71 2.44 2.19 2.18 2.95 3.37 1.73 0.61 0.44 0.19 0.11 0.04 0.01 0.00 0.01 0.00 0.00 0.00 0.00 0.00 0.00 0.00 0.00
0.00 0.00 0.00 0.00 0.01 0.04 0.10 0.14 0.33 0.26 0.22 0.31 0.21 0.48 0.64 0.77 0.77 0.82 1.07 1.95 3.72 5.13 5.30 6.63 6.36 3.92 2.68 2.41 2.28 1.72 1.62 2.51 2.99 1.32 0.72 0.45 0.22 0.16 0.05 0.02 0.00 0.00 0.00 0.00 0.00 0.00 0.00 0.00 0.00
0.00 0.00 0.00 0.00 0.01 0.08 0.27 0.30 0.29 0.16 0.34 0.23 0.37 0.52 0.80 0.81 0.65 0.60 0.93 1.29 2.06 2.41 3.31 2.92 3.24 2.84 2.18 2.92 2.93 1.64 1.29 1.08 2.14 1.51 0.65 0.45 0.36 0.31 0.26 0.04 0.01 0.00 0.00 0.00 0.00 0.00 0.00 0.00 0.00
0.00 0.00 0.00 0.00 0.01 0.08 0.10 0.06 0.12 0.07 0.26 0.43 0.81 0.78 0.91 0.76 0.54 0.31 0.40 0.83 0.88 0.94 1.06 1.23 1.50 1.37 1.31 1.80 1.46 1.41 1.18 0.97 1.15 1.29 0.55 0.42 0.41 0.29 0.41 0.11 0.01 0.01 0.00 0.00 0.00 0.00 0.00 0.00 0.00
0.00 0.00 0.00 0.00 0.00 0.01 0.01 0.09 0.18 0.18 0.75 0.41 0.48 0.42 0.55 0.33 0.24 0.27 0.30 0.33 0.35 0.55 0.76 1.01 0.80 0.99 1.13 1.33 1.17 0.78 0.83 0.87 0.88 1.17 0.54 0.43 0.31 0.16 0.24 0.07 0.01 0.00 0.00 0.00 0.00 0.00 0.00 0.00 0.00
0.00 0.00 0.00 0.00 0.03 0.02 0.07 0.04 0.08 0.65 0.29 0.16 0.19 0.20 0.23 0.16 0.12 0.13 0.13 0.15 0.19 0.41 0.70 0.96 0.77 0.79 0.83 0.67 0.76 0.62 0.45 0.77 0.70 0.67 0.60 0.42 0.17 0.08 0.08 0.10 0.00 0.00 0.00 0.00 0.00 0.00 0.00 0.00 0.00
0.00 0.00 0.00 0.00 0.02 0.02 0.04 0.07 0.11 0.65 0.30 0.05 0.06 0.07 0.06 0.06 0.04 0.04 0.03 0.03 0.15 0.40 0.62 1.00 1.21 0.86 0.87 0.64 0.60 0.57 0.50 0.53 0.71 0.63 0.64 0.50 0.15 0.06 0.04 0.05 0.01 0.00 0.00 0.00 0.00 0.00 0.00 0.00 0.00
0.00 0.00 0.00 0.00 0.01 0.02 0.04 0.10 0.17 0.40 0.14 0.05 0.00 0.01 0.05 0.09 0.04 0.01 0.00 0.01 0.03 0.15 0.29 1.14 1.61 1.19 1.04 0.60 0.66 0.64 0.65 0.46 0.57 0.64 0.70 0.44 0.15 0.07 0.03 0.03 0.02 0.00 0.00 0.00 0.00 0.00 0.00 0.00 0.00
0.00 0.00 0.00 0.02 0.00 0.02 0.04 0.48 0.14 0.06 0.07 0.06 0.00 0.00 0.03 0.05 0.02 0.01 0.00 0.01 0.01 0.03 0.25 1.32 1.42 0.99 1.07 0.82 0.91 1.26 0.67 0.43 0.42 0.50 0.47 0.23 0.07 0.07 0.04 0.06 0.03 0.00 0.00 0.00 0.00 0.00 0.00 0.00 0.00
0.00 0.00 0.00 0.00 0.00 0.01 0.02 0.19 0.15 0.05 0.06 0.08 0.01 0.00 0.00 0.00 0.02 0.00 0.02 0.02 0.02 0.04 0.31 0.89 0.97 0.99 1.32 1.59 1.62 1.16 0.62 0.30 0.30 0.32 0.28 0.16 0.09 0.09 0.06 0.05 0.02 0.03 0.03 0.00 0.00 0.00 0.00 0.01 0.00
0.00 0.00 0.00 0.00 0.00 0.00 0.00 0.02 0.15 0.05 0.06 0.06 0.02 0.00 0.01 0.00 0.00 0.02 0.08 0.06 0.03 0.07 0.47 0.76 0.83 1.33 1.80 1.49 0.67 0.38 0.38 0.28 0.30 0.30 0.18 0.12 0.11 0.08 0.07 0.08 0.07 0.09 0.06 0.00 0.00 0.00 0.00 0.00 0.00
0.00 0.00 0.00 0.00 0.00 0.00 0.00 0.01 0.02 0.03 0.04 0.04 0.02 0.01 0.01 0.00 0.01 0.05 0.08 0.11 0.12 0.20 0.55 0.70 0.85 0.72 0.50 0.31 0.29 0.24 0.26 0.16 0.16 0.15 0.11 0.09 0.07 0.05 0.07 0.09 0.09 0.11 0.05 0.02 0.00 0.01 0.03 0.01 0.00
0.00 0.00 0.00 0.00 0.00 0.00 0.00 0.00 0.00 0.01 0.17 0.03 0.01 0.01 0.00 0.00 0.00 0.01 0.02 0.08 0.22 0.43 0.48 0.41 0.32 0.19 0.17 0.14 0.12 0.12 0.14 0.11 0.07 0.09 0.10 0.12 0.11 0.05 0.08 0.09 0.05 0.05 0.05 0.05 0.03 0.04 0.03 0.05 0.05
0.00 0.00 0.00 0.00 0.00 0.00 0.00 0.00 0.00 0.00 0.02 0.05 0.03 0.03 0.00 0.01 0.03 0.05 0.09 0.12 0.12 0.10 0.06 0.09 0.14 0.09 0.13 0.07 0.05 0.05 0.13 0.22 0.16 0.14 0.15 0.16 0.07 0.05 0.03 0.11 0.09 0.08 0.05 0.05 0.06 0.06 0.05 0.10 0.06
0.00 0.00 0.00 0.00 0.00 0.00 0.00 0.00 0.02 0.01 0.00 0.05 0.01 0.01 0.02 0.03 0.03 0.02 0.01 0.01 0.00 0.05 0.08 0.12 0.10 0.10 0.04 0.02 0.02 0.02 0.02 0.08 0.10 0.11 0.11 0.18 0.13 0.06 0.03 0.02 0.04 0.05 0.05 0.08 0.07 0.06 0.04 0.20 0.25
0.01 0.00 0.00 0.00 0.00 0.06 0.02 0.01 0.02 0.02 0.00 0.00 0.01 0.01 0.01 0.00 0.00 0.02 0.01 0.03 0.05 0.04 0.08 0.09 0.10 0.13 0.04 0.02 0.01 0.03 0.02 0.02 0.06 0.11 0.16 0.20 0.22 0.07 0.05 0.03 0.09 0.06 0.03 0.13 0.18 0.11 0.12 0.19 0.24
0.01 0.00 0.00 0.00 0.00 0.01 0.01 0.03 0.02 0.01 0.02 0.03 0.02 0.01 0.00 0.01 0.08 0.06 0.04 0.06 0.06 0.07 0.20 0.11 0.11 0.08 0.07 0.05 0.02 0.07 0.14 0.09 0.06 0.08 0.07 0.11 0.17 0.12 0.07 0.06 0.06 0.10 0.10 0.17 0.23 0.30 0.29 0.37 0.36
0.00 0.00 0.02 0.11 0.02 0.01 0.03 0.03 0.01 0.01 0.02 0.11 0.07 0.00 0.00 0.01 0.04 0.02 0.02 0.05 0.05 0.09 0.20 0.10 0.04 0.06 0.04 0.03 0.06 0.10 0.22 0.18 0.18 0.09 0.07 0.13 0.10 0.07 0.08 0.16 0.12 0.10 0.23 0.27 0.37 0.41 0.40 0.44 0.52
0.00 0.01 0.05 0.18 0.12 0.05 0.05 0.01 0.00 0.00 0.00 0.00 0.00 0.00 0.00 0.00 0.00 0.01 0.02 0.05 0.07 0.17 0.18 0.08 0.03 0.06 0.06 0.13 0.25 0.22 0.21 0.28 0.40 0.30 0.16 0.24 0.15 0.10 0.13 0.21 0.36 0.32 0.33 0.35 0.38 0.49 0.67 0.77 0.73
0.01 0.00 0.01 0.03 0.05 0.07 0.04 0.01 0.00 0.00 0.00 0.00 0.00 0.00 0.00 0.00 0.00 0.00 0.01 0.00 0.02 0.23 0.17 0.05 0.03 0.02 0.03 0.15 0.26 0.16 0.36 0.64 0.51 0.40 0.37 0.37 0.39 0.36 0.30 0.36 0.47 0.48 0.40 0.52 0.60 0.58 0.43 0.34 0.30
0.00 0.00 0.01 0.03 0.07 0.07 0.01 0.00 0.01 0.01 0.00 0.00 0.00 0.00 0.00 0.00 0.00 0.00 0.00 0.00 0.01 0.06 0.05 0.02 0.07 0.21 0.18 0.06 0.09 0.12 0.18 0.30 0.40 0.34 0.37 0.59 0.63 0.47 0.52 0.50 0.49 0.42 0.31 0.33 0.38 0.33 0.26 0.32 0.34
0.00 0.00 0.02 0.02 0.01 0.05 0.04 0.01 0.00 0.00 0.00 0.00 0.00 0.00 0.00 0.00 0.00 0.00 0.00 0.00 0.00 0.00 0.00 0.00 0.01 0.16 0.37 0.59 0.48 0.27 0.37 0.35 0.58 0.60 0.75 0.59 0.55 0.64 0.68 0.48 0.36 0.29 0.43 0.48 0.37 0.37 0.37 0.38 0.42
0.00 0.00 0.01 0.04 0.04 0.02 0.02 0.01 0.00 0.00 0.00 0.00 0.00 0.00 0.00 0.00 0.00 0.00 0.00 0.00 0.00 0.00 0.00 0.01 0.01 0.13 0.43 1.29 1.38 0.85 0.90 0.78 0.75 0.81 0.77 0.81 0.80 0.75 0.58 0.39 0.31 0.33 0.39 0.57 0.72 0.62 0.54 0.50 0.47

GFSSGP_prec_precacc_081.txt.gz
Total_Precipitation_Accumulation
0.00 0.00 0.00 0.00 0.00 0.00 0.00 0.00 0.00 0.11 0.09 0.06 0.13 0.18 0.23 0.35 0.63 0.80 0.65 1.13 1.14 1.14 0.93 2.08 2.06 1.72 1.15 0.62 0.30 0.19 0.10 0.03 0.03 0.03 0.01 0.01 0.03 0.05 0.02 0.00 0.00 0.02 0.04 0.02 0.02 0.02 0.01 0.01 0.01
0.00 0.00 0.00 0.00 0.00 0.00 0.00 0.00 0.02 0.09 0.16 0.24 0.26 0.18 0.17 0.55 0.47 0.50 0.66 0.71 0.64 0.56 0.60 0.89 1.78 1.94 1.59 1.34 1.02 0.71 0.39 0.07 0.02 0.03 0.03 0.02 0.01 0.02 0.01 0.01 0.01 0.02 0.03 0.02 0.02 0.02 0.01 0.00 0.00
0.00 0.00 0.00 0.00 0.00 0.00 0.00 0.02 0.04 0.08 0.16 0.15 0.09 0.08 0.31 1.03 0.77 0.70 0.53 0.92 1.01 0.67 0.86 0.73 1.16 1.43 1.68 1.90 2.20 1.83 1.24 0.61 0.22 0.08 0.02 0.01 0.00 0.02 0.02 0.01 0.01 0.02 0.04 0.02 0.02 0.02 0.01 0.00 0.00
0.00 0.00 0.00 0.00 0.00 0.00 0.00 0.01 0.10 0.03 0.09 0.11 0.07 0.12 0.43 0.55 0.63 0.51 0.48 0.86 1.45 1.35 1.55 1.23 1.85 2.81 2.34 2.33 2.71 2.33 1.84 1.85 1.35 0.71 0.12 0.01 0.01 0.01 0.01 0.01 0.02 0.05 0.03 0.01 0.01 0.01 0.00 0.00 0.00
0.00 0.00 0.00 0.00 0.00 0.00 0.00 0.00 0.01 0.06 0.14 0.14 0.12 0.07 0.74 0.69 0.42 0.66 1.14 1.60 2.09 2.06 2.45 1.44 1.70 2.03 2.39 3.08 2.78 2.35 2.24 1.68 1.24 1.18 0.67 0.09 0.04 0.04 0.01 0.02 0.03 0.04 0.02 0.01 0.01 0.00 0.00 0.00 0.00
0.00 0.00 0.00 0.00 0.00 0.00 0.02 0.02 0.06 0.19 0.28 0.29 0.19 0.31 0.71 0.44 0.52 0.81 2.00 2.48 3.22 3.16 3.45 2.49 2.36 2.58 1.95 1.82 3.52 2.88 2.63 1.92 1.00 0.73 1.22 0.26 0.02 0.02 0.02 0.03 0.04 0.02 0.01 0.00 0.00 0.00 0.00 0.00 0.00
0.00 0.00 0.00 0.00 0.00 0.00 0.02 0.10 0.33 0.58 0.31 0.13 0.10 0.51 0.99 0.79 0.56 0.66 1.63 3.73 5.19 6.82 7.53 6.08 3.84 3.30 3.54 2.37 2.28 3.14 3.02 2.36 1.37 1.04 0.79 0.36 0.06 0.03 0.01 0.01 0.02 0.01 0.00 0.00 0.00 0.00 0.00 0.00 0.00
0.00 0.00 0.00 0.00 0.00 0.02 0.08 0.18 0.24 0.28 0.45 0.39 0.14 0.69 1.00 0.63 0.56 0.86 1.20 2.92 4.49 9.09 9.74 7.10 5.13 3.16 1.72 2.45 2.20 2.19 2.95 3.48 2.18 1.72 1.40 0.52 0.14 0.04 0.01 0.00 0.01 0.00 0.00 0.00 0.00 0.00 0.00 0.00 0.00
0.00 0.00 0.00 0.00 0.01 0.04 0.10 0.14 0.33 0.26 0.22 0.31 0.21 0.48 0.64 0.77 0.77 0.82 1.07 1.95 3.72 5.13 5.30 6.63 6.38 3.95 2.70 2.43 2.31 1.73 1.62 2.57 3.54 2.38 1.73 0.87 0.29 0.16 0.05 0.03 0.00 0.00 0.00 0.00 0.00 0.00 0.00 0.00 0.00
0.00 0.00 0.00 0.00 0.01 0.08 0.27 0.30 0.29 0.16 0.34 0.23 0.37 0.52 0.80 0.81 0.65 0.60 0.93 1.29 2.06 2.41 3.31 2.92 3.24 2.96 2.25 2.94 2.97 1.64 1.31 1.10 2.61 2.83 1.63 0.72 0.48 0.32 0.27 0.06 0.01 0.00 0.00 0.00 0.00 0.00 0.00 0.00 0.00
0.00 0.00 0.00 0.00 0.01 0.08 0.10 0.06 0.12 0.07 0.26 0.43 0.81 0.78 0.91 0.76 0.54 0.31 0.40 0.83 0.88 0.94 1.06 1.23 1.51 1.42 1.35 1.81 1.49 1.41 1.18 1.00 1.30 2.35 1.17 0.61 0.48 0.29 0.46 0.12 0.01 0.01 0.00 0.00 0.00 0.00 0.00 0.00 0.00
0.00 0.00 0.00 0.00 0.00 0.01 0.01 0.09 0.18 0.18 0.75 0.41 0.48 0.42 0.55 0.33 0.24 0.27 0.30 0.33 0.35 0.55 0.76 1.01 0.80 0.99 1.14 1.33 1.22 0.84 0.87 0.89 0.91 1.50 0.97 0.59 0.33 0.16 0.28 0.08 0.01 0.00 0.00 0.00 0.00 0.00 0.00 0.00 0.00
0.00 0.00 0.00 0.00 0.03 0.02 0.07 0.04 0.08 0.65 0.29 0.16 0.19 0.20 0.23 0.16 0.12 0.13 0.13 0.15 0.19 0.41 0.70 0.96 0.77 0.79 0.83 0.67 0.77 0.67 0.52 0.81 0.74 0.75 0.89 0.53 0.20 0.09 0.10 0.11 0.00 0.00 0.00 0.00 0.00 0.00 0.00 0.00 0.00
0.00 0.00 0.00 0.00 0.02 0.02 0.04 0.07 0.11 0.65 0.30 0.05 0.06 0.07 0.06 0.06 0.04 0.04 0.03 0.03 0.15 0.40 0.62 1.00 1.21 0.86 0.87 0.64 0.60 0.58 0.51 0.59 0.77 0.65 0.69 0.59 0.20 0.07 0.04 0.05 0.01 0.00 0.00 0.00 0.00 0.00 0.00 0.00 0.00
0.00 0.00 0.00 0.00 0.01 0.02 0.04 0.10 0.17 0.40 0.14 0.05 0.00 0.01 0.05 0.09 0.04 0.01 0.00 0.01 0.03 0.15 0.29 1.14 1.62 1.19 1.04 0.60 0.66 0.64 0.65 0.51 0.63 0.68 0.74 0.48 0.21 0.09 0.03 0.03 0.02 0.00 0.00 0.00 0.00 0.00 0.00 0.00 0.00
0.00 0.00 0.00 0.02 0.00 0.02 0.04 0.48 0.14 0.06 0.07 0.06 0.00 0.00 0.03 0.05 0.02 0.01 0.00 0.01 0.01 0.03 0.25 1.32 1.42 0.99 1.07 0.82 0.91 1.26 0.67 0.44 0.49 0.56 0.51 0.29 0.14 0.09 0.05 0.06 0.03 0.00 0.00 0.00 0.00 0.00 0.00 0.00 0.00
0.00 0.00 0.00 0.00 0.00 0.01 0.02 0.19 0.15 0.05 0.06 0.08 0.01 0.00 0.00 0.00 0.02 0.00 0.02 0.02 0.02 0.04 0.31 0.89 0.98 0.99 1.32 1.59 1.62 1.16 0.62 0.31 0.33 0.34 0.31 0.20 0.13 0.11 0.07 0.05 0.03 0.04 0.03 0.00 0.00 0.00 0.00 0.01 0.00
0.00 0.00 0.00 0.00 0.00 0.00 0.00 0.02 0.15 0.05 0.06 0.06 0.02 0.00 0.01 0.00 0.00 0.02 0.08 0.06 0.03 0.07 0.47 0.76 0.83 1.33 1.80 1.49 0.67 0.38 0.38 0.28 0.31 0.31 0.19 0.13 0.12 0.08 0.08 0.08 0.13 0.15 0.10 0.01 0.00 0.00 0.00 0.00 0.00
0.00 0.00 0.00 0.00 0.00 0.00 0.00 0.01 0.02 0.03 0.04 0.04 0.02 0.01 0.01 0.00 0.01 0.05 0.08 0.11 0.12 0.20 0.55 0.70 0.86 0.72 0.51 0.32 0.29 0.24 0.26 0.16 0.16 0.15 0.12 0.09 0.07 0.05 0.07 0.09 0.15 0.14 0.08 0.03 0.00 0.01 0.03 0.01 0.00
0.00 0.00 0.00 0.00 0.00 0.00 0.00 0.00 0.00 0.01 0.17 0.03 0.01 0.01 0.00 0.00 0.00 0.01 0.02 0.08 0.22 0.43 0.48 0.41 0.32 0.19 0.18 0.14 0.12 0.12 0.14 0.11 0.07 0.09 0.11 0.12 0.11 0.05 0.08 0.09 0.05 0.05 0.06 0.05 0.03 0.04 0.03 0.05 0.05
0.00 0.00 0.00 0.00 0.00 0.00 0.00 0.00 0.00 0.00 0.02 0.05 0.03 0.03 0.00 0.01 0.03 0.05 0.09 0.12 0.12 0.10 0.06 0.09 0.14 0.09 0.13 0.07 0.05 0.05 0.13 0.22 0.16 0.14 0.15 0.16 0.07 0.05 0.03 0.11 0.09 0.08 0.06 0.05 0.06 0.06 0.05 0.10 0.06
0.00 0.00 0.00 0.00 0.02 0.03 0.00 0.00 0.02 0.01 0.00 0.05 0.01 0.01 0.02 0.03 0.03 0.02 0.01 0.01 0.00 0.05 0.08 0.12 0.10 0.10 0.04 0.02 0.03 0.02 0.03 0.08 0.10 0.11 0.11 0.18 0.13 0.06 0.03 0.02 0.04 0.05 0.05 0.08 0.07 0.06 0.04 0.20 0.25
0.02 0.00 0.02 0.06 0.02 0.07 0.02 0.01 0.02 0.02 0.00 0.00 0.01 0.01 0.01 0.00 0.00 0.02 0.01 0.03 0.05 0.04 0.08 0.09 0.10 0.13 0.04 0.02 0.02 0.03 0.03 0.02 0.06 0.11 0.16 0.20 0.22 0.07 0.05 0.03 0.09 0.06 0.03 0.13 0.18 0.11 0.12 0.19 0.24
0.03 0.03 0.10 0.08 0.05 0.07 0.01 0.03 0.02 0.01 0.02 0.03 0.02 0.01 0.00 0.01 0.08 0.06 0.04 0.06 0.06 0.07 0.20 0.11 0.11 0.08 0.07 0.05 0.03 0.07 0.14 0.09 0.06 0.08 0.07 0.11 0.17 0.12 0.07 0.06 0.06 0.10 0.10 0.17 0.23 0.30 0.31 0.41 0.38
0.03 0.07 0.20 0.21 0.08 0.04 0.03 0.03 0.01 0.01 0.02 0.11 0.07 0.00 0.00 0.01 0.04 0.02 0.02 0.05 0.05 0.09 0.20 0.10 0.04 0.06 0.04 0.04 0.06 0.11 0.22 0.18 0.18 0.09 0.07 0.13 0.10 0.07 0.08 0.16 0.12 0.10 0.23 0.27 0.38 0.44 0.43 0.47 0.54
0.02 0.07 0.13 0.21 0.13 0.05 0.05 0.01 0.00 0.00 0.00 0.00 0.00 0.00 0.00 0.00 0.00 0.01 0.02 0.05 0.07 0.17 0.18 0.08 0.03 0.06 0.06 0.13 0.25 0.22 0.21 0.28 0.40 0.30 0.16 0.24 0.15 0.10 0.13 0.21 0.36 0.32 0.33 0.35 0.38 0.50 0.67 0.78 0.74
0.02 0.02 0.02 0.09 0.15 0.13 0.04 0.01 0.00 0.00 0.00 0.00 0.00 0.00 0.00 0.00 0.00 0.00 0.01 0.00 0.02 0.23 0.17 0.05 0.03 0.02 0.03 0.15 0.27 0.16 0.36 0.64 0.51 0.40 0.37 0.37 0.39 0.36 0.30 0.36 0.47 0.48 0.40 0.52 0.60 0.58 0.43 0.34 0.30
0.00 0.01 0.10 0.30 0.22 0.13 0.01 0.01 0.01 0.01 0.00 0.00 0.00 0.00 0.00 0.00 0.00 0.00 0.00 0.00 0.01 0.06 0.05 0.02 0.07 0.21 0.18 0.06 0.09 0.12 0.18 0.30 0.40 0.34 0.37 0.59 0.63 0.47 0.52 0.50 0.49 0.42 0.31 0.33 0.38 0.33 0.26 0.32 0.34
0.00 0.01 0.18 0.18 0.03 0.10 0.07 0.04 0.01 0.01 0.00 0.00 0.00 0.00 0.00 0.00 0.00 0.00 0.00 0.00 0.00 0.00 0.00 0.00 0.01 0.16 0.37 0.59 0.48 0.27 0.37 0.35 0.58 0.60 0.75 0.59 0.55 0.64 0.68 0.48 0.36 0.29 0.43 0.48 0.37 0.37 0.37 0.38 0.42
0.00 0.01 0.05 0.15 0.10 0.04 0.08 0.11 0.05 0.04 0.00 0.00 0.00 0.00 0.00 0.00 0.00 0.00 0.00 0.00 0.00 0.00 0.00 0.01 0.01 0.13 0.43 1.29 1.38 0.85 0.90 0.78 0.75 0.81 0.77 0.81 0.80 0.75 0.58 0.39 0.31 0.33 0.39 0.57 0.72 0.62 0.54 0.50 0.47

GFSSGP_prec_precacc_084.txt.gz
Total_Precipitation_Accumulation
0.00 0.00 0.00 0.00 0.00 0.00 0.00 0.00 0.00 0.11 0.09 0.06 0.13 0.18 0.23 0.35 0.63 0.80 0.65 1.13 1.14 1.14 0.93 2.08 2.06 1.72 1.15 0.62 0.30 0.19 0.10 0.03 0.03 0.03 0.01 0.01 0.03 0.05 0.02 0.01 0.00 0.02 0.04 0.03 0.03 0.02 0.02 0.01 0.01
0.00 0.00 0.00 0.00 0.00 0.00 0.00 0.00 0.02 0.09 0.16 0.24 0.26 0.18 0.17 0.55 0.47 0.50 0.66 0.71 0.64 0.56 0.60 0.89 1.78 1.94 1.59 1.34 1.02 0.71 0.39 0.07 0.02 0.03 0.03 0.02 0.01 0.02 0.01 0.01 0.01 0.02 0.03 0.02 0.03 0.03 0.02 0.00 0.00
0.00 0.00 0.00 0.00 0.00 0.00 0.00 0.02 0.04 0.08 0.16 0.15 0.09 0.08 0.31 1.03 0.77 0.70 0.53 0.92 1.01 0.67 0.86 0.73 1.16 1.43 1.69 1.91 2.21 1.83 1.24 0.63 0.30 0.21 0.12 0.06 0.01 0.02 0.02 0.01 0.01 0.02 0.05 0.02 0.03 0.02 0.01 0.00 0.00
0.00 0.00 0.00 0.00 0.00 0.00 0.00 0.01 0.10 0.03 0.09 0.11 0.07 0.12 0.43 0.55 0.63 0.51 0.48 0.86 1.45 1.35 1.55 1.23 1.85 2.81 2.35 2.43 2.85 2.43 1.95 1.93 1.50 1.19 0.67 0.36 0.16 0.04 0.01 0.01 0.02 0.06 0.04 0.02 0.02 0.01 0.00 0.00 0.00
0.00 0.00 0.00 0.00 0.00 0.00 0.00 0.00 0.01 0.06 0.14 0.14 0.12 0.07 0.74 0.69 0.42 0.66 1.14 1.60 2.09 2.06 2.45 1.44 1.70 2.03 2.40 3.10 2.81 2.50 2.32 1.76 1.35 1.46 1.46 0.80 0.42 0.15 0.02 0.02 0.04 0.09 0.04 0.01 0.01 0.01 0.00 0.00 0.00
0.00 0.00 0.00 0.00 0.00 0.00 0.02 0.02 0.06 0.19 0.28 0.29 0.19 0.31 0.71 0.44 0.52 0.81 2.00 2.48 3.22 3.16 3.45 2.49 2.36 2.58 1.95 1.82 3.53 2.91 2.70 2.01 1.04 0.75 1.59 0.98 0.50 0.25 0.09 0.05 0.07 0.07 0.02 0.00 0.00 0.00 0.00 0.00 0.00
0.00 0.00 0.00 0.00 0.00 0.00 0.02 0.10 0.33 0.58 0.31 0.13 0.10 0.51 0.99 0.79 0.56 0.66 1.63 3.73 5.19 6.82 7.53 6.08 3.84 3.30 3.54 2.37 2.28 3.17 3.05 2.37 1.38 1.04 0.90 0.99 0.69 0.44 0.13 0.05 0.03 0.01 0.00 0.00 0.00 0.00 0.00 0.00 0.00
0.00 0.00 0.00 0.00 0.00 0.02 0.08 0.18 0.24 0.28 0.45 0.39 0.14 0.69 1.00 0.63 0.56 0.86 1.20 2.92 4.49 9.09 9.74 7.10 5.13 3.16 1.72 2.45 2.20 2.19 2.96 3.48 2.19 1.72 1.44 0.89 0.70 0.52 0.21 0.05 0.01 0.00 0.00 0.00 0.00 0.00 0.00 0.00 0.00
0.00 0.00 0.00 0.00 0.01 0.04 0.10 0.14 0.33 0.26 0.22 0.31 0.21 0.48 0.64 0.77 0.77 0.82 1.07 1.95 3.72 5.13 5.30 6.63 6.38 3.95 2.70 2.43 2.31 1.75 1.64 2.58 3.55 2.39 1.83 1.40 0.59 0.51 0.22 0.12 0.02 0.00 0.00 0.00 0.00 0.00 0.00 0.00 0.00
0.00 0.00 0.00 0.00 0.01 0.08 0.27 0.30 0.29 0.16 0.34 0.23 0.37 0.52 0.80 0.81 0.65 0.60 0.93 1.29 2.06 2.41 3.31 2.92 3.24 2.96 2.25 2.96 3.01 1.67 1.33 1.12 2.61 2.86 2.04 1.31 0.72 0.51 0.31 0.08 0.02 0.00 0.00 0.00 0.00 0.00 0.00 0.00 0.00
0.00 0.00 0.00 0.00 0.01 0.08 0.10 0.06 0.12 0.07 0.26 0.43 0.81 0.78 0.91 0.76 0.54 0.31 0.40 0.83 0.88 0.94 1.06 1.23 1.51 1.42 1.35 1.81 1.51 1.43 1.20 1.02 1.31 2.46 1.91 1.15 0.71 0.44 0.49 0.13 0.01 0.01 0.00 0.00 0.00 0.00 0.00 0.00 0.00
0.00 0.00 0.00 0.00 0.00 0.01 0.01 0.09 0.18 0.18 0.75 0.41 0.48 0.42 0.55 0.33 0.24 0.27 0.30 0.33 0.35 0.55 0.76 1.01 0.80 0.99 1.14 1.33 1.22 0.85 0.91 0.90 0.92 1.70 1.70 1.02 0.48 0.23 0.29 0.08 0.01 0.00 0.00 0.00 0.00 0.00 0.00 0.00 0.00
0.00 0.00 0.00 0.00 0.03 0.02 0.07 0.04 0.08 0.65 0.29 0.16 0.19 0.20 0.23 0.16 0.12 0.13 0.13 0.15 0.19 0.41 0.70 0.96 0.77 0.79 0.83 0.67 0.77 0.67 0.54 0.82 0.75 0.84 1.26 0.82 0.26 0.10 0.10 0.11 0.00 0.00 0.00 0.00 0.00 0.00 0.00 0.00 0.00
0.00 0.00 0.00 0.00 0.02 0.02 0.04 0.07 0.11 0.65 0.30 0.05 0.06 0.07 0.06 0.06 0.04 0.04 0.03 0.03 0.15 0.40 0.62 1.00 1.21 0.86 0.87 0.64 0.60 0.58 0.52 0.61 0.79 0.71 0.83 0.74 0.23 0.07 0.04 0.05 0.01 0.00 0.00 0.00 0.00 0.00 0.00 0.00 0.00
0.00 0.00 0.00 0.00 0.01 0.02 0.04 0.10 0.17 0.40 0.14 0.05 0.00 0.01 0.05 0.09 0.04 0.01 0.00 0.01 0.03 0.15 0.29 1.14 1.62 1.19 1.04 0.60 0.66 0.64 0.66 0.52 0.66 0.72 0.78 0.55 0.22 0.10 0.03 0.03 0.02 0.00 0.00 0.00 0.00 0.00 0.00 0.00 0.00
0.00 0.00 0.00 0.02 0.00 0.02 0.04 0.48 0.14 0.06 0.07 0.06 0.00 0.00 0.03 0.05 0.02 0.01 0.00 0.01 0.01 0.03 0.25 1.32 1.42 0.99 1.07 0.82 0.91 1.26 0.68 0.45 0.52 0.58 0.53 0.30 0.14 0.09 0.05 0.06 0.03 0.00 0.00 0.00 0.00 0.00 0.00 0.00 0.00
0.00 0.00 0.00 0.00 0.00 0.01 0.02 0.19 0.15 0.05 0.06 0.08 0.01 0.00 0.00 0.00 0.02 0.00 0.02 0.02 0.02 0.04 0.31 0.89 0.98 0.99 1.32 1.59 1.62 1.16 0.62 0.31 0.36 0.36 0.34 0.20 0.14 0.12 0.07 0.05 0.03 0.04 0.03 0.00 0.00 0.00 0.00 0.01 0.00
0.00 0.00 0.00 0.00 0.00 0.00 0.00 0.02 0.15 0.05 0.06 0.06 0.02 0.00 0.01 0.00 0.00 0.02 0.08 0.06 0.03 0.07 0.47 0.76 0.84 1.33 1.81 1.49 0.67 0.38 0.38 0.28 0.33 0.32 0.22 0.15 0.13 0.09 0.08 0.08 0.13 0.15 0.10 0.01 0.00 0.00 0.00 0.00 0.00
0.00 0.00 0.00 0.00 0.00 0.00 0.00 0.01 0.02 0.03 0.04 0.04 0.02 0.01 0.01 0.00 0.01 0.05 0.08 0.11 0.12 0.20 0.55 0.70 0.86 0.73 0.52 0.32 0.29 0.24 0.26 0.17 0.18 0.16 0.17 0.12 0.08 0.06 0.08 0.10 0.15 0.14 0.08 0.03 0.00 0.01 0.03 0.01 0.00
0.00 0.00 0.00 0.00 0.00 0.00 0.00 0.00 0.00 0.01 0.17 0.03 0.01 0.01 0.00 0.00 0.00 0.01 0.02 0.08 0.22 0.43 0.48 0.41 0.32 0.20 0.18 0.15 0.12 0.12 0.14 0.11 0.07 0.10 0.14 0.14 0.12 0.07 0.09 0.10 0.05 0.06 0.07 0.05 0.03 0.04 0.03 0.05 0.05
0.00 0.00 0.00 0.00 0.00 0.00 0.00 0.00 0.00 0.00 0.02 0.05 0.03 0.03 0.00 0.01 0.03 0.05 0.09 0.12 0.12 0.10 0.06 0.09 0.14 0.09 0.14 0.08 0.06 0.05 0.14 0.23 0.17 0.14 0.16 0.17 0.07 0.05 0.04 0.12 0.09 0.09 0.07 0.06 0.06 0.06 0.05 0.10 0.06
0.00 0.00 0.00 0.01 0.03 0.04 0.00 0.01 0.02 0.01 0.00 0.05 0.01 0.01 0.02 0.03 0.03 0.02 0.01 0.01 0.00 0.05 0.08 0.12 0.10 0.10 0.04 0.03 0.03 0.02 0.03 0.09 0.10 0.12 0.11 0.18 0.14 0.06 0.03 0.03 0.04 0.06 0.08 0.08 0.07 0.06 0.04 0.20 0.25
0.02 0.00 0.02 0.06 0.02 0.07 0.03 0.05 0.03 0.02 0.00 0.00 0.01 0.01 0.01 0.00 0.00 0.02 0.01 0.03 0.05 0.04 0.08 0.09 0.10 0.13 0.04 0.03 0.02 0.03 0.03 0.02 0.06 0.11 0.16 0.20 0.22 0.07 0.05 0.03 0.09 0.06 0.05 0.13 0.19 0.11 0.12 0.19 0.24
0.03 0.03 0.11 0.09 0.06 0.12 0.01 0.07 0.04 0.01 0.02 0.03 0.02 0.01 0.00 0.01 0.08 0.06 0.04 0.06 0.06 0.07 0.20 0.11 0.11 0.08 0.07 0.05 0.03 0.07 0.14 0.09 0.06 0.08 0.07 0.11 0.17 0.12 0.07 0.06 0.06 0.10 0.10 0.18 0.23 0.30 0.31 0.41 0.38
0.04 0.11 0.26 0.27 0.16 0.10 0.03 0.03 0.01 0.01 0.02 0.11 0.07 0.00 0.00 0.01 0.04 0.02 0.02 0.05 0.05 0.09 0.20 0.10 0.04 0.06 0.04 0.04 0.07 0.11 0.22 0.18 0.18 0.09 0.07 0.13 0.10 0.07 0.08 0.16 0.12 0.10 0.23 0.27 0.39 0.44 0.43 0.47 0.54
0.02 0.14 0.22 0.26 0.14 0.05 0.05 0.01 0.00 0.00 0.00 0.00 0.00 0.00 0.00 0.00 0.00 0.01 0.02 0.05 0.07 0.17 0.18 0.08 0.03 0.06 0.06 0.13 0.25 0.22 0.21 0.28 0.40 0.30 0.16 0.24 0.15 0.10 0.13 0.21 0.36 0.32 0.33 0.35 0.38 0.50 0.67 0.79 0.75
0.02 0.04 0.04 0.17 0.22 0.15 0.04 0.01 0.00 0.00 0.00 0.00 0.00 0.00 0.00 0.00 0.00 0.00 0.01 0.00 0.02 0.23 0.17 0.05 0.03 0.02 0.03 0.15 0.27 0.16 0.37 0.64 0.51 0.40 0.37 0.37 0.39 0.36 0.30 0.36 0.47 0.48 0.40 0.52 0.60 0.58 0.43 0.35 0.31
0.00 0.03 0.22 0.39 0.27 0.17 0.01 0.02 0.02 0.02 0.00 0.00 0.00 0.00 0.00 0.00 0.00 0.00 0.00 0.00 0.01 0.06 0.05 0.02 0.07 0.21 0.18 0.06 0.09 0.12 0.18 0.30 0.40 0.34 0.37 0.59 0.63 0.47 0.52 0.50 0.49 0.42 0.31 0.33 0.38 0.33 0.27 0.32 0.35
0.00 0.03 0.24 0.29 0.05 0.13 0.11 0.10 0.04 0.02 0.01 0.01 0.00 0.00 0.00 0.00 0.00 0.00 0.00 0.00 0.00 0.00 0.00 0.00 0.01 0.16 0.37 0.59 0.48 0.27 0.37 0.36 0.58 0.60 0.75 0.59 0.55 0.64 0.68 0.48 0.36 0.29 0.43 0.48 0.37 0.37 0.37 0.38 0.42
0.00 0.01 0.06 0.23 0.20 0.07 0.11 0.18 0.20 0.07 0.02 0.00 0.00 0.00 0.00 0.00 0.00 0.00 0.00 0.00 0.00 0.00 0.00 0.01 0.01 0.13 0.43 1.29 1.38 0.85 0.90 0.78 0.75 0.81 0.77 0.81 0.80 0.75 0.58 0.39 0.31 0.33 0.39 0.57 0.72 0.62 0.54 0.50 0.47

GFSSGP_prec_precacc_087.txt.gz
Total_Precipitation_Accumulation
0.00 0.00 0.00 0.00 0.00 0.00 0.00 0.00 0.00 0.11 0.09 0.06 0.13 0.18 0.23 0.35 0.63 0.80 0.65 1.13 1.14 1.14 0.93 2.08 2.06 1.72 1.15 0.62 0.30 0.19 0.10 0.03 0.03 0.03 0.01 0.01 0.04 0.10 0.05 0.02 0.00 0.02 0.04 0.03 0.03 0.03 0.03 0.02 0.01
0.00 0.00 0.00 0.00 0.00 0.00 0.00 0.00 0.02 0.09 0.16 0.24 0.26 0.18 0.17 0.55 0.47 0.50 0.66 0.71 0.64 0.56 0.60 0.89 1.78 1.94 1.59 1.34 1.02 0.72 0.39 0.07 0.02 0.03 0.04 0.07 0.10 0.09 0.06 0.04 0.01 0.02 0.03 0.02 0.03 0.05 0.03 0.01 0.00
0.00 0.00 0.00 0.00 0.00 0.00 0.00 0.02 0.04 0.08 0.16 0.15 0.09 0.08 0.31 1.03 0.77 0.70 0.53 0.92 1.01 0.67 0.86 0.73 1.16 1.43 1.69 1.91 2.21 1.84 1.25 0.63 0.31 0.21 0.16 0.18 0.16 0.14 0.08 0.03 0.01 0.03 0.05 0.03 0.04 0.04 0.03 0.00 0.00
0.00 0.00 0.00 0.00 0.00 0.00 0.00 0.01 0.10 0.03 0.09 0.11 0.07 0.12 0.43 0.55 0.63 0.51 0.48 0.86 1.45 1.35 1.55 1.23 1.85 2.81 2.35 2.46 2.88 2.44 1.96 1.93 1.51 1.22 0.69 0.39 0.30 0.26 0.15 0.07 0.06 0.07 0.04 0.03 0.05 0.04 0.01 0.00 0.00
0.00 0.00 0.00 0.00 0.00 0.00 0.00 0.00 0.01 0.06 0.14 0.14 0.12 0.07 0.74 0.69 0.42 0.66 1.14 1.60 2.09 2.06 2.45 1.44 1.70 2.03 2.40 3.10 2.89 2.63 2.44 1.91 1.50 1.53 1.53 0.89 0.57 0.35 0.24 0.16 0.11 0.10 0.04 0.02 0.02 0.03 0.01 0.00 0.00
0.00 0.00 0.00 0.00 0.00 0.00 0.02 0.02 0.06 0.19 0.28 0.29 0.19 0.31 0.71 0.44 0.52 0.81 2.00 2.48 3.22 3.16 3.45 2.49 2.36 2.58 1.95 1.82 3.55 2.99 2.82 2.21 1.30 0.92 1.64 1.02 0.59 0.51 0.37 0.28 0.19 0.13 0.06 0.01 0.01 0.01 0.00 0.00 0.00
0.00 0.00 0.00 0.00 0.00 0.00 0.02 0.10 0.33 0.58 0.31 0.13 0.10 0.51 0.99 0.79 0.56 0.66 1.63 3.73 5.19 6.82 7.53 6.08 3.84 3.30 3.54 2.37 2.29 3.24 3.20 2.56 1.54 1.15 0.92 1.00 0.73 0.64 0.42 0.30 0.24 0.14 0.07 0.02 0.00 0.00 0.00 0.00 0.00
0.00 0.00 0.00 0.00 0.00 0.02 0.08 0.18 0.24 0.28 0.45 0.39 0.14 0.69 1.00 0.63 0.56 0.86 1.20 2.92 4.49 9.09 9.74 7.10 5.13 3.16 1.72 2.45 2.20 2.20 2.99 3.53 2.21 1.72 1.44 0.89 0.72 0.71 0.46 0.31 0.35 0.23 0.07 0.01 0.01 0.00 0.00 0.00 0.00
0.00 0.00 0.00 0.00 0.01 0.04 0.10 0.14 0.33 0.26 0.22 0.31 0.21 0.48 0.64 0.77 0.77 0.82 1.07 1.95 3.72 5.13 5.30 6.63 6.38 3.95 2.70 2.43 2.31 1.75 1.64 2.59 3.55 2.39 1.83 1.40 0.60 0.61 0.44 0.37 0.36 0.19 0.03 0.00 0.01 0.00 0.00 0.00 0.00
0.00 0.00 0.00 0.00 0.01 0.08 0.27 0.30 0.29 0.16 0.34 0.23 0.37 0.52 0.80 0.81 0.65 0.60 0.93 1.29 2.06 2.41 3.31 2.92 3.24 2.96 2.25 2.96 3.01 1.67 1.33 1.14 2.61 2.86 2.04 1.32 0.72 0.59 0.52 0.35 0.35 0.11 0.00 0.00 0.00 0.00 0.00 0.00 0.00
0.00 0.00 0.00 0.00 0.01 0.08 0.10 0.06 0.12 0.07 0.26 0.43 0.81 0.78 0.91 0.76 0.54 0.31 0.40 0.83 0.88 0.94 1.06 1.23 1.51 1.42 1.35 1.81 1.51 1.43 1.20 1.02 1.31 2.47 1.92 1.18 0.77 0.53 0.71 0.33 0.22 0.09 0.00 0.00 0.00 0.00 0.00 0.00 0.00
0.00 0.00 0.00 0.00 0.00 0.01 0.01 0.09 0.18 0.18 0.75 0.41 0.48 0.42 0.55 0.33 0.24 0.27 0.30 0.33 0.35 0.55 0.76 1.01 0.80 0.99 1.14 1.33 1.22 0.86 0.91 0.90 0.92 1.70 1.74 1.12 0.70 0.36 0.45 0.16 0.07 0.02 0.00 0.00 0.00 0.00 0.00 0.00 0.00
0.00 0.00 0.00 0.00 0.03 0.02 0.07 0.04 0.08 0.65 0.29 0.16 0.19 0.20 0.23 0.16 0.12 0.13 0.13 0.15 0.19 0.41 0.70 0.96 0.77 0.79 0.83 0.67 0.77 0.67 0.54 0.83 0.75 0.84 1.44 1.11 0.59 0.22 0.16 0.12 0.01 0.00 0.00 0.00 0.00 0.00 0.00 0.00 0.00
0.00 0.00 0.00 0.00 0.02 0.02 0.04 0.07 0.11 0.65 0.30 0.05 0.06 0.07 0.06 0.06 0.04 0.04 0.03 0.03 0.15 0.40 0.62 1.00 1.21 0.86 0.87 0.64 0.60 0.58 0.52 0.62 0.80 0.72 0.98 1.26 0.53 0.17 0.06 0.06 0.01 0.00 0.00 0.00 0.00 0.00 0.00 0.00 0.00
0.00 0.00 0.00 0.00 0.01 0.02 0.04 0.10 0.17 0.40 0.14 0.05 0.00 0.01 0.05 0.09 0.04 0.01 0.00 0.01 0.03 0.15 0.29 1.14 1.62 1.19 1.04 0.60 0.66 0.64 0.66 0.53 0.67 0.74 0.95 1.02 0.49 0.19 0.04 0.03 0.02 0.00 0.00 0.00 0.00 0.00 0.00 0.00 0.00
0.00 0.00 0.00 0.02 0.00 0.02 0.04 0.48 0.14 0.06 0.07 0.06 0.00 0.00 0.03 0.05 0.02 0.01 0.00 0.01 0.01 0.03 0.25 1.32 1.42 0.99 1.07 0.82 0.91 1.26 0.68 0.46 0.54 0.62 0.67 0.60 0.48 0.16 0.07 0.07 0.03 0.00 0.00 0.00 0.00 0.00 0.00 0.00 0.00
0.00 0.00 0.00 0.00 0.00 0.01 0.02 0.19 0.15 0.05 0.06 0.08 0.01 0.00 0.00 0.00 0.02 0.00 0.02 0.02 0.02 0.04 0.31 0.89 0.98 0.99 1.32 1.59 1.62 1.16 0.62 0.32 0.39 0.42 0.42 0.34 0.43 0.21 0.09 0.05 0.03 0.04 0.03 0.00 0.00 0.00 0.00 0.01 0.00
0.00 0.00 0.00 0.00 0.00 0.00 0.00 0.02 0.15 0.05 0.06 0.06 0.02 0.00 0.01 0.00 0.00 0.02 0.08 0.06 0.03 0.07 0.47 0.76 0.84 1.33 1.81 1.49 0.67 0.38 0.39 0.28 0.34 0.36 0.34 0.23 0.27 0.20 0.11 0.10 0.13 0.15 0.10 0.01 0.00 0.00 0.00 0.00 0.00
0.00 0.00 0.00 0.00 0.00 0.00 0.00 0.01 0.02 0.03 0.04 0.04 0.02 0.01 0.01 0.00 0.01 0.05 0.08 0.11 0.12 0.20 0.55 0.70 0.86 0.73 0.52 0.32 0.30 0.25 0.27 0.17 0.19 0.18 0.26 0.27 0.18 0.12 0.11 0.13 0.16 0.14 0.08 0.03 0.00 0.01 0.03 0.01 0.00
0.00 0.00 0.00 0.00 0.00 0.00 0.00 0.00 0.00 0.01 0.17 0.03 0.01 0.01 0.00 0.00 0.00 0.01 0.02 0.08 0.22 0.43 0.48 0.41 0.32 0.20 0.18 0.15 0.12 0.12 0.14 0.11 0.08 0.11 0.18 0.31 0.27 0.13 0.13 0.14 0.06 0.06 0.07 0.05 0.03 0.04 0.03 0.05 0.05
0.00 0.00 0.00 0.00 0.00 0.00 0.00 0.00 0.00 0.00 0.02 0.05 0.03 0.03 0.00 0.01 0.03 0.05 0.09 0.12 0.12 0.10 0.06 0.09 0.14 0.09 0.14 0.08 0.06 0.05 0.14 0.23 0.17 0.16 0.19 0.30 0.15 0.11 0.10 0.20 0.11 0.09 0.07 0.06 0.06 0.06 0.05 0.10 0.06
0.00 0.00 0.00 0.01 0.03 0.04 0.00 0.01 0.02 0.01 0.00 0.05 0.01 0.01 0.02 0.03 0.03 0.02 0.01 0.01 0.00 0.05 0.08 0.12 0.10 0.10 0.04 0.03 0.03 0.02 0.03 0.09 0.11 0.12 0.11 0.23 0.18 0.10 0.06 0.09 0.08 0.07 0.08 0.08 0.07 0.06 0.04 0.20 0.25
0.02 0.00 0.02 0.06 0.02 0.07 0.03 0.06 0.03 0.02 0.00 0.00 0.01 0.01 0.01 0.00 0.00 0.02 0.01 0.03 0.05 0.04 0.08 0.09 0.10 0.13 0.04 0.03 0.02 0.03 0.03 0.02 0.07 0.11 0.16 0.20 0.25 0.08 0.07 0.05 0.11 0.07 0.06 0.13 0.19 0.11 0.12 0.19 0.24
0.03 0.03 0.11 0.09 0.07 0.12 0.01 0.07 0.04 0.01 0.02 0.03 0.02 0.01 0.00 0.01 0.08 0.06 0.04 0.06 0.06 0.07 0.20 0.11 0.11 0.08 0.07 0.05 0.03 0.07 0.14 0.09 0.07 0.08 0.07 0.11 0.18 0.12 0.08 0.07 0.07 0.10 0.11 0.19 0.24 0.31 0.31 0.41 0.38
0.04 0.11 0.26 0.28 0.17 0.10 0.03 0.03 0.01 0.01 0.02 0.11 0.07 0.00 0.00 0.01 0.04 0.02 0.02 0.05 0.05 0.09 0.20 0.10 0.04 0.06 0.04 0.04 0.07 0.11 0.22 0.18 0.18 0.09 0.07 0.13 0.10 0.07 0.08 0.16 0.12 0.10 0.23 0.28 0.40 0.45 0.45 0.47 0.54
0.02 0.14 0.22 0.29 0.17 0.07 0.05 0.01 0.00 0.00 0.00 0.00 0.00 0.00 0.00 0.00 0.00 0.01 0.02 0.05 0.07 0.17 0.18 0.08 0.03 0.06 0.06 0.13 0.25 0.22 0.21 0.28 0.40 0.30 0.16 0.24 0.15 0.10 0.13 0.21 0.36 0.32 0.33 0.35 0.39 0.51 0.68 0.80 0.75
0.02 0.04 0.04 0.19 0.26 0.22 0.05 0.01 0.01 0.00 0.00 0.00 0.00 0.00 0.00 0.00 0.00 0.00 0.01 0.00 0.02 0.23 0.17 0.05 0.03 0.02 0.03 0.15 0.27 0.16 0.37 0.64 0.51 0.40 0.37 0.37 0.39 0.36 0.30 0.36 0.47 0.48 0.40 0.52 0.61 0.59 0.43 0.35 0.32
0.00 0.03 0.24 0.46 0.31 0.19 0.01 0.04 0.04 0.02 0.00 0.00 0.00 0.00 0.00 0.00 0.00 0.00 0.00 0.00 0.01 0.06 0.05 0.02 0.07 0.21 0.18 0.06 0.09 0.12 0.18 0.30 0.40 0.34 0.37 0.59 0.63 0.47 0.52 0.50 0.49 0.42 0.31 0.33 0.38 0.33 0.27 0.33 0.35
0.00 0.03 0.24 0.35 0.13 0.18 0.12 0.17 0.22 0.04 0.02 0.01 0.00 0.00 0.00 0.00 0.00 0.00 0.00 0.00 0.00 0.00 0.00 0.00 0.01 0.16 0.37 0.59 0.48 0.27 0.37 0.36 0.58 0.60 0.75 0.59 0.55 0.64 0.68 0.48 0.36 0.29 0.43 0.48 0.37 0.37 0.37 0.38 0.42
0.00 0.01 0.06 0.26 0.23 0.14 0.15 0.20 0.43 0.22 0.07 0.00 0.00 0.00 0.00 0.00 0.00 0.00 0.00 0.00 0.00 0.00 0.00 0.02 0.03 0.13 0.43 1.29 1.38 0.85 0.90 0.78 0.75 0.81 0.77 0.81 0.80 0.75 0.58 0.39 0.31 0.33 0.39 0.57 0.72 0.62 0.54 0.50 0.47

GFSSGP_prec_precacc_090.txt.gz
Total_Precipitation_Accumulation
0.00 0.00 0.00 0.00 0.00 0.00 0.00 0.00 0.00 0.11 0.09 0.06 0.13 0.18 0.23 0.35 0.63 0.80 0.65 1.13 1.14 1.14 0.93 2.08 2.07 1.73 1.16 0.62 0.30 0.19 0.10 0.04 0.04 0.03 0.01 0.02 0.09 0.14 0.06 0.03 0.01 0.02 0.04 0.03 0.03 0.04 0.05 0.03 0.02
0.00 0.00 0.00 0.00 0.00 0.00 0.00 0.00 0.02 0.09 0.16 0.24 0.26 0.18 0.17 0.55 0.47 0.50 0.66 0.71 0.64 0.56 0.60 0.89 1.78 1.95 1.59 1.35 1.02 0.72 0.39 0.08 0.04 0.03 0.09 0.26 0.27 0.21 0.21 0.23 0.09 0.02 0.04 0.03 0.04 0.07 0.04 0.02 0.00
0.00 0.00 0.00 0.00 0.00 0.00 0.00 0.02 0.04 0.08 0.16 0.15 0.09 0.08 0.31 1.03 0.77 0.70 0.53 0.92 1.01 0.67 0.86 0.73 1.16 1.44 1.69 1.92 2.21 1.84 1.25 0.63 0.31 0.23 0.26 0.26 0.24 0.23 0.17 0.12 0.06 0.06 0.08 0.06 0.06 0.07 0.04 0.01 0.00
0.00 0.00 0.00 0.00 0.00 0.00 0.00 0.01 0.10 0.03 0.09 0.11 0.07 0.12 0.43 0.55 0.63 0.51 0.48 0.86 1.45 1.35 1.55 1.23 1.85 2.81 2.35 2.46 2.89 2.44 1.96 1.93 1.51 1.22 0.71 0.42 0.34 0.34 0.28 0.23 0.24 0.18 0.11 0.08 0.08 0.05 0.02 0.00 0.00
0.00 0.00 0.00 0.00 0.00 0.00 0.00 0.00 0.01 0.06 0.14 0.14 0.12 0.07 0.74 0.69 0.42 0.66 1.14 1.60 2.09 2.06 2.45 1.44 1.70 2.03 2.40 3.11 2.93 2.69 2.52 1.94 1.52 1.54 1.54 0.92 0.60 0.38 0.30 0.26 0.27 0.22 0.09 0.07 0.05 0.04 0.01 0.00 0.00
0.00 0.00 0.00 0.00 0.00 0.00 0.02 0.02 0.06 0.19 0.28 0.29 0.19 0.31 0.71 0.44 0.52 0.81 2.00 2.48 3.22 3.16 3.45 2.49 2.37 2.59 1.96 1.85 3.62 3.06 2.95 2.33 1.41 0.95 1.65 1.06 0.65 0.56 0.40 0.31 0.27 0.22 0.12 0.05 0.03 0.02 0.00 0.00 0.00
0.00 0.00 0.00 0.00 0.00 0.00 0.02 0.10 0.33 0.58 0.31 0.13 0.10 0.51 0.99 0.79 0.56 0.66 1.63 3.73 5.19 6.82 7.53 6.08 3.85 3.31 3.55 2.39 2.35 3.30 3.30 2.73 1.67 1.21 0.93 1.03 0.79 0.71 0.45 0.30 0.30 0.24 0.14 0.12 0.04 0.00 0.00 0.00 0.00
0.00 0.00 0.00 0.00 0.00 0.02 0.08 0.18 0.24 0.28 0.45 0.39 0.14 0.69 1.00 0.63 0.56 0.86 1.20 2.92 4.49 9.09 9.74 7.10 5.13 3.17 1.73 2.45 2.22 2.23 3.05 3.64 2.29 1.75 1.44 0.90 0.74 0.72 0.46 0.31 0.38 0.44 0.29 0.12 0.05 0.00 0.00 0.00 0.00
0.00 0.00 0.00 0.00 0.01 0.04 0.10 0.14 0.33 0.26 0.22 0.31 0.21 0.48 0.64 0.77 0.77 0.82 1.07 1.95 3.72 5.13 5.30 6.63 6.38 3.95 2.70 2.44 2.31 1.77 1.68 2.64 3.58 2.39 1.83 1.40 0.60 0.61 0.44 0.37 0.42 0.40 0.33 0.14 0.02 0.00 0.00 0.00 0.00
0.00 0.00 0.00 0.00 0.01 0.08 0.27 0.30 0.29 0.16 0.34 0.23 0.37 0.52 0.80 0.81 0.65 0.60 0.93 1.29 2.06 2.41 3.31 2.92 3.24 2.96 2.25 2.96 3.01 1.67 1.33 1.14 2.62 2.87 2.04 1.32 0.72 0.59 0.52 0.36 0.43 0.50 0.25 0.13 0.00 0.00 0.00 0.00 0.00
0.00 0.00 0.00 0.00 0.01 0.08 0.10 0.06 0.12 0.07 0.26 0.43 0.81 0.78 0.91 0.76 0.54 0.31 0.40 0.83 0.88 0.94 1.06 1.23 1.51 1.42 1.35 1.81 1.51 1.43 1.20 1.02 1.32 2.47 1.92 1.18 0.77 0.55 0.72 0.34 0.35 0.71 0.30 0.11 0.01 0.00 0.00 0.00 0.00
0.00 0.00 0.00 0.00 0.00 0.01 0.01 0.09 0.18 0.18 0.75 0.41 0.48 0.42 0.55 0.33 0.24 0.27 0.30 0.33 0.35 0.55 0.76 1.01 0.80 0.99 1.14 1.33 1.22 0.86 0.91 0.90 0.92 1.70 1.74 1.12 0.71 0.38 0.49 0.18 0.20 0.58 0.12 0.01 0.00 0.00 0.00 0.00 0.00
0.00 0.00 0.00 0.00 0.03 0.02 0.07 0.04 0.08 0.65 0.29 0.16 0.19 0.20 0.23 0.16 0.12 0.13 0.13 0.15 0.19 0.41 0.70 0.96 0.77 0.79 0.83 0.68 0.77 0.67 0.54 0.83 0.75 0.85 1.44 1.12 0.61 0.25 0.25 0.19 0.11 0.40 0.05 0.00 0.00 0.00 0.00 0.00 0.00
0.00 0.00 0.00 0.00 0.02 0.02 0.04 0.07 0.11 0.65 0.30 0.05 0.06 0.07 0.06 0.06 0.04 0.04 0.03 0.03 0.15 0.40 0.62 1.00 1.21 0.86 0.87 0.64 0.60 0.58 0.52 0.62 0.80 0.73 0.99 1.31 0.66 0.32 0.26 0.18 0.07 0.24 0.05 0.00 0.00 0.00 0.00 0.00 0.00
0.00 0.00 0.00 0.00 0.01 0.02 0.04 0.10 0.17 0.40 0.14 0.05 0.00 0.01 0.05 0.09 0.04 0.01 0.00 0.01 0.03 0.15 0.29 1.14 1.62 1.19 1.04 0.60 0.66 0.64 0.67 0.53 0.67 0.76 0.97 1.13 0.75 0.45 0.22 0.15 0.08 0.06 0.01 0.00 0.00 0.00 0.00 0.00 0.00
0.00 0.00 0.00 0.02 0.00 0.02 0.04 0.48 0.14 0.06 0.07 0.06 0.00 0.00 0.03 0.05 0.02 0.01 0.00 0.01 0.01 0.03 0.25 1.32 1.42 0.99 1.07 0.82 0.91 1.26 0.68 0.47 0.55 0.64 0.72 0.83 0.82 0.52 0.25 0.15 0.06 0.01 0.00 0.00 0.00 0.00 0.00 0.00 0.00
0.00 0.00 0.00 0.00 0.00 0.01 0.02 0.19 0.15 0.05 0.06 0.08 0.01 0.00 0.00 0.00 0.02 0.00 0.02 0.02 0.02 0.04 0.31 0.89 0.98 0.99 1.32 1.59 1.62 1.16 0.62 0.33 0.40 0.44 0.50 0.64 0.86 0.47 0.17 0.09 0.05 0.05 0.03 0.00 0.00 0.00 0.00 0.01 0.00
0.00 0.00 0.00 0.00 0.00 0.00 0.00 0.02 0.15 0.05 0.06 0.06 0.02 0.00 0.01 0.00 0.00 0.02 0.08 0.06 0.03 0.07 0.47 0.76 0.84 1.33 1.81 1.49 0.67 0.38 0.39 0.30 0.36 0.39 0.39 0.41 0.66 0.41 0.17 0.12 0.16 0.16 0.10 0.01 0.00 0.00 0.00 0.00 0.00
0.00 0.00 0.00 0.00 0.00 0.00 0.00 0.01 0.02 0.03 0.04 0.04 0.02 0.01 0.01 0.00 0.01 0.05 0.08 0.11 0.12 0.20 0.55 0.70 0.86 0.73 0.52 0.32 0.30 0.25 0.28 0.18 0.19 0.20 0.36 0.39 0.36 0.39 0.19 0.16 0.18 0.14 0.08 0.03 0.00 0.01 0.03 0.01 0.00
0.00 0.00 0.00 0.00 0.00 0.00 0.00 0.00 0.00 0.01 0.17 0.03 0.01 0.01 0.00 0.00 0.00 0.01 0.02 0.08 0.22 0.43 0.48 0.41 0.32 0.20 0.19 0.15 0.12 0.12 0.14 0.12 0.08 0.12 0.21 0.57 0.36 0.32 0.26 0.19 0.09 0.06 0.07 0.05 0.03 0.04 0.03 0.05 0.05
0.00 0.00 0.00 0.00 0.00 0.00 0.00 0.00 0.00 0.00 0.02 0.05 0.03 0.03 0.00 0.01 0.03 0.05 0.09 0.12 0.12 0.10 0.06 0.09 0.14 0.09 0.14 0.08 0.06 0.05 0.14 0.23 0.17 0.16 0.21 0.43 0.32 0.23 0.26 0.30 0.18 0.11 0.07 0.06 0.06 0.06 0.05 0.10 0.06
0.00 0.00 0.00 0.01 0.03 0.04 0.00 0.01 0.02 0.01 0.00 0.05 0.01 0.01 0.02 0.03 0.03 0.02 0.01 0.01 0.00 0.05 0.08 0.12 0.10 0.10 0.04 0.03 0.03 0.02 0.03 0.09 0.11 0.12 0.12 0.26 0.27 0.22 0.20 0.24 0.17 0.10 0.08 0.08 0.07 0.06 0.04 0.20 0.25
0.02 0.00 0.02 0.06 0.02 0.07 0.03 0.06 0.03 0.02 0.00 0.00 0.01 0.01 0.01 0.00 0.00 0.02 0.01 0.03 0.05 0.04 0.08 0.09 0.11 0.13 0.04 0.03 0.02 0.04 0.03 0.02 0.07 0.12 0.16 0.22 0.32 0.15 0.20 0.15 0.22 0.11 0.07 0.14 0.19 0.11 0.12 0.19 0.24
0.03 0.03 0.11 0.09 0.07 0.12 0.01 0.07 0.04 0.01 0.02 0.03 0.02 0.01 0.00 0.01 0.08 0.06 0.04 0.06 0.06 0.07 0.20 0.11 0.11 0.08 0.08 0.05 0.03 0.07 0.14 0.09 0.07 0.08 0.07 0.11 0.20 0.17 0.16 0.18 0.13 0.15 0.12 0.20 0.24 0.31 0.31 0.41 0.38
0.04 0.11 0.26 0.28 0.17 0.10 0.03 0.03 0.01 0.01 0.02 0.11 0.07 0.00 0.00 0.01 0.04 0.02 0.02 0.05 0.05 0.09 0.20 0.10 0.04 0.06 0.04 0.04 0.07 0.11 0.22 0.18 0.18 0.09 0.07 0.13 0.10 0.09 0.10 0.20 0.16 0.14 0.24 0.28 0.41 0.45 0.45 0.47 0.54
0.02 0.14 0.22 0.29 0.17 0.08 0.05 0.02 0.00 0.00 0.00 0.00 0.00 0.00 0.00 0.00 0.00 0.01 0.02 0.05 0.07 0.17 0.18 0.08 0.03 0.06 0.06 0.13 0.25 0.22 0.21 0.28 0.40 0.30 0.16 0.24 0.15 0.10 0.13 0.21 0.37 0.33 0.35 0.35 0.39 0.52 0.69 0.80 0.75
0.02 0.04 0.04 0.19 0.26 0.23 0.05 0.01 0.01 0.00 0.00 0.00 0.00 0.00 0.00 0.00 0.00 0.00 0.01 0.00 0.02 0.23 0.17 0.05 0.03 0.02 0.03 0.15 0.27 0.16 0.37 0.64 0.51 0.40 0.37 0.37 0.39 0.36 0.30 0.36 0.47 0.48 0.41 0.52 0.61 0.59 0.44 0.36 0.32
0.00 0.03 0.24 0.47 0.36 0.22 0.01 0.04 0.05 0.03 0.01 0.00 0.00 0.00 0.00 0.00 0.00 0.00 0.00 0.00 0.01 0.06 0.05 0.02 0.07 0.21 0.18 0.06 0.09 0.12 0.18 0.30 0.40 0.34 0.37 0.59 0.63 0.47 0.52 0.50 0.49 0.42 0.31 0.33 0.38 0.33 0.27 0.34 0.36
0.00 0.03 0.24 0.35 0.14 0.23 0.15 0.19 0.33 0.19 0.07 0.01 0.00 0.00 0.00 0.00 0.00 0.00 0.00 0.00 0.00 0.00 0.00 0.00 0.01 0.16 0.37 0.59 0.48 0.27 0.37 0.36 0.58 0.60 0.75 0.59 0.55 0.64 0.68 0.48 0.36 0.29 0.43 0.48 0.37 0.37 0.37 0.38 0.42
0.00 0.01 0.06 0.26 0.24 0.16 0.19 0.22 0.46 0.27 0.13 0.05 0.01 0.01 0.00 0.00 0.00 0.00 0.00 0.00 0.00 0.00 0.00 0.02 0.05 0.15 0.43 1.29 1.38 0.86 0.90 0.78 0.75 0.81 0.77 0.81 0.80 0.75 0.58 0.39 0.31 0.33 0.39 0.57 0.72 0.62 0.54 0.50 0.47

GFSSGP_prec_precacc_093.txt.gz
Total_Precipitation_Accumulation
0.00 0.00 0.00 0.00 0.00 0.00 0.00 0.00 0.00 0.11 0.09 0.06 0.13 0.18 0.23 0.35 0.63 0.80 0.65 1.13 1.14 1.14 0.93 2.08 2.07 1.73 1.16 0.62 0.30 0.19 0.11 0.04 0.04 0.03 0.01 0.02 0.09 0.14 0.06 0.03 0.01 0.03 0.04 0.03 0.03 0.04 0.05 0.04 0.03
0.00 0.00 0.00 0.00 0.00 0.00 0.00 0.00 0.02 0.09 0.16 0.24 0.26 0.18 0.17 0.55 0.47 0.50 0.66 0.71 0.64 0.56 0.60 0.89 1.79 1.96 1.60 1.35 1.02 0.72 0.41 0.11 0.04 0.03 0.10 0.34 0.37 0.29 0.27 0.27 0.11 0.03 0.05 0.05 0.04 0.07 0.05 0.03 0.01
0.00 0.00 0.00 0.00 0.00 0.00 0.00 0.02 0.04 0.08 0.16 0.15 0.09 0.08 0.31 1.03 0.77 0.70 0.53 0.92 1.01 0.67 0.86 0.73 1.16 1.44 1.70 1.92 2.21 1.84 1.25 0.65 0.33 0.35 0.45 0.40 0.38 0.41 0.32 0.25 0.16 0.10 0.10 0.09 0.08 0.09 0.05 0.01 0.02
0.00 0.00 0.00 0.00 0.00 0.00 0.00 0.01 0.10 0.03 0.09 0.11 0.07 0.12 0.43 0.55 0.63 0.51 0.48 0.86 1.45 1.35 1.55 1.23 1.85 2.81 2.36 2.47 2.89 2.45 1.96 1.94 1.51 1.24 0.72 0.45 0.40 0.42 0.42 0.42 0.48 0.37 0.18 0.11 0.12 0.07 0.03 0.00 0.00
0.00 0.00 0.00 0.00 0.00 0.00 0.00 0.00 0.01 0.06 0.14 0.14 0.12 0.07 0.74 0.69 0.42 0.66 1.14 1.60 2.09 2.06 2.45 1.44 1.70 2.03 2.41 3.12 2.95 2.70 2.56 2.01 1.60 1.54 1.54 0.92 0.61 0.41 0.37 0.47 0.60 0.57 0.35 0.18 0.08 0.05 0.01 0.00 0.00
0.00 0.00 0.00 0.00 0.00 0.00 0.02 0.02 0.06 0.19 0.28 0.29 0.19 0.31 0.71 0.44 0.52 0.81 2.00 2.48 3.22 3.16 3.45 2.49 2.37 2.59 1.97 1.87 3.64 3.09 3.03 2.42 1.49 0.98 1.65 1.06 0.66 0.58 0.47 0.43 0.36 0.34 0.25 0.17 0.09 0.02 0.00 0.00 0.00
0.00 0.00 0.00 0.00 0.00 0.00 0.02 0.10 0.33 0.58 0.31 0.13 0.10 0.51 0.99 0.79 0.56 0.66 1.63 3.73 5.19 6.82 7.53 6.08 3.85 3.32 3.56 2.41 2.36 3.31 3.30 2.75 1.69 1.24 0.94 1.04 0.81 0.73 0.52 0.35 0.32 0.30 0.22 0.17 0.08 0.02 0.00 0.00 0.00
0.00 0.00 0.00 0.00 0.00 0.02 0.08 0.18 0.24 0.28 0.45 0.39 0.14 0.69 1.00 0.63 0.56 0.86 1.20 2.92 4.49 9.09 9.74 7.10 5.14 3.17 1.73 2.46 2.23 2.23 3.05 3.65 2.33 1.77 1.46 0.94 0.78 0.74 0.48 0.32 0.39 0.53 0.47 0.24 0.06 0.04 0.01 0.00 0.00
0.00 0.00 0.00 0.00 0.01 0.04 0.10 0.14 0.33 0.26 0.22 0.31 0.21 0.48 0.64 0.77 0.77 0.82 1.07 1.95 3.72 5.13 5.30 6.63 6.38 3.96 2.71 2.45 2.34 1.78 1.69 2.68 3.59 2.39 1.84 1.41 0.62 0.63 0.44 0.37 0.44 0.44 0.51 0.40 0.14 0.08 0.02 0.00 0.00
0.00 0.00 0.00 0.00 0.01 0.08 0.27 0.30 0.29 0.16 0.34 0.23 0.37 0.52 0.80 0.81 0.65 0.60 0.93 1.29 2.06 2.41 3.31 2.92 3.24 2.96 2.26 2.97 3.02 1.68 1.35 1.15 2.62 2.87 2.04 1.32 0.72 0.59 0.52 0.36 0.46 0.55 0.40 0.46 0.22 0.08 0.01 0.00 0.00
0.00 0.00 0.00 0.00 0.01 0.08 0.10 0.06 0.12 0.07 0.26 0.43 0.81 0.78 0.91 0.76 0.54 0.31 0.40 0.83 0.88 0.94 1.06 1.24 1.51 1.42 1.35 1.81 1.51 1.44 1.21 1.03 1.32 2.47 1.92 1.18 0.78 0.55 0.72 0.34 0.38 0.76 0.64 0.50 0.23 0.06 0.01 0.00 0.00
0.00 0.00 0.00 0.00 0.00 0.01 0.01 0.09 0.18 0.18 0.75 0.41 0.48 0.42 0.55 0.33 0.24 0.27 0.30 0.33 0.35 0.55 0.76 1.01 0.80 0.99 1.14 1.33 1.22 0.86 0.91 0.91 0.92 1.70 1.74 1.12 0.71 0.39 0.49 0.18 0.22 0.72 0.70 0.44 0.14 0.01 0.00 0.00 0.00
0.00 0.00 0.00 0.00 0.03 0.02 0.07 0.04 0.08 0.65 0.29 0.16 0.19 0.20 0.23 0.16 0.12 0.13 0.13 0.15 0.19 0.41 0.70 0.96 0.77 0.79 0.83 0.68 0.77 0.67 0.54 0.83 0.75 0.85 1.44 1.12 0.61 0.25 0.25 0.19 0.12 0.50 0.53 0.49 0.09 0.00 0.00 0.00 0.00
0.00 0.00 0.00 0.00 0.02 0.02 0.04 0.07 0.11 0.65 0.30 0.05 0.06 0.07 0.06 0.06 0.04 0.04 0.03 0.03 0.15 0.40 0.62 1.00 1.21 0.86 0.88 0.65 0.61 0.58 0.52 0.62 0.80 0.73 0.99 1.31 0.67 0.33 0.31 0.22 0.08 0.30 0.33 0.30 0.10 0.01 0.00 0.00 0.00
0.00 0.00 0.00 0.00 0.01 0.02 0.04 0.10 0.17 0.40 0.14 0.05 0.00 0.01 0.05 0.09 0.04 0.01 0.00 0.01 0.03 0.15 0.29 1.14 1.62 1.19 1.05 0.60 0.66 0.65 0.67 0.53 0.67 0.76 0.97 1.14 0.76 0.48 0.30 0.27 0.11 0.16 0.17 0.12 0.07 0.01 0.00 0.00 0.00
0.00 0.00 0.00 0.02 0.00 0.02 0.04 0.48 0.14 0.06 0.07 0.06 0.00 0.00 0.03 0.05 0.02 0.01 0.00 0.01 0.01 0.03 0.25 1.32 1.42 0.99 1.07 0.82 0.91 1.26 0.69 0.47 0.55 0.64 0.73 0.86 0.85 0.57 0.39 0.29 0.16 0.16 0.14 0.06 0.02 0.00 0.00 0.00 0.00
0.00 0.00 0.00 0.00 0.00 0.01 0.02 0.19 0.15 0.05 0.06 0.08 0.01 0.00 0.00 0.00 0.02 0.00 0.02 0.02 0.02 0.04 0.31 0.89 0.98 0.99 1.32 1.59 1.63 1.17 0.62 0.33 0.41 0.45 0.52 0.69 0.98 0.60 0.40 0.28 0.12 0.19 0.15 0.04 0.01 0.00 0.00 0.01 0.00
0.00 0.00 0.00 0.00 0.00 0.00 0.00 0.02 0.15 0.05 0.06 0.06 0.02 0.00 0.01 0.00 0.00 0.02 0.08 0.06 0.03 0.07 0.47 0.76 0.84 1.33 1.81 1.49 0.67 0.39 0.40 0.30 0.37 0.39 0.41 0.57 1.06 0.66 0.37 0.30 0.21 0.26 0.17 0.04 0.00 0.00 0.00 0.00 0.00
0.00 0.00 0.00 0.00 0.00 0.00 0.00 0.01 0.02 0.03 0.04 0.04 0.02 0.01 0.01 0.00 0.01 0.05 0.08 0.11 0.12 0.20 0.55 0.70 0.86 0.73 0.52 0.32 0.30 0.25 0.28 0.19 0.20 0.21 0.38 0.46 0.73 0.72 0.31 0.21 0.22 0.18 0.10 0.03 0.00 0.01 0.03 0.01 0.00
0.00 0.00 0.00 0.00 0.00 0.00 0.00 0.00 0.00 0.01 0.17 0.03 0.01 0.01 0.00 0.00 0.00 0.01 0.02 0.08 0.22 0.43 0.48 0.41 0.32 0.20 0.19 0.15 0.12 0.12 0.14 0.12 0.08 0.12 0.24 0.70 0.58 0.50 0.36 0.21 0.10 0.07 0.07 0.05 0.03 0.04 0.03 0.05 0.05
0.00 0.00 0.00 0.00 0.00 0.00 0.00 0.00 0.00 0.00 0.02 0.05 0.03 0.03 0.00 0.01 0.03 0.05 0.09 0.12 0.12 0.10 0.06 0.09 0.14 0.09 0.14 0.08 0.06 0.05 0.14 0.23 0.17 0.16 0.22 0.48 0.42 0.35 0.40 0.32 0.19 0.11 0.07 0.06 0.06 0.06 0.05 0.10 0.06
0.00 0.00 0.00 0.01 0.03 0.04 0.00 0.01 0.02 0.01 0.00 0.05 0.01 0.01 0.02 0.03 0.03 0.02 0.01 0.01 0.00 0.05 0.08 0.12 0.10 0.10 0.04 0.03 0.03 0.02 0.03 0.09 0.11 0.12 0.12 0.28 0.32 0.32 0.35 0.31 0.21 0.12 0.09 0.08 0.07 0.06 0.04 0.20 0.25
0.02 0.00 0.02 0.06 0.02 0.07 0.03 0.06 0.03 0.02 0.00 0.00 0.01 0.01 0.01 0.00 0.00 0.02 0.01 0.03 0.05 0.04 0.08 0.09 0.11 0.13 0.05 0.03 0.02 0.04 0.03 0.02 0.07 0.12 0.16 0.24 0.33 0.28 0.36 0.36 0.33 0.17 0.09 0.15 0.19 0.11 0.12 0.19 0.24
0.03 0.03 0.11 0.09 0.07 0.12 0.01 0.07 0.04 0.01 0.02 0.03 0.02 0.01 0.00 0.01 0.08 0.06 0.04 0.06 0.06 0.07 0.20 0.11 0.11 0.08 0.08 0.06 0.03 0.08 0.14 0.09 0.07 0.08 0.07 0.12 0.22 0.20 0.25 0.43 0.33 0.26 0.19 0.24 0.26 0.31 0.31 0.41 0.38
0.04 0.11 0.26 0.28 0.17 0.10 0.03 0.03 0.01 0.01 0.02 0.11 0.07 0.00 0.00 0.01 0.04 0.02 0.02 0.05 0.05 0.09 0.20 0.10 0.05 0.06 0.04 0.04 0.07 0.11 0.22 0.18 0.18 0.09 0.07 0.13 0.11 0.10 0.10 0.25 0.30 0.25 0.31 0.31 0.44 0.46 0.45 0.47 0.54
0.02 0.14 0.22 0.29 0.17 0.08 0.05 0.02 0.00 0.00 0.00 0.00 0.00 0.00 0.00 0.00 0.00 0.01 0.02 0.05 0.07 0.17 0.18 0.09 0.04 0.06 0.06 0.14 0.26 0.23 0.21 0.28 0.40 0.30 0.16 0.24 0.15 0.11 0.14 0.22 0.41 0.39 0.36 0.36 0.41 0.52 0.69 0.80 0.75
0.02 0.04 0.04 0.19 0.26 0.23 0.05 0.01 0.01 0.00 0.00 0.00 0.00 0.00 0.00 0.00 0.00 0.00 0.01 0.00 0.02 0.23 0.17 0.05 0.03 0.02 0.03 0.15 0.27 0.16 0.37 0.64 0.51 0.40 0.37 0.37 0.39 0.37 0.31 0.38 0.49 0.53 0.43 0.53 0.61 0.59 0.44 0.36 0.32
0.00 0.03 0.24 0.47 0.37 0.22 0.01 0.04 0.05 0.03 0.01 0.00 0.00 0.00 0.00 0.00 0.00 0.00 0.00 0.00 0.01 0.06 0.05 0.02 0.07 0.21 0.18 0.06 0.09 0.12 0.18 0.30 0.40 0.34 0.37 0.59 0.63 0.47 0.52 0.52 0.52 0.44 0.33 0.33 0.38 0.34 0.27 0.34 0.36
0.00 0.03 0.24 0.35 0.14 0.23 0.15 0.19 0.33 0.19 0.07 0.01 0.00 0.01 0.01 0.01 0.00 0.00 0.00 0.00 0.00 0.00 0.00 0.01 0.01 0.17 0.37 0.59 0.48 0.27 0.37 0.36 0.58 0.60 0.75 0.59 0.55 0.64 0.68 0.48 0.36 0.29 0.43 0.48 0.37 0.37 0.37 0.38 0.42
0.00 0.01 0.06 0.26 0.24 0.16 0.20 0.23 0.46 0.27 0.14 0.06 0.06 0.04 0.03 0.07 0.10 0.01 0.00 0.00 0.00 0.00 0.01 0.03 0.06 0.16 0.44 1.30 1.38 0.86 0.90 0.78 0.75 0.81 0.77 0.81 0.80 0.75 0.58 0.39 0.31 0.33 0.39 0.57 0.72 0.62 0.54 0.50 0.47

GFSSGP_prec_precacc_096.txt.gz
Total_Precipitation_Accumulation
0.00 0.00 0.00 0.00 0.00 0.00 0.00 0.00 0.00 0.11 0.09 0.06 0.13 0.18 0.23 0.35 0.63 0.80 0.65 1.13 1.14 1.14 0.93 2.08 2.07 1.74 1.16 0.62 0.30 0.19 0.11 0.05 0.05 0.06 0.08 0.06 0.09 0.14 0.06 0.03 0.01 0.03 0.05 0.03 0.03 0.04 0.06 0.04 0.03
0.00 0.00 0.00 0.00 0.00 0.00 0.00 0.00 0.02 0.09 0.16 0.24 0.26 0.18 0.17 0.55 0.47 0.50 0.66 0.71 0.64 0.56 0.60 0.89 1.79 1.96 1.60 1.35 1.02 0.72 0.42 0.11 0.04 0.04 0.14 0.35 0.37 0.29 0.27 0.27 0.11 0.04 0.05 0.05 0.04 0.08 0.05 0.03 0.03
0.00 0.00 0.00 0.00 0.00 0.00 0.00 0.02 0.04 0.08 0.16 0.15 0.09 0.08 0.31 1.03 0.77 0.70 0.53 0.92 1.01 0.67 0.86 0.73 1.16 1.44 1.70 1.92 2.21 1.84 1.26 0.66 0.34 0.40 0.62 0.69 0.70 0.68 0.53 0.39 0.24 0.10 0.12 0.10 0.11 0.10 0.05 0.01 0.03
0.00 0.00 0.00 0.00 0.00 0.00 0.00 0.01 0.10 0.03 0.09 0.11 0.07 0.12 0.43 0.55 0.63 0.51 0.48 0.86 1.45 1.35 1.55 1.23 1.85 2.82 2.37 2.47 2.89 2.45 1.96 1.94 1.54 1.30 0.78 0.51 0.48 0.52 0.50 0.55 0.69 0.57 0.33 0.20 0.21 0.12 0.03 0.00 0.00
0.00 0.00 0.00 0.00 0.00 0.00 0.00 0.00 0.01 0.06 0.14 0.14 0.12 0.07 0.74 0.69 0.42 0.66 1.14 1.60 2.09 2.06 2.45 1.44 1.70 2.04 2.42 3.12 2.95 2.70 2.57 2.03 1.72 1.64 1.56 0.93 0.62 0.43 0.38 0.48 0.68 0.83 0.89 0.65 0.29 0.07 0.01 0.00 0.00
0.00 0.00 0.00 0.00 0.00 0.00 0.02 0.02 0.06 0.19 0.28 0.29 0.19 0.31 0.71 0.44 0.52 0.81 2.00 2.48 3.22 3.16 3.45 2.49 2.37 2.59 1.97 1.87 3.64 3.09 3.04 2.46 1.54 1.09 1.70 1.07 0.67 0.58 0.47 0.45 0.39 0.39 0.67 0.80 0.45 0.12 0.01 0.00 0.00
0.00 0.00 0.00 0.00 0.00 0.00 0.02 0.10 0.33 0.58 0.31 0.13 0.10 0.51 0.99 0.79 0.56 0.66 1.63 3.73 5.19 6.82 7.53 6.08 3.85 3.32 3.56 2.42 2.36 3.31 3.30 2.76 1.74 1.33 1.06 1.12 0.84 0.73 0.53 0.39 0.33 0.30 0.26 0.34 0.33 0.22 0.08 0.01 0.00
0.00 0.00 0.00 0.00 0.00 0.02 0.08 0.18 0.24 0.28 0.45 0.39 0.14 0.69 1.00 0.63 0.56 0.86 1.20 2.92 4.49 9.09 9.74 7.10 5.14 3.17 1.75 2.48 2.23 2.23 3.05 3.65 2.34 1.82 1.58 1.16 0.99 0.81 0.49 0.33 0.40 0.55 0.50 0.36 0.24 0.26 0.16 0.05 0.00
0.00 0.00 0.00 0.00 0.01 0.04 0.10 0.14 0.33 0.26 0.22 0.31 0.21 0.48 0.64 0.77 0.77 0.82 1.07 1.95 3.72 5.13 5.31 6.63 6.38 3.96 2.72 2.47 2.34 1.79 1.69 2.68 3.59 2.40 1.88 1.51 0.64 0.64 0.45 0.38 0.44 0.46 0.55 0.56 0.45 0.35 0.17 0.07 0.02
0.00 0.00 0.00 0.00 0.01 0.08 0.27 0.30 0.29 0.16 0.34 0.23 0.37 0.52 0.80 0.81 0.65 0.60 0.93 1.29 2.06 2.41 3.31 2.92 3.24 2.96 2.26 2.97 3.03 1.69 1.36 1.15 2.62 2.87 2.04 1.32 0.73 0.59 0.53 0.36 0.46 0.56 0.44 0.60 0.59 0.40 0.18 0.10 0.01
0.00 0.00 0.00 0.00 0.01 0.08 0.10 0.06 0.12 0.07 0.26 0.43 0.81 0.78 0.91 0.76 0.54 0.31 0.40 0.83 0.88 0.94 1.06 1.24 1.51 1.42 1.35 1.82 1.53 1.44 1.21 1.03 1.32 2.47 1.92 1.18 0.78 0.55 0.72 0.34 0.41 0.78 0.69 0.61 0.51 0.29 0.16 0.10 0.03
0.00 0.00 0.00 0.00 0.00 0.01 0.01 0.09 0.18 0.18 0.75 0.41 0.48 0.42 0.55 0.33 0.24 0.27 0.30 0.33 0.35 0.55 0.76 1.01 0.80 0.99 1.14 1.34 1.23 0.86 0.92 0.91 0.92 1.70 1.74 1.13 0.72 0.39 0.49 0.19 0.27 0.80 0.77 0.49 0.28 0.17 0.14 0.08 0.04
0.00 0.00 0.00 0.00 0.03 0.02 0.07 0.04 0.08 0.65 0.29 0.16 0.19 0.20 0.23 0.16 0.12 0.13 0.13 0.15 0.19 0.41 0.70 0.96 0.77 0.79 0.83 0.68 0.78 0.67 0.54 0.83 0.75 0.85 1.44 1.13 0.63 0.27 0.26 0.21 0.21 0.58 0.56 0.64 0.31 0.18 0.12 0.05 0.02
0.00 0.00 0.00 0.00 0.02 0.02 0.04 0.07 0.11 0.65 0.30 0.05 0.06 0.07 0.06 0.06 0.04 0.04 0.03 0.03 0.15 0.40 0.62 1.00 1.21 0.86 0.88 0.65 0.61 0.58 0.52 0.62 0.80 0.73 0.99 1.31 0.69 0.35 0.33 0.27 0.18 0.35 0.34 0.50 0.47 0.16 0.09 0.04 0.00
0.00 0.00 0.00 0.00 0.01 0.02 0.04 0.10 0.17 0.40 0.14 0.05 0.00 0.01 0.05 0.09 0.04 0.01 0.00 0.01 0.03 0.15 0.29 1.14 1.62 1.19 1.05 0.61 0.66 0.65 0.67 0.53 0.68 0.76 0.98 1.15 0.78 0.51 0.36 0.35 0.20 0.18 0.19 0.23 0.34 0.13 0.07 0.02 0.00
0.00 0.00 0.00 0.02 0.00 0.02 0.04 0.48 0.14 0.06 0.07 0.06 0.00 0.00 0.03 0.05 0.02 0.01 0.00 0.01 0.01 0.03 0.25 1.32 1.42 0.99 1.07 0.82 0.91 1.27 0.69 0.47 0.56 0.64 0.74 0.86 0.86 0.60 0.47 0.38 0.22 0.18 0.16 0.11 0.17 0.05 0.04 0.02 0.01
0.00 0.00 0.00 0.00 0.00 0.01 0.02 0.19 0.15 0.05 0.06 0.08 0.01 0.00 0.00 0.00 0.02 0.00 0.02 0.02 0.02 0.04 0.31 0.89 0.98 0.99 1.32 1.59 1.63 1.17 0.62 0.33 0.41 0.45 0.52 0.70 0.99 0.64 0.47 0.41 0.24 0.24 0.21 0.09 0.08 0.03 0.03 0.02 0.01
0.00 0.00 0.00 0.00 0.00 0.00 0.00 0.02 0.15 0.05 0.06 0.06 0.02 0.00 0.01 0.00 0.00 0.02 0.08 0.06 0.03 0.07 0.47 0.76 0.84 1.33 1.81 1.49 0.67 0.39 0.40 0.31 0.37 0.39 0.42 0.60 1.09 0.76 0.61 0.59 0.36 0.38 0.28 0.17 0.09 0.03 0.03 0.02 0.00
0.00 0.00 0.00 0.00 0.00 0.00 0.00 0.01 0.02 0.03 0.04 0.04 0.02 0.01 0.01 0.00 0.01 0.05 0.08 0.11 0.12 0.20 0.55 0.70 0.86 0.73 0.52 0.32 0.30 0.26 0.28 0.19 0.21 0.21 0.40 0.49 0.78 0.87 0.58 0.51 0.43 0.33 0.21 0.13 0.05 0.03 0.04 0.03 0.01
0.01 0.00 0.00 0.00 0.00 0.00 0.00 0.00 0.00 0.01 0.17 0.03 0.01 0.01 0.00 0.00 0.00 0.01 0.02 0.08 0.22 0.43 0.48 0.41 0.32 0.20 0.19 0.15 0.12 0.12 0.15 0.12 0.09 0.13 0.25 0.73 0.73 0.72 0.60 0.44 0.27 0.21 0.18 0.15 0.07 0.05 0.04 0.05 0.05
0.00 0.00 0.00 0.00 0.00 0.00 0.00 0.00 0.00 0.00 0.02 0.05 0.03 0.03 0.00 0.01 0.03 0.05 0.09 0.12 0.12 0.10 0.06 0.09 0.14 0.09 0.14 0.08 0.06 0.05 0.14 0.24 0.18 0.17 0.24 0.50 0.47 0.55 0.48 0.51 0.31 0.21 0.17 0.10 0.07 0.06 0.05 0.10 0.06
0.00 0.00 0.00 0.01 0.03 0.04 0.00 0.01 0.02 0.01 0.00 0.05 0.01 0.01 0.02 0.03 0.03 0.02 0.01 0.01 0.00 0.05 0.08 0.12 0.10 0.10 0.04 0.03 0.03 0.02 0.03 0.09 0.11 0.13 0.14 0.29 0.33 0.40 0.45 0.40 0.33 0.18 0.16 0.11 0.07 0.06 0.04 0.20 0.25
0.02 0.00 0.02 0.06 0.02 0.07 0.03 0.06 0.03 0.02 0.00 0.00 0.01 0.01 0.01 0.00 0.00 0.02 0.01 0.03 0.05 0.04 0.08 0.09 0.11 0.13 0.05 0.03 0.02 0.04 0.03 0.02 0.07 0.12 0.18 0.24 0.33 0.29 0.44 0.47 0.39 0.21 0.11 0.16 0.19 0.12 0.12 0.19 0.24
0.03 0.03 0.11 0.09 0.07 0.12 0.01 0.07 0.04 0.01 0.02 0.03 0.02 0.01 0.00 0.01 0.08 0.06 0.04 0.06 0.06 0.07 0.20 0.11 0.11 0.09 0.08 0.06 0.03 0.08 0.14 0.09 0.07 0.09 0.08 0.12 0.22 0.22 0.33 0.54 0.42 0.31 0.22 0.25 0.27 0.32 0.32 0.41 0.38
0.04 0.11 0.26 0.28 0.17 0.10 0.03 0.03 0.01 0.01 0.02 0.11 0.07 0.00 0.00 0.01 0.04 0.02 0.02 0.05 0.05 0.09 0.20 0.10 0.05 0.06 0.04 0.04 0.07 0.11 0.22 0.18 0.18 0.10 0.07 0.13 0.12 0.10 0.15 0.33 0.40 0.33 0.37 0.37 0.47 0.48 0.47 0.49 0.55
0.02 0.14 0.22 0.29 0.17 0.08 0.05 0.02 0.00 0.00 0.00 0.00 0.00 0.00 0.00 0.00 0.00 0.01 0.02 0.05 0.07 0.17 0.18 0.09 0.04 0.06 0.06 0.14 0.26 0.23 0.21 0.29 0.40 0.30 0.17 0.25 0.15 0.11 0.15 0.23 0.46 0.47 0.47 0.41 0.45 0.55 0.71 0.81 0.76
0.02 0.04 0.04 0.19 0.26 0.23 0.05 0.01 0.01 0.00 0.00 0.00 0.00 0.00 0.00 0.00 0.00 0.00 0.01 0.00 0.02 0.23 0.17 0.05 0.03 0.02 0.03 0.15 0.27 0.16 0.37 0.64 0.51 0.40 0.38 0.37 0.39 0.37 0.32 0.39 0.51 0.59 0.58 0.64 0.64 0.60 0.45 0.36 0.32
0.00 0.03 0.24 0.47 0.37 0.22 0.01 0.04 0.06 0.03 0.01 0.00 0.00 0.00 0.00 0.00 0.00 0.00 0.00 0.00 0.01 0.06 0.05 0.02 0.08 0.22 0.18 0.06 0.09 0.12 0.18 0.31 0.40 0.34 0.37 0.59 0.63 0.47 0.52 0.53 0.54 0.46 0.39 0.45 0.41 0.35 0.28 0.34 0.36
0.00 0.03 0.24 0.35 0.14 0.23 0.15 0.19 0.34 0.19 0.07 0.02 0.00 0.01 0.01 0.01 0.00 0.00 0.01 0.00 0.00 0.00 0.00 0.01 0.02 0.18 0.38 0.59 0.48 0.27 0.37 0.36 0.58 0.60 0.75 0.59 0.55 0.64 0.68 0.48 0.38 0.33 0.44 0.50 0.38 0.38 0.38 0.38 0.42
0.00 0.01 0.06 0.26 0.24 0.16 0.20 0.23 0.46 0.27 0.14 0.07 0.06 0.04 0.03 0.07 0.11 0.04 0.02 0.01 0.01 0.01 0.01 0.04 0.06 0.17 0.45 1.30 1.39 0.86 0.90 0.78 0.75 0.81 0.78 0.81 0.80 0.75 0.58 0.39 0.32 0.33 0.39 0.57 0.72 0.62 0.54 0.50 0.47

GFSSGP_prec_precacc_099.txt.gz
Total_Precipitation_Accumulation
0.00 0.00 0.00 0.00 0.00 0.00 0.00 0.00 0.00 0.11 0.09 0.06 0.13 0.18 0.23 0.35 0.63 0.80 0.65 1.13 1.14 1.14 0.93 2.08 2.07 1.74 1.16 0.62 0.30 0.19 0.11 0.05 0.05 0.06 0.11 0.19 0.13 0.21 0.12 0.03 0.01 0.03 0.05 0.03 0.03 0.04 0.06 0.04 0.03
0.00 0.00 0.00 0.00 0.00 0.00 0.00 0.00 0.02 0.09 0.16 0.24 0.26 0.18 0.17 0.55 0.47 0.50 0.66 0.71 0.64 0.56 0.60 0.89 1.79 1.96 1.60 1.35 1.02 0.72 0.42 0.11 0.04 0.04 0.15 0.37 0.39 0.36 0.36 0.29 0.12 0.04 0.05 0.05 0.05 0.10 0.06 0.03 0.03
0.00 0.00 0.00 0.00 0.00 0.00 0.00 0.02 0.04 0.08 0.16 0.15 0.09 0.08 0.31 1.03 0.77 0.70 0.53 0.92 1.01 0.67 0.86 0.73 1.16 1.44 1.70 1.92 2.21 1.84 1.26 0.66 0.34 0.40 0.64 0.79 0.92 0.94 0.77 0.56 0.29 0.14 0.15 0.17 0.20 0.18 0.07 0.01 0.03
0.00 0.00 0.00 0.00 0.00 0.00 0.00 0.01 0.10 0.03 0.09 0.11 0.07 0.12 0.43 0.55 0.63 0.51 0.48 0.86 1.45 1.35 1.55 1.23 1.85 2.82 2.37 2.47 2.89 2.45 1.96 1.96 1.58 1.33 0.87 0.61 0.53 0.57 0.62 0.83 1.05 0.92 0.65 0.44 0.48 0.32 0.05 0.00 0.00
0.00 0.00 0.00 0.00 0.00 0.00 0.00 0.00 0.01 0.06 0.14 0.14 0.12 0.07 0.74 0.69 0.42 0.66 1.14 1.60 2.09 2.06 2.45 1.44 1.70 2.04 2.42 3.12 2.95 2.70 2.57 2.06 1.80 1.69 1.58 0.96 0.64 0.44 0.39 0.51 0.81 1.21 1.63 1.39 0.82 0.29 0.05 0.06 0.09
0.00 0.00 0.00 0.00 0.00 0.00 0.02 0.02 0.06 0.19 0.28 0.29 0.19 0.31 0.71 0.44 0.52 0.81 2.00 2.48 3.22 3.16 3.45 2.49 2.37 2.59 1.97 1.87 3.64 3.09 3.04 2.50 1.61 1.20 1.78 1.11 0.70 0.60 0.48 0.45 0.40 0.40 0.77 1.23 1.19 0.92 0.30 0.18 0.08
0.00 0.00 0.00 0.00 0.00 0.00 0.02 0.10 0.33 0.58 0.31 0.13 0.10 0.51 0.99 0.79 0.56 0.66 1.63 3.73 5.19 6.82 7.53 6.08 3.85 3.32 3.56 2.42 2.36 3.31 3.30 2.77 1.74 1.34 1.10 1.19 0.85 0.73 0.53 0.39 0.33 0.30 0.29 0.46 0.53 0.63 0.53 0.36 0.18
0.00 0.00 0.00 0.00 0.00 0.02 0.08 0.18 0.24 0.28 0.45 0.39 0.14 0.69 1.00 0.63 0.56 0.86 1.20 2.92 4.49 9.09 9.74 7.10 5.14 3.17 1.75 2.48 2.23 2.23 3.05 3.65 2.35 1.86 1.64 1.25 1.06 0.83 0.50 0.35 0.42 0.55 0.50 0.36 0.29 0.41 0.44 0.35 0.21
0.00 0.00 0.00 0.00 0.01 0.04 0.10 0.14 0.33 0.26 0.22 0.31 0.21 0.48 0.64 0.77 0.77 0.82 1.07 1.95 3.72 5.13 5.31 6.63 6.38 3.96 2.72 2.47 2.35 1.79 1.70 2.68 3.59 2.42 1.90 1.57 0.74 0.67 0.50 0.41 0.44 0.46 0.56 0.59 0.53 0.48 0.40 0.30 0.23
0.00 0.00 0.00 0.00 0.01 0.08 0.27 0.30 0.29 0.16 0.34 0.23 0.37 0.52 0.80 0.81 0.65 0.60 0.93 1.29 2.06 2.41 3.31 2.92 3.24 2.96 2.26 2.98 3.04 1.70 1.38 1.16 2.63 2.88 2.05 1.40 0.82 0.66 0.56 0.40 0.47 0.56 0.47 0.64 0.66 0.67 0.47 0.34 0.16
0.00 0.00 0.00 0.00 0.01 0.08 0.10 0.06 0.12 0.07 0.26 0.43 0.81 0.78 0.91 0.76 0.54 0.31 0.40 0.83 0.88 0.94 1.06 1.24 1.51 1.42 1.35 1.82 1.53 1.45 1.23 1.05 1.33 2.50 1.95 1.21 0.82 0.63 0.78 0.37 0.43 0.80 0.71 0.66 0.57 0.44 0.36 0.31 0.22
0.00 0.00 0.00 0.00 0.00 0.01 0.01 0.09 0.18 0.18 0.75 0.41 0.48 0.42 0.55 0.33 0.24 0.27 0.30 0.33 0.35 0.55 0.76 1.01 0.80 0.99 1.14 1.34 1.23 0.87 0.92 0.91 0.93 1.71 1.76 1.17 0.77 0.43 0.53 0.22 0.33 0.89 0.83 0.54 0.33 0.20 0.23 0.31 0.28
0.00 0.00 0.00 0.00 0.03 0.02 0.07 0.04 0.08 0.65 0.29 0.16 0.19 0.20 0.23 0.16 0.12 0.13 0.13 0.15 0.19 0.41 0.70 0.96 0.77 0.79 0.83 0.68 0.78 0.67 0.54 0.84 0.76 0.85 1.45 1.14 0.66 0.30 0.31 0.27 0.29 0.67 0.61 0.69 0.34 0.19 0.24 0.26 0.25
0.00 0.00 0.00 0.00 0.02 0.02 0.04 0.07 0.11 0.65 0.30 0.05 0.06 0.07 0.06 0.06 0.04 0.04 0.03 0.03 0.15 0.40 0.62 1.00 1.21 0.86 0.88 0.65 0.61 0.58 0.52 0.62 0.81 0.73 0.99 1.32 0.71 0.38 0.37 0.33 0.24 0.42 0.39 0.52 0.47 0.17 0.22 0.25 0.17
0.00 0.00 0.00 0.00 0.01 0.02 0.04 0.10 0.17 0.40 0.14 0.05 0.00 0.01 0.05 0.09 0.04 0.01 0.00 0.01 0.03 0.15 0.29 1.14 1.62 1.19 1.05 0.61 0.66 0.65 0.67 0.54 0.68 0.77 0.98 1.15 0.79 0.55 0.41 0.40 0.27 0.24 0.26 0.24 0.35 0.23 0.29 0.26 0.16
0.00 0.00 0.00 0.02 0.00 0.02 0.04 0.48 0.14 0.06 0.07 0.06 0.00 0.00 0.03 0.05 0.02 0.01 0.00 0.01 0.01 0.03 0.25 1.32 1.42 0.99 1.07 0.82 0.91 1.27 0.69 0.47 0.56 0.65 0.74 0.87 0.87 0.64 0.56 0.45 0.30 0.25 0.21 0.15 0.18 0.11 0.21 0.23 0.09
0.00 0.00 0.00 0.00 0.00 0.01 0.02 0.19 0.15 0.05 0.06 0.08 0.01 0.00 0.00 0.00 0.02 0.00 0.02 0.02 0.02 0.04 0.31 0.89 0.98 0.99 1.32 1.59 1.63 1.17 0.62 0.34 0.41 0.46 0.53 0.71 1.00 0.66 0.57 0.51 0.32 0.29 0.24 0.10 0.09 0.07 0.11 0.16 0.09
0.00 0.00 0.00 0.00 0.00 0.00 0.00 0.02 0.15 0.05 0.06 0.06 0.02 0.00 0.01 0.00 0.00 0.02 0.08 0.06 0.03 0.07 0.47 0.76 0.84 1.33 1.81 1.49 0.67 0.39 0.40 0.31 0.37 0.39 0.42 0.61 1.11 0.77 0.64 0.67 0.50 0.42 0.32 0.20 0.10 0.06 0.12 0.13 0.05
0.00 0.00 0.01 0.00 0.00 0.00 0.00 0.01 0.02 0.03 0.04 0.04 0.02 0.01 0.01 0.00 0.01 0.05 0.08 0.11 0.12 0.20 0.55 0.70 0.86 0.73 0.52 0.32 0.30 0.26 0.28 0.20 0.21 0.22 0.40 0.51 0.81 0.91 0.66 0.69 0.64 0.50 0.30 0.19 0.10 0.05 0.09 0.14 0.08
0.03 0.05 0.01 0.00 0.00 0.00 0.00 0.00 0.00 0.01 0.17 0.03 0.01 0.01 0.00 0.00 0.00 0.01 0.02 0.08 0.22 0.43 0.48 0.41 0.32 0.20 0.19 0.15 0.12 0.12 0.15 0.13 0.09 0.14 0.26 0.76 0.77 0.74 0.67 0.71 0.57 0.41 0.32 0.32 0.22 0.09 0.09 0.12 0.11
0.00 0.00 0.00 0.00 0.00 0.00 0.00 0.00 0.00 0.00 0.02 0.05 0.03 0.03 0.00 0.01 0.03 0.05 0.09 0.12 0.12 0.10 0.06 0.09 0.14 0.09 0.14 0.08 0.06 0.05 0.14 0.24 0.19 0.18 0.25 0.51 0.48 0.56 0.53 0.68 0.64 0.37 0.31 0.24 0.21 0.12 0.08 0.13 0.10
0.00 0.00 0.00 0.01 0.03 0.04 0.00 0.01 0.02 0.01 0.00 0.05 0.01 0.01 0.02 0.03 0.03 0.02 0.01 0.01 0.00 0.05 0.08 0.12 0.10 0.10 0.04 0.03 0.03 0.02 0.03 0.09 0.11 0.13 0.14 0.29 0.33 0.41 0.46 0.44 0.52 0.33 0.31 0.27 0.18 0.11 0.07 0.22 0.26
0.02 0.00 0.02 0.06 0.02 0.07 0.03 0.06 0.03 0.02 0.00 0.00 0.01 0.01 0.01 0.00 0.00 0.02 0.01 0.03 0.05 0.04 0.08 0.09 0.11 0.13 0.05 0.03 0.02 0.04 0.03 0.02 0.07 0.13 0.18 0.25 0.34 0.30 0.44 0.50 0.58 0.41 0.30 0.32 0.29 0.15 0.15 0.21 0.25
0.03 0.03 0.11 0.09 0.07 0.12 0.01 0.07 0.04 0.01 0.02 0.03 0.02 0.01 0.00 0.01 0.08 0.06 0.04 0.06 0.06 0.07 0.20 0.11 0.11 0.09 0.08 0.06 0.03 0.08 0.14 0.09 0.07 0.09 0.09 0.13 0.22 0.22 0.34 0.58 0.57 0.52 0.42 0.41 0.32 0.34 0.34 0.42 0.40
0.04 0.11 0.27 0.29 0.18 0.10 0.03 0.03 0.01 0.01 0.02 0.11 0.07 0.00 0.00 0.01 0.04 0.02 0.02 0.05 0.05 0.09 0.20 0.10 0.05 0.06 0.05 0.04 0.07 0.11 0.22 0.18 0.18 0.10 0.08 0.14 0.12 0.10 0.16 0.34 0.48 0.46 0.54 0.48 0.51 0.51 0.50 0.51 0.56
0.02 0.14 0.23 0.30 0.18 0.08 0.05 0.02 0.00 0.00 0.00 0.00 0.00 0.00 0.00 0.00 0.00 0.01 0.02 0.05 0.07 0.17 0.18 0.09 0.04 0.06 0.07 0.14 0.26 0.23 0.21 0.29 0.40 0.30 0.17 0.26 0.16 0.11 0.15 0.25 0.49 0.58 0.62 0.52 0.53 0.62 0.77 0.87 0.79
0.02 0.05 0.05 0.20 0.26 0.23 0.05 0.01 0.01 0.00 0.00 0.00 0.00 0.00 0.00 0.00 0.00 0.00 0.01 0.00 0.02 0.23 0.17 0.05 0.03 0.02 0.04 0.15 0.27 0.16 0.37 0.64 0.51 0.40 0.38 0.38 0.40 0.37 0.32 0.39 0.53 0.66 0.62 0.73 0.73 0.68 0.52 0.43 0.38
0.00 0.03 0.25 0.47 0.37 0.22 0.01 0.04 0.09 0.05 0.01 0.00 0.00 0.00 0.00 0.00 0.00 0.00 0.00 0.00 0.01 0.06 0.05 0.02 0.08 0.22 0.19 0.07 0.09 0.12 0.18 0.31 0.40 0.34 0.38 0.60 0.64 0.48 0.52 0.53 0.54 0.48 0.43 0.51 0.48 0.37 0.29 0.34 0.37
0.00 0.04 0.24 0.35 0.14 0.25 0.16 0.24 0.36 0.19 0.07 0.02 0.00 0.01 0.01 0.01 0.00 0.00 0.01 0.00 0.00 0.00 0.00 0.02 0.03 0.18 0.38 0.59 0.49 0.27 0.37 0.36 0.58 0.60 0.76 0.60 0.55 0.64 0.69 0.48 0.38 0.34 0.45 0.53 0.48 0.43 0.39 0.39 0.42
0.00 0.01 0.06 0.28 0.25 0.17 0.21 0.30 0.47 0.27 0.14 0.07 0.06 0.04 0.03 0.07 0.11 0.04 0.02 0.02 0.01 0.02 0.03 0.04 0.07 0.17 0.46 1.31 1.39 0.86 0.90 0.78 0.75 0.81 0.78 0.81 0.80 0.75 0.58 0.40 0.32 0.33 0.39 0.58 0.74 0.66 0.55 0.50 0.48

GFSSGP_prec_precacc_102.txt.gz
Total_Precipitation_Accumulation
0.00 0.00 0.00 0.00 0.00 0.00 0.00 0.00 0.00 0.11 0.09 0.06 0.13 0.18 0.23 0.35 0.63 0.80 0.65 1.13 1.14 1.14 0.93 2.08 2.07 1.74 1.16 0.62 0.30 0.19 0.11 0.05 0.05 0.07 0.12 0.20 0.16 0.23 0.12 0.03 0.01 0.05 0.12 0.09 0.04 0.04 0.06 0.04 0.03
0.00 0.00 0.00 0.00 0.00 0.00 0.00 0.00 0.02 0.09 0.16 0.24 0.26 0.18 0.17 0.55 0.47 0.50 0.66 0.71 0.64 0.56 0.60 0.89 1.79 1.96 1.60 1.35 1.02 0.72 0.42 0.11 0.05 0.06 0.17 0.38 0.40 0.37 0.38 0.31 0.14 0.08 0.10 0.11 0.07 0.13 0.07 0.03 0.03
0.00 0.00 0.00 0.00 0.00 0.00 0.00 0.02 0.04 0.08 0.16 0.15 0.09 0.08 0.31 1.03 0.77 0.70 0.53 0.92 1.01 0.67 0.86 0.73 1.16 1.44 1.70 1.92 2.21 1.84 1.26 0.66 0.35 0.42 0.66 0.81 0.97 0.98 0.82 0.70 0.47 0.41 0.45 0.37 0.33 0.26 0.10 0.02 0.03
0.00 0.00 0.00 0.00 0.00 0.00 0.00 0.01 0.10 0.03 0.09 0.11 0.07 0.12 0.43 0.55 0.63 0.51 0.48 0.86 1.45 1.35 1.55 1.23 1.85 2.82 2.37 2.47 2.89 2.45 1.96 1.96 1.59 1.36 0.92 0.65 0.56 0.59 0.64 0.90 1.33 1.60 1.37 0.83 0.87 0.73 0.22 0.02 0.00
0.00 0.00 0.00 0.00 0.00 0.00 0.00 0.00 0.01 0.06 0.14 0.14 0.12 0.07 0.74 0.69 0.42 0.66 1.14 1.60 2.09 2.06 2.45 1.44 1.70 2.04 2.42 3.12 2.95 2.70 2.57 2.06 1.84 1.77 1.60 0.98 0.67 0.47 0.44 0.54 0.89 1.59 2.68 2.06 1.14 0.78 0.42 0.26 0.22
0.00 0.00 0.00 0.00 0.00 0.00 0.02 0.02 0.06 0.19 0.28 0.29 0.19 0.31 0.71 0.44 0.52 0.81 2.00 2.48 3.22 3.16 3.45 2.49 2.37 2.59 1.97 1.87 3.64 3.09 3.04 2.51 1.62 1.22 1.82 1.12 0.72 0.61 0.50 0.47 0.42 0.41 0.82 1.31 1.30 1.37 0.75 0.44 0.31
0.00 0.00 0.00 0.00 0.00 0.00 0.02 0.10 0.33 0.58 0.31 0.13 0.10 0.51 0.99 0.79 0.56 0.66 1.63 3.73 5.19 6.82 7.53 6.08 3.85 3.32 3.56 2.42 2.36 3.31 3.30 2.77 1.74 1.34 1.10 1.19 0.85 0.74 0.59 0.41 0.36 0.30 0.29 0.46 0.53 0.65 0.66 0.55 0.39
0.00 0.00 0.00 0.00 0.00 0.02 0.08 0.18 0.24 0.28 0.45 0.39 0.14 0.69 1.00 0.63 0.56 0.86 1.20 2.92 4.49 9.09 9.74 7.10 5.14 3.17 1.75 2.48 2.23 2.23 3.05 3.65 2.35 1.86 1.64 1.27 1.09 0.85 0.53 0.36 0.44 0.57 0.52 0.36 0.29 0.41 0.48 0.44 0.31
0.00 0.00 0.00 0.00 0.01 0.04 0.10 0.14 0.33 0.26 0.22 0.31 0.21 0.48 0.64 0.77 0.77 0.82 1.07 1.95 3.72 5.13 5.31 6.63 6.38 3.96 2.72 2.47 2.35 1.79 1.70 2.68 3.59 2.42 1.90 1.60 0.85 0.78 0.54 0.49 0.47 0.48 0.56 0.59 0.53 0.48 0.41 0.36 0.31
0.00 0.00 0.00 0.00 0.01 0.08 0.27 0.30 0.29 0.16 0.34 0.23 0.37 0.52 0.80 0.81 0.65 0.60 0.93 1.29 2.06 2.41 3.31 2.92 3.24 2.96 2.26 2.98 3.04 1.70 1.38 1.16 2.63 2.88 2.05 1.44 0.87 0.78 0.66 0.46 0.49 0.57 0.47 0.64 0.66 0.68 0.52 0.39 0.21
0.00 0.00 0.00 0.00 0.01 0.08 0.10 0.06 0.12 0.07 0.26 0.43 0.81 0.78 0.91 0.76 0.54 0.31 0.40 0.83 0.88 0.94 1.06 1.24 1.51 1.42 1.35 1.82 1.54 1.46 1.24 1.05 1.33 2.51 1.95 1.22 0.83 0.71 0.94 0.42 0.46 0.82 0.71 0.66 0.58 0.44 0.37 0.34 0.28
0.00 0.00 0.00 0.00 0.00 0.01 0.01 0.09 0.18 0.18 0.75 0.41 0.48 0.42 0.55 0.33 0.24 0.27 0.30 0.33 0.35 0.55 0.76 1.01 0.80 0.99 1.14 1.34 1.23 0.87 0.93 0.92 0.93 1.71 1.78 1.19 0.79 0.47 0.57 0.27 0.38 0.92 0.86 0.56 0.34 0.21 0.24 0.32 0.35
0.00 0.00 0.00 0.00 0.03 0.02 0.07 0.04 0.08 0.65 0.29 0.16 0.19 0.20 0.23 0.16 0.12 0.13 0.13 0.15 0.19 0.41 0.70 0.96 0.77 0.79 0.83 0.68 0.78 0.67 0.54 0.84 0.76 0.85 1.45 1.16 0.69 0.32 0.34 0.32 0.34 0.75 0.72 0.76 0.38 0.20 0.24 0.27 0.33
0.00 0.00 0.00 0.00 0.02 0.02 0.04 0.07 0.11 0.65 0.30 0.05 0.06 0.07 0.06 0.06 0.04 0.04 0.03 0.03 0.15 0.40 0.62 1.00 1.21 0.86 0.88 0.65 0.61 0.59 0.52 0.62 0.82 0.73 0.99 1.32 0.72 0.41 0.40 0.37 0.29 0.48 0.52 0.60 0.48 0.18 0.22 0.25 0.24
0.00 0.00 0.00 0.00 0.01 0.02 0.04 0.10 0.17 0.40 0.14 0.05 0.00 0.01 0.05 0.09 0.04 0.01 0.00 0.01 0.03 0.15 0.29 1.14 1.62 1.19 1.05 0.61 0.66 0.65 0.67 0.54 0.69 0.77 0.99 1.15 0.80 0.55 0.42 0.43 0.31 0.29 0.33 0.29 0.38 0.26 0.30 0.28 0.26
0.00 0.00 0.00 0.02 0.00 0.02 0.04 0.48 0.14 0.06 0.07 0.06 0.00 0.00 0.03 0.05 0.02 0.01 0.00 0.01 0.01 0.03 0.25 1.32 1.42 0.99 1.07 0.82 0.91 1.27 0.69 0.47 0.56 0.65 0.75 0.87 0.87 0.64 0.57 0.47 0.35 0.35 0.28 0.18 0.20 0.11 0.22 0.31 0.26
0.00 0.00 0.00 0.00 0.00 0.01 0.02 0.19 0.15 0.05 0.06 0.08 0.01 0.00 0.00 0.00 0.02 0.00 0.02 0.02 0.02 0.04 0.31 0.89 0.98 0.99 1.32 1.59 1.63 1.17 0.62 0.34 0.41 0.46 0.53 0.72 1.00 0.66 0.58 0.53 0.39 0.40 0.34 0.15 0.10 0.07 0.12 0.23 0.26
0.00 0.00 0.00 0.00 0.00 0.00 0.00 0.02 0.15 0.05 0.06 0.06 0.02 0.00 0.01 0.00 0.00 0.02 0.08 0.06 0.03 0.07 0.47 0.76 0.84 1.33 1.81 1.49 0.67 0.39 0.40 0.31 0.37 0.39 0.42 0.61 1.11 0.78 0.65 0.69 0.56 0.49 0.37 0.22 0.11 0.06 0.13 0.16 0.15
0.00 0.00 0.02 0.00 0.00 0.00 0.00 0.01 0.02 0.03 0.04 0.04 0.02 0.01 0.01 0.00 0.01 0.05 0.08 0.11 0.12 0.20 0.55 0.70 0.86 0.73 0.52 0.32 0.30 0.26 0.29 0.20 0.21 0.22 0.40 0.51 0.82 0.92 0.69 0.71 0.65 0.54 0.32 0.19 0.11 0.06 0.10 0.22 0.19
0.03 0.08 0.03 0.00 0.00 0.01 0.00 0.00 0.00 0.01 0.17 0.03 0.01 0.01 0.00 0.00 0.00 0.01 0.02 0.08 0.22 0.43 0.48 0.41 0.32 0.20 0.19 0.15 0.12 0.12 0.15 0.13 0.09 0.14 0.26 0.76 0.77 0.75 0.70 0.73 0.57 0.45 0.41 0.38 0.24 0.10 0.09 0.19 0.23
0.00 0.01 0.00 0.00 0.02 0.06 0.02 0.01 0.00 0.00 0.02 0.05 0.03 0.03 0.00 0.01 0.03 0.05 0.09 0.12 0.12 0.10 0.06 0.09 0.14 0.09 0.14 0.08 0.06 0.05 0.14 0.24 0.19 0.19 0.25 0.51 0.49 0.57 0.54 0.69 0.68 0.50 0.48 0.51 0.37 0.15 0.09 0.16 0.22
0.00 0.00 0.00 0.02 0.11 0.09 0.00 0.02 0.02 0.01 0.00 0.05 0.01 0.01 0.02 0.03 0.03 0.02 0.01 0.01 0.00 0.05 0.08 0.12 0.10 0.10 0.04 0.03 0.03 0.02 0.03 0.09 0.11 0.13 0.14 0.30 0.34 0.41 0.46 0.44 0.57 0.44 0.47 0.47 0.38 0.21 0.12 0.26 0.32
0.02 0.00 0.02 0.07 0.04 0.08 0.03 0.08 0.03 0.02 0.00 0.00 0.01 0.01 0.01 0.00 0.00 0.02 0.01 0.03 0.05 0.04 0.08 0.09 0.11 0.13 0.05 0.03 0.02 0.04 0.03 0.02 0.07 0.13 0.18 0.25 0.34 0.30 0.44 0.50 0.59 0.49 0.45 0.45 0.40 0.28 0.23 0.27 0.29
0.03 0.03 0.11 0.09 0.07 0.15 0.02 0.08 0.04 0.01 0.02 0.03 0.02 0.01 0.00 0.01 0.08 0.06 0.04 0.06 0.06 0.07 0.20 0.11 0.11 0.09 0.08 0.06 0.03 0.08 0.14 0.09 0.07 0.09 0.09 0.13 0.22 0.22 0.34 0.58 0.58 0.59 0.56 0.60 0.46 0.46 0.42 0.49 0.47
0.04 0.11 0.28 0.30 0.20 0.11 0.03 0.03 0.01 0.01 0.02 0.11 0.07 0.00 0.00 0.01 0.04 0.02 0.02 0.05 0.05 0.09 0.20 0.10 0.05 0.06 0.05 0.04 0.07 0.11 0.22 0.18 0.18 0.10 0.08 0.14 0.12 0.11 0.16 0.34 0.49 0.51 0.68 0.69 0.75 0.67 0.59 0.62 0.65
0.02 0.14 0.25 0.33 0.19 0.08 0.06 0.03 0.00 0.01 0.00 0.00 0.00 0.00 0.00 0.00 0.00 0.01 0.02 0.05 0.07 0.17 0.18 0.09 0.04 0.06 0.07 0.14 0.26 0.23 0.21 0.29 0.40 0.30 0.17 0.26 0.16 0.11 0.15 0.25 0.49 0.61 0.75 0.70 0.72 0.81 0.87 0.95 0.88
0.02 0.05 0.06 0.26 0.29 0.32 0.07 0.03 0.03 0.01 0.01 0.00 0.00 0.00 0.00 0.00 0.00 0.00 0.01 0.00 0.02 0.23 0.17 0.05 0.03 0.02 0.04 0.15 0.27 0.16 0.37 0.64 0.51 0.40 0.38 0.38 0.40 0.37 0.32 0.39 0.53 0.67 0.67 0.83 0.85 0.84 0.68 0.55 0.47
0.00 0.03 0.30 0.54 0.46 0.31 0.03 0.07 0.15 0.10 0.03 0.00 0.00 0.00 0.00 0.00 0.00 0.00 0.00 0.00 0.01 0.06 0.05 0.02 0.08 0.22 0.19 0.07 0.09 0.12 0.19 0.31 0.41 0.34 0.38 0.60 0.65 0.48 0.52 0.53 0.54 0.48 0.44 0.54 0.56 0.46 0.37 0.45 0.45
0.01 0.07 0.27 0.37 0.15 0.28 0.24 0.42 0.47 0.30 0.12 0.02 0.00 0.01 0.01 0.01 0.00 0.00 0.01 0.00 0.00 0.00 0.00 0.05 0.04 0.18 0.38 0.60 0.49 0.28 0.38 0.36 0.58 0.60 0.76 0.60 0.56 0.65 0.69 0.48 0.38 0.34 0.45 0.55 0.49 0.46 0.43 0.40 0.44
0.01 0.02 0.08 0.31 0.26 0.18 0.32 0.60 0.51 0.31 0.14 0.07 0.06 0.04 0.03 0.07 0.11 0.04 0.02 0.02 0.02 0.03 0.05 0.08 0.09 0.18 0.46 1.32 1.41 0.87 0.91 0.78 0.75 0.81 0.78 0.81 0.81 0.75 0.59 0.40 0.32 0.33 0.40 0.58 0.75 0.68 0.60 0.57 0.51

GFSSGP_prec_precacc_105.txt.gz
Total_Precipitation_Accumulation
0.00 0.00 0.00 0.00 0.00 0.00 0.00 0.00 0.00 0.11 0.09 0.06 0.13 0.18 0.23 0.35 0.63 0.80 0.65 1.13 1.14 1.14 0.93 2.08 2.07 1.74 1.16 0.62 0.30 0.19 0.11 0.05 0.05 0.07 0.12 0.20 0.16 0.24 0.13 0.03 0.02 0.07 0.15 0.09 0.04 0.07 0.07 0.04 0.03
0.00 0.00 0.00 0.00 0.00 0.00 0.00 0.00 0.02 0.09 0.16 0.24 0.26 0.18 0.17 0.55 0.47 0.50 0.66 0.71 0.64 0.56 0.60 0.89 1.79 1.96 1.60 1.35 1.02 0.72 0.42 0.11 0.05 0.06 0.17 0.38 0.42 0.42 0.42 0.34 0.15 0.10 0.21 0.30 0.18 0.17 0.08 0.05 0.03
0.00 0.00 0.00 0.00 0.00 0.00 0.00 0.02 0.04 0.08 0.16 0.15 0.09 0.08 0.31 1.03 0.77 0.70 0.53 0.92 1.01 0.67 0.86 0.73 1.16 1.44 1.70 1.92 2.21 1.84 1.26 0.66 0.35 0.42 0.66 0.82 0.99 1.03 0.88 0.78 0.66 0.67 0.77 0.74 0.68 0.46 0.19 0.04 0.04
0.00 0.00 0.00 0.00 0.00 0.00 0.00 0.01 0.10 0.03 0.09 0.11 0.07 0.12 0.43 0.55 0.63 0.51 0.48 0.86 1.45 1.35 1.55 1.23 1.85 2.82 2.37 2.47 2.89 2.45 1.96 1.96 1.59 1.36 0.92 0.66 0.57 0.64 0.72 1.01 1.46 1.66 1.62 1.18 1.22 1.05 0.44 0.16 0.08
0.00 0.00 0.00 0.00 0.00 0.00 0.00 0.00 0.01 0.06 0.14 0.14 0.12 0.07 0.74 0.69 0.42 0.66 1.14 1.60 2.09 2.06 2.45 1.44 1.70 2.04 2.42 3.12 2.95 2.70 2.57 2.06 1.84 1.77 1.60 0.98 0.68 0.49 0.51 0.57 0.90 1.62 3.01 2.43 1.32 0.94 0.50 0.38 0.37
0.00 0.00 0.00 0.00 0.00 0.00 0.02 0.02 0.06 0.19 0.28 0.29 0.19 0.31 0.71 0.44 0.52 0.81 2.00 2.48 3.22 3.16 3.45 2.49 2.37 2.59 1.97 1.87 3.64 3.09 3.04 2.51 1.62 1.22 1.82 1.12 0.73 0.63 0.57 0.56 0.44 0.44 0.88 1.34 1.34 1.49 0.87 0.46 0.36
0.00 0.00 0.00 0.00 0.00 0.00 0.02 0.10 0.33 0.58 0.31 0.13 0.10 0.51 0.99 0.79 0.56 0.66 1.63 3.73 5.19 6.82 7.53 6.08 3.85 3.32 3.56 2.42 2.36 3.31 3.30 2.77 1.74 1.34 1.10 1.19 0.85 0.76 0.65 0.48 0.37 0.31 0.30 0.47 0.53 0.65 0.66 0.55 0.39
0.00 0.00 0.00 0.00 0.00 0.02 0.08 0.18 0.24 0.28 0.45 0.39 0.14 0.69 1.00 0.63 0.56 0.86 1.20 2.92 4.49 9.09 9.74 7.10 5.14 3.17 1.75 2.48 2.23 2.23 3.05 3.65 2.35 1.86 1.64 1.27 1.10 0.89 0.55 0.38 0.44 0.57 0.53 0.40 0.29 0.41 0.48 0.44 0.31
0.00 0.00 0.00 0.00 0.01 0.04 0.10 0.14 0.33 0.26 0.22 0.31 0.21 0.48 0.64 0.77 0.77 0.82 1.07 1.95 3.72 5.13 5.31 6.63 6.38 3.96 2.72 2.47 2.35 1.79 1.70 2.68 3.59 2.42 1.90 1.60 0.85 0.79 0.56 0.53 0.50 0.49 0.57 0.61 0.54 0.48 0.41 0.36 0.31
0.00 0.00 0.00 0.00 0.01 0.08 0.27 0.30 0.29 0.16 0.34 0.23 0.37 0.52 0.80 0.81 0.65 0.60 0.93 1.29 2.06 2.41 3.31 2.92 3.24 2.96 2.26 2.98 3.04 1.70 1.38 1.16 2.63 2.88 2.05 1.44 0.87 0.78 0.72 0.50 0.52 0.60 0.49 0.64 0.66 0.68 0.52 0.39 0.21
0.00 0.00 0.00 0.00 0.01 0.08 0.10 0.06 0.12 0.07 0.26 0.43 0.81 0.78 0.91 0.76 0.54 0.31 0.40 0.83 0.88 0.94 1.06 1.24 1.51 1.42 1.35 1.82 1.54 1.46 1.24 1.05 1.33 2.51 1.95 1.22 0.83 0.71 0.95 0.43 0.47 0.85 0.74 0.67 0.58 0.44 0.37 0.34 0.28
0.00 0.00 0.00 0.00 0.00 0.01 0.01 0.09 0.18 0.18 0.75 0.41 0.48 0.42 0.55 0.33 0.24 0.27 0.30 0.33 0.35 0.55 0.76 1.01 0.80 0.99 1.14 1.34 1.23 0.87 0.93 0.92 0.93 1.71 1.78 1.19 0.79 0.47 0.57 0.27 0.39 0.94 0.88 0.56 0.34 0.21 0.24 0.32 0.35
0.00 0.00 0.00 0.00 0.03 0.02 0.07 0.04 0.08 0.65 0.29 0.16 0.19 0.20 0.23 0.16 0.12 0.13 0.13 0.15 0.19 0.41 0.70 0.96 0.77 0.79 0.83 0.68 0.78 0.67 0.54 0.84 0.76 0.85 1.45 1.16 0.69 0.32 0.34 0.32 0.35 0.75 0.72 0.76 0.38 0.20 0.24 0.27 0.33
0.00 0.00 0.00 0.00 0.02 0.02 0.04 0.07 0.11 0.65 0.30 0.05 0.06 0.07 0.06 0.06 0.04 0.04 0.03 0.03 0.15 0.40 0.62 1.00 1.21 0.86 0.88 0.65 0.61 0.59 0.52 0.62 0.82 0.73 0.99 1.32 0.72 0.41 0.40 0.37 0.30 0.49 0.53 0.62 0.50 0.18 0.26 0.27 0.24
0.00 0.00 0.00 0.00 0.01 0.02 0.04 0.10 0.17 0.40 0.14 0.05 0.00 0.01 0.05 0.09 0.04 0.01 0.00 0.01 0.03 0.15 0.29 1.14 1.62 1.19 1.05 0.61 0.66 0.65 0.67 0.54 0.69 0.77 0.99 1.15 0.80 0.55 0.42 0.43 0.31 0.31 0.38 0.34 0.44 0.37 0.35 0.29 0.26
0.00 0.00 0.00 0.02 0.00 0.02 0.04 0.48 0.14 0.06 0.07 0.06 0.00 0.00 0.03 0.05 0.02 0.01 0.00 0.01 0.01 0.03 0.25 1.32 1.42 0.99 1.07 0.82 0.91 1.27 0.69 0.47 0.56 0.65 0.75 0.87 0.87 0.64 0.57 0.47 0.35 0.38 0.34 0.21 0.30 0.20 0.26 0.31 0.26
0.00 0.00 0.00 0.00 0.00 0.01 0.02 0.19 0.15 0.05 0.06 0.08 0.01 0.00 0.00 0.00 0.02 0.00 0.02 0.02 0.02 0.04 0.31 0.89 0.98 0.99 1.32 1.59 1.63 1.17 0.62 0.34 0.41 0.46 0.53 0.72 1.00 0.66 0.58 0.54 0.40 0.42 0.40 0.21 0.17 0.10 0.13 0.24 0.27
0.00 0.00 0.00 0.00 0.00 0.00 0.00 0.02 0.15 0.05 0.06 0.06 0.02 0.00 0.01 0.00 0.00 0.02 0.08 0.06 0.03 0.07 0.47 0.76 0.84 1.33 1.81 1.49 0.67 0.39 0.40 0.31 0.37 0.39 0.42 0.61 1.11 0.78 0.65 0.69 0.56 0.50 0.40 0.30 0.19 0.10 0.14 0.17 0.16
0.00 0.00 0.02 0.00 0.00 0.00 0.00 0.01 0.02 0.03 0.04 0.04 0.02 0.01 0.01 0.00 0.01 0.05 0.08 0.11 0.12 0.20 0.55 0.70 0.86 0.73 0.52 0.32 0.30 0.26 0.29 0.20 0.21 0.22 0.40 0.51 0.82 0.92 0.69 0.71 0.65 0.54 0.33 0.20 0.14 0.11 0.11 0.22 0.21
0.03 0.08 0.03 0.00 0.01 0.04 0.02 0.00 0.00 0.01 0.17 0.03 0.01 0.01 0.00 0.00 0.00 0.01 0.02 0.08 0.22 0.43 0.48 0.41 0.32 0.20 0.19 0.15 0.12 0.12 0.15 0.13 0.09 0.14 0.26 0.76 0.77 0.75 0.70 0.73 0.57 0.45 0.41 0.39 0.27 0.13 0.11 0.20 0.26
0.00 0.01 0.00 0.00 0.04 0.13 0.06 0.03 0.00 0.00 0.02 0.05 0.03 0.03 0.00 0.01 0.03 0.05 0.09 0.12 0.12 0.10 0.06 0.09 0.14 0.09 0.14 0.08 0.06 0.05 0.14 0.24 0.19 0.19 0.25 0.51 0.49 0.57 0.54 0.69 0.68 0.50 0.48 0.51 0.42 0.23 0.12 0.17 0.25
0.00 0.00 0.00 0.02 0.16 0.18 0.10 0.08 0.02 0.01 0.00 0.05 0.01 0.01 0.02 0.03 0.03 0.02 0.01 0.01 0.00 0.05 0.08 0.12 0.12 0.13 0.05 0.03 0.03 0.02 0.03 0.09 0.11 0.13 0.14 0.30 0.34 0.41 0.46 0.44 0.57 0.44 0.47 0.49 0.53 0.45 0.33 0.34 0.37
0.02 0.00 0.02 0.09 0.10 0.11 0.08 0.20 0.03 0.03 0.01 0.00 0.01 0.01 0.01 0.00 0.00 0.02 0.01 0.03 0.05 0.04 0.08 0.09 0.11 0.17 0.09 0.03 0.02 0.04 0.03 0.02 0.07 0.13 0.18 0.25 0.34 0.30 0.44 0.50 0.59 0.49 0.45 0.49 0.50 0.55 0.50 0.48 0.33
0.04 0.04 0.16 0.15 0.11 0.16 0.02 0.11 0.04 0.02 0.02 0.03 0.02 0.02 0.00 0.01 0.08 0.06 0.04 0.06 0.06 0.07 0.20 0.11 0.11 0.09 0.09 0.06 0.03 0.08 0.14 0.09 0.07 0.09 0.09 0.13 0.22 0.22 0.34 0.58 0.58 0.59 0.56 0.67 0.61 0.64 0.65 0.61 0.54
0.05 0.13 0.31 0.39 0.26 0.11 0.03 0.03 0.01 0.01 0.02 0.12 0.08 0.01 0.00 0.01 0.04 0.02 0.02 0.05 0.05 0.09 0.20 0.10 0.05 0.06 0.05 0.05 0.07 0.11 0.22 0.18 0.18 0.10 0.08 0.14 0.12 0.11 0.16 0.34 0.49 0.51 0.69 0.75 0.94 0.90 0.74 0.73 0.72
0.03 0.15 0.26 0.34 0.19 0.08 0.06 0.03 0.00 0.01 0.01 0.01 0.02 0.01 0.01 0.00 0.00 0.01 0.02 0.05 0.07 0.17 0.18 0.09 0.04 0.06 0.07 0.14 0.26 0.23 0.22 0.29 0.40 0.30 0.17 0.26 0.16 0.11 0.15 0.25 0.49 0.61 0.76 0.74 0.86 1.06 1.04 1.05 0.97
0.02 0.05 0.07 0.28 0.35 0.37 0.09 0.05 0.03 0.03 0.26 0.07 0.02 0.00 0.00 0.00 0.00 0.00 0.01 0.00 0.02 0.23 0.17 0.05 0.03 0.02 0.04 0.15 0.27 0.17 0.42 0.64 0.51 0.40 0.38 0.38 0.40 0.37 0.32 0.39 0.53 0.67 0.67 0.84 0.92 1.04 0.87 0.70 0.62
0.00 0.03 0.31 0.58 0.70 0.60 0.07 0.12 0.22 0.24 0.69 0.24 0.00 0.00 0.00 0.00 0.00 0.00 0.00 0.00 0.01 0.06 0.05 0.02 0.08 0.22 0.19 0.07 0.12 0.16 0.26 0.35 0.42 0.34 0.38 0.60 0.65 0.48 0.52 0.53 0.54 0.48 0.44 0.54 0.56 0.54 0.57 0.65 0.60
0.01 0.10 0.29 0.42 0.21 0.57 0.44 0.69 0.71 0.70 0.45 0.10 0.00 0.01 0.01 0.01 0.00 0.00 0.01 0.00 0.00 0.01 0.02 0.05 0.04 0.18 0.39 0.62 0.53 0.32 0.43 0.42 0.61 0.60 0.76 0.60 0.56 0.65 0.69 0.48 0.38 0.34 0.45 0.55 0.50 0.49 0.50 0.50 0.54
0.02 0.03 0.10 0.40 0.37 0.36 0.52 0.89 0.91 0.69 0.17 0.07 0.06 0.04 0.03 0.07 0.11 0.04 0.02 0.02 0.02 0.04 0.08 0.10 0.11 0.20 0.48 1.35 1.43 0.89 0.95 0.82 0.76 0.81 0.78 0.82 0.81 0.75 0.59 0.40 0.32 0.33 0.40 0.58 0.75 0.69 0.61 0.59 0.54

GFSSGP_prec_precacc_108.txt.gz
Total_Precipitation_Accumulation
0.00 0.00 0.00 0.00 0.00 0.00 0.00 0.00 0.00 0.11 0.09 0.06 0.13 0.18 0.23 0.35 0.63 0.80 0.65 1.13 1.14 1.14 0.93 2.08 2.07 1.74 1.16 0.62 0.30 0.19 0.11 0.05 0.05 0.07 0.12 0.20 0.17 0.25 0.13 0.03 0.02 0.09 0.25 0.22 0.16 0.17 0.17 0.10 0.04
0.00 0.00 0.00 0.00 0.00 0.00 0.00 0.00 0.02 0.09 0.16 0.24 0.26 0.18 0.17 0.55 0.47 0.50 0.66 0.71 0.64 0.56 0.60 0.89 1.79 1.96 1.60 1.35 1.02 0.72 0.42 0.11 0.05 0.06 0.17 0.38 0.43 0.43 0.43 0.36 0.19 0.21 0.35 0.47 0.37 0.33 0.19 0.09 0.05
0.00 0.00 0.00 0.00 0.00 0.00 0.00 0.02 0.04 0.08 0.16 0.15 0.09 0.08 0.31 1.03 0.77 0.70 0.53 0.92 1.01 0.67 0.86 0.73 1.16 1.44 1.70 1.92 2.21 1.84 1.26 0.66 0.35 0.42 0.66 0.82 0.99 1.04 0.89 0.83 0.72 0.71 0.79 0.78 0.76 0.58 0.25 0.09 0.04
0.00 0.00 0.00 0.00 0.00 0.00 0.00 0.01 0.10 0.03 0.09 0.11 0.07 0.12 0.43 0.55 0.63 0.51 0.48 0.86 1.45 1.35 1.55 1.23 1.85 2.82 2.37 2.47 2.89 2.45 1.96 1.96 1.59 1.36 0.92 0.67 0.57 0.64 0.73 1.03 1.46 1.66 1.62 1.18 1.22 1.08 0.46 0.20 0.13
0.00 0.00 0.00 0.00 0.00 0.00 0.00 0.00 0.01 0.06 0.14 0.14 0.12 0.07 0.74 0.69 0.42 0.66 1.14 1.60 2.09 2.06 2.45 1.44 1.70 2.04 2.42 3.12 2.95 2.70 2.57 2.06 1.84 1.77 1.60 0.98 0.68 0.49 0.51 0.57 0.90 1.63 3.02 2.43 1.33 0.94 0.50 0.38 0.40
0.00 0.00 0.00 0.00 0.00 0.00 0.02 0.02 0.06 0.19 0.28 0.29 0.19 0.31 0.71 0.44 0.52 0.81 2.00 2.48 3.22 3.16 3.45 2.49 2.37 2.59 1.97 1.87 3.64 3.09 3.04 2.51 1.62 1.22 1.82 1.12 0.73 0.63 0.57 0.56 0.45 0.49 0.89 1.34 1.34 1.49 0.87 0.46 0.36
0.00 0.00 0.00 0.00 0.00 0.00 0.02 0.10 0.33 0.58 0.31 0.13 0.10 0.51 0.99 0.79 0.56 0.66 1.63 3.73 5.19 6.82 7.53 6.08 3.85 3.32 3.56 2.42 2.36 3.31 3.30 2.77 1.74 1.34 1.10 1.19 0.85 0.76 0.65 0.48 0.38 0.33 0.30 0.47 0.53 0.65 0.66 0.55 0.39
0.00 0.00 0.00 0.00 0.00 0.02 0.08 0.18 0.24 0.28 0.45 0.39 0.14 0.69 1.00 0.63 0.56 0.86 1.20 2.92 4.49 9.09 9.74 7.10 5.14 3.17 1.75 2.48 2.23 2.23 3.05 3.65 2.35 1.86 1.64 1.27 1.10 0.89 0.55 0.38 0.45 0.61 0.55 0.40 0.29 0.41 0.48 0.44 0.31
0.00 0.00 0.00 0.00 0.01 0.04 0.10 0.14 0.33 0.26 0.22 0.31 0.21 0.48 0.64 0.77 0.77 0.82 1.07 1.95 3.72 5.13 5.31 6.63 6.38 3.96 2.72 2.47 2.35 1.79 1.70 2.68 3.59 2.42 1.90 1.60 0.85 0.79 0.56 0.53 0.52 0.54 0.58 0.61 0.54 0.48 0.41 0.36 0.31
0.00 0.00 0.00 0.00 0.01 0.08 0.27 0.30 0.29 0.16 0.34 0.23 0.37 0.52 0.80 0.81 0.65 0.60 0.93 1.29 2.06 2.41 3.31 2.92 3.24 2.96 2.26 2.98 3.04 1.70 1.38 1.16 2.63 2.88 2.05 1.44 0.87 0.78 0.72 0.50 0.53 0.61 0.50 0.64 0.66 0.68 0.52 0.39 0.21
0.00 0.00 0.00 0.00 0.01 0.08 0.10 0.06 0.12 0.07 0.26 0.43 0.81 0.78 0.91 0.76 0.54 0.31 0.40 0.83 0.88 0.94 1.06 1.24 1.51 1.42 1.35 1.82 1.54 1.46 1.24 1.05 1.33 2.51 1.95 1.22 0.83 0.71 0.95 0.43 0.47 0.85 0.75 0.68 0.58 0.44 0.37 0.34 0.28
0.00 0.00 0.00 0.00 0.00 0.01 0.01 0.09 0.18 0.18 0.75 0.41 0.48 0.42 0.55 0.33 0.24 0.27 0.30 0.33 0.35 0.55 0.76 1.01 0.80 0.99 1.14 1.34 1.23 0.87 0.93 0.92 0.93 1.71 1.78 1.19 0.79 0.47 0.57 0.27 0.39 0.94 0.89 0.57 0.34 0.21 0.24 0.32 0.35
0.00 0.00 0.00 0.00 0.03 0.02 0.07 0.04 0.08 0.65 0.29 0.16 0.19 0.20 0.23 0.16 0.12 0.13 0.13 0.15 0.19 0.41 0.70 0.96 0.77 0.79 0.83 0.68 0.78 0.67 0.54 0.84 0.76 0.85 1.45 1.16 0.69 0.32 0.34 0.32 0.35 0.75 0.72 0.76 0.38 0.20 0.24 0.27 0.33
0.00 0.00 0.00 0.00 0.02 0.02 0.04 0.07 0.11 0.65 0.30 0.05 0.06 0.07 0.06 0.06 0.04 0.04 0.03 0.03 0.15 0.40 0.62 1.00 1.21 0.86 0.88 0.65 0.61 0.59 0.52 0.62 0.82 0.73 0.99 1.32 0.72 0.41 0.40 0.37 0.30 0.49 0.53 0.62 0.50 0.18 0.26 0.28 0.25
0.00 0.00 0.00 0.00 0.01 0.02 0.04 0.10 0.17 0.40 0.14 0.05 0.00 0.01 0.05 0.09 0.04 0.01 0.00 0.01 0.03 0.15 0.29 1.14 1.62 1.19 1.05 0.61 0.66 0.65 0.67 0.54 0.69 0.77 0.99 1.15 0.80 0.55 0.42 0.43 0.31 0.31 0.38 0.34 0.44 0.37 0.35 0.31 0.28
0.00 0.00 0.00 0.02 0.00 0.02 0.04 0.48 0.14 0.06 0.07 0.06 0.00 0.00 0.03 0.05 0.02 0.01 0.00 0.01 0.01 0.03 0.25 1.32 1.42 0.99 1.07 0.82 0.91 1.27 0.69 0.47 0.56 0.65 0.75 0.87 0.87 0.64 0.57 0.47 0.35 0.38 0.34 0.21 0.30 0.20 0.28 0.34 0.28
0.00 0.00 0.00 0.00 0.00 0.01 0.02 0.19 0.15 0.05 0.06 0.08 0.01 0.00 0.00 0.00 0.02 0.00 0.02 0.02 0.02 0.04 0.31 0.89 0.98 0.99 1.32 1.59 1.63 1.17 0.62 0.34 0.41 0.46 0.53 0.72 1.00 0.66 0.58 0.54 0.40 0.42 0.40 0.22 0.17 0.10 0.13 0.25 0.29
0.00 0.00 0.00 0.00 0.00 0.00 0.00 0.02 0.15 0.05 0.06 0.06 0.02 0.00 0.01 0.00 0.00 0.02 0.08 0.06 0.03 0.07 0.47 0.76 0.84 1.33 1.81 1.49 0.67 0.39 0.40 0.31 0.37 0.39 0.42 0.61 1.11 0.78 0.65 0.69 0.57 0.50 0.40 0.30 0.19 0.12 0.16 0.18 0.18
0.00 0.00 0.02 0.00 0.00 0.00 0.00 0.01 0.02 0.03 0.04 0.04 0.02 0.01 0.01 0.00 0.01 0.05 0.08 0.11 0.12 0.20 0.55 0.70 0.86 0.73 0.52 0.32 0.30 0.26 0.29 0.20 0.21 0.22 0.40 0.51 0.82 0.92 0.69 0.71 0.65 0.54 0.33 0.20 0.14 0.13 0.15 0.24 0.21
0.05 0.09 0.04 0.00 0.01 0.06 0.04 0.01 0.00 0.01 0.17 0.03 0.01 0.01 0.00 0.00 0.00 0.01 0.02 0.08 0.22 0.43 0.48 0.41 0.32 0.20 0.19 0.15 0.12 0.12 0.15 0.13 0.09 0.14 0.26 0.76 0.77 0.75 0.70 0.73 0.57 0.45 0.41 0.40 0.27 0.13 0.11 0.20 0.26
0.02 0.02 0.00 0.00 0.05 0.17 0.10 0.03 0.00 0.00 0.02 0.05 0.03 0.03 0.00 0.01 0.03 0.05 0.09 0.12 0.12 0.10 0.06 0.09 0.14 0.09 0.14 0.08 0.06 0.05 0.15 0.24 0.19 0.19 0.25 0.51 0.49 0.57 0.54 0.69 0.68 0.50 0.48 0.52 0.42 0.23 0.12 0.17 0.26
0.06 0.02 0.01 0.02 0.16 0.20 0.17 0.10 0.02 0.01 0.00 0.05 0.01 0.01 0.02 0.03 0.03 0.02 0.01 0.01 0.00 0.05 0.08 0.12 0.12 0.15 0.07 0.06 0.04 0.02 0.03 0.09 0.11 0.13 0.14 0.30 0.34 0.41 0.46 0.44 0.57 0.44 0.47 0.49 0.53 0.45 0.35 0.39 0.44
0.02 0.01 0.03 0.09 0.12 0.15 0.11 0.23 0.03 0.03 0.01 0.01 0.02 0.01 0.01 0.00 0.00 0.02 0.01 0.03 0.05 0.04 0.08 0.09 0.12 0.20 0.15 0.11 0.07 0.08 0.04 0.02 0.07 0.13 0.18 0.25 0.34 0.30 0.44 0.50 0.59 0.49 0.45 0.50 0.51 0.58 0.53 0.58 0.49
0.06 0.05 0.20 0.21 0.14 0.18 0.02 0.12 0.04 0.03 0.04 0.07 0.08 0.04 0.00 0.01 0.08 0.06 0.04 0.06 0.06 0.07 0.20 0.11 0.11 0.09 0.10 0.08 0.04 0.09 0.16 0.09 0.07 0.09 0.09 0.13 0.22 0.22 0.34 0.58 0.59 0.60 0.56 0.67 0.62 0.66 0.73 0.76 0.77
0.06 0.16 0.34 0.49 0.37 0.13 0.03 0.05 0.02 0.08 0.11 0.23 0.13 0.02 0.01 0.01 0.04 0.02 0.02 0.05 0.05 0.09 0.20 0.10 0.05 0.06 0.05 0.05 0.07 0.12 0.25 0.18 0.18 0.10 0.08 0.14 0.12 0.11 0.16 0.34 0.49 0.51 0.69 0.76 0.95 0.94 0.86 1.01 1.01
0.05 0.15 0.27 0.47 0.23 0.10 0.07 0.04 0.03 0.13 0.27 0.19 0.07 0.01 0.01 0.00 0.00 0.01 0.02 0.05 0.07 0.17 0.18 0.09 0.04 0.06 0.07 0.14 0.26 0.23 0.23 0.31 0.41 0.30 0.17 0.26 0.16 0.11 0.15 0.25 0.49 0.62 0.76 0.74 0.87 1.11 1.19 1.25 1.33
0.03 0.06 0.08 0.32 0.37 0.38 0.10 0.09 0.15 0.06 0.38 0.31 0.10 0.02 0.00 0.00 0.00 0.00 0.01 0.00 0.02 0.23 0.17 0.05 0.03 0.02 0.04 0.15 0.27 0.17 0.44 0.68 0.52 0.40 0.38 0.38 0.40 0.37 0.32 0.39 0.53 0.67 0.67 0.85 0.93 1.06 0.96 0.85 0.75
0.01 0.06 0.33 0.59 0.72 0.67 0.09 0.15 0.37 0.42 0.79 0.63 0.07 0.02 0.00 0.01 0.00 0.00 0.00 0.00 0.01 0.06 0.05 0.02 0.08 0.22 0.19 0.07 0.13 0.20 0.32 0.43 0.47 0.35 0.38 0.60 0.65 0.48 0.53 0.53 0.54 0.49 0.44 0.54 0.57 0.55 0.59 0.79 0.78
0.01 0.10 0.30 0.43 0.24 0.76 0.70 0.90 0.89 0.94 0.68 0.57 0.28 0.08 0.01 0.01 0.00 0.00 0.01 0.00 0.00 0.01 0.02 0.07 0.06 0.18 0.39 0.63 0.56 0.37 0.50 0.48 0.68 0.66 0.76 0.61 0.56 0.65 0.69 0.48 0.38 0.34 0.46 0.55 0.50 0.49 0.51 0.57 0.79
0.02 0.03 0.11 0.41 0.52 0.62 1.03 1.40 1.56 1.08 0.32 0.22 0.21 0.07 0.03 0.07 0.11 0.04 0.02 0.02 0.02 0.04 0.08 0.13 0.15 0.23 0.49 1.35 1.44 0.94 1.06 0.91 0.84 0.88 0.81 0.83 0.81 0.76 0.59 0.40 0.32 0.34 0.40 0.59 0.76 0.70 0.63 0.63 0.61

GFSSGP_prec_precacc_111.txt.gz
Total_Precipitation_Accumulation
0.00 0.00 0.00 0.00 0.00 0.00 0.00 0.00 0.00 0.11 0.09 0.06 0.13 0.18 0.23 0.35 0.63 0.80 0.65 1.13 1.14 1.14 0.93 2.08 2.07 1.74 1.16 0.62 0.30 0.19 0.11 0.05 0.05 0.07 0.12 0.20 0.17 0.25 0.13 0.03 0.03 0.13 0.30 0.28 0.20 0.22 0.22 0.15 0.06
0.00 0.00 0.00 0.00 0.00 0.00 0.00 0.00 0.02 0.09 0.16 0.24 0.26 0.18 0.17 0.55 0.47 0.50 0.66 0.71 0.64 0.56 0.60 0.89 1.79 1.96 1.60 1.35 1.02 0.72 0.42 0.11 0.05 0.06 0.17 0.38 0.43 0.43 0.43 0.36 0.20 0.22 0.37 0.49 0.39 0.35 0.23 0.09 0.05
0.00 0.00 0.00 0.00 0.00 0.00 0.00 0.02 0.04 0.08 0.16 0.15 0.09 0.08 0.31 1.03 0.77 0.70 0.53 0.92 1.01 0.67 0.86 0.73 1.16 1.44 1.70 1.92 2.21 1.84 1.26 0.66 0.35 0.42 0.66 0.82 0.99 1.04 0.90 0.83 0.72 0.71 0.79 0.78 0.76 0.58 0.25 0.09 0.04
0.00 0.00 0.00 0.00 0.00 0.00 0.00 0.01 0.10 0.03 0.09 0.11 0.07 0.12 0.43 0.55 0.63 0.51 0.48 0.86 1.45 1.35 1.55 1.23 1.85 2.82 2.37 2.47 2.89 2.45 1.96 1.96 1.59 1.36 0.92 0.67 0.57 0.64 0.73 1.03 1.46 1.66 1.62 1.18 1.22 1.08 0.46 0.20 0.13
0.00 0.00 0.00 0.00 0.00 0.00 0.00 0.00 0.01 0.06 0.14 0.14 0.12 0.07 0.74 0.69 0.42 0.66 1.14 1.60 2.09 2.06 2.45 1.44 1.70 2.04 2.42 3.12 2.95 2.70 2.57 2.06 1.84 1.77 1.60 0.98 0.68 0.50 0.51 0.57 0.90 1.63 3.02 2.43 1.33 0.94 0.50 0.38 0.40
0.00 0.00 0.00 0.00 0.00 0.00 0.02 0.02 0.06 0.19 0.28 0.29 0.19 0.31 0.71 0.44 0.52 0.81 2.00 2.48 3.22 3.16 3.45 2.49 2.37 2.59 1.97 1.87 3.64 3.09 3.04 2.51 1.62 1.22 1.82 1.12 0.73 0.63 0.57 0.56 0.45 0.49 0.89 1.34 1.34 1.49 0.87 0.46 0.36
0.00 0.00 0.00 0.00 0.00 0.00 0.02 0.10 0.33 0.58 0.31 0.13 0.10 0.51 0.99 0.79 0.56 0.66 1.63 3.73 5.19 6.82 7.53 6.08 3.85 3.32 3.56 2.42 2.36 3.31 3.30 2.77 1.74 1.34 1.10 1.19 0.85 0.76 0.65 0.48 0.38 0.33 0.30 0.47 0.53 0.65 0.66 0.55 0.39
0.00 0.00 0.00 0.00 0.00 0.02 0.08 0.18 0.24 0.28 0.45 0.39 0.14 0.69 1.00 0.63 0.56 0.86 1.20 2.92 4.49 9.09 9.74 7.10 5.14 3.17 1.75 2.48 2.23 2.23 3.05 3.65 2.35 1.86 1.64 1.27 1.10 0.89 0.55 0.38 0.45 0.62 0.55 0.40 0.29 0.41 0.48 0.44 0.31
0.00 0.00 0.00 0.00 0.01 0.04 0.10 0.14 0.33 0.26 0.22 0.31 0.21 0.48 0.64 0.77 0.77 0.82 1.07 1.95 3.72 5.13 5.31 6.63 6.38 3.96 2.72 2.47 2.35 1.79 1.70 2.68 3.59 2.42 1.90 1.60 0.85 0.79 0.56 0.53 0.53 0.57 0.58 0.61 0.54 0.48 0.41 0.36 0.31
0.00 0.00 0.00 0.00 0.01 0.08 0.27 0.30 0.29 0.16 0.34 0.23 0.37 0.52 0.80 0.81 0.65 0.60 0.93 1.29 2.06 2.41 3.31 2.92 3.24 2.96 2.26 2.98 3.04 1.70 1.38 1.16 2.63 2.88 2.05 1.44 0.87 0.78 0.72 0.50 0.53 0.61 0.51 0.65 0.66 0.68 0.52 0.39 0.21
0.00 0.00 0.00 0.00 0.01 0.08 0.10 0.06 0.12 0.07 0.26 0.43 0.81 0.78 0.91 0.76 0.54 0.31 0.40 0.83 0.88 0.94 1.06 1.24 1.51 1.42 1.35 1.82 1.54 1.46 1.24 1.05 1.33 2.51 1.95 1.22 0.83 0.71 0.95 0.43 0.47 0.85 0.75 0.68 0.58 0.44 0.37 0.34 0.28
0.00 0.00 0.00 0.00 0.00 0.01 0.01 0.09 0.18 0.18 0.75 0.41 0.48 0.42 0.55 0.33 0.24 0.27 0.30 0.33 0.35 0.55 0.76 1.01 0.80 0.99 1.14 1.34 1.23 0.87 0.93 0.92 0.93 1.71 1.78 1.19 0.79 0.47 0.57 0.27 0.39 0.94 0.89 0.57 0.34 0.21 0.24 0.32 0.35
0.00 0.00 0.00 0.00 0.03 0.02 0.07 0.04 0.08 0.65 0.29 0.16 0.19 0.20 0.23 0.16 0.12 0.13 0.13 0.15 0.19 0.41 0.70 0.96 0.77 0.79 0.83 0.68 0.78 0.67 0.54 0.84 0.76 0.85 1.45 1.16 0.69 0.32 0.34 0.32 0.35 0.75 0.72 0.76 0.38 0.20 0.24 0.27 0.33
0.00 0.00 0.00 0.00 0.02 0.02 0.04 0.07 0.11 0.65 0.30 0.05 0.06 0.07 0.06 0.06 0.04 0.04 0.03 0.03 0.15 0.40 0.62 1.00 1.21 0.86 0.88 0.65 0.61 0.59 0.52 0.62 0.82 0.73 0.99 1.32 0.72 0.41 0.40 0.37 0.30 0.49 0.53 0.62 0.50 0.18 0.26 0.28 0.25
0.00 0.00 0.00 0.00 0.01 0.02 0.04 0.10 0.17 0.40 0.14 0.05 0.00 0.01 0.05 0.09 0.04 0.01 0.00 0.01 0.03 0.15 0.29 1.14 1.62 1.19 1.05 0.61 0.66 0.65 0.67 0.54 0.69 0.77 0.99 1.15 0.80 0.55 0.42 0.43 0.31 0.31 0.38 0.34 0.44 0.37 0.35 0.31 0.28
0.00 0.00 0.00 0.02 0.00 0.02 0.04 0.48 0.14 0.06 0.07 0.06 0.00 0.00 0.03 0.05 0.02 0.01 0.00 0.01 0.01 0.03 0.25 1.32 1.42 0.99 1.07 0.82 0.91 1.27 0.69 0.47 0.56 0.65 0.75 0.87 0.87 0.64 0.57 0.47 0.35 0.38 0.34 0.21 0.30 0.20 0.28 0.34 0.28
0.00 0.00 0.00 0.00 0.00 0.01 0.02 0.19 0.15 0.05 0.06 0.08 0.01 0.00 0.00 0.00 0.02 0.00 0.02 0.02 0.02 0.04 0.31 0.89 0.98 0.99 1.32 1.59 1.63 1.17 0.62 0.34 0.41 0.46 0.53 0.72 1.00 0.66 0.58 0.54 0.40 0.42 0.40 0.22 0.17 0.10 0.13 0.25 0.29
0.00 0.00 0.00 0.00 0.00 0.00 0.00 0.02 0.15 0.05 0.06 0.06 0.02 0.00 0.01 0.00 0.00 0.02 0.08 0.06 0.03 0.07 0.47 0.76 0.84 1.33 1.81 1.49 0.67 0.39 0.40 0.31 0.37 0.39 0.42 0.61 1.11 0.78 0.65 0.69 0.57 0.50 0.40 0.30 0.19 0.12 0.16 0.18 0.19
0.01 0.01 0.03 0.01 0.00 0.00 0.00 0.01 0.02 0.03 0.04 0.04 0.02 0.01 0.01 0.00 0.01 0.05 0.08 0.11 0.12 0.20 0.55 0.70 0.86 0.73 0.52 0.32 0.30 0.26 0.29 0.20 0.21 0.22 0.40 0.51 0.82 0.92 0.69 0.71 0.65 0.54 0.33 0.20 0.14 0.14 0.16 0.25 0.23
0.05 0.09 0.04 0.01 0.01 0.06 0.04 0.01 0.00 0.01 0.17 0.03 0.01 0.01 0.00 0.00 0.00 0.01 0.02 0.08 0.22 0.43 0.48 0.41 0.32 0.20 0.19 0.15 0.12 0.12 0.15 0.13 0.09 0.14 0.26 0.76 0.77 0.75 0.70 0.73 0.57 0.45 0.41 0.40 0.27 0.14 0.11 0.21 0.28
0.02 0.02 0.00 0.01 0.05 0.17 0.10 0.03 0.00 0.00 0.02 0.05 0.03 0.03 0.00 0.01 0.03 0.05 0.09 0.12 0.12 0.10 0.06 0.09 0.14 0.09 0.14 0.08 0.06 0.06 0.15 0.26 0.21 0.19 0.25 0.51 0.49 0.57 0.54 0.69 0.68 0.50 0.49 0.52 0.43 0.24 0.13 0.18 0.27
0.06 0.02 0.01 0.02 0.17 0.20 0.17 0.10 0.02 0.01 0.00 0.05 0.01 0.01 0.02 0.03 0.03 0.02 0.01 0.01 0.00 0.05 0.08 0.12 0.12 0.15 0.07 0.11 0.08 0.05 0.04 0.09 0.11 0.13 0.15 0.30 0.34 0.41 0.46 0.44 0.57 0.44 0.47 0.49 0.53 0.46 0.36 0.41 0.45
0.02 0.01 0.04 0.09 0.12 0.16 0.12 0.23 0.04 0.05 0.02 0.03 0.02 0.01 0.01 0.00 0.00 0.02 0.01 0.03 0.05 0.04 0.08 0.09 0.12 0.21 0.16 0.12 0.12 0.16 0.07 0.05 0.08 0.15 0.20 0.25 0.34 0.30 0.44 0.50 0.59 0.49 0.45 0.50 0.52 0.58 0.56 0.60 0.51
0.06 0.06 0.20 0.22 0.16 0.20 0.02 0.12 0.04 0.05 0.12 0.12 0.10 0.06 0.02 0.02 0.08 0.06 0.04 0.06 0.06 0.07 0.20 0.11 0.11 0.10 0.12 0.12 0.09 0.11 0.17 0.11 0.08 0.10 0.09 0.13 0.22 0.22 0.34 0.59 0.59 0.60 0.57 0.68 0.62 0.67 0.74 0.78 0.80
0.06 0.16 0.36 0.50 0.38 0.13 0.03 0.05 0.03 0.15 0.18 0.29 0.19 0.07 0.03 0.01 0.05 0.02 0.02 0.05 0.05 0.09 0.20 0.10 0.05 0.06 0.05 0.05 0.09 0.15 0.31 0.19 0.18 0.10 0.08 0.14 0.12 0.11 0.16 0.34 0.50 0.52 0.69 0.76 0.95 0.95 0.88 1.04 1.04
0.06 0.15 0.29 0.57 0.39 0.13 0.09 0.06 0.06 0.14 0.36 0.26 0.09 0.04 0.03 0.01 0.01 0.01 0.02 0.05 0.07 0.17 0.18 0.09 0.04 0.06 0.07 0.14 0.26 0.25 0.26 0.32 0.44 0.30 0.17 0.26 0.16 0.11 0.15 0.25 0.49 0.62 0.77 0.75 0.88 1.11 1.20 1.27 1.42
0.03 0.07 0.09 0.35 0.44 0.42 0.12 0.22 0.35 0.15 0.44 0.76 0.42 0.07 0.03 0.02 0.01 0.00 0.01 0.00 0.02 0.23 0.17 0.05 0.03 0.02 0.04 0.15 0.27 0.17 0.44 0.68 0.53 0.44 0.41 0.40 0.41 0.39 0.32 0.39 0.53 0.67 0.68 0.85 0.93 1.07 0.97 0.87 0.81
0.02 0.08 0.36 0.64 0.80 0.68 0.12 0.41 0.93 0.91 1.00 1.05 0.70 0.25 0.08 0.04 0.04 0.01 0.00 0.00 0.01 0.06 0.05 0.02 0.08 0.22 0.19 0.07 0.13 0.20 0.32 0.44 0.50 0.38 0.40 0.64 0.69 0.50 0.54 0.53 0.54 0.49 0.44 0.55 0.57 0.55 0.60 0.81 0.81
0.02 0.11 0.31 0.45 0.26 0.77 0.82 1.04 1.10 1.49 1.15 0.76 0.73 0.40 0.11 0.07 0.06 0.07 0.03 0.00 0.00 0.01 0.02 0.07 0.06 0.18 0.39 0.63 0.57 0.37 0.50 0.50 0.72 0.70 0.81 0.65 0.62 0.69 0.71 0.48 0.38 0.34 0.46 0.55 0.50 0.50 0.53 0.58 0.81
0.03 0.04 0.12 0.42 0.53 0.68 1.11 1.56 1.85 1.28 0.54 0.34 0.36 0.39 0.18 0.10 0.12 0.06 0.04 0.02 0.02 0.04 0.08 0.13 0.15 0.23 0.50 1.37 1.48 0.97 1.09 0.94 0.88 0.93 0.85 0.88 0.88 0.82 0.63 0.41 0.32 0.34 0.41 0.59 0.77 0.71 0.64 0.64 0.63

GFSSGP_prec_precacc_114.txt.gz
Total_Precipitation_Accumulation
0.00 0.00 0.00 0.00 0.00 0.00 0.00 0.00 0.00 0.11 0.09 0.06 0.13 0.18 0.23 0.35 0.63 0.80 0.65 1.13 1.14 1.14 0.93 2.08 2.07 1.74 1.16 0.62 0.30 0.19 0.11 0.05 0.05 0.07 0.12 0.20 0.17 0.25 0.13 0.03 0.03 0.13 0.31 0.28 0.20 0.22 0.22 0.16 0.08
0.00 0.00 0.00 0.00 0.00 0.00 0.00 0.00 0.02 0.09 0.16 0.24 0.26 0.18 0.17 0.55 0.47 0.50 0.66 0.71 0.64 0.56 0.60 0.89 1.79 1.96 1.60 1.35 1.02 0.72 0.42 0.11 0.05 0.06 0.17 0.38 0.43 0.43 0.43 0.36 0.20 0.22 0.37 0.49 0.39 0.36 0.25 0.12 0.05
0.00 0.00 0.00 0.00 0.00 0.00 0.00 0.02 0.04 0.08 0.16 0.15 0.09 0.08 0.31 1.03 0.77 0.70 0.53 0.92 1.01 0.67 0.86 0.73 1.16 1.44 1.70 1.92 2.21 1.84 1.26 0.66 0.35 0.42 0.66 0.82 0.99 1.04 0.90 0.83 0.72 0.71 0.79 0.78 0.76 0.58 0.25 0.09 0.04
0.00 0.00 0.00 0.00 0.00 0.00 0.00 0.01 0.10 0.03 0.09 0.11 0.07 0.12 0.43 0.55 0.63 0.51 0.48 0.86 1.45 1.35 1.55 1.23 1.85 2.82 2.37 2.47 2.89 2.45 1.96 1.96 1.59 1.36 0.92 0.67 0.57 0.64 0.73 1.03 1.46 1.66 1.62 1.20 1.22 1.08 0.46 0.20 0.13
0.00 0.00 0.00 0.00 0.00 0.00 0.00 0.00 0.01 0.06 0.14 0.14 0.12 0.07 0.74 0.69 0.42 0.66 1.14 1.60 2.09 2.06 2.45 1.44 1.70 2.04 2.42 3.12 2.95 2.70 2.57 2.06 1.84 1.77 1.60 0.98 0.68 0.50 0.51 0.57 0.90 1.63 3.02 2.44 1.33 0.94 0.50 0.38 0.40
0.00 0.00 0.00 0.00 0.00 0.00 0.02 0.02 0.06 0.19 0.28 0.29 0.19 0.31 0.71 0.44 0.52 0.81 2.00 2.48 3.22 3.16 3.45 2.49 2.37 2.59 1.97 1.87 3.64 3.09 3.04 2.51 1.62 1.22 1.82 1.12 0.73 0.63 0.57 0.56 0.45 0.49 0.89 1.34 1.34 1.49 0.87 0.46 0.36
0.00 0.00 0.00 0.00 0.00 0.00 0.02 0.10 0.33 0.58 0.31 0.13 0.10 0.51 0.99 0.79 0.56 0.66 1.63 3.73 5.19 6.82 7.53 6.08 3.85 3.32 3.56 2.42 2.36 3.31 3.30 2.77 1.74 1.34 1.10 1.19 0.85 0.76 0.65 0.48 0.38 0.33 0.30 0.47 0.53 0.65 0.66 0.55 0.39
0.00 0.00 0.00 0.00 0.00 0.02 0.08 0.18 0.24 0.28 0.45 0.39 0.14 0.69 1.00 0.63 0.56 0.86 1.20 2.92 4.49 9.09 9.74 7.10 5.14 3.17 1.75 2.48 2.23 2.23 3.05 3.65 2.35 1.86 1.64 1.27 1.10 0.89 0.55 0.38 0.45 0.62 0.55 0.40 0.29 0.41 0.48 0.44 0.31
0.00 0.00 0.00 0.00 0.01 0.04 0.10 0.14 0.33 0.26 0.22 0.31 0.21 0.48 0.64 0.77 0.77 0.82 1.07 1.95 3.72 5.13 5.31 6.63 6.38 3.96 2.72 2.47 2.35 1.79 1.70 2.68 3.59 2.42 1.90 1.60 0.85 0.79 0.56 0.53 0.53 0.57 0.58 0.61 0.54 0.48 0.41 0.36 0.31
0.00 0.00 0.00 0.00 0.01 0.08 0.27 0.30 0.29 0.16 0.34 0.23 0.37 0.52 0.80 0.81 0.65 0.60 0.93 1.29 2.06 2.41 3.31 2.92 3.24 2.96 2.26 2.98 3.04 1.70 1.38 1.16 2.63 2.88 2.05 1.44 0.87 0.78 0.72 0.50 0.53 0.61 0.51 0.65 0.66 0.68 0.52 0.39 0.21
0.00 0.00 0.00 0.00 0.01 0.08 0.10 0.06 0.12 0.07 0.26 0.43 0.81 0.78 0.91 0.76 0.54 0.31 0.40 0.83 0.88 0.94 1.06 1.24 1.51 1.42 1.35 1.82 1.54 1.46 1.24 1.05 1.33 2.51 1.95 1.22 0.83 0.71 0.95 0.43 0.47 0.85 0.75 0.68 0.58 0.44 0.37 0.34 0.28
0.00 0.00 0.00 0.00 0.00 0.01 0.01 0.09 0.18 0.18 0.75 0.41 0.48 0.42 0.55 0.33 0.24 0.27 0.30 0.33 0.35 0.55 0.76 1.01 0.80 0.99 1.14 1.34 1.23 0.87 0.93 0.92 0.93 1.71 1.78 1.19 0.79 0.47 0.57 0.27 0.39 0.94 0.89 0.57 0.34 0.21 0.24 0.32 0.35
0.00 0.00 0.00 0.00 0.03 0.02 0.07 0.04 0.08 0.65 0.29 0.16 0.19 0.20 0.23 0.16 0.12 0.13 0.13 0.15 0.19 0.41 0.70 0.96 0.77 0.79 0.83 0.68 0.78 0.67 0.54 0.84 0.76 0.85 1.45 1.16 0.69 0.32 0.34 0.32 0.35 0.75 0.72 0.76 0.38 0.20 0.24 0.27 0.33
0.00 0.00 0.00 0.00 0.02 0.02 0.04 0.07 0.11 0.65 0.30 0.05 0.06 0.07 0.06 0.06 0.04 0.04 0.03 0.03 0.15 0.40 0.62 1.00 1.21 0.86 0.88 0.65 0.61 0.59 0.52 0.62 0.82 0.73 0.99 1.32 0.72 0.41 0.40 0.37 0.30 0.49 0.53 0.62 0.50 0.18 0.26 0.28 0.25
0.00 0.00 0.00 0.00 0.01 0.02 0.04 0.10 0.17 0.40 0.14 0.05 0.00 0.01 0.05 0.09 0.04 0.01 0.00 0.01 0.03 0.15 0.29 1.14 1.62 1.19 1.05 0.61 0.66 0.65 0.67 0.54 0.69 0.77 0.99 1.15 0.80 0.55 0.42 0.43 0.32 0.32 0.38 0.34 0.44 0.37 0.35 0.31 0.28
0.00 0.00 0.00 0.02 0.00 0.02 0.04 0.48 0.14 0.06 0.07 0.06 0.00 0.00 0.03 0.05 0.02 0.01 0.00 0.01 0.01 0.03 0.25 1.32 1.42 0.99 1.07 0.82 0.91 1.27 0.69 0.47 0.56 0.65 0.75 0.87 0.87 0.64 0.57 0.47 0.35 0.38 0.34 0.21 0.30 0.20 0.28 0.34 0.28
0.00 0.00 0.00 0.00 0.00 0.01 0.02 0.19 0.15 0.05 0.06 0.08 0.01 0.00 0.00 0.00 0.02 0.00 0.02 0.02 0.02 0.04 0.31 0.89 0.98 0.99 1.32 1.59 1.63 1.17 0.62 0.34 0.41 0.46 0.53 0.72 1.00 0.66 0.58 0.54 0.40 0.42 0.40 0.22 0.17 0.10 0.13 0.25 0.29
0.00 0.00 0.00 0.00 0.00 0.00 0.00 0.02 0.15 0.05 0.06 0.06 0.02 0.00 0.01 0.00 0.00 0.02 0.08 0.06 0.03 0.07 0.47 0.76 0.84 1.33 1.81 1.50 0.68 0.39 0.40 0.31 0.37 0.39 0.42 0.61 1.11 0.78 0.65 0.69 0.57 0.50 0.40 0.30 0.19 0.12 0.16 0.18 0.19
0.01 0.01 0.03 0.01 0.00 0.00 0.00 0.01 0.02 0.03 0.04 0.04 0.02 0.01 0.01 0.00 0.01 0.05 0.08 0.11 0.12 0.20 0.56 0.70 0.86 0.73 0.52 0.32 0.30 0.26 0.29 0.20 0.21 0.22 0.40 0.51 0.82 0.92 0.69 0.71 0.65 0.54 0.33 0.20 0.14 0.14 0.16 0.25 0.23
0.05 0.09 0.04 0.01 0.01 0.06 0.04 0.01 0.00 0.01 0.17 0.03 0.01 0.01 0.00 0.00 0.00 0.01 0.02 0.08 0.22 0.43 0.48 0.41 0.32 0.20 0.19 0.15 0.14 0.13 0.15 0.13 0.09 0.14 0.26 0.76 0.77 0.75 0.70 0.73 0.57 0.45 0.41 0.40 0.27 0.14 0.12 0.21 0.29
0.02 0.02 0.00 0.01 0.05 0.17 0.11 0.03 0.00 0.00 0.02 0.05 0.03 0.03 0.00 0.01 0.03 0.05 0.09 0.12 0.12 0.10 0.06 0.09 0.14 0.09 0.16 0.10 0.09 0.09 0.16 0.27 0.21 0.19 0.25 0.51 0.49 0.57 0.54 0.69 0.68 0.50 0.49 0.52 0.43 0.24 0.14 0.19 0.28
0.06 0.02 0.01 0.02 0.17 0.20 0.18 0.13 0.02 0.01 0.00 0.06 0.01 0.01 0.02 0.03 0.03 0.02 0.01 0.01 0.00 0.05 0.08 0.12 0.12 0.15 0.07 0.11 0.08 0.07 0.05 0.10 0.11 0.13 0.15 0.30 0.34 0.41 0.46 0.44 0.57 0.44 0.47 0.50 0.54 0.46 0.37 0.42 0.46
0.02 0.01 0.04 0.09 0.12 0.17 0.12 0.26 0.04 0.06 0.06 0.11 0.04 0.03 0.01 0.00 0.00 0.02 0.01 0.03 0.05 0.04 0.08 0.09 0.12 0.22 0.16 0.12 0.12 0.17 0.09 0.09 0.09 0.15 0.21 0.28 0.35 0.30 0.44 0.50 0.59 0.49 0.46 0.50 0.52 0.58 0.57 0.62 0.53
0.06 0.06 0.20 0.22 0.16 0.23 0.02 0.12 0.05 0.08 0.23 0.18 0.14 0.08 0.03 0.03 0.09 0.06 0.04 0.06 0.06 0.07 0.20 0.11 0.11 0.10 0.13 0.13 0.10 0.11 0.17 0.11 0.09 0.11 0.10 0.14 0.23 0.23 0.34 0.59 0.59 0.60 0.57 0.68 0.63 0.67 0.75 0.79 0.81
0.06 0.16 0.36 0.51 0.40 0.15 0.03 0.05 0.04 0.17 0.21 0.36 0.25 0.10 0.04 0.02 0.05 0.02 0.02 0.05 0.05 0.09 0.20 0.10 0.05 0.07 0.06 0.07 0.12 0.17 0.32 0.20 0.19 0.11 0.08 0.14 0.12 0.11 0.16 0.34 0.50 0.52 0.70 0.77 0.96 0.96 0.89 1.05 1.05
0.06 0.15 0.30 0.64 0.50 0.24 0.11 0.11 0.18 0.20 0.40 0.31 0.11 0.06 0.06 0.03 0.02 0.02 0.02 0.05 0.07 0.17 0.18 0.09 0.04 0.06 0.08 0.15 0.29 0.27 0.27 0.33 0.44 0.31 0.17 0.27 0.16 0.12 0.15 0.25 0.49 0.62 0.77 0.75 0.89 1.13 1.22 1.28 1.43
0.03 0.07 0.11 0.45 0.49 0.59 0.30 0.50 0.56 0.25 0.54 0.86 0.54 0.11 0.04 0.04 0.02 0.02 0.02 0.01 0.03 0.24 0.17 0.05 0.03 0.02 0.04 0.16 0.28 0.18 0.44 0.69 0.54 0.46 0.46 0.46 0.47 0.42 0.36 0.42 0.53 0.67 0.68 0.85 0.94 1.08 0.98 0.88 0.82
0.02 0.09 0.38 0.72 0.93 0.69 0.30 0.68 1.18 1.14 1.23 1.30 1.01 0.47 0.18 0.06 0.04 0.02 0.02 0.01 0.01 0.06 0.05 0.03 0.08 0.22 0.19 0.07 0.13 0.20 0.32 0.44 0.51 0.39 0.40 0.65 0.72 0.55 0.57 0.56 0.56 0.49 0.45 0.55 0.58 0.56 0.61 0.82 0.81
0.02 0.11 0.32 0.47 0.27 0.78 0.85 1.13 1.25 1.70 1.51 1.13 1.23 1.07 0.35 0.15 0.10 0.09 0.05 0.05 0.01 0.01 0.02 0.07 0.06 0.18 0.39 0.63 0.57 0.37 0.50 0.50 0.72 0.70 0.81 0.65 0.62 0.70 0.73 0.52 0.40 0.35 0.46 0.55 0.51 0.50 0.54 0.58 0.81
0.03 0.04 0.13 0.46 0.55 0.69 1.20 1.66 1.99 1.41 0.72 0.56 0.67 1.01 0.59 0.26 0.23 0.23 0.16 0.10 0.09 0.06 0.08 0.13 0.15 0.23 0.50 1.37 1.48 0.97 1.09 0.94 0.89 0.94 0.86 0.89 0.89 0.85 0.69 0.47 0.35 0.36 0.44 0.62 0.77 0.71 0.64 0.64 0.63

GFSSGP_prec_precacc_117.txt.gz
Total_Precipitation_Accumulation
0.00 0.00 0.00 0.00 0.00 0.00 0.00 0.00 0.00 0.11 0.09 0.06 0.13 0.18 0.23 0.35 0.63 0.80 0.65 1.13 1.14 1.14 0.93 2.08 2.07 1.74 1.16 0.62 0.30 0.19 0.11 0.05 0.05 0.07 0.12 0.20 0.17 0.25 0.13 0.03 0.03 0.13 0.31 0.28 0.20 0.22 0.22 0.18 0.09
0.00 0.00 0.00 0.00 0.00 0.00 0.00 0.00 0.02 0.09 0.16 0.24 0.26 0.18 0.17 0.55 0.47 0.50 0.66 0.71 0.64 0.56 0.60 0.89 1.79 1.96 1.60 1.35 1.02 0.72 0.42 0.11 0.05 0.06 0.17 0.38 0.43 0.43 0.43 0.36 0.20 0.22 0.37 0.49 0.39 0.36 0.25 0.12 0.05
0.00 0.00 0.00 0.00 0.00 0.00 0.00 0.02 0.04 0.08 0.16 0.15 0.09 0.08 0.31 1.03 0.77 0.70 0.53 0.92 1.01 0.67 0.86 0.73 1.16 1.44 1.70 1.92 2.21 1.84 1.26 0.66 0.35 0.42 0.66 0.82 0.99 1.04 0.90 0.83 0.72 0.71 0.79 0.78 0.76 0.59 0.25 0.09 0.04
0.00 0.00 0.00 0.00 0.00 0.00 0.00 0.01 0.10 0.03 0.09 0.11 0.07 0.12 0.43 0.55 0.63 0.51 0.48 0.86 1.45 1.35 1.55 1.23 1.85 2.82 2.37 2.47 2.89 2.45 1.96 1.96 1.59 1.36 0.92 0.67 0.57 0.64 0.73 1.03 1.46 1.66 1.62 1.20 1.23 1.09 0.46 0.20 0.13
0.00 0.00 0.00 0.00 0.00 0.00 0.00 0.00 0.01 0.06 0.14 0.14 0.12 0.07 0.74 0.69 0.42 0.66 1.14 1.60 2.09 2.06 2.45 1.44 1.70 2.04 2.42 3.12 2.95 2.70 2.57 2.06 1.84 1.77 1.60 0.98 0.68 0.50 0.51 0.57 0.90 1.63 3.02 2.45 1.33 0.94 0.50 0.38 0.40
0.00 0.00 0.00 0.00 0.00 0.00 0.02 0.02 0.06 0.19 0.28 0.29 0.19 0.31 0.71 0.44 0.52 0.81 2.00 2.48 3.22 3.16 3.45 2.49 2.37 2.59 1.97 1.87 3.64 3.09 3.04 2.51 1.62 1.22 1.82 1.12 0.73 0.63 0.57 0.56 0.45 0.49 0.89 1.34 1.34 1.49 0.87 0.46 0.36
0.00 0.00 0.00 0.00 0.00 0.00 0.02 0.10 0.33 0.58 0.31 0.13 0.10 0.51 0.99 0.79 0.56 0.66 1.63 3.73 5.19 6.82 7.53 6.08 3.85 3.32 3.56 2.42 2.36 3.31 3.30 2.77 1.74 1.34 1.10 1.19 0.85 0.76 0.65 0.48 0.38 0.33 0.31 0.47 0.53 0.65 0.66 0.55 0.39
0.00 0.00 0.00 0.00 0.00 0.02 0.08 0.18 0.24 0.28 0.45 0.39 0.14 0.69 1.00 0.63 0.56 0.86 1.20 2.92 4.49 9.09 9.74 7.10 5.14 3.17 1.75 2.48 2.23 2.23 3.05 3.65 2.35 1.86 1.64 1.27 1.10 0.89 0.55 0.38 0.45 0.62 0.55 0.40 0.29 0.41 0.48 0.44 0.31
0.00 0.00 0.00 0.00 0.01 0.04 0.10 0.14 0.33 0.26 0.22 0.31 0.21 0.48 0.64 0.77 0.77 0.82 1.07 1.95 3.72 5.13 5.31 6.63 6.38 3.96 2.72 2.47 2.35 1.79 1.70 2.68 3.59 2.42 1.90 1.60 0.85 0.79 0.56 0.53 0.53 0.57 0.58 0.61 0.54 0.48 0.41 0.36 0.31
0.00 0.00 0.00 0.00 0.01 0.08 0.27 0.30 0.29 0.16 0.34 0.23 0.37 0.52 0.80 0.81 0.65 0.60 0.93 1.29 2.06 2.41 3.31 2.92 3.24 2.96 2.26 2.98 3.04 1.70 1.38 1.16 2.63 2.88 2.05 1.44 0.87 0.78 0.72 0.50 0.53 0.61 0.51 0.65 0.66 0.68 0.52 0.39 0.21
0.00 0.00 0.00 0.00 0.01 0.08 0.10 0.06 0.12 0.07 0.26 0.43 0.81 0.78 0.91 0.76 0.54 0.31 0.40 0.83 0.88 0.94 1.06 1.24 1.51 1.42 1.35 1.82 1.54 1.46 1.24 1.05 1.33 2.51 1.95 1.22 0.83 0.71 0.95 0.43 0.47 0.85 0.75 0.68 0.58 0.44 0.37 0.34 0.28
0.00 0.00 0.00 0.00 0.00 0.01 0.01 0.09 0.18 0.18 0.75 0.41 0.48 0.42 0.55 0.33 0.24 0.27 0.30 0.33 0.35 0.55 0.76 1.01 0.80 0.99 1.14 1.34 1.23 0.87 0.93 0.92 0.93 1.71 1.78 1.19 0.79 0.47 0.57 0.27 0.39 0.94 0.89 0.57 0.34 0.21 0.24 0.32 0.35
0.00 0.00 0.00 0.00 0.03 0.02 0.07 0.04 0.08 0.65 0.29 0.16 0.19 0.20 0.23 0.16 0.12 0.13 0.13 0.15 0.19 0.41 0.70 0.96 0.77 0.79 0.83 0.68 0.78 0.67 0.55 0.84 0.76 0.85 1.45 1.16 0.69 0.32 0.34 0.32 0.35 0.75 0.72 0.76 0.38 0.20 0.24 0.27 0.33
0.00 0.00 0.00 0.00 0.02 0.02 0.04 0.07 0.11 0.65 0.30 0.05 0.06 0.07 0.06 0.06 0.04 0.04 0.03 0.03 0.15 0.40 0.62 1.00 1.21 0.86 0.88 0.65 0.61 0.59 0.52 0.62 0.82 0.73 0.99 1.32 0.72 0.41 0.40 0.37 0.30 0.49 0.53 0.62 0.50 0.18 0.26 0.28 0.25
0.00 0.00 0.00 0.00 0.01 0.02 0.04 0.10 0.17 0.40 0.14 0.05 0.00 0.01 0.05 0.09 0.04 0.01 0.00 0.01 0.03 0.15 0.29 1.14 1.62 1.19 1.05 0.61 0.66 0.65 0.67 0.54 0.69 0.77 0.99 1.15 0.80 0.55 0.42 0.43 0.32 0.32 0.38 0.34 0.44 0.37 0.35 0.31 0.28
0.00 0.00 0.00 0.02 0.00 0.02 0.04 0.48 0.14 0.06 0.07 0.06 0.00 0.00 0.03 0.05 0.02 0.01 0.00 0.01 0.01 0.03 0.25 1.32 1.42 0.99 1.07 0.82 0.91 1.27 0.69 0.47 0.56 0.65 0.75 0.87 0.87 0.64 0.57 0.47 0.35 0.38 0.34 0.21 0.30 0.20 0.28 0.34 0.28
0.00 0.00 0.00 0.00 0.00 0.01 0.02 0.19 0.15 0.05 0.06 0.08 0.01 0.00 0.00 0.00 0.02 0.00 0.02 0.02 0.02 0.04 0.31 0.89 0.98 0.99 1.32 1.59 1.63 1.17 0.62 0.34 0.41 0.46 0.53 0.72 1.00 0.66 0.58 0.54 0.40 0.42 0.41 0.22 0.17 0.10 0.13 0.25 0.29
0.00 0.00 0.00 0.00 0.00 0.00 0.00 0.02 0.15 0.05 0.06 0.06 0.02 0.00 0.01 0.00 0.00 0.02 0.08 0.06 0.03 0.07 0.47 0.76 0.84 1.33 1.81 1.50 0.68 0.39 0.40 0.31 0.37 0.39 0.42 0.61 1.11 0.78 0.65 0.69 0.57 0.50 0.41 0.31 0.19 0.12 0.16 0.18 0.19
0.01 0.01 0.03 0.01 0.00 0.00 0.00 0.01 0.02 0.03 0.04 0.04 0.02 0.01 0.01 0.00 0.01 0.05 0.08 0.11 0.12 0.20 0.56 0.70 0.86 0.73 0.52 0.32 0.30 0.26 0.30 0.20 0.21 0.22 0.40 0.51 0.82 0.92 0.69 0.71 0.65 0.54 0.34 0.21 0.14 0.14 0.16 0.25 0.23
0.05 0.09 0.04 0.01 0.01 0.06 0.04 0.01 0.00 0.01 0.17 0.03 0.01 0.01 0.00 0.00 0.00 0.01 0.02 0.08 0.22 0.43 0.48 0.41 0.33 0.20 0.19 0.15 0.21 0.19 0.18 0.13 0.09 0.14 0.26 0.76 0.77 0.75 0.70 0.73 0.57 0.45 0.42 0.40 0.28 0.14 0.12 0.21 0.29
0.02 0.02 0.00 0.01 0.05 0.17 0.11 0.03 0.00 0.00 0.02 0.05 0.03 0.03 0.00 0.01 0.03 0.05 0.09 0.12 0.12 0.10 0.06 0.09 0.15 0.10 0.20 0.23 0.20 0.14 0.18 0.27 0.21 0.19 0.25 0.51 0.49 0.57 0.54 0.69 0.68 0.50 0.49 0.52 0.43 0.24 0.14 0.19 0.28
0.06 0.02 0.01 0.02 0.17 0.20 0.18 0.15 0.02 0.01 0.00 0.07 0.01 0.01 0.02 0.03 0.03 0.02 0.01 0.01 0.00 0.05 0.08 0.12 0.12 0.17 0.19 0.30 0.10 0.12 0.07 0.10 0.11 0.13 0.15 0.30 0.34 0.41 0.46 0.44 0.57 0.44 0.47 0.50 0.54 0.47 0.37 0.43 0.47
0.02 0.01 0.04 0.09 0.12 0.17 0.12 0.28 0.04 0.06 0.14 0.21 0.13 0.05 0.03 0.02 0.02 0.03 0.01 0.03 0.05 0.04 0.08 0.09 0.12 0.22 0.17 0.14 0.13 0.18 0.10 0.11 0.09 0.15 0.21 0.29 0.36 0.30 0.44 0.50 0.59 0.49 0.46 0.50 0.52 0.59 0.57 0.62 0.53
0.06 0.06 0.20 0.22 0.16 0.23 0.02 0.12 0.05 0.13 0.39 0.43 0.44 0.16 0.08 0.05 0.11 0.08 0.04 0.06 0.06 0.07 0.20 0.11 0.11 0.10 0.13 0.14 0.12 0.12 0.18 0.12 0.09 0.11 0.10 0.14 0.24 0.23 0.34 0.59 0.59 0.60 0.57 0.68 0.63 0.67 0.75 0.80 0.82
0.06 0.16 0.36 0.51 0.40 0.15 0.07 0.08 0.08 0.22 0.28 0.55 0.69 0.31 0.09 0.06 0.09 0.06 0.03 0.05 0.05 0.09 0.20 0.10 0.05 0.07 0.06 0.07 0.12 0.18 0.33 0.21 0.19 0.11 0.08 0.14 0.12 0.11 0.16 0.34 0.50 0.52 0.70 0.77 0.96 0.96 0.89 1.06 1.06
0.06 0.15 0.31 0.68 0.53 0.27 0.18 0.19 0.35 0.31 0.46 0.40 0.24 0.45 0.16 0.07 0.05 0.06 0.04 0.05 0.07 0.17 0.18 0.09 0.04 0.06 0.08 0.15 0.29 0.28 0.29 0.34 0.45 0.31 0.19 0.31 0.18 0.12 0.16 0.25 0.50 0.63 0.78 0.76 0.89 1.13 1.22 1.29 1.44
0.03 0.07 0.11 0.49 0.51 0.67 0.53 0.62 0.71 0.32 0.57 0.90 0.67 0.31 0.19 0.10 0.04 0.03 0.03 0.02 0.03 0.24 0.17 0.05 0.03 0.02 0.04 0.16 0.29 0.19 0.46 0.70 0.57 0.51 0.54 0.49 0.51 0.48 0.42 0.48 0.55 0.69 0.68 0.86 0.94 1.09 0.98 0.89 0.83
0.02 0.09 0.40 0.74 0.95 0.71 0.33 0.71 1.24 1.22 1.32 1.41 1.16 0.73 0.35 0.18 0.16 0.05 0.03 0.02 0.02 0.07 0.05 0.03 0.08 0.22 0.19 0.07 0.13 0.20 0.33 0.47 0.55 0.48 0.48 0.76 0.79 0.65 0.71 0.68 0.62 0.52 0.48 0.57 0.59 0.57 0.61 0.83 0.83
0.02 0.11 0.34 0.50 0.29 0.82 0.89 1.18 1.35 1.81 1.63 1.25 1.40 1.28 0.60 0.33 0.31 0.22 0.09 0.06 0.02 0.02 0.03 0.07 0.06 0.19 0.40 0.63 0.57 0.37 0.50 0.50 0.72 0.71 0.84 0.71 0.70 0.81 0.82 0.65 0.51 0.43 0.52 0.58 0.53 0.51 0.54 0.59 0.82
0.03 0.04 0.14 0.51 0.57 0.74 1.26 1.71 2.07 1.46 0.79 0.68 0.87 1.28 0.97 0.51 0.47 0.40 0.25 0.12 0.11 0.08 0.09 0.14 0.16 0.23 0.50 1.37 1.48 0.97 1.09 0.94 0.89 0.94 0.86 0.90 0.90 0.88 0.75 0.55 0.45 0.44 0.49 0.66 0.81 0.73 0.65 0.65 0.63

GFSSGP_prec_precacc_120.txt.gz
Total_Precipitation_Accumulation
0.00 0.00 0.00 0.00 0.00 0.00 0.00 0.00 0.00 0.11 0.09 0.06 0.13 0.18 0.23 0.35 0.63 0.80 0.65 1.13 1.14 1.14 0.93 2.08 2.07 1.74 1.16 0.62 0.30 0.19 0.11 0.05 0.05 0.07 0.12 0.20 0.17 0.25 0.13 0.03 0.03 0.14 0.32 0.29 0.20 0.22 0.22 0.18 0.09
0.00 0.00 0.00 0.00 0.00 0.00 0.00 0.00 0.02 0.09 0.16 0.24 0.26 0.18 0.17 0.55 0.47 0.50 0.66 0.71 0.64 0.56 0.60 0.89 1.79 1.96 1.60 1.35 1.02 0.72 0.42 0.11 0.05 0.06 0.17 0.38 0.43 0.43 0.43 0.36 0.20 0.22 0.37 0.49 0.39 0.36 0.25 0.13 0.05
0.00 0.00 0.00 0.00 0.00 0.00 0.00 0.02 0.04 0.08 0.16 0.15 0.09 0.08 0.31 1.03 0.77 0.70 0.53 0.92 1.01 0.67 0.86 0.73 1.16 1.44 1.70 1.92 2.21 1.84 1.26 0.66 0.35 0.42 0.66 0.82 0.99 1.04 0.90 0.83 0.72 0.72 0.79 0.78 0.77 0.60 0.26 0.09 0.04
0.00 0.00 0.00 0.00 0.00 0.00 0.00 0.01 0.10 0.03 0.09 0.11 0.07 0.12 0.43 0.55 0.63 0.51 0.48 0.86 1.45 1.35 1.55 1.23 1.85 2.82 2.37 2.47 2.89 2.45 1.96 1.96 1.59 1.36 0.92 0.67 0.57 0.64 0.73 1.03 1.46 1.66 1.63 1.21 1.25 1.09 0.46 0.20 0.13
0.00 0.00 0.00 0.00 0.00 0.00 0.00 0.00 0.01 0.06 0.14 0.14 0.12 0.07 0.74 0.69 0.42 0.66 1.14 1.60 2.09 2.06 2.45 1.44 1.70 2.04 2.42 3.12 2.95 2.70 2.57 2.06 1.84 1.77 1.60 0.98 0.68 0.50 0.51 0.57 0.90 1.63 3.04 2.46 1.35 0.95 0.50 0.38 0.40
0.00 0.00 0.00 0.00 0.00 0.00 0.02 0.02 0.06 0.19 0.28 0.29 0.19 0.31 0.71 0.44 0.52 0.81 2.00 2.48 3.22 3.16 3.45 2.49 2.37 2.59 1.97 1.87 3.64 3.09 3.04 2.51 1.62 1.22 1.82 1.12 0.73 0.63 0.57 0.56 0.45 0.49 0.89 1.36 1.35 1.49 0.87 0.46 0.36
0.00 0.00 0.00 0.00 0.00 0.00 0.02 0.10 0.33 0.58 0.31 0.13 0.10 0.51 0.99 0.79 0.56 0.66 1.63 3.73 5.19 6.82 7.53 6.08 3.85 3.32 3.56 2.42 2.36 3.31 3.30 2.77 1.74 1.34 1.10 1.19 0.85 0.76 0.65 0.48 0.38 0.33 0.32 0.48 0.53 0.65 0.66 0.55 0.39
0.00 0.00 0.00 0.00 0.00 0.02 0.08 0.18 0.24 0.28 0.45 0.39 0.14 0.69 1.00 0.63 0.56 0.86 1.20 2.92 4.49 9.09 9.74 7.10 5.14 3.17 1.75 2.48 2.23 2.23 3.05 3.65 2.35 1.86 1.64 1.27 1.10 0.89 0.55 0.38 0.45 0.62 0.55 0.40 0.29 0.41 0.48 0.45 0.32
0.00 0.00 0.00 0.00 0.01 0.04 0.10 0.14 0.33 0.26 0.22 0.31 0.21 0.48 0.64 0.77 0.77 0.82 1.07 1.95 3.72 5.13 5.31 6.63 6.38 3.96 2.72 2.47 2.35 1.79 1.70 2.68 3.59 2.42 1.90 1.60 0.86 0.79 0.56 0.53 0.53 0.57 0.58 0.61 0.54 0.48 0.41 0.36 0.31
0.00 0.00 0.00 0.00 0.01 0.08 0.27 0.30 0.29 0.16 0.34 0.23 0.37 0.52 0.80 0.81 0.65 0.60 0.93 1.29 2.06 2.41 3.31 2.92 3.24 2.96 2.26 2.98 3.04 1.70 1.38 1.16 2.63 2.88 2.05 1.44 0.88 0.80 0.72 0.50 0.53 0.61 0.51 0.65 0.66 0.68 0.52 0.39 0.21
0.00 0.00 0.00 0.00 0.01 0.08 0.10 0.06 0.12 0.07 0.26 0.43 0.81 0.78 0.91 0.76 0.54 0.31 0.40 0.83 0.88 0.94 1.06 1.24 1.51 1.42 1.35 1.82 1.54 1.46 1.24 1.05 1.34 2.51 1.95 1.23 0.85 0.74 0.96 0.43 0.47 0.85 0.75 0.68 0.58 0.44 0.37 0.34 0.28
0.00 0.00 0.00 0.00 0.00 0.01 0.01 0.09 0.18 0.18 0.75 0.41 0.48 0.42 0.55 0.33 0.24 0.27 0.30 0.33 0.35 0.55 0.76 1.01 0.80 0.99 1.14 1.34 1.23 0.87 0.93 0.92 0.93 1.72 1.78 1.20 0.79 0.47 0.58 0.27 0.39 0.94 0.89 0.57 0.34 0.21 0.24 0.32 0.35
0.00 0.00 0.00 0.00 0.03 0.02 0.07 0.04 0.08 0.65 0.29 0.16 0.19 0.20 0.23 0.16 0.12 0.13 0.13 0.15 0.19 0.41 0.70 0.96 0.77 0.79 0.83 0.68 0.78 0.67 0.55 0.84 0.76 0.85 1.45 1.16 0.69 0.32 0.34 0.32 0.35 0.75 0.72 0.76 0.38 0.20 0.24 0.27 0.33
0.00 0.00 0.00 0.00 0.02 0.02 0.04 0.07 0.11 0.65 0.30 0.05 0.06 0.07 0.06 0.06 0.04 0.04 0.03 0.03 0.15 0.40 0.62 1.00 1.21 0.86 0.88 0.65 0.61 0.59 0.52 0.62 0.82 0.73 0.99 1.32 0.72 0.41 0.40 0.38 0.30 0.49 0.53 0.62 0.50 0.18 0.26 0.28 0.25
0.00 0.00 0.00 0.00 0.01 0.02 0.04 0.10 0.17 0.40 0.14 0.05 0.00 0.01 0.05 0.09 0.04 0.01 0.00 0.01 0.03 0.15 0.29 1.14 1.62 1.19 1.05 0.61 0.66 0.65 0.67 0.54 0.69 0.77 0.99 1.15 0.80 0.55 0.42 0.43 0.32 0.32 0.38 0.34 0.45 0.37 0.35 0.31 0.28
0.00 0.00 0.00 0.02 0.00 0.02 0.04 0.48 0.14 0.06 0.07 0.06 0.00 0.00 0.03 0.05 0.02 0.01 0.00 0.01 0.01 0.03 0.25 1.32 1.42 0.99 1.07 0.82 0.91 1.27 0.69 0.47 0.56 0.65 0.75 0.87 0.87 0.64 0.57 0.47 0.35 0.39 0.34 0.22 0.31 0.20 0.28 0.34 0.28
0.00 0.00 0.00 0.00 0.00 0.01 0.02 0.19 0.15 0.05 0.06 0.08 0.01 0.00 0.00 0.00 0.02 0.00 0.02 0.02 0.02 0.04 0.31 0.89 0.98 0.99 1.32 1.59 1.63 1.17 0.62 0.34 0.41 0.46 0.53 0.72 1.00 0.66 0.58 0.54 0.40 0.43 0.41 0.22 0.17 0.10 0.14 0.25 0.29
0.00 0.00 0.00 0.00 0.00 0.00 0.00 0.02 0.15 0.05 0.06 0.06 0.02 0.00 0.01 0.00 0.00 0.02 0.08 0.06 0.03 0.07 0.47 0.76 0.84 1.33 1.81 1.50 0.68 0.39 0.40 0.31 0.37 0.39 0.42 0.61 1.11 0.78 0.65 0.69 0.57 0.50 0.41 0.31 0.19 0.12 0.16 0.19 0.20
0.01 0.01 0.03 0.01 0.00 0.00 0.00 0.01 0.02 0.03 0.04 0.04 0.02 0.01 0.01 0.00 0.01 0.05 0.08 0.11 0.12 0.20 0.56 0.70 0.86 0.73 0.52 0.32 0.30 0.26 0.30 0.20 0.21 0.22 0.40 0.51 0.82 0.92 0.69 0.71 0.65 0.54 0.34 0.21 0.14 0.14 0.16 0.25 0.24
0.05 0.09 0.04 0.01 0.01 0.06 0.04 0.01 0.00 0.01 0.17 0.03 0.01 0.01 0.00 0.00 0.00 0.01 0.02 0.08 0.22 0.43 0.48 0.41 0.33 0.20 0.19 0.15 0.21 0.19 0.18 0.13 0.09 0.14 0.26 0.76 0.77 0.75 0.70 0.73 0.57 0.45 0.42 0.40 0.28 0.15 0.12 0.21 0.29
0.02 0.02 0.00 0.01 0.05 0.17 0.11 0.03 0.00 0.00 0.02 0.05 0.03 0.03 0.00 0.01 0.03 0.05 0.09 0.12 0.12 0.10 0.06 0.09 0.15 0.10 0.21 0.23 0.20 0.15 0.18 0.28 0.21 0.19 0.25 0.51 0.49 0.57 0.54 0.69 0.68 0.50 0.49 0.52 0.43 0.24 0.14 0.19 0.28
0.06 0.02 0.01 0.02 0.17 0.20 0.18 0.15 0.02 0.01 0.00 0.08 0.02 0.04 0.04 0.05 0.04 0.02 0.01 0.01 0.00 0.05 0.08 0.12 0.13 0.18 0.21 0.31 0.10 0.12 0.07 0.10 0.11 0.13 0.15 0.30 0.34 0.41 0.46 0.44 0.57 0.44 0.47 0.50 0.54 0.47 0.37 0.43 0.47
0.02 0.01 0.04 0.09 0.12 0.17 0.12 0.28 0.04 0.07 0.14 0.23 0.18 0.17 0.10 0.08 0.06 0.04 0.02 0.03 0.05 0.04 0.08 0.09 0.13 0.25 0.23 0.17 0.15 0.21 0.11 0.11 0.09 0.15 0.21 0.29 0.36 0.30 0.44 0.50 0.59 0.49 0.46 0.50 0.52 0.59 0.57 0.62 0.53
0.06 0.06 0.20 0.22 0.16 0.23 0.02 0.15 0.06 0.15 0.44 0.45 0.49 0.26 0.14 0.12 0.17 0.14 0.10 0.10 0.08 0.08 0.20 0.12 0.12 0.12 0.26 0.26 0.24 0.28 0.33 0.13 0.09 0.11 0.10 0.14 0.24 0.23 0.34 0.59 0.59 0.60 0.57 0.68 0.63 0.67 0.76 0.80 0.82
0.06 0.16 0.37 0.51 0.40 0.15 0.08 0.12 0.13 0.27 0.31 0.60 0.76 0.45 0.18 0.18 0.15 0.13 0.13 0.16 0.15 0.14 0.23 0.11 0.06 0.08 0.14 0.22 0.33 0.31 0.52 0.33 0.20 0.12 0.08 0.15 0.14 0.11 0.17 0.35 0.50 0.52 0.70 0.77 0.96 0.97 0.89 1.06 1.07
0.06 0.15 0.31 0.69 0.53 0.27 0.19 0.22 0.41 0.38 0.52 0.45 0.30 0.63 0.24 0.22 0.16 0.17 0.22 0.14 0.18 0.25 0.22 0.12 0.05 0.07 0.09 0.20 0.41 0.34 0.37 0.36 0.46 0.32 0.20 0.32 0.18 0.12 0.18 0.32 0.58 0.69 0.80 0.76 0.89 1.14 1.23 1.30 1.45
0.03 0.07 0.11 0.51 0.52 0.69 0.55 0.63 0.74 0.32 0.58 0.92 0.72 0.44 0.39 0.20 0.17 0.15 0.14 0.10 0.10 0.31 0.22 0.15 0.08 0.03 0.05 0.16 0.30 0.20 0.47 0.71 0.59 0.53 0.55 0.51 0.53 0.50 0.47 0.58 0.66 0.77 0.77 0.91 0.97 1.09 0.99 0.89 0.83
0.03 0.09 0.41 0.78 0.99 0.73 0.36 0.71 1.26 1.23 1.33 1.42 1.19 0.82 0.64 0.38 0.29 0.12 0.09 0.07 0.06 0.12 0.09 0.07 0.13 0.25 0.20 0.07 0.13 0.20 0.33 0.47 0.56 0.50 0.51 0.80 0.84 0.70 0.78 0.80 0.73 0.56 0.66 0.81 0.76 0.66 0.68 0.86 0.83
0.02 0.12 0.35 0.54 0.31 0.86 0.94 1.22 1.40 1.85 1.67 1.30 1.46 1.36 0.79 0.57 0.60 0.33 0.15 0.07 0.02 0.03 0.04 0.10 0.08 0.20 0.40 0.64 0.57 0.37 0.51 0.51 0.74 0.73 0.87 0.77 0.76 0.88 0.92 0.76 0.62 0.47 0.59 0.78 0.70 0.60 0.57 0.61 0.83
0.03 0.05 0.17 0.59 0.61 0.79 1.31 1.75 2.11 1.50 0.84 0.72 0.93 1.37 1.08 0.65 0.78 0.61 0.38 0.18 0.12 0.08 0.09 0.14 0.18 0.26 0.51 1.37 1.48 0.97 1.09 0.94 0.89 0.94 0.87 0.91 0.93 0.97 0.84 0.59 0.49 0.48 0.52 0.70 0.87 0.78 0.68 0.67 0.65

GFSSGP_prec_precacc_123.txt.gz
Total_Precipitation_Accumulation
0.00 0.00 0.00 0.00 0.00 0.00 0.00 0.00 0.00 0.11 0.09 0.06 0.13 0.18 0.23 0.35 0.63 0.80 0.65 1.13 1.14 1.14 0.93 2.08 2.07 1.74 1.16 0.62 0.30 0.19 0.11 0.05 0.05 0.07 0.12 0.20 0.17 0.25 0.13 0.03 0.04 0.16 0.33 0.30 0.20 0.22 0.23 0.19 0.09
0.00 0.00 0.00 0.00 0.00 0.00 0.00 0.00 0.02 0.09 0.16 0.24 0.26 0.18 0.17 0.55 0.47 0.50 0.66 0.71 0.64 0.56 0.60 0.89 1.79 1.96 1.60 1.35 1.02 0.72 0.42 0.11 0.05 0.06 0.17 0.38 0.43 0.43 0.43 0.36 0.20 0.24 0.39 0.51 0.39 0.37 0.27 0.13 0.05
0.00 0.00 0.00 0.00 0.00 0.00 0.00 0.02 0.04 0.08 0.16 0.15 0.09 0.08 0.31 1.03 0.77 0.70 0.53 0.92 1.01 0.67 0.86 0.73 1.16 1.44 1.70 1.92 2.21 1.84 1.26 0.66 0.35 0.42 0.66 0.82 0.99 1.04 0.90 0.83 0.73 0.74 0.82 0.82 0.79 0.63 0.28 0.09 0.04
0.00 0.00 0.00 0.00 0.00 0.00 0.00 0.01 0.10 0.03 0.09 0.11 0.07 0.12 0.43 0.55 0.63 0.51 0.48 0.86 1.45 1.35 1.55 1.23 1.85 2.82 2.37 2.47 2.89 2.45 1.96 1.96 1.59 1.36 0.92 0.67 0.57 0.64 0.73 1.03 1.46 1.68 1.65 1.25 1.28 1.14 0.47 0.20 0.13
0.00 0.00 0.00 0.00 0.00 0.00 0.00 0.00 0.01 0.06 0.14 0.14 0.12 0.07 0.74 0.69 0.42 0.66 1.14 1.60 2.09 2.06 2.45 1.44 1.70 2.04 2.42 3.12 2.95 2.70 2.57 2.06 1.84 1.77 1.60 0.98 0.68 0.50 0.51 0.57 0.91 1.64 3.05 2.48 1.42 0.96 0.50 0.38 0.40
0.00 0.00 0.00 0.00 0.00 0.00 0.02 0.02 0.06 0.19 0.28 0.29 0.19 0.31 0.71 0.44 0.52 0.81 2.00 2.48 3.22 3.16 3.45 2.49 2.37 2.59 1.97 1.87 3.64 3.09 3.04 2.51 1.62 1.22 1.82 1.13 0.77 0.65 0.57 0.56 0.45 0.49 0.89 1.39 1.36 1.49 0.87 0.46 0.36
0.00 0.00 0.00 0.00 0.00 0.00 0.02 0.10 0.33 0.58 0.31 0.13 0.10 0.51 0.99 0.79 0.56 0.66 1.63 3.73 5.19 6.82 7.53 6.08 3.85 3.32 3.56 2.42 2.36 3.31 3.30 2.77 1.74 1.34 1.10 1.21 0.88 0.76 0.65 0.48 0.38 0.33 0.33 0.48 0.53 0.65 0.66 0.55 0.39
0.00 0.00 0.00 0.00 0.00 0.02 0.08 0.18 0.24 0.28 0.45 0.39 0.14 0.69 1.00 0.63 0.56 0.86 1.20 2.92 4.49 9.09 9.74 7.10 5.14 3.17 1.75 2.48 2.23 2.23 3.05 3.65 2.35 1.86 1.64 1.27 1.13 0.90 0.55 0.38 0.45 0.62 0.55 0.40 0.29 0.41 0.48 0.45 0.32
0.00 0.00 0.00 0.00 0.01 0.04 0.10 0.14 0.33 0.26 0.22 0.31 0.21 0.48 0.64 0.77 0.77 0.82 1.07 1.95 3.72 5.13 5.31 6.63 6.38 3.96 2.72 2.47 2.35 1.79 1.70 2.68 3.59 2.42 1.90 1.60 0.86 0.80 0.56 0.53 0.53 0.57 0.58 0.61 0.54 0.48 0.41 0.36 0.31
0.00 0.00 0.00 0.00 0.01 0.08 0.27 0.30 0.29 0.16 0.34 0.23 0.37 0.52 0.80 0.81 0.65 0.60 0.93 1.29 2.06 2.41 3.31 2.92 3.24 2.97 2.26 2.98 3.04 1.70 1.38 1.16 2.63 2.88 2.05 1.44 0.89 0.81 0.74 0.50 0.53 0.61 0.51 0.65 0.66 0.68 0.52 0.39 0.21
0.00 0.00 0.00 0.00 0.01 0.08 0.10 0.06 0.12 0.07 0.26 0.43 0.81 0.78 0.91 0.76 0.54 0.31 0.40 0.83 0.88 0.94 1.06 1.24 1.51 1.43 1.35 1.82 1.54 1.46 1.24 1.05 1.34 2.51 1.96 1.23 0.86 0.78 0.99 0.47 0.47 0.85 0.75 0.68 0.58 0.44 0.37 0.34 0.28
0.00 0.00 0.00 0.00 0.00 0.01 0.01 0.09 0.18 0.18 0.75 0.41 0.48 0.42 0.55 0.33 0.24 0.27 0.30 0.33 0.35 0.55 0.76 1.01 0.80 0.99 1.14 1.34 1.23 0.87 0.93 0.92 0.93 1.72 1.79 1.20 0.81 0.50 0.61 0.29 0.39 0.94 0.89 0.57 0.34 0.21 0.24 0.32 0.36
0.00 0.00 0.00 0.00 0.03 0.02 0.07 0.04 0.08 0.65 0.29 0.16 0.19 0.20 0.23 0.16 0.12 0.13 0.13 0.15 0.19 0.41 0.70 0.96 0.77 0.79 0.83 0.68 0.78 0.67 0.55 0.84 0.76 0.85 1.46 1.17 0.69 0.34 0.36 0.33 0.35 0.75 0.72 0.76 0.38 0.21 0.26 0.28 0.33
0.00 0.00 0.00 0.00 0.02 0.02 0.04 0.07 0.11 0.65 0.30 0.05 0.06 0.07 0.06 0.06 0.04 0.04 0.03 0.03 0.15 0.40 0.62 1.00 1.21 0.86 0.88 0.65 0.61 0.59 0.52 0.62 0.82 0.73 1.00 1.33 0.73 0.41 0.41 0.39 0.31 0.49 0.54 0.62 0.50 0.20 0.26 0.28 0.25
0.00 0.00 0.00 0.00 0.01 0.02 0.04 0.10 0.17 0.40 0.14 0.05 0.00 0.01 0.05 0.09 0.04 0.01 0.00 0.01 0.03 0.15 0.29 1.14 1.62 1.19 1.05 0.61 0.66 0.65 0.67 0.54 0.69 0.77 0.99 1.16 0.80 0.56 0.42 0.44 0.32 0.32 0.38 0.34 0.46 0.40 0.35 0.31 0.28
0.00 0.00 0.00 0.02 0.00 0.02 0.04 0.48 0.14 0.06 0.07 0.06 0.00 0.00 0.03 0.05 0.02 0.01 0.00 0.01 0.01 0.03 0.25 1.32 1.42 0.99 1.07 0.82 0.91 1.27 0.69 0.47 0.56 0.65 0.75 0.87 0.87 0.64 0.57 0.47 0.35 0.39 0.34 0.22 0.31 0.21 0.29 0.34 0.29
0.00 0.00 0.00 0.00 0.00 0.01 0.02 0.19 0.15 0.05 0.06 0.08 0.01 0.00 0.00 0.00 0.02 0.00 0.02 0.02 0.02 0.04 0.31 0.89 0.98 0.99 1.33 1.60 1.63 1.17 0.62 0.34 0.41 0.46 0.53 0.72 1.00 0.66 0.58 0.54 0.40 0.43 0.41 0.22 0.18 0.11 0.15 0.26 0.29
0.00 0.00 0.00 0.00 0.00 0.00 0.00 0.02 0.15 0.05 0.06 0.06 0.02 0.00 0.01 0.00 0.00 0.02 0.08 0.06 0.03 0.07 0.47 0.76 0.84 1.33 1.82 1.54 0.69 0.39 0.40 0.31 0.37 0.39 0.42 0.61 1.12 0.78 0.65 0.69 0.57 0.50 0.41 0.31 0.20 0.13 0.16 0.19 0.20
0.01 0.01 0.03 0.01 0.00 0.00 0.00 0.01 0.02 0.03 0.04 0.04 0.02 0.01 0.01 0.00 0.01 0.05 0.08 0.11 0.12 0.20 0.56 0.70 0.86 0.73 0.54 0.41 0.34 0.27 0.30 0.20 0.21 0.22 0.40 0.51 0.82 0.92 0.69 0.71 0.65 0.54 0.34 0.21 0.15 0.14 0.16 0.26 0.25
0.05 0.09 0.04 0.01 0.01 0.06 0.04 0.01 0.00 0.01 0.17 0.03 0.01 0.01 0.00 0.00 0.00 0.01 0.02 0.08 0.22 0.43 0.48 0.41 0.33 0.20 0.20 0.17 0.26 0.23 0.18 0.13 0.09 0.14 0.26 0.76 0.77 0.75 0.70 0.73 0.57 0.45 0.42 0.40 0.28 0.15 0.12 0.22 0.30
0.02 0.02 0.00 0.01 0.05 0.17 0.11 0.03 0.00 0.00 0.02 0.05 0.03 0.03 0.01 0.01 0.04 0.06 0.09 0.12 0.12 0.10 0.06 0.09 0.15 0.10 0.21 0.23 0.22 0.21 0.20 0.28 0.21 0.19 0.25 0.51 0.49 0.57 0.54 0.69 0.68 0.50 0.49 0.52 0.44 0.25 0.14 0.20 0.28
0.06 0.02 0.01 0.02 0.17 0.20 0.18 0.15 0.02 0.01 0.00 0.08 0.02 0.04 0.04 0.05 0.05 0.03 0.01 0.01 0.00 0.05 0.08 0.12 0.13 0.19 0.21 0.33 0.13 0.18 0.09 0.10 0.11 0.13 0.15 0.30 0.34 0.41 0.46 0.44 0.57 0.44 0.47 0.50 0.54 0.47 0.37 0.43 0.47
0.02 0.01 0.04 0.09 0.12 0.17 0.12 0.28 0.04 0.07 0.14 0.23 0.18 0.17 0.10 0.08 0.07 0.06 0.03 0.04 0.05 0.05 0.08 0.09 0.13 0.25 0.27 0.26 0.19 0.28 0.18 0.11 0.09 0.15 0.21 0.29 0.36 0.30 0.44 0.50 0.59 0.49 0.46 0.50 0.52 0.59 0.57 0.63 0.53
0.06 0.06 0.20 0.22 0.16 0.24 0.03 0.15 0.07 0.16 0.44 0.45 0.49 0.26 0.14 0.12 0.18 0.16 0.13 0.14 0.12 0.11 0.22 0.12 0.13 0.13 0.29 0.34 0.37 0.39 0.50 0.30 0.17 0.12 0.10 0.14 0.24 0.23 0.34 0.59 0.60 0.60 0.57 0.68 0.63 0.67 0.76 0.80 0.82
0.06 0.16 0.37 0.52 0.43 0.16 0.08 0.12 0.13 0.27 0.31 0.61 0.77 0.46 0.19 0.19 0.17 0.16 0.20 0.30 0.25 0.25 0.33 0.16 0.08 0.15 0.22 0.39 0.51 0.49 0.88 0.93 0.73 0.43 0.19 0.17 0.17 0.12 0.17 0.35 0.50 0.52 0.71 0.77 0.96 0.97 0.90 1.07 1.07
0.06 0.15 0.31 0.70 0.53 0.27 0.19 0.23 0.42 0.38 0.52 0.45 0.31 0.64 0.26 0.25 0.23 0.27 0.56 0.36 0.30 0.41 0.43 0.25 0.10 0.18 0.24 0.41 0.65 0.66 0.64 0.75 0.92 1.01 0.89 0.42 0.20 0.14 0.19 0.34 0.59 0.70 0.82 0.77 0.91 1.14 1.23 1.31 1.46
0.03 0.08 0.11 0.52 0.52 0.72 0.59 0.64 0.75 0.32 0.58 0.92 0.73 0.45 0.41 0.26 0.30 0.41 0.41 0.22 0.22 0.62 0.49 0.36 0.21 0.14 0.22 0.33 0.52 0.53 0.74 0.98 1.01 0.75 0.88 0.66 0.56 0.51 0.49 0.61 0.70 0.81 0.85 1.01 1.06 1.12 1.02 0.92 0.87
0.03 0.09 0.42 0.82 1.03 0.78 0.40 0.73 1.26 1.24 1.33 1.42 1.20 0.83 0.67 0.45 0.38 0.35 0.51 0.20 0.17 0.39 0.18 0.20 0.28 0.35 0.31 0.23 0.29 0.41 0.54 0.68 0.92 0.83 0.65 0.85 0.86 0.72 0.81 0.83 0.78 0.62 0.74 0.94 0.84 0.77 0.80 0.96 0.90
0.02 0.13 0.38 0.58 0.33 0.90 0.99 1.28 1.41 1.86 1.68 1.31 1.47 1.38 0.83 0.67 0.76 0.46 0.39 0.24 0.13 0.14 0.15 0.23 0.21 0.30 0.45 0.69 0.63 0.46 0.66 0.71 1.10 1.08 1.01 0.82 0.80 0.92 0.96 0.81 0.67 0.50 0.63 0.87 0.81 0.73 0.70 0.72 0.96
0.03 0.05 0.19 0.66 0.66 0.89 1.38 1.81 2.12 1.51 0.85 0.73 0.96 1.40 1.12 0.74 1.06 0.76 0.50 0.32 0.23 0.16 0.15 0.34 0.45 0.48 0.66 1.40 1.48 0.98 1.11 1.10 1.00 1.05 0.92 0.94 0.97 1.00 0.87 0.63 0.51 0.50 0.54 0.75 0.92 0.86 0.77 0.71 0.67

GFSSGP_prec_precacc_126.txt.gz
Total_Precipitation_Accumulation
0.00 0.00 0.00 0.00 0.00 0.00 0.00 0.00 0.00 0.11 0.09 0.06 0.13 0.18 0.23 0.35 0.63 0.80 0.65 1.13 1.14 1.14 0.93 2.08 2.07 1.74 1.16 0.62 0.30 0.19 0.11 0.05 0.05 0.07 0.12 0.20 0.17 0.25 0.13 0.03 0.04 0.16 0.33 0.33 0.23 0.22 0.23 0.19 0.09
0.00 0.00 0.00 0.00 0.00 0.00 0.00 0.00 0.02 0.09 0.16 0.24 0.26 0.18 0.17 0.55 0.47 0.50 0.66 0.71 0.64 0.56 0.60 0.89 1.79 1.96 1.60 1.35 1.02 0.72 0.42 0.11 0.05 0.06 0.17 0.38 0.43 0.43 0.43 0.36 0.20 0.25 0.40 0.54 0.40 0.39 0.29 0.15 0.05
0.00 0.00 0.00 0.00 0.00 0.00 0.00 0.02 0.04 0.08 0.16 0.15 0.09 0.08 0.31 1.03 0.77 0.70 0.53 0.92 1.01 0.67 0.86 0.73 1.16 1.44 1.70 1.92 2.21 1.84 1.26 0.66 0.35 0.42 0.66 0.82 0.99 1.04 0.90 0.83 0.73 0.75 0.83 0.83 0.84 0.69 0.35 0.10 0.04
0.00 0.00 0.00 0.00 0.00 0.00 0.00 0.01 0.10 0.03 0.09 0.11 0.07 0.12 0.43 0.55 0.63 0.51 0.48 0.86 1.45 1.35 1.55 1.23 1.85 2.82 2.37 2.47 2.89 2.45 1.96 1.96 1.59 1.36 0.92 0.67 0.57 0.64 0.73 1.03 1.47 1.69 1.66 1.26 1.29 1.18 0.49 0.20 0.13
0.00 0.00 0.00 0.00 0.00 0.00 0.00 0.00 0.01 0.06 0.14 0.14 0.12 0.07 0.74 0.69 0.42 0.66 1.14 1.60 2.09 2.06 2.45 1.44 1.70 2.04 2.42 3.12 2.95 2.70 2.57 2.06 1.84 1.77 1.60 0.98 0.68 0.50 0.51 0.58 0.93 1.66 3.06 2.48 1.44 0.97 0.50 0.38 0.40
0.00 0.00 0.00 0.00 0.00 0.00 0.02 0.02 0.06 0.19 0.28 0.29 0.19 0.31 0.71 0.44 0.52 0.81 2.00 2.48 3.22 3.16 3.45 2.49 2.37 2.59 1.97 1.87 3.64 3.09 3.04 2.51 1.62 1.22 1.82 1.13 0.78 0.66 0.57 0.56 0.48 0.51 0.90 1.39 1.36 1.49 0.87 0.46 0.36
0.00 0.00 0.00 0.00 0.00 0.00 0.02 0.10 0.33 0.58 0.31 0.13 0.10 0.51 0.99 0.79 0.56 0.66 1.63 3.73 5.19 6.82 7.53 6.08 3.85 3.32 3.56 2.42 2.36 3.31 3.30 2.77 1.74 1.34 1.10 1.21 0.88 0.76 0.65 0.49 0.41 0.33 0.33 0.49 0.53 0.65 0.66 0.55 0.39
0.00 0.00 0.00 0.00 0.00 0.02 0.08 0.18 0.24 0.28 0.45 0.39 0.14 0.69 1.00 0.63 0.56 0.86 1.20 2.92 4.49 9.09 9.74 7.11 5.14 3.17 1.75 2.48 2.23 2.23 3.05 3.65 2.35 1.86 1.64 1.27 1.13 0.90 0.55 0.39 0.45 0.62 0.57 0.40 0.29 0.41 0.48 0.45 0.32
0.00 0.00 0.00 0.00 0.01 0.04 0.10 0.14 0.33 0.26 0.22 0.31 0.21 0.48 0.64 0.77 0.77 0.82 1.07 1.95 3.72 5.13 5.31 6.64 6.40 3.96 2.72 2.47 2.35 1.79 1.70 2.68 3.59 2.42 1.90 1.60 0.86 0.80 0.56 0.53 0.53 0.58 0.61 0.61 0.54 0.48 0.41 0.36 0.31
0.00 0.00 0.00 0.00 0.01 0.08 0.27 0.30 0.29 0.16 0.34 0.23 0.37 0.52 0.80 0.81 0.65 0.60 0.93 1.29 2.06 2.41 3.31 2.92 3.25 3.00 2.28 2.98 3.04 1.70 1.38 1.16 2.63 2.88 2.05 1.44 0.89 0.81 0.74 0.50 0.53 0.61 0.52 0.65 0.66 0.68 0.52 0.39 0.21
0.00 0.00 0.00 0.00 0.01 0.08 0.10 0.06 0.12 0.07 0.26 0.43 0.81 0.78 0.91 0.76 0.54 0.31 0.40 0.83 0.88 0.94 1.06 1.24 1.51 1.46 1.41 1.83 1.54 1.46 1.24 1.05 1.34 2.51 1.96 1.23 0.86 0.78 1.00 0.49 0.47 0.85 0.75 0.68 0.58 0.44 0.37 0.34 0.29
0.00 0.00 0.00 0.00 0.00 0.01 0.01 0.09 0.18 0.18 0.75 0.41 0.48 0.42 0.55 0.33 0.24 0.27 0.30 0.33 0.35 0.55 0.76 1.01 0.80 1.00 1.15 1.34 1.23 0.87 0.93 0.92 0.93 1.72 1.79 1.21 0.81 0.52 0.63 0.31 0.40 0.94 0.89 0.57 0.34 0.21 0.24 0.32 0.38
0.00 0.00 0.00 0.00 0.03 0.02 0.07 0.04 0.08 0.65 0.29 0.16 0.19 0.20 0.23 0.16 0.12 0.13 0.13 0.15 0.19 0.41 0.70 0.96 0.77 0.80 0.83 0.68 0.78 0.68 0.55 0.84 0.76 0.85 1.46 1.18 0.70 0.37 0.38 0.36 0.37 0.75 0.72 0.77 0.38 0.21 0.26 0.29 0.35
0.00 0.00 0.00 0.00 0.02 0.02 0.04 0.07 0.11 0.65 0.30 0.05 0.06 0.07 0.06 0.06 0.04 0.04 0.03 0.03 0.15 0.40 0.62 1.00 1.21 0.86 0.88 0.65 0.61 0.59 0.52 0.62 0.82 0.73 1.00 1.34 0.73 0.43 0.43 0.40 0.32 0.49 0.54 0.62 0.51 0.20 0.26 0.29 0.25
0.00 0.00 0.00 0.00 0.01 0.02 0.04 0.10 0.17 0.40 0.14 0.05 0.00 0.01 0.05 0.09 0.04 0.01 0.00 0.01 0.03 0.15 0.29 1.14 1.62 1.19 1.05 0.62 0.67 0.65 0.67 0.54 0.69 0.78 0.99 1.16 0.80 0.56 0.44 0.45 0.33 0.32 0.38 0.35 0.47 0.41 0.36 0.31 0.29
0.00 0.00 0.00 0.02 0.00 0.02 0.04 0.48 0.14 0.06 0.07 0.06 0.00 0.00 0.03 0.05 0.02 0.01 0.00 0.01 0.01 0.03 0.25 1.32 1.42 0.99 1.08 0.84 0.93 1.27 0.69 0.47 0.56 0.66 0.75 0.88 0.88 0.64 0.58 0.48 0.36 0.40 0.35 0.22 0.32 0.23 0.30 0.35 0.29
0.00 0.00 0.00 0.00 0.00 0.01 0.02 0.19 0.15 0.05 0.06 0.08 0.01 0.00 0.00 0.00 0.02 0.00 0.02 0.02 0.02 0.04 0.31 0.89 0.98 0.99 1.33 1.64 1.71 1.21 0.65 0.37 0.41 0.46 0.53 0.73 1.01 0.67 0.59 0.54 0.40 0.44 0.42 0.23 0.19 0.13 0.17 0.26 0.30
0.00 0.00 0.00 0.00 0.00 0.00 0.00 0.02 0.15 0.05 0.06 0.06 0.02 0.00 0.01 0.00 0.00 0.02 0.08 0.06 0.03 0.07 0.47 0.76 0.84 1.33 1.82 1.57 0.78 0.47 0.50 0.43 0.40 0.39 0.42 0.61 1.12 0.78 0.65 0.70 0.57 0.51 0.42 0.31 0.20 0.14 0.17 0.20 0.21
0.01 0.01 0.03 0.01 0.00 0.00 0.00 0.01 0.02 0.03 0.04 0.04 0.02 0.01 0.01 0.00 0.01 0.05 0.08 0.11 0.12 0.20 0.56 0.70 0.86 0.73 0.54 0.42 0.41 0.38 0.40 0.31 0.26 0.22 0.40 0.51 0.82 0.92 0.69 0.71 0.66 0.55 0.35 0.21 0.15 0.15 0.17 0.26 0.25
0.05 0.09 0.04 0.01 0.01 0.06 0.04 0.01 0.00 0.01 0.17 0.03 0.01 0.01 0.00 0.00 0.00 0.01 0.02 0.08 0.22 0.43 0.48 0.41 0.33 0.20 0.20 0.17 0.28 0.34 0.36 0.27 0.16 0.14 0.26 0.76 0.77 0.76 0.70 0.73 0.57 0.45 0.42 0.41 0.28 0.15 0.13 0.23 0.30
0.02 0.02 0.00 0.01 0.05 0.17 0.11 0.03 0.00 0.00 0.02 0.05 0.03 0.03 0.01 0.01 0.04 0.06 0.09 0.12 0.12 0.10 0.06 0.09 0.15 0.10 0.21 0.23 0.23 0.28 0.41 0.47 0.36 0.22 0.25 0.51 0.49 0.58 0.54 0.69 0.68 0.50 0.49 0.52 0.44 0.25 0.14 0.20 0.29
0.06 0.02 0.01 0.02 0.17 0.20 0.18 0.15 0.02 0.01 0.00 0.08 0.02 0.04 0.04 0.05 0.05 0.03 0.01 0.01 0.01 0.05 0.08 0.12 0.13 0.19 0.21 0.33 0.13 0.26 0.19 0.21 0.19 0.16 0.15 0.32 0.34 0.41 0.47 0.44 0.57 0.44 0.47 0.50 0.54 0.47 0.38 0.43 0.48
0.02 0.01 0.04 0.09 0.12 0.17 0.12 0.28 0.05 0.07 0.14 0.23 0.18 0.17 0.10 0.08 0.07 0.06 0.03 0.05 0.06 0.05 0.08 0.09 0.13 0.25 0.27 0.26 0.20 0.34 0.29 0.20 0.18 0.20 0.22 0.30 0.37 0.30 0.44 0.50 0.60 0.49 0.46 0.50 0.53 0.59 0.58 0.63 0.54
0.06 0.06 0.20 0.22 0.17 0.24 0.03 0.18 0.11 0.17 0.44 0.45 0.49 0.26 0.14 0.13 0.18 0.16 0.14 0.14 0.12 0.11 0.23 0.12 0.13 0.13 0.29 0.34 0.38 0.46 0.60 0.43 0.26 0.18 0.12 0.14 0.24 0.23 0.34 0.59 0.60 0.61 0.57 0.68 0.63 0.68 0.76 0.80 0.83
0.06 0.16 0.37 0.52 0.43 0.16 0.09 0.15 0.17 0.27 0.31 0.61 0.77 0.46 0.19 0.20 0.17 0.16 0.21 0.31 0.29 0.27 0.34 0.18 0.10 0.16 0.23 0.41 0.54 0.57 1.05 1.20 1.09 0.66 0.28 0.21 0.19 0.13 0.17 0.36 0.51 0.53 0.71 0.77 0.96 0.97 0.90 1.07 1.08
0.06 0.15 0.32 0.70 0.53 0.27 0.19 0.24 0.42 0.38 0.52 0.45 0.31 0.64 0.26 0.25 0.24 0.28 0.60 0.42 0.35 0.47 0.54 0.35 0.18 0.25 0.30 0.46 0.70 0.71 0.76 1.02 1.70 1.72 1.50 1.09 0.44 0.25 0.21 0.36 0.60 0.71 0.83 0.81 0.94 1.17 1.26 1.32 1.48
0.03 0.08 0.11 0.53 0.52 0.72 0.61 0.67 0.76 0.32 0.58 0.92 0.73 0.45 0.41 0.26 0.31 0.46 0.54 0.30 0.29 0.94 1.13 0.60 0.41 0.30 0.33 0.42 0.57 0.57 0.86 1.24 1.47 1.58 1.82 1.72 1.69 1.00 0.63 0.71 0.74 0.84 0.92 1.11 1.15 1.17 1.07 0.96 0.89
0.03 0.09 0.42 0.84 1.05 0.78 0.43 0.78 1.27 1.24 1.33 1.43 1.20 0.83 0.67 0.45 0.39 0.45 0.72 0.28 0.29 1.10 0.85 0.52 0.57 0.60 0.52 0.36 0.37 0.45 0.61 0.87 1.21 1.41 2.11 1.56 1.30 1.65 1.28 1.04 0.95 0.75 0.81 1.01 0.90 0.82 0.84 1.02 0.95
0.02 0.13 0.39 0.59 0.35 0.93 1.03 1.33 1.42 1.87 1.69 1.31 1.48 1.39 0.84 0.69 0.79 0.52 0.65 0.40 0.27 0.56 0.84 0.66 0.52 0.64 0.73 0.84 0.83 0.60 0.78 0.89 1.25 1.24 1.57 1.91 1.20 1.04 1.08 0.92 0.82 0.63 0.70 0.94 0.89 0.80 0.76 0.80 1.01
0.03 0.05 0.19 0.66 0.67 0.94 1.50 1.87 2.13 1.51 0.85 0.74 0.96 1.41 1.13 0.77 1.13 0.82 0.63 0.58 0.44 0.32 0.38 0.65 0.68 0.65 0.92 1.52 1.71 1.22 1.32 1.31 1.26 1.29 1.20 1.21 1.30 1.28 1.00 0.72 0.60 0.57 0.57 0.79 0.97 0.93 0.84 0.81 0.76

GFSSGP_prec_precacc_129.txt.gz
Total_Precipitation_Accumulation
0.00 0.00 0.00 0.00 0.00 0.00 0.00 0.00 0.00 0.11 0.09 0.06 0.13 0.18 0.23 0.35 0.63 0.80 0.65 1.13 1.14 1.14 0.93 2.08 2.07 1.74 1.16 0.62 0.30 0.19 0.11 0.05 0.05 0.07 0.12 0.20 0.17 0.25 0.13 0.03 0.04 0.17 0.36 0.35 0.24 0.23 0.24 0.23 0.11
0.00 0.00 0.00 0.00 0.00 0.00 0.00 0.00 0.02 0.09 0.16 0.24 0.26 0.18 0.17 0.55 0.47 0.50 0.66 0.71 0.64 0.56 0.60 0.89 1.79 1.96 1.60 1.35 1.02 0.72 0.42 0.11 0.05 0.06 0.17 0.38 0.43 0.43 0.43 0.36 0.20 0.26 0.44 0.56 0.42 0.40 0.30 0.18 0.06
0.00 0.00 0.00 0.00 0.00 0.00 0.00 0.02 0.04 0.08 0.16 0.15 0.09 0.08 0.31 1.03 0.77 0.70 0.53 0.92 1.01 0.67 0.86 0.73 1.16 1.44 1.70 1.92 2.21 1.84 1.26 0.66 0.35 0.42 0.66 0.82 0.99 1.04 0.90 0.83 0.73 0.75 0.84 0.84 0.85 0.71 0.38 0.10 0.04
0.00 0.00 0.00 0.00 0.00 0.00 0.00 0.01 0.10 0.03 0.09 0.11 0.07 0.12 0.43 0.55 0.63 0.51 0.48 0.86 1.45 1.35 1.55 1.23 1.85 2.82 2.37 2.47 2.89 2.45 1.96 1.96 1.59 1.36 0.92 0.67 0.57 0.64 0.73 1.03 1.47 1.69 1.66 1.26 1.30 1.18 0.49 0.20 0.13
0.00 0.00 0.00 0.00 0.00 0.00 0.00 0.00 0.01 0.06 0.14 0.14 0.12 0.07 0.74 0.69 0.42 0.66 1.14 1.60 2.09 2.06 2.45 1.44 1.70 2.04 2.42 3.12 2.95 2.70 2.57 2.06 1.84 1.77 1.60 0.98 0.68 0.50 0.51 0.58 0.93 1.66 3.06 2.48 1.44 0.97 0.50 0.38 0.40
0.00 0.00 0.00 0.00 0.00 0.00 0.02 0.02 0.06 0.19 0.28 0.29 0.19 0.31 0.71 0.44 0.52 0.81 2.00 2.48 3.22 3.16 3.45 2.49 2.37 2.59 1.97 1.87 3.64 3.09 3.04 2.51 1.62 1.22 1.82 1.13 0.78 0.66 0.57 0.56 0.48 0.51 0.90 1.39 1.36 1.49 0.87 0.46 0.36
0.00 0.00 0.00 0.00 0.00 0.00 0.02 0.10 0.33 0.58 0.31 0.13 0.10 0.51 0.99 0.79 0.56 0.66 1.63 3.73 5.19 6.82 7.53 6.08 3.85 3.32 3.56 2.42 2.36 3.31 3.30 2.77 1.74 1.34 1.10 1.21 0.88 0.76 0.65 0.49 0.41 0.33 0.33 0.49 0.53 0.65 0.66 0.55 0.39
0.00 0.00 0.00 0.00 0.00 0.02 0.08 0.18 0.24 0.28 0.45 0.39 0.14 0.69 1.00 0.63 0.56 0.86 1.20 2.92 4.49 9.09 9.74 7.11 5.14 3.17 1.75 2.48 2.23 2.23 3.05 3.65 2.35 1.86 1.64 1.27 1.13 0.90 0.55 0.39 0.45 0.62 0.57 0.40 0.29 0.41 0.48 0.45 0.32
0.00 0.00 0.00 0.00 0.01 0.04 0.10 0.14 0.33 0.26 0.22 0.31 0.21 0.48 0.64 0.77 0.77 0.82 1.07 1.95 3.72 5.13 5.31 6.64 6.40 3.97 2.72 2.47 2.35 1.79 1.70 2.68 3.59 2.42 1.90 1.60 0.86 0.80 0.56 0.53 0.53 0.59 0.61 0.62 0.54 0.48 0.41 0.36 0.31
0.00 0.00 0.00 0.00 0.01 0.08 0.27 0.30 0.29 0.16 0.34 0.23 0.37 0.52 0.80 0.81 0.65 0.60 0.93 1.29 2.06 2.41 3.31 2.92 3.25 3.01 2.31 2.98 3.04 1.70 1.38 1.16 2.63 2.88 2.05 1.44 0.89 0.81 0.74 0.50 0.53 0.61 0.52 0.65 0.66 0.68 0.52 0.39 0.21
0.00 0.00 0.00 0.00 0.01 0.08 0.10 0.06 0.12 0.07 0.26 0.43 0.81 0.78 0.91 0.76 0.54 0.31 0.40 0.83 0.88 0.94 1.06 1.24 1.51 1.46 1.47 1.95 1.58 1.46 1.24 1.05 1.34 2.51 1.96 1.23 0.86 0.78 1.00 0.49 0.47 0.85 0.75 0.68 0.58 0.44 0.37 0.34 0.29
0.00 0.00 0.00 0.00 0.00 0.01 0.01 0.09 0.18 0.18 0.75 0.41 0.48 0.42 0.55 0.33 0.24 0.27 0.30 0.33 0.35 0.55 0.76 1.01 0.80 1.00 1.15 1.39 1.39 0.98 0.94 0.92 0.93 1.72 1.79 1.21 0.81 0.52 0.63 0.31 0.40 0.94 0.89 0.57 0.34 0.21 0.24 0.32 0.38
0.00 0.00 0.00 0.00 0.03 0.02 0.07 0.04 0.08 0.65 0.29 0.16 0.19 0.20 0.23 0.16 0.12 0.13 0.13 0.15 0.19 0.41 0.70 0.96 0.77 0.80 0.83 0.68 0.79 0.73 0.61 0.85 0.76 0.85 1.46 1.18 0.70 0.37 0.38 0.36 0.37 0.75 0.72 0.77 0.38 0.21 0.26 0.29 0.35
0.00 0.00 0.00 0.00 0.02 0.02 0.04 0.07 0.11 0.65 0.30 0.05 0.06 0.07 0.06 0.06 0.04 0.04 0.03 0.03 0.15 0.40 0.62 1.00 1.21 0.86 0.88 0.65 0.61 0.59 0.54 0.64 0.83 0.73 1.00 1.34 0.73 0.43 0.43 0.40 0.32 0.49 0.54 0.62 0.51 0.20 0.26 0.29 0.25
0.00 0.00 0.00 0.00 0.01 0.02 0.04 0.10 0.17 0.40 0.14 0.05 0.00 0.01 0.05 0.09 0.04 0.01 0.00 0.01 0.03 0.15 0.29 1.14 1.62 1.19 1.05 0.62 0.67 0.66 0.70 0.63 0.71 0.78 0.99 1.16 0.80 0.56 0.44 0.45 0.34 0.32 0.38 0.35 0.47 0.41 0.36 0.31 0.29
0.00 0.00 0.00 0.02 0.00 0.02 0.04 0.48 0.14 0.06 0.07 0.06 0.00 0.00 0.03 0.05 0.02 0.01 0.00 0.01 0.01 0.03 0.25 1.32 1.42 0.99 1.08 0.84 0.95 1.34 0.75 0.51 0.64 0.68 0.76 0.88 0.88 0.65 0.58 0.48 0.36 0.40 0.35 0.22 0.32 0.23 0.30 0.35 0.29
0.00 0.00 0.00 0.00 0.00 0.01 0.02 0.19 0.15 0.05 0.06 0.08 0.01 0.00 0.00 0.00 0.02 0.00 0.02 0.02 0.02 0.04 0.31 0.89 0.98 0.99 1.33 1.64 1.71 1.23 0.67 0.45 0.67 0.55 0.55 0.73 1.01 0.67 0.59 0.54 0.40 0.44 0.42 0.23 0.19 0.13 0.17 0.27 0.30
0.00 0.00 0.00 0.00 0.00 0.00 0.00 0.02 0.15 0.05 0.06 0.06 0.02 0.00 0.01 0.00 0.00 0.02 0.08 0.06 0.03 0.07 0.47 0.76 0.84 1.33 1.82 1.57 0.78 0.47 0.51 0.52 0.64 0.53 0.50 0.62 1.13 0.78 0.65 0.70 0.57 0.52 0.42 0.32 0.21 0.14 0.17 0.20 0.21
0.01 0.01 0.03 0.01 0.00 0.00 0.00 0.01 0.02 0.03 0.04 0.04 0.02 0.01 0.01 0.00 0.01 0.05 0.08 0.11 0.12 0.20 0.56 0.70 0.86 0.73 0.54 0.42 0.41 0.38 0.41 0.33 0.37 0.34 0.51 0.56 0.82 0.93 0.69 0.71 0.66 0.56 0.35 0.21 0.15 0.15 0.18 0.27 0.26
0.05 0.09 0.04 0.01 0.01 0.06 0.04 0.01 0.00 0.01 0.17 0.03 0.01 0.01 0.00 0.00 0.00 0.01 0.02 0.08 0.22 0.43 0.48 0.41 0.33 0.20 0.20 0.17 0.28 0.34 0.37 0.30 0.25 0.31 0.41 0.90 0.80 0.76 0.70 0.73 0.57 0.45 0.42 0.41 0.28 0.15 0.13 0.24 0.32
0.02 0.02 0.00 0.01 0.05 0.17 0.11 0.03 0.00 0.00 0.02 0.05 0.03 0.03 0.01 0.01 0.04 0.06 0.09 0.12 0.12 0.10 0.06 0.09 0.15 0.10 0.21 0.23 0.23 0.28 0.41 0.48 0.41 0.38 0.41 0.69 0.62 0.59 0.54 0.69 0.68 0.50 0.49 0.52 0.44 0.25 0.15 0.20 0.30
0.06 0.02 0.01 0.02 0.17 0.20 0.18 0.15 0.02 0.01 0.00 0.08 0.02 0.04 0.04 0.05 0.05 0.03 0.01 0.01 0.01 0.05 0.08 0.12 0.13 0.19 0.21 0.33 0.13 0.26 0.19 0.21 0.21 0.26 0.28 0.50 0.55 0.47 0.47 0.44 0.57 0.44 0.48 0.50 0.54 0.47 0.38 0.43 0.48
0.02 0.01 0.04 0.09 0.12 0.17 0.12 0.28 0.05 0.07 0.14 0.23 0.18 0.17 0.10 0.08 0.07 0.06 0.03 0.05 0.06 0.05 0.08 0.09 0.13 0.25 0.27 0.26 0.20 0.34 0.29 0.20 0.18 0.26 0.35 0.46 0.59 0.42 0.46 0.50 0.60 0.50 0.46 0.50 0.53 0.59 0.58 0.63 0.54
0.06 0.06 0.20 0.22 0.17 0.24 0.03 0.18 0.11 0.17 0.45 0.45 0.49 0.26 0.14 0.13 0.18 0.16 0.14 0.14 0.12 0.11 0.23 0.12 0.13 0.13 0.29 0.34 0.38 0.47 0.60 0.43 0.26 0.21 0.23 0.34 0.52 0.39 0.38 0.60 0.60 0.61 0.58 0.68 0.63 0.68 0.76 0.81 0.83
0.06 0.16 0.37 0.52 0.43 0.16 0.09 0.15 0.17 0.27 0.31 0.61 0.77 0.46 0.19 0.20 0.17 0.16 0.21 0.32 0.29 0.28 0.35 0.18 0.10 0.16 0.23 0.41 0.54 0.58 1.05 1.20 1.10 0.69 0.39 0.50 0.57 0.41 0.27 0.36 0.51 0.54 0.71 0.77 0.97 0.98 0.90 1.07 1.08
0.06 0.15 0.32 0.70 0.53 0.27 0.19 0.24 0.42 0.38 0.52 0.45 0.31 0.64 0.26 0.25 0.24 0.28 0.61 0.43 0.38 0.50 0.56 0.37 0.20 0.26 0.30 0.46 0.71 0.72 0.77 1.02 1.72 1.86 1.89 1.51 1.04 0.79 0.47 0.44 0.66 0.72 0.83 0.82 0.95 1.18 1.27 1.33 1.49
0.03 0.08 0.11 0.53 0.52 0.72 0.61 0.68 0.77 0.32 0.58 0.92 0.73 0.45 0.41 0.26 0.31 0.46 0.55 0.32 0.31 1.00 1.19 0.62 0.45 0.33 0.34 0.43 0.59 0.62 0.90 1.25 1.52 2.00 2.25 3.00 2.83 2.08 1.51 0.96 0.86 0.85 0.93 1.13 1.21 1.20 1.10 1.00 0.91
0.03 0.09 0.42 0.84 1.06 0.79 0.43 0.79 1.28 1.24 1.33 1.43 1.20 0.83 0.67 0.45 0.39 0.45 0.73 0.31 0.32 1.23 1.01 0.65 0.69 0.79 0.65 0.42 0.44 0.55 0.70 0.90 1.28 1.58 2.48 2.71 3.08 3.37 2.77 1.51 1.19 0.96 0.97 1.12 0.97 0.85 0.88 1.06 0.99
0.02 0.13 0.39 0.60 0.35 0.93 1.04 1.34 1.42 1.87 1.69 1.31 1.48 1.39 0.84 0.69 0.79 0.52 0.66 0.46 0.34 0.65 1.06 1.07 0.76 1.13 1.24 1.08 1.02 0.75 0.89 0.93 1.32 1.46 1.79 2.40 2.25 2.32 2.87 1.95 1.27 0.95 0.99 1.17 1.10 0.94 0.85 0.84 1.05
0.03 0.05 0.19 0.67 0.67 0.95 1.50 1.87 2.13 1.51 0.85 0.74 0.96 1.41 1.13 0.77 1.13 0.84 0.66 0.62 0.60 0.47 0.55 1.18 1.25 1.47 1.58 2.17 2.25 1.42 1.37 1.36 1.38 1.51 1.55 1.55 1.79 2.01 1.76 1.36 1.45 1.39 0.94 0.95 1.09 1.01 0.96 0.97 0.94

GFSSGP_prec_precacc_135.txt.gz
Total_Precipitation_Accumulation
0.00 0.00 0.00 0.00 0.00 0.00 0.00 0.00 0.00 0.11 0.09 0.06 0.13 0.18 0.23 0.35 0.63 0.80 0.65 1.13 1.14 1.14 0.93 2.08 2.07 1.74 1.16 0.62 0.30 0.19 0.11 0.05 0.05 0.07 0.12 0.20 0.17 0.25 0.13 0.03 0.04 0.17 0.37 0.35 0.25 0.25 0.26 0.24 0.11
0.00 0.00 0.00 0.00 0.00 0.00 0.00 0.00 0.02 0.09 0.16 0.24 0.26 0.18 0.17 0.55 0.47 0.50 0.66 0.71 0.64 0.56 0.60 0.89 1.80 1.96 1.60 1.35 1.02 0.72 0.42 0.11 0.05 0.06 0.17 0.38 0.43 0.43 0.43 0.36 0.20 0.26 0.45 0.57 0.42 0.42 0.33 0.20 0.06
0.00 0.00 0.00 0.00 0.00 0.00 0.00 0.02 0.04 0.08 0.16 0.15 0.09 0.08 0.31 1.03 0.77 0.70 0.53 0.92 1.01 0.67 0.86 0.73 1.17 1.45 1.70 1.92 2.21 1.84 1.26 0.66 0.35 0.42 0.66 0.82 0.99 1.04 0.90 0.83 0.73 0.75 0.85 0.84 0.85 0.71 0.39 0.10 0.04
0.00 0.00 0.00 0.00 0.00 0.00 0.00 0.01 0.10 0.03 0.09 0.11 0.07 0.12 0.43 0.55 0.63 0.51 0.48 0.86 1.45 1.35 1.55 1.23 1.85 2.82 2.37 2.47 2.89 2.45 1.96 1.96 1.59 1.36 0.92 0.67 0.57 0.64 0.73 1.03 1.47 1.69 1.68 1.27 1.30 1.18 0.49 0.20 0.13
0.00 0.00 0.00 0.00 0.00 0.00 0.00 0.00 0.01 0.06 0.14 0.14 0.12 0.07 0.74 0.69 0.42 0.66 1.14 1.60 2.09 2.06 2.45 1.44 1.71 2.05 2.42 3.12 2.95 2.70 2.57 2.06 1.84 1.77 1.60 0.98 0.68 0.50 0.51 0.58 0.93 1.66 3.07 2.48 1.44 0.97 0.50 0.38 0.40
0.00 0.00 0.00 0.00 0.00 0.00 0.02 0.02 0.06 0.19 0.28 0.29 0.19 0.31 0.71 0.44 0.52 0.81 2.00 2.48 3.22 3.16 3.45 2.49 2.37 2.59 1.97 1.87 3.64 3.09 3.04 2.51 1.62 1.22 1.82 1.13 0.78 0.66 0.57 0.56 0.48 0.51 0.90 1.39 1.36 1.49 0.87 0.46 0.36
0.00 0.00 0.00 0.00 0.00 0.00 0.02 0.10 0.33 0.58 0.31 0.13 0.10 0.51 0.99 0.79 0.56 0.66 1.63 3.73 5.19 6.82 7.53 6.08 3.85 3.32 3.56 2.42 2.36 3.31 3.30 2.77 1.74 1.34 1.10 1.21 0.88 0.76 0.65 0.49 0.41 0.33 0.33 0.49 0.53 0.65 0.66 0.55 0.39
0.00 0.00 0.00 0.00 0.00 0.02 0.08 0.18 0.24 0.28 0.45 0.39 0.14 0.69 1.00 0.63 0.56 0.86 1.20 2.92 4.49 9.09 9.74 7.11 5.14 3.17 1.75 2.48 2.23 2.24 3.05 3.65 2.35 1.86 1.64 1.27 1.13 0.90 0.55 0.39 0.45 0.62 0.57 0.40 0.29 0.41 0.48 0.45 0.32
0.00 0.00 0.00 0.00 0.01 0.04 0.10 0.14 0.33 0.26 0.22 0.31 0.21 0.48 0.64 0.77 0.77 0.82 1.07 1.95 3.72 5.13 5.31 6.64 6.40 3.97 2.72 2.47 2.35 1.80 1.70 2.69 3.62 2.44 1.90 1.60 0.86 0.80 0.56 0.53 0.53 0.59 0.61 0.62 0.54 0.48 0.41 0.36 0.31
0.00 0.00 0.00 0.00 0.01 0.08 0.27 0.30 0.29 0.16 0.34 0.23 0.37 0.52 0.80 0.81 0.65 0.60 0.93 1.29 2.06 2.41 3.31 2.92 3.25 3.02 2.32 2.98 3.04 1.71 1.39 1.17 2.63 2.89 2.06 1.44 0.89 0.81 0.74 0.50 0.53 0.61 0.52 0.65 0.66 0.68 0.52 0.39 0.21
0.00 0.00 0.00 0.00 0.01 0.08 0.10 0.06 0.12 0.07 0.26 0.43 0.81 0.78 0.91 0.76 0.54 0.31 0.40 0.83 0.88 0.94 1.06 1.24 1.51 1.46 1.49 1.99 1.60 1.49 1.27 1.07 1.35 2.52 1.97 1.24 0.86 0.78 1.00 0.49 0.47 0.85 0.75 0.68 0.58 0.44 0.37 0.34 0.29
0.00 0.00 0.00 0.00 0.00 0.01 0.01 0.09 0.18 0.18 0.75 0.41 0.48 0.42 0.55 0.33 0.24 0.27 0.30 0.33 0.35 0.55 0.76 1.01 0.80 1.00 1.16 1.41 1.42 1.09 1.10 1.01 0.95 1.79 1.83 1.23 0.82 0.52 0.63 0.31 0.40 0.94 0.89 0.57 0.34 0.21 0.24 0.32 0.38
0.00 0.00 0.00 0.00 0.03 0.02 0.07 0.04 0.08 0.65 0.29 0.16 0.19 0.20 0.23 0.16 0.12 0.13 0.13 0.15 0.19 0.41 0.70 0.96 0.77 0.80 0.83 0.68 0.80 0.77 0.71 0.93 0.88 0.96 1.56 1.31 0.74 0.37 0.38 0.36 0.37 0.75 0.72 0.77 0.38 0.21 0.26 0.29 0.35
0.00 0.00 0.00 0.00 0.02 0.02 0.04 0.07 0.11 0.65 0.30 0.05 0.06 0.07 0.06 0.06 0.04 0.04 0.03 0.03 0.15 0.40 0.62 1.00 1.21 0.86 0.88 0.65 0.61 0.60 0.55 0.78 1.04 0.86 1.10 1.56 0.91 0.47 0.44 0.40 0.32 0.49 0.54 0.62 0.51 0.20 0.26 0.29 0.25
0.00 0.00 0.00 0.00 0.01 0.02 0.04 0.10 0.17 0.40 0.14 0.05 0.00 0.01 0.05 0.09 0.04 0.01 0.00 0.01 0.03 0.15 0.29 1.14 1.62 1.19 1.05 0.62 0.67 0.66 0.70 0.68 0.80 0.93 1.22 1.33 1.03 0.73 0.52 0.46 0.34 0.32 0.38 0.35 0.47 0.41 0.36 0.31 0.29
0.00 0.00 0.00 0.02 0.00 0.02 0.04 0.48 0.14 0.06 0.07 0.06 0.00 0.00 0.03 0.05 0.02 0.01 0.00 0.01 0.01 0.03 0.25 1.32 1.42 0.99 1.08 0.84 0.95 1.34 0.75 0.51 0.66 0.78 0.92 1.05 1.08 0.86 0.77 0.57 0.36 0.40 0.35 0.22 0.32 0.23 0.30 0.35 0.30
0.00 0.00 0.00 0.00 0.00 0.01 0.02 0.19 0.15 0.05 0.06 0.08 0.01 0.00 0.00 0.00 0.02 0.00 0.02 0.02 0.02 0.04 0.31 0.89 0.98 0.99 1.33 1.64 1.71 1.23 0.67 0.45 0.69 0.65 0.67 0.87 1.23 0.93 0.81 0.72 0.45 0.46 0.44 0.24 0.20 0.13 0.17 0.27 0.31
0.00 0.00 0.00 0.00 0.00 0.00 0.00 0.02 0.15 0.05 0.06 0.06 0.02 0.00 0.01 0.00 0.00 0.02 0.08 0.06 0.03 0.07 0.47 0.76 0.84 1.33 1.82 1.57 0.78 0.47 0.51 0.52 0.64 0.56 0.60 0.78 1.40 1.13 0.96 0.94 0.75 0.60 0.47 0.35 0.24 0.18 0.19 0.20 0.21
0.01 0.01 0.03 0.01 0.00 0.00 0.00 0.01 0.02 0.03 0.04 0.04 0.02 0.01 0.01 0.00 0.01 0.05 0.08 0.11 0.12 0.20 0.56 0.70 0.86 0.73 0.54 0.42 0.41 0.38 0.41 0.33 0.38 0.37 0.55 0.72 1.14 1.32 1.08 1.07 0.94 0.70 0.40 0.23 0.20 0.22 0.22 0.28 0.28
0.05 0.09 0.04 0.01 0.01 0.06 0.04 0.01 0.00 0.01 0.17 0.03 0.01 0.01 0.00 0.00 0.00 0.01 0.02 0.08 0.22 0.43 0.48 0.41 0.33 0.20 0.20 0.17 0.28 0.34 0.37 0.30 0.25 0.32 0.43 1.00 1.07 1.14 1.10 1.10 0.92 0.67 0.49 0.47 0.36 0.19 0.16 0.26 0.36
0.02 0.02 0.00 0.01 0.05 0.17 0.11 0.03 0.00 0.00 0.02 0.05 0.03 0.03 0.01 0.01 0.04 0.06 0.09 0.12 0.12 0.10 0.06 0.09 0.15 0.10 0.21 0.23 0.23 0.28 0.41 0.48 0.41 0.38 0.41 0.73 0.79 0.89 0.87 1.08 1.03 0.94 0.81 0.62 0.48 0.29 0.18 0.22 0.33
0.06 0.02 0.01 0.02 0.17 0.20 0.18 0.15 0.02 0.01 0.00 0.08 0.02 0.04 0.04 0.05 0.05 0.03 0.01 0.01 0.01 0.05 0.08 0.12 0.13 0.19 0.21 0.33 0.14 0.26 0.19 0.21 0.21 0.26 0.28 0.51 0.64 0.70 0.75 0.73 1.08 0.94 1.02 0.68 0.61 0.53 0.44 0.49 0.51
0.02 0.01 0.04 0.09 0.12 0.17 0.12 0.28 0.05 0.07 0.14 0.23 0.18 0.17 0.10 0.08 0.07 0.06 0.03 0.05 0.06 0.05 0.08 0.09 0.13 0.25 0.27 0.26 0.20 0.34 0.29 0.21 0.18 0.26 0.35 0.46 0.62 0.57 0.77 0.90 0.89 1.15 1.39 1.13 0.71 0.70 0.66 0.67 0.57
0.06 0.06 0.20 0.22 0.17 0.24 0.03 0.18 0.11 0.17 0.45 0.45 0.49 0.26 0.14 0.13 0.18 0.16 0.14 0.14 0.12 0.11 0.23 0.12 0.13 0.13 0.29 0.35 0.39 0.48 0.62 0.45 0.27 0.21 0.23 0.34 0.53 0.48 0.71 1.08 1.29 1.20 1.25 1.55 1.02 0.83 0.89 0.88 0.89
0.06 0.16 0.37 0.52 0.43 0.16 0.09 0.15 0.17 0.27 0.31 0.61 0.77 0.46 0.19 0.20 0.17 0.16 0.21 0.32 0.29 0.28 0.35 0.18 0.10 0.16 0.23 0.41 0.54 0.58 1.07 1.23 1.13 0.71 0.40 0.50 0.58 0.46 0.49 0.85 1.32 1.48 1.45 1.58 1.75 1.36 1.07 1.18 1.14
0.06 0.15 0.32 0.70 0.53 0.27 0.19 0.24 0.42 0.38 0.52 0.45 0.31 0.64 0.26 0.25 0.24 0.28 0.61 0.43 0.38 0.50 0.57 0.39 0.21 0.28 0.31 0.46 0.72 0.73 0.78 1.04 1.75 1.89 1.91 1.52 1.05 0.82 0.77 0.96 1.22 1.46 1.44 1.47 1.62 1.78 1.51 1.44 1.55
0.03 0.08 0.11 0.53 0.52 0.72 0.61 0.68 0.77 0.32 0.58 0.92 0.73 0.45 0.41 0.26 0.31 0.46 0.55 0.32 0.31 1.01 1.23 0.70 0.52 0.36 0.37 0.45 0.61 0.63 0.90 1.26 1.55 2.03 2.29 3.02 2.84 2.10 1.72 1.66 1.49 1.42 1.47 1.68 1.78 1.74 1.55 1.14 0.98
0.03 0.09 0.43 0.85 1.06 0.79 0.43 0.79 1.28 1.24 1.33 1.43 1.20 0.83 0.67 0.45 0.39 0.45 0.73 0.31 0.32 1.25 1.06 0.69 0.73 0.83 0.69 0.46 0.48 0.59 0.71 0.92 1.32 1.61 2.53 2.74 3.12 3.41 2.96 2.47 2.17 1.88 1.86 1.78 1.44 1.32 1.42 1.35 1.12
0.02 0.13 0.39 0.61 0.36 0.94 1.04 1.34 1.42 1.87 1.69 1.31 1.48 1.39 0.84 0.69 0.79 0.52 0.66 0.46 0.34 0.66 1.08 1.10 0.89 1.28 1.36 1.20 1.11 0.82 1.06 1.03 1.40 1.54 1.88 2.48 2.30 2.37 3.20 3.19 2.61 2.33 1.93 1.90 1.79 1.44 1.16 1.06 1.19
0.03 0.05 0.19 0.72 0.68 0.95 1.51 1.88 2.13 1.51 0.85 0.74 0.96 1.41 1.13 0.77 1.13 0.84 0.66 0.62 0.60 0.47 0.60 1.23 1.35 1.70 2.01 2.56 2.51 1.64 1.73 1.72 1.58 1.73 1.73 1.67 1.87 2.15 2.07 2.34 2.70 2.30 2.19 1.95 1.89 1.76 1.70 1.53 1.29

GFSSGP_prec_precacc_138.txt.gz
Total_Precipitation_Accumulation
0.00 0.00 0.00 0.00 0.00 0.00 0.00 0.00 0.00 0.11 0.09 0.06 0.13 0.18 0.23 0.35 0.63 0.80 0.65 1.13 1.14 1.14 0.93 2.08 2.07 1.74 1.16 0.62 0.30 0.19 0.11 0.05 0.05 0.07 0.12 0.20 0.17 0.25 0.13 0.03 0.04 0.17 0.37 0.35 0.25 0.25 0.26 0.24 0.11
0.00 0.00 0.00 0.00 0.00 0.00 0.00 0.00 0.02 0.09 0.16 0.24 0.26 0.18 0.17 0.55 0.47 0.50 0.66 0.71 0.64 0.56 0.60 0.89 1.80 1.96 1.60 1.35 1.02 0.72 0.42 0.11 0.05 0.06 0.17 0.38 0.43 0.43 0.43 0.36 0.21 0.26 0.45 0.57 0.42 0.42 0.33 0.20 0.06
0.00 0.00 0.00 0.00 0.00 0.00 0.00 0.02 0.04 0.08 0.16 0.15 0.09 0.08 0.31 1.03 0.77 0.70 0.53 0.92 1.01 0.67 0.86 0.73 1.17 1.45 1.70 1.92 2.21 1.84 1.26 0.66 0.35 0.42 0.66 0.82 0.99 1.04 0.90 0.83 0.73 0.75 0.86 0.85 0.85 0.71 0.39 0.10 0.04
0.00 0.00 0.00 0.00 0.00 0.00 0.00 0.01 0.10 0.03 0.09 0.11 0.07 0.12 0.43 0.55 0.63 0.51 0.48 0.86 1.45 1.35 1.55 1.23 1.85 2.82 2.37 2.47 2.89 2.45 1.96 1.96 1.59 1.36 0.92 0.67 0.57 0.64 0.73 1.03 1.48 1.71 1.70 1.28 1.31 1.19 0.49 0.20 0.13
0.00 0.00 0.00 0.00 0.00 0.00 0.00 0.00 0.01 0.06 0.14 0.14 0.12 0.07 0.74 0.69 0.42 0.66 1.14 1.60 2.09 2.06 2.45 1.44 1.71 2.05 2.42 3.12 2.95 2.71 2.59 2.07 1.84 1.77 1.60 0.98 0.68 0.50 0.51 0.58 0.98 1.71 3.10 2.50 1.48 0.99 0.50 0.38 0.40
0.00 0.00 0.00 0.00 0.00 0.00 0.02 0.02 0.06 0.19 0.28 0.29 0.19 0.31 0.71 0.44 0.52 0.81 2.00 2.48 3.22 3.16 3.45 2.49 2.37 2.59 1.97 1.87 3.64 3.09 3.08 2.57 1.64 1.22 1.82 1.13 0.78 0.66 0.57 0.56 0.50 0.55 0.93 1.40 1.37 1.49 0.87 0.46 0.36
0.00 0.00 0.00 0.00 0.00 0.00 0.02 0.10 0.33 0.58 0.31 0.13 0.10 0.51 0.99 0.79 0.56 0.66 1.63 3.73 5.19 6.82 7.53 6.08 3.85 3.32 3.56 2.42 2.36 3.32 3.31 2.79 1.80 1.37 1.10 1.21 0.88 0.76 0.65 0.49 0.42 0.36 0.36 0.50 0.53 0.65 0.66 0.55 0.39
0.00 0.00 0.00 0.00 0.00 0.02 0.08 0.18 0.24 0.28 0.45 0.39 0.14 0.69 1.00 0.63 0.56 0.86 1.20 2.92 4.49 9.09 9.74 7.11 5.14 3.17 1.75 2.48 2.23 2.24 3.06 3.66 2.38 1.91 1.68 1.31 1.13 0.90 0.55 0.39 0.46 0.62 0.58 0.40 0.29 0.41 0.48 0.45 0.32
0.00 0.00 0.00 0.00 0.01 0.04 0.10 0.14 0.33 0.26 0.22 0.31 0.21 0.48 0.64 0.77 0.77 0.82 1.07 1.95 3.72 5.13 5.31 6.64 6.40 3.97 2.72 2.47 2.35 1.80 1.70 2.69 3.63 2.47 2.02 1.71 0.91 0.82 0.56 0.53 0.53 0.59 0.62 0.62 0.54 0.48 0.41 0.36 0.31
0.00 0.00 0.00 0.00 0.01 0.08 0.27 0.30 0.29 0.16 0.34 0.23 0.37 0.52 0.80 0.81 0.65 0.60 0.93 1.29 2.06 2.41 3.31 2.92 3.25 3.02 2.32 2.98 3.04 1.71 1.39 1.17 2.63 2.92 2.11 1.53 0.97 0.85 0.79 0.51 0.53 0.62 0.53 0.65 0.66 0.68 0.52 0.39 0.21
0.00 0.00 0.00 0.00 0.01 0.08 0.10 0.06 0.12 0.07 0.26 0.43 0.81 0.78 0.91 0.76 0.54 0.31 0.40 0.83 0.88 0.94 1.06 1.24 1.51 1.46 1.49 1.99 1.60 1.49 1.27 1.07 1.35 2.54 2.03 1.31 0.91 0.85 1.05 0.52 0.48 0.87 0.78 0.69 0.58 0.44 0.37 0.34 0.29
0.00 0.00 0.00 0.00 0.00 0.01 0.01 0.09 0.18 0.18 0.75 0.41 0.48 0.42 0.55 0.33 0.24 0.27 0.30 0.33 0.35 0.55 0.76 1.01 0.80 1.00 1.16 1.41 1.42 1.09 1.10 1.01 0.95 1.79 1.84 1.26 0.89 0.57 0.67 0.34 0.42 0.95 0.90 0.58 0.34 0.21 0.24 0.32 0.38
0.00 0.00 0.00 0.00 0.03 0.02 0.07 0.04 0.08 0.65 0.29 0.16 0.19 0.20 0.23 0.16 0.12 0.13 0.13 0.15 0.19 0.41 0.70 0.96 0.77 0.80 0.83 0.68 0.80 0.77 0.71 0.93 0.88 0.96 1.56 1.33 0.80 0.42 0.44 0.41 0.41 0.77 0.73 0.77 0.38 0.21 0.26 0.29 0.35
0.00 0.00 0.00 0.00 0.02 0.02 0.04 0.07 0.11 0.65 0.30 0.05 0.06 0.07 0.06 0.06 0.04 0.04 0.03 0.03 0.15 0.40 0.62 1.00 1.21 0.86 0.88 0.65 0.61 0.60 0.55 0.78 1.04 0.86 1.10 1.56 0.95 0.56 0.59 0.52 0.40 0.54 0.56 0.64 0.51 0.20 0.26 0.29 0.25
0.00 0.00 0.00 0.00 0.01 0.02 0.04 0.10 0.17 0.40 0.14 0.05 0.00 0.01 0.05 0.09 0.04 0.01 0.00 0.01 0.03 0.15 0.29 1.14 1.62 1.19 1.05 0.62 0.67 0.66 0.70 0.68 0.80 0.93 1.22 1.34 1.04 0.76 0.63 0.65 0.50 0.39 0.41 0.37 0.48 0.42 0.36 0.32 0.29
0.00 0.00 0.00 0.02 0.00 0.02 0.04 0.48 0.14 0.06 0.07 0.06 0.00 0.00 0.03 0.05 0.02 0.01 0.00 0.01 0.01 0.03 0.25 1.32 1.42 0.99 1.08 0.84 0.95 1.34 0.75 0.51 0.66 0.78 0.92 1.05 1.08 0.87 0.80 0.70 0.55 0.53 0.42 0.25 0.35 0.24 0.31 0.36 0.30
0.00 0.00 0.00 0.00 0.00 0.01 0.02 0.19 0.15 0.05 0.06 0.08 0.01 0.00 0.00 0.00 0.02 0.00 0.02 0.02 0.02 0.04 0.31 0.89 0.98 0.99 1.33 1.64 1.71 1.23 0.67 0.45 0.69 0.65 0.67 0.87 1.23 0.93 0.81 0.75 0.56 0.63 0.59 0.29 0.22 0.15 0.19 0.28 0.31
0.00 0.00 0.00 0.00 0.00 0.00 0.00 0.02 0.15 0.05 0.06 0.06 0.02 0.00 0.01 0.00 0.00 0.02 0.08 0.06 0.03 0.07 0.47 0.76 0.84 1.33 1.82 1.57 0.78 0.47 0.51 0.52 0.64 0.56 0.60 0.78 1.40 1.13 0.96 0.96 0.87 0.78 0.59 0.43 0.28 0.21 0.24 0.22 0.23
0.01 0.01 0.03 0.01 0.00 0.00 0.00 0.01 0.02 0.03 0.04 0.04 0.02 0.01 0.01 0.00 0.01 0.05 0.08 0.11 0.12 0.20 0.56 0.70 0.86 0.73 0.54 0.42 0.41 0.38 0.41 0.33 0.38 0.37 0.55 0.72 1.14 1.32 1.08 1.08 1.04 0.98 0.78 0.51 0.25 0.26 0.27 0.31 0.33
0.05 0.09 0.04 0.01 0.01 0.06 0.04 0.01 0.00 0.01 0.17 0.03 0.01 0.01 0.00 0.00 0.00 0.01 0.02 0.08 0.22 0.43 0.48 0.41 0.33 0.20 0.20 0.17 0.28 0.34 0.37 0.30 0.25 0.32 0.43 1.00 1.07 1.14 1.10 1.10 0.93 0.86 1.02 1.12 0.72 0.25 0.17 0.29 0.45
0.02 0.02 0.00 0.01 0.05 0.17 0.11 0.03 0.00 0.00 0.02 0.05 0.03 0.03 0.01 0.01 0.04 0.06 0.09 0.12 0.12 0.10 0.06 0.09 0.15 0.10 0.21 0.23 0.23 0.28 0.41 0.48 0.41 0.38 0.41 0.73 0.79 0.89 0.87 1.08 1.04 0.98 1.16 1.31 1.08 0.46 0.21 0.24 0.39
0.06 0.02 0.01 0.02 0.17 0.20 0.18 0.15 0.02 0.01 0.00 0.08 0.02 0.04 0.04 0.05 0.05 0.03 0.01 0.01 0.01 0.05 0.08 0.12 0.13 0.19 0.21 0.33 0.14 0.26 0.20 0.21 0.22 0.26 0.28 0.51 0.64 0.70 0.75 0.73 1.08 0.95 1.20 1.44 1.36 1.12 0.64 0.61 0.58
0.02 0.01 0.04 0.09 0.12 0.17 0.12 0.28 0.05 0.07 0.14 0.23 0.18 0.17 0.10 0.08 0.07 0.06 0.03 0.05 0.06 0.05 0.08 0.09 0.13 0.25 0.27 0.26 0.20 0.35 0.30 0.21 0.19 0.26 0.35 0.46 0.62 0.57 0.77 0.90 0.89 1.15 1.40 1.48 1.54 1.68 1.28 0.88 0.71
0.06 0.06 0.20 0.22 0.17 0.24 0.03 0.18 0.11 0.17 0.45 0.45 0.49 0.26 0.14 0.13 0.18 0.16 0.14 0.14 0.12 0.11 0.23 0.12 0.13 0.13 0.29 0.35 0.39 0.48 0.62 0.46 0.28 0.22 0.24 0.34 0.53 0.48 0.71 1.08 1.29 1.20 1.25 1.61 1.58 1.73 1.66 1.37 1.12
0.06 0.16 0.37 0.52 0.43 0.16 0.09 0.15 0.17 0.27 0.31 0.61 0.77 0.46 0.19 0.20 0.17 0.16 0.21 0.32 0.29 0.28 0.35 0.18 0.10 0.16 0.23 0.41 0.54 0.59 1.08 1.24 1.14 0.72 0.42 0.51 0.59 0.46 0.49 0.85 1.32 1.48 1.46 1.58 1.84 1.80 1.95 1.82 1.49
0.06 0.15 0.32 0.70 0.53 0.27 0.19 0.24 0.42 0.38 0.52 0.45 0.31 0.64 0.26 0.25 0.24 0.28 0.61 0.43 0.38 0.50 0.57 0.39 0.22 0.28 0.31 0.46 0.72 0.73 0.79 1.05 1.76 1.90 1.93 1.54 1.07 0.83 0.77 0.96 1.22 1.46 1.44 1.47 1.62 1.99 2.07 2.18 2.30
0.03 0.08 0.11 0.53 0.52 0.72 0.61 0.68 0.77 0.32 0.58 0.92 0.73 0.45 0.41 0.26 0.31 0.46 0.55 0.32 0.31 1.01 1.23 0.70 0.52 0.36 0.37 0.45 0.61 0.64 0.91 1.26 1.56 2.03 2.31 3.04 2.87 2.13 1.73 1.67 1.49 1.42 1.47 1.68 1.79 1.77 1.76 1.62 1.48
0.03 0.09 0.43 0.86 1.12 0.81 0.43 0.79 1.28 1.24 1.33 1.43 1.20 0.83 0.67 0.45 0.39 0.45 0.73 0.31 0.32 1.25 1.06 0.69 0.73 0.83 0.69 0.47 0.49 0.60 0.73 0.94 1.35 1.63 2.54 2.77 3.16 3.46 3.00 2.49 2.17 1.88 1.86 1.78 1.44 1.33 1.45 1.67 1.51
0.02 0.13 0.39 0.62 0.36 0.95 1.04 1.34 1.42 1.87 1.69 1.31 1.48 1.39 0.84 0.69 0.79 0.52 0.66 0.46 0.34 0.66 1.08 1.10 0.89 1.28 1.36 1.21 1.13 0.85 1.09 1.07 1.42 1.56 1.93 2.56 2.40 2.46 3.25 3.22 2.62 2.33 1.93 1.90 1.79 1.44 1.22 1.28 1.69
0.03 0.05 0.20 0.75 0.74 1.01 1.54 1.89 2.13 1.51 0.85 0.74 0.96 1.41 1.13 0.77 1.13 0.84 0.66 0.62 0.60 0.47 0.60 1.23 1.35 1.70 2.01 2.58 2.54 1.68 1.77 1.76 1.61 1.77 1.78 1.77 1.96 2.21 2.12 2.36 2.70 2.30 2.19 1.96 1.89 1.76 1.72 1.68 1.56

GFSSGP_prec_precacc_141.txt.gz
Total_Precipitation_Accumulation
0.00 0.00 0.00 0.00 0.00 0.00 0.00 0.00 0.00 0.11 0.09 0.06 0.13 0.18 0.23 0.35 0.63 0.80 0.67 1.20 1.15 1.15 0.93 2.08 2.07 1.74 1.16 0.62 0.30 0.19 0.11 0.05 0.05 0.07 0.12 0.20 0.17 0.25 0.13 0.03 0.04 0.17 0.37 0.35 0.25 0.25 0.26 0.24 0.11
0.00 0.00 0.00 0.00 0.00 0.00 0.00 0.00 0.02 0.09 0.16 0.24 0.26 0.18 0.17 0.55 0.47 0.50 0.66 0.72 0.65 0.56 0.60 0.89 1.80 1.96 1.60 1.35 1.02 0.72 0.42 0.11 0.05 0.06 0.17 0.38 0.43 0.43 0.43 0.37 0.23 0.27 0.45 0.57 0.42 0.42 0.33 0.20 0.06
0.00 0.00 0.00 0.00 0.00 0.00 0.00 0.02 0.04 0.08 0.16 0.15 0.09 0.08 0.31 1.03 0.77 0.70 0.53 0.92 1.01 0.67 0.86 0.73 1.17 1.45 1.70 1.92 2.21 1.84 1.26 0.66 0.35 0.42 0.66 0.82 0.99 1.04 0.90 0.83 0.75 0.77 0.87 0.85 0.85 0.71 0.39 0.10 0.04
0.00 0.00 0.00 0.00 0.00 0.00 0.00 0.01 0.10 0.03 0.09 0.11 0.07 0.12 0.43 0.55 0.63 0.51 0.48 0.86 1.45 1.35 1.55 1.23 1.85 2.82 2.37 2.47 2.89 2.47 2.01 1.97 1.59 1.36 0.92 0.67 0.58 0.67 0.75 1.03 1.48 1.72 1.71 1.28 1.31 1.20 0.49 0.20 0.13
0.00 0.00 0.00 0.00 0.00 0.00 0.00 0.00 0.01 0.06 0.14 0.14 0.12 0.07 0.74 0.69 0.42 0.66 1.14 1.60 2.09 2.06 2.45 1.44 1.71 2.05 2.42 3.13 2.95 2.72 2.63 2.13 1.87 1.78 1.60 0.98 0.69 0.52 0.53 0.59 0.99 1.71 3.10 2.51 1.49 0.99 0.50 0.38 0.40
0.00 0.00 0.00 0.00 0.00 0.00 0.02 0.02 0.06 0.19 0.28 0.29 0.19 0.31 0.71 0.44 0.52 0.81 2.00 2.48 3.22 3.16 3.45 2.49 2.37 2.59 1.97 1.87 3.64 3.10 3.09 2.60 1.70 1.26 1.90 1.16 0.78 0.66 0.58 0.58 0.52 0.57 0.94 1.42 1.38 1.50 0.87 0.46 0.36
0.00 0.00 0.00 0.00 0.00 0.00 0.02 0.10 0.33 0.58 0.31 0.13 0.10 0.51 0.99 0.79 0.56 0.66 1.63 3.73 5.19 6.82 7.53 6.08 3.85 3.32 3.56 2.42 2.36 3.32 3.32 2.81 1.82 1.41 1.20 1.33 0.97 0.81 0.66 0.50 0.45 0.39 0.38 0.51 0.54 0.65 0.66 0.55 0.39
0.00 0.00 0.00 0.00 0.00 0.02 0.08 0.18 0.24 0.28 0.45 0.39 0.14 0.69 1.00 0.63 0.56 0.86 1.20 2.92 4.49 9.09 9.74 7.11 5.14 3.17 1.75 2.48 2.23 2.24 3.06 3.68 2.41 1.93 1.74 1.41 1.26 1.04 0.62 0.40 0.46 0.64 0.61 0.42 0.31 0.42 0.48 0.45 0.32
0.00 0.00 0.00 0.00 0.01 0.04 0.10 0.14 0.33 0.26 0.22 0.31 0.21 0.48 0.64 0.77 0.77 0.82 1.07 1.95 3.72 5.13 5.31 6.64 6.40 3.97 2.72 2.47 2.35 1.80 1.70 2.69 3.65 2.49 2.06 1.74 1.00 0.98 0.70 0.62 0.57 0.61 0.66 0.66 0.58 0.51 0.42 0.36 0.31
0.00 0.00 0.00 0.00 0.01 0.08 0.27 0.30 0.29 0.16 0.34 0.23 0.37 0.52 0.80 0.81 0.65 0.60 0.93 1.29 2.06 2.41 3.31 2.92 3.25 3.02 2.32 2.98 3.04 1.71 1.39 1.17 2.63 2.93 2.17 1.60 1.02 1.00 0.91 0.61 0.66 0.70 0.60 0.70 0.71 0.71 0.53 0.39 0.21
0.00 0.00 0.00 0.00 0.01 0.08 0.10 0.06 0.12 0.07 0.26 0.43 0.81 0.78 0.91 0.76 0.54 0.31 0.40 0.83 0.88 0.94 1.06 1.24 1.51 1.46 1.49 1.99 1.60 1.49 1.27 1.07 1.35 2.54 2.03 1.32 0.92 0.87 1.12 0.57 0.56 0.93 0.88 0.74 0.64 0.48 0.37 0.34 0.29
0.00 0.00 0.00 0.00 0.00 0.01 0.01 0.09 0.18 0.18 0.75 0.41 0.48 0.42 0.55 0.33 0.24 0.27 0.30 0.33 0.35 0.55 0.76 1.01 0.80 1.00 1.16 1.41 1.42 1.09 1.10 1.01 0.95 1.79 1.84 1.26 0.90 0.61 0.70 0.37 0.45 0.99 0.91 0.59 0.36 0.22 0.24 0.32 0.38
0.00 0.00 0.00 0.00 0.03 0.02 0.07 0.04 0.08 0.65 0.29 0.16 0.19 0.20 0.23 0.16 0.12 0.13 0.13 0.15 0.19 0.41 0.70 0.96 0.77 0.80 0.83 0.68 0.80 0.77 0.71 0.93 0.88 0.96 1.56 1.33 0.80 0.42 0.45 0.43 0.47 0.84 0.77 0.78 0.39 0.22 0.27 0.29 0.35
0.00 0.00 0.00 0.00 0.02 0.02 0.04 0.07 0.11 0.65 0.30 0.05 0.06 0.07 0.06 0.06 0.04 0.04 0.03 0.03 0.15 0.40 0.62 1.00 1.21 0.86 0.88 0.65 0.61 0.60 0.55 0.78 1.04 0.86 1.10 1.56 0.95 0.56 0.60 0.53 0.44 0.61 0.62 0.67 0.53 0.21 0.28 0.30 0.26
0.00 0.00 0.00 0.00 0.01 0.02 0.04 0.10 0.17 0.40 0.14 0.05 0.00 0.01 0.05 0.09 0.04 0.01 0.00 0.01 0.03 0.15 0.29 1.14 1.62 1.19 1.05 0.62 0.67 0.66 0.70 0.68 0.80 0.93 1.22 1.34 1.04 0.76 0.63 0.66 0.51 0.44 0.47 0.43 0.53 0.45 0.38 0.33 0.30
0.00 0.00 0.00 0.02 0.00 0.02 0.04 0.48 0.14 0.06 0.07 0.06 0.00 0.00 0.03 0.05 0.02 0.01 0.00 0.01 0.01 0.03 0.25 1.32 1.42 0.99 1.08 0.84 0.95 1.34 0.75 0.51 0.66 0.78 0.92 1.05 1.08 0.87 0.80 0.70 0.55 0.54 0.46 0.30 0.40 0.31 0.35 0.37 0.31
0.00 0.00 0.00 0.00 0.00 0.01 0.02 0.19 0.15 0.05 0.06 0.08 0.01 0.00 0.00 0.00 0.02 0.00 0.02 0.02 0.02 0.04 0.31 0.89 0.98 0.99 1.33 1.64 1.71 1.23 0.67 0.45 0.69 0.65 0.67 0.87 1.23 0.93 0.81 0.75 0.56 0.64 0.62 0.36 0.33 0.29 0.28 0.31 0.32
0.00 0.00 0.00 0.00 0.00 0.00 0.00 0.02 0.15 0.05 0.06 0.06 0.02 0.00 0.01 0.00 0.00 0.02 0.08 0.06 0.03 0.07 0.47 0.76 0.84 1.33 1.82 1.57 0.78 0.47 0.51 0.52 0.64 0.56 0.60 0.78 1.40 1.13 0.96 0.96 0.87 0.78 0.61 0.52 0.55 0.45 0.37 0.27 0.24
0.01 0.01 0.03 0.01 0.00 0.00 0.00 0.01 0.02 0.03 0.04 0.04 0.02 0.01 0.01 0.00 0.01 0.05 0.08 0.11 0.12 0.20 0.56 0.70 0.86 0.73 0.54 0.42 0.41 0.38 0.41 0.33 0.38 0.37 0.55 0.72 1.14 1.32 1.08 1.08 1.04 0.98 0.79 0.58 0.47 0.55 0.66 0.49 0.38
0.05 0.09 0.04 0.01 0.01 0.06 0.04 0.01 0.00 0.01 0.17 0.03 0.01 0.01 0.00 0.00 0.00 0.01 0.02 0.08 0.22 0.43 0.48 0.41 0.33 0.20 0.20 0.17 0.28 0.34 0.37 0.30 0.25 0.32 0.43 1.00 1.07 1.14 1.10 1.10 0.94 0.86 1.02 1.13 1.05 0.86 0.78 0.55 0.55
0.02 0.02 0.00 0.01 0.05 0.17 0.11 0.03 0.00 0.00 0.02 0.05 0.03 0.03 0.01 0.01 0.04 0.06 0.09 0.12 0.12 0.10 0.06 0.09 0.15 0.10 0.21 0.23 0.23 0.28 0.41 0.48 0.41 0.38 0.41 0.73 0.79 0.89 0.87 1.09 1.04 0.99 1.16 1.32 1.19 1.06 0.99 1.05 0.97
0.06 0.02 0.01 0.02 0.17 0.20 0.18 0.15 0.02 0.01 0.00 0.08 0.02 0.04 0.04 0.05 0.05 0.03 0.01 0.01 0.01 0.05 0.08 0.12 0.13 0.19 0.21 0.33 0.14 0.26 0.20 0.22 0.22 0.26 0.28 0.51 0.64 0.70 0.75 0.73 1.08 0.95 1.20 1.45 1.39 1.22 1.02 1.17 1.13
0.02 0.01 0.04 0.09 0.12 0.17 0.12 0.28 0.05 0.07 0.14 0.23 0.18 0.17 0.10 0.08 0.07 0.06 0.03 0.05 0.06 0.05 0.08 0.09 0.13 0.25 0.27 0.26 0.20 0.35 0.30 0.22 0.19 0.27 0.36 0.47 0.62 0.57 0.77 0.90 0.89 1.15 1.40 1.48 1.54 1.72 1.56 1.33 1.14
0.06 0.06 0.20 0.22 0.17 0.24 0.03 0.18 0.11 0.17 0.45 0.45 0.49 0.26 0.14 0.13 0.18 0.16 0.14 0.14 0.12 0.11 0.23 0.12 0.13 0.13 0.29 0.35 0.39 0.48 0.63 0.46 0.29 0.22 0.24 0.34 0.54 0.48 0.72 1.09 1.29 1.20 1.25 1.61 1.58 1.73 1.74 1.79 1.67
0.06 0.16 0.37 0.52 0.43 0.16 0.09 0.15 0.17 0.27 0.31 0.61 0.77 0.46 0.19 0.20 0.17 0.16 0.21 0.32 0.29 0.28 0.35 0.18 0.10 0.16 0.23 0.41 0.55 0.59 1.09 1.25 1.15 0.73 0.42 0.52 0.59 0.47 0.50 0.86 1.33 1.48 1.46 1.58 1.84 1.80 1.96 1.96 1.86
0.06 0.15 0.32 0.70 0.53 0.27 0.19 0.24 0.42 0.38 0.52 0.45 0.31 0.64 0.26 0.25 0.24 0.28 0.61 0.43 0.38 0.50 0.57 0.39 0.22 0.28 0.31 0.46 0.72 0.74 0.79 1.06 1.77 1.91 1.94 1.55 1.07 0.84 0.78 0.97 1.23 1.46 1.44 1.47 1.63 1.99 2.07 2.19 2.36
0.03 0.08 0.11 0.53 0.52 0.72 0.61 0.68 0.77 0.32 0.58 0.92 0.73 0.45 0.41 0.26 0.31 0.46 0.55 0.32 0.31 1.01 1.23 0.70 0.52 0.36 0.37 0.45 0.62 0.65 0.92 1.27 1.57 2.04 2.31 3.05 2.88 2.14 1.73 1.67 1.51 1.43 1.47 1.68 1.79 1.77 1.76 1.62 1.50
0.03 0.09 0.43 0.86 1.12 0.81 0.43 0.79 1.28 1.24 1.33 1.43 1.20 0.83 0.67 0.45 0.39 0.45 0.73 0.31 0.32 1.25 1.06 0.69 0.73 0.83 0.69 0.47 0.49 0.61 0.73 0.95 1.35 1.63 2.55 2.79 3.18 3.48 3.03 2.53 2.21 1.90 1.86 1.78 1.44 1.33 1.45 1.68 1.51
0.02 0.13 0.39 0.62 0.37 0.97 1.06 1.34 1.42 1.87 1.69 1.31 1.48 1.39 0.84 0.69 0.79 0.52 0.66 0.46 0.34 0.66 1.08 1.10 0.89 1.28 1.36 1.21 1.13 0.85 1.10 1.08 1.43 1.58 1.95 2.63 2.47 2.56 3.28 3.27 2.70 2.37 1.94 1.90 1.79 1.44 1.22 1.28 1.69
0.03 0.05 0.20 0.75 0.74 1.04 1.58 1.89 2.13 1.51 0.85 0.74 0.96 1.41 1.13 0.77 1.13 0.84 0.66 0.62 0.60 0.47 0.60 1.23 1.35 1.70 2.01 2.58 2.54 1.68 1.79 1.77 1.63 1.82 1.83 1.83 2.07 2.25 2.15 2.42 2.77 2.33 2.20 1.96 1.89 1.77 1.73 1.68 1.56

GFSSGP_prec_precacc_144.txt.gz
Total_Precipitation_Accumulation
0.00 0.00 0.00 0.00 0.00 0.00 0.00 0.00 0.00 0.11 0.09 0.06 0.13 0.18 0.23 0.35 0.63 0.80 0.68 1.27 1.17 1.15 0.93 2.08 2.07 1.74 1.16 0.62 0.30 0.19 0.11 0.05 0.05 0.07 0.12 0.20 0.17 0.25 0.13 0.03 0.04 0.17 0.37 0.35 0.25 0.25 0.26 0.24 0.11
0.00 0.00 0.00 0.00 0.00 0.00 0.00 0.00 0.02 0.09 0.16 0.24 0.26 0.18 0.17 0.55 0.47 0.50 0.67 0.75 0.66 0.56 0.61 0.91 1.81 1.96 1.60 1.35 1.03 0.72 0.42 0.11 0.05 0.06 0.17 0.41 0.46 0.45 0.45 0.37 0.23 0.28 0.46 0.57 0.42 0.42 0.33 0.20 0.06
0.00 0.00 0.00 0.00 0.00 0.00 0.00 0.02 0.04 0.08 0.16 0.15 0.09 0.08 0.31 1.03 0.77 0.70 0.53 0.92 1.01 0.67 0.86 0.73 1.17 1.45 1.70 1.92 2.21 1.85 1.26 0.66 0.35 0.42 0.67 0.89 1.06 1.11 0.98 0.90 0.77 0.79 0.91 0.87 0.85 0.71 0.39 0.10 0.04
0.00 0.00 0.00 0.00 0.00 0.00 0.00 0.01 0.10 0.03 0.09 0.11 0.07 0.12 0.43 0.55 0.63 0.51 0.48 0.86 1.45 1.35 1.55 1.23 1.85 2.82 2.37 2.47 2.90 2.47 2.01 1.97 1.60 1.37 0.94 0.72 0.64 0.71 0.79 1.10 1.54 1.77 1.76 1.32 1.33 1.20 0.49 0.20 0.13
0.00 0.00 0.00 0.00 0.00 0.00 0.00 0.00 0.01 0.06 0.14 0.14 0.12 0.07 0.74 0.69 0.42 0.66 1.14 1.60 2.09 2.06 2.45 1.44 1.71 2.05 2.42 3.13 2.95 2.72 2.63 2.13 1.87 1.79 1.66 1.05 0.75 0.56 0.56 0.62 1.03 1.78 3.13 2.53 1.50 1.00 0.50 0.38 0.40
0.00 0.00 0.00 0.00 0.00 0.00 0.02 0.02 0.06 0.19 0.28 0.29 0.19 0.31 0.71 0.44 0.52 0.81 2.00 2.48 3.22 3.16 3.45 2.49 2.37 2.59 1.97 1.87 3.64 3.10 3.09 2.60 1.70 1.26 1.92 1.24 0.87 0.74 0.64 0.61 0.53 0.60 0.96 1.44 1.39 1.50 0.87 0.46 0.36
0.00 0.00 0.00 0.00 0.00 0.00 0.02 0.10 0.33 0.58 0.31 0.13 0.10 0.51 0.99 0.79 0.56 0.66 1.63 3.73 5.19 6.82 7.53 6.08 3.85 3.32 3.56 2.42 2.36 3.32 3.32 2.81 1.82 1.41 1.20 1.33 0.99 0.86 0.72 0.55 0.48 0.40 0.40 0.53 0.55 0.65 0.66 0.55 0.39
0.00 0.00 0.00 0.00 0.00 0.02 0.08 0.18 0.24 0.28 0.45 0.39 0.14 0.69 1.00 0.63 0.56 0.86 1.20 2.92 4.49 9.09 9.74 7.11 5.14 3.17 1.75 2.48 2.23 2.24 3.06 3.68 2.41 1.93 1.75 1.41 1.27 1.05 0.65 0.47 0.51 0.68 0.64 0.44 0.32 0.43 0.49 0.45 0.32
0.00 0.00 0.00 0.00 0.01 0.04 0.10 0.14 0.33 0.26 0.22 0.31 0.21 0.48 0.64 0.77 0.77 0.82 1.07 1.95 3.72 5.13 5.31 6.64 6.40 3.97 2.72 2.47 2.35 1.80 1.70 2.69 3.65 2.49 2.06 1.76 1.03 1.02 0.73 0.65 0.64 0.69 0.70 0.69 0.60 0.51 0.43 0.36 0.31
0.00 0.00 0.00 0.00 0.01 0.08 0.27 0.30 0.29 0.16 0.34 0.23 0.37 0.52 0.80 0.81 0.65 0.60 0.93 1.29 2.06 2.41 3.31 2.92 3.25 3.02 2.32 2.98 3.04 1.71 1.39 1.17 2.63 2.93 2.17 1.60 1.02 1.03 0.94 0.64 0.67 0.73 0.65 0.75 0.78 0.73 0.56 0.40 0.21
0.00 0.00 0.00 0.00 0.01 0.08 0.10 0.06 0.12 0.07 0.26 0.43 0.81 0.78 0.91 0.76 0.54 0.31 0.40 0.83 0.88 0.94 1.06 1.24 1.51 1.46 1.49 1.99 1.60 1.49 1.27 1.07 1.35 2.54 2.03 1.32 0.92 0.87 1.14 0.61 0.62 0.98 0.95 0.83 0.70 0.54 0.42 0.35 0.29
0.00 0.00 0.00 0.00 0.00 0.01 0.01 0.09 0.18 0.18 0.75 0.41 0.48 0.42 0.55 0.33 0.24 0.27 0.30 0.33 0.35 0.55 0.76 1.01 0.80 1.00 1.16 1.41 1.42 1.09 1.10 1.01 0.95 1.79 1.84 1.26 0.90 0.61 0.70 0.37 0.47 1.05 0.99 0.65 0.42 0.27 0.28 0.34 0.38
0.00 0.00 0.00 0.00 0.03 0.02 0.07 0.04 0.08 0.65 0.29 0.16 0.19 0.20 0.23 0.16 0.12 0.13 0.13 0.15 0.19 0.41 0.70 0.96 0.77 0.80 0.83 0.68 0.80 0.77 0.71 0.93 0.88 0.96 1.56 1.33 0.80 0.42 0.45 0.43 0.47 0.86 0.82 0.86 0.46 0.28 0.33 0.34 0.39
0.00 0.00 0.00 0.00 0.02 0.02 0.04 0.07 0.11 0.65 0.30 0.05 0.06 0.07 0.06 0.06 0.04 0.04 0.03 0.03 0.15 0.40 0.62 1.00 1.21 0.86 0.88 0.65 0.61 0.60 0.55 0.78 1.04 0.86 1.10 1.56 0.95 0.56 0.60 0.53 0.44 0.62 0.62 0.69 0.59 0.27 0.32 0.37 0.31
0.00 0.00 0.00 0.00 0.01 0.02 0.04 0.10 0.17 0.40 0.14 0.05 0.00 0.01 0.05 0.09 0.04 0.01 0.00 0.01 0.03 0.15 0.29 1.14 1.62 1.19 1.05 0.62 0.67 0.66 0.70 0.68 0.80 0.93 1.22 1.34 1.04 0.76 0.63 0.66 0.51 0.44 0.47 0.44 0.55 0.52 0.48 0.41 0.36
0.00 0.00 0.00 0.02 0.00 0.02 0.04 0.48 0.14 0.06 0.07 0.06 0.00 0.00 0.03 0.05 0.02 0.01 0.00 0.01 0.01 0.03 0.25 1.32 1.42 0.99 1.08 0.84 0.95 1.34 0.75 0.51 0.66 0.78 0.92 1.05 1.08 0.87 0.80 0.70 0.55 0.54 0.46 0.31 0.43 0.34 0.43 0.44 0.34
0.00 0.00 0.00 0.00 0.00 0.01 0.02 0.19 0.15 0.05 0.06 0.08 0.01 0.00 0.00 0.00 0.02 0.00 0.02 0.02 0.02 0.04 0.31 0.89 0.98 0.99 1.33 1.64 1.71 1.23 0.67 0.45 0.69 0.65 0.67 0.87 1.23 0.93 0.81 0.75 0.56 0.64 0.62 0.36 0.35 0.33 0.35 0.39 0.36
0.00 0.00 0.00 0.00 0.00 0.00 0.00 0.02 0.15 0.05 0.06 0.06 0.02 0.00 0.01 0.00 0.00 0.02 0.08 0.06 0.03 0.07 0.47 0.76 0.84 1.33 1.82 1.57 0.78 0.47 0.51 0.52 0.64 0.56 0.60 0.78 1.40 1.13 0.96 0.96 0.87 0.78 0.61 0.52 0.55 0.48 0.45 0.37 0.28
0.01 0.01 0.03 0.01 0.00 0.00 0.00 0.01 0.02 0.03 0.04 0.04 0.02 0.01 0.01 0.00 0.01 0.05 0.08 0.11 0.12 0.20 0.56 0.70 0.86 0.73 0.54 0.42 0.41 0.38 0.41 0.33 0.38 0.37 0.55 0.72 1.14 1.32 1.08 1.08 1.04 0.98 0.79 0.58 0.47 0.56 0.70 0.58 0.55
0.05 0.09 0.04 0.01 0.01 0.06 0.04 0.01 0.00 0.01 0.17 0.03 0.01 0.01 0.00 0.00 0.00 0.01 0.02 0.08 0.22 0.43 0.48 0.41 0.33 0.20 0.20 0.17 0.28 0.34 0.37 0.30 0.25 0.32 0.43 1.00 1.07 1.14 1.10 1.10 0.94 0.87 1.02 1.13 1.05 0.87 0.81 0.62 0.73
0.02 0.02 0.00 0.01 0.05 0.17 0.11 0.03 0.00 0.00 0.02 0.05 0.03 0.03 0.01 0.01 0.04 0.06 0.09 0.12 0.12 0.10 0.06 0.09 0.15 0.10 0.21 0.23 0.23 0.28 0.41 0.48 0.41 0.38 0.42 0.73 0.79 0.89 0.87 1.09 1.05 0.99 1.17 1.33 1.19 1.07 1.00 1.08 1.11
0.06 0.02 0.01 0.02 0.17 0.20 0.18 0.15 0.02 0.01 0.00 0.08 0.02 0.04 0.04 0.05 0.05 0.03 0.01 0.01 0.01 0.05 0.08 0.12 0.13 0.19 0.21 0.33 0.14 0.26 0.20 0.22 0.22 0.26 0.28 0.51 0.64 0.71 0.75 0.73 1.09 0.95 1.21 1.45 1.40 1.22 1.03 1.19 1.24
0.02 0.01 0.04 0.09 0.12 0.17 0.12 0.28 0.05 0.07 0.14 0.23 0.18 0.17 0.10 0.08 0.07 0.06 0.03 0.05 0.06 0.05 0.08 0.09 0.13 0.25 0.27 0.26 0.20 0.35 0.30 0.22 0.19 0.27 0.36 0.47 0.62 0.57 0.77 0.90 0.89 1.16 1.41 1.48 1.54 1.72 1.57 1.35 1.16
0.06 0.06 0.20 0.22 0.17 0.24 0.03 0.18 0.11 0.17 0.45 0.45 0.49 0.26 0.14 0.13 0.18 0.16 0.14 0.14 0.12 0.11 0.23 0.12 0.13 0.13 0.29 0.35 0.39 0.48 0.63 0.47 0.29 0.23 0.24 0.34 0.54 0.49 0.72 1.09 1.30 1.21 1.26 1.62 1.59 1.73 1.74 1.81 1.69
0.06 0.16 0.37 0.52 0.43 0.16 0.09 0.15 0.17 0.27 0.31 0.61 0.77 0.46 0.19 0.20 0.17 0.16 0.21 0.32 0.29 0.28 0.35 0.18 0.10 0.16 0.23 0.41 0.55 0.60 1.09 1.25 1.16 0.74 0.43 0.52 0.60 0.47 0.50 0.86 1.33 1.49 1.47 1.59 1.84 1.81 1.97 1.99 1.90
0.06 0.15 0.32 0.70 0.53 0.27 0.19 0.24 0.42 0.38 0.52 0.45 0.31 0.64 0.26 0.25 0.24 0.28 0.61 0.43 0.38 0.50 0.57 0.39 0.22 0.28 0.31 0.46 0.72 0.74 0.80 1.07 1.77 1.92 1.95 1.56 1.08 0.84 0.78 0.97 1.23 1.47 1.44 1.47 1.63 2.00 2.08 2.20 2.40
0.03 0.08 0.11 0.53 0.52 0.72 0.61 0.68 0.77 0.32 0.58 0.92 0.73 0.45 0.41 0.26 0.31 0.46 0.55 0.32 0.31 1.01 1.23 0.70 0.52 0.36 0.37 0.45 0.62 0.65 0.92 1.28 1.57 2.04 2.32 3.06 2.89 2.15 1.74 1.68 1.52 1.45 1.49 1.70 1.80 1.78 1.76 1.63 1.52
0.03 0.09 0.43 0.86 1.13 0.81 0.43 0.79 1.28 1.24 1.33 1.43 1.20 0.83 0.67 0.45 0.39 0.45 0.73 0.31 0.32 1.25 1.06 0.69 0.73 0.83 0.69 0.47 0.49 0.61 0.74 0.95 1.36 1.64 2.55 2.79 3.19 3.50 3.05 2.56 2.23 1.91 1.87 1.79 1.45 1.33 1.45 1.69 1.54
0.02 0.13 0.39 0.62 0.37 0.98 1.06 1.34 1.42 1.87 1.69 1.31 1.48 1.39 0.84 0.69 0.79 0.52 0.66 0.46 0.34 0.66 1.08 1.10 0.89 1.28 1.36 1.21 1.13 0.85 1.10 1.08 1.43 1.58 1.96 2.65 2.50 2.60 3.30 3.28 2.72 2.46 1.96 1.91 1.79 1.45 1.24 1.30 1.70
0.03 0.05 0.20 0.77 0.75 1.06 1.59 1.90 2.13 1.51 0.85 0.74 0.96 1.41 1.13 0.77 1.13 0.84 0.66 0.62 0.60 0.47 0.60 1.23 1.35 1.70 2.01 2.58 2.54 1.68 1.79 1.77 1.64 1.83 1.86 1.85 2.12 2.30 2.17 2.43 2.82 2.48 2.27 1.97 1.90 1.77 1.73 1.69 1.56

GFSSGP_prec_precacc_147.txt.gz
Total_Precipitation_Accumulation
0.00 0.00 0.00 0.00 0.00 0.00 0.00 0.00 0.00 0.11 0.09 0.06 0.13 0.18 0.23 0.35 0.63 0.83 0.69 1.31 1.18 1.15 0.93 2.08 2.07 1.74 1.16 0.62 0.31 0.19 0.11 0.05 0.05 0.07 0.12 0.20 0.17 0.25 0.13 0.05 0.07 0.18 0.38 0.35 0.27 0.27 0.26 0.24 0.11
0.00 0.00 0.00 0.00 0.00 0.00 0.00 0.00 0.02 0.09 0.16 0.24 0.26 0.18 0.17 0.55 0.47 0.50 0.68 0.75 0.66 0.57 0.62 0.91 1.81 1.96 1.60 1.35 1.03 0.72 0.42 0.11 0.05 0.06 0.22 0.49 0.54 0.53 0.53 0.47 0.31 0.34 0.50 0.60 0.48 0.45 0.33 0.20 0.06
0.00 0.00 0.00 0.00 0.00 0.00 0.00 0.02 0.04 0.08 0.16 0.15 0.09 0.08 0.31 1.03 0.77 0.70 0.54 0.92 1.02 0.67 0.86 0.73 1.17 1.45 1.70 1.92 2.21 1.85 1.26 0.66 0.35 0.42 0.68 0.92 1.12 1.17 1.02 0.94 0.84 0.83 0.94 0.90 0.90 0.75 0.40 0.10 0.04
0.00 0.00 0.00 0.00 0.00 0.00 0.00 0.01 0.10 0.03 0.09 0.11 0.07 0.12 0.43 0.55 0.63 0.51 0.48 0.86 1.45 1.35 1.55 1.23 1.85 2.82 2.37 2.47 2.90 2.47 2.01 1.97 1.60 1.37 0.94 0.74 0.69 0.79 0.86 1.14 1.56 1.81 1.79 1.33 1.35 1.24 0.52 0.20 0.13
0.00 0.00 0.00 0.00 0.00 0.00 0.00 0.00 0.01 0.06 0.14 0.14 0.12 0.07 0.74 0.69 0.42 0.66 1.14 1.60 2.09 2.06 2.45 1.44 1.71 2.05 2.42 3.13 2.95 2.72 2.63 2.13 1.87 1.79 1.66 1.06 0.77 0.60 0.62 0.68 1.07 1.81 3.15 2.55 1.52 1.01 0.51 0.38 0.40
0.00 0.00 0.00 0.00 0.00 0.00 0.02 0.02 0.06 0.19 0.28 0.29 0.19 0.31 0.71 0.44 0.52 0.81 2.00 2.48 3.22 3.16 3.45 2.49 2.37 2.59 1.97 1.87 3.64 3.10 3.09 2.60 1.70 1.26 1.92 1.24 0.88 0.74 0.66 0.64 0.57 0.62 0.97 1.45 1.39 1.50 0.87 0.46 0.36
0.00 0.00 0.00 0.00 0.00 0.00 0.02 0.10 0.33 0.58 0.31 0.13 0.10 0.51 0.99 0.79 0.56 0.66 1.63 3.73 5.19 6.82 7.53 6.08 3.85 3.32 3.56 2.42 2.36 3.32 3.32 2.81 1.82 1.41 1.20 1.33 1.00 0.86 0.72 0.55 0.50 0.45 0.42 0.54 0.55 0.65 0.66 0.55 0.39
0.00 0.00 0.00 0.00 0.00 0.02 0.08 0.18 0.24 0.28 0.45 0.39 0.14 0.69 1.00 0.63 0.56 0.86 1.20 2.92 4.49 9.09 9.74 7.11 5.14 3.17 1.75 2.48 2.23 2.24 3.06 3.68 2.41 1.93 1.75 1.41 1.27 1.06 0.67 0.47 0.51 0.69 0.66 0.46 0.33 0.43 0.50 0.46 0.32
0.00 0.00 0.00 0.00 0.01 0.04 0.10 0.14 0.33 0.26 0.22 0.31 0.21 0.48 0.64 0.77 0.77 0.82 1.07 1.95 3.72 5.13 5.31 6.64 6.40 3.97 2.72 2.47 2.35 1.80 1.70 2.69 3.65 2.49 2.06 1.76 1.04 1.04 0.79 0.79 0.73 0.72 0.70 0.71 0.63 0.53 0.46 0.41 0.32
0.00 0.00 0.00 0.00 0.01 0.08 0.27 0.30 0.29 0.16 0.34 0.23 0.37 0.52 0.80 0.81 0.65 0.60 0.93 1.29 2.06 2.41 3.31 2.92 3.25 3.02 2.32 2.98 3.04 1.71 1.39 1.17 2.63 2.93 2.17 1.60 1.02 1.03 0.95 0.71 0.76 0.80 0.68 0.75 0.79 0.77 0.61 0.44 0.22
0.00 0.00 0.00 0.00 0.01 0.08 0.10 0.06 0.12 0.07 0.26 0.43 0.81 0.78 0.91 0.76 0.54 0.31 0.40 0.83 0.88 0.94 1.06 1.24 1.51 1.46 1.49 1.99 1.60 1.49 1.27 1.07 1.35 2.54 2.03 1.32 0.92 0.87 1.14 0.61 0.70 1.07 1.12 0.87 0.71 0.54 0.44 0.35 0.29
0.00 0.00 0.00 0.00 0.00 0.01 0.01 0.09 0.18 0.18 0.75 0.41 0.48 0.42 0.55 0.33 0.24 0.27 0.30 0.33 0.35 0.55 0.76 1.01 0.80 1.00 1.16 1.41 1.42 1.09 1.10 1.01 0.95 1.79 1.84 1.26 0.90 0.61 0.70 0.37 0.47 1.06 1.05 0.78 0.60 0.35 0.31 0.35 0.38
0.00 0.00 0.00 0.00 0.03 0.02 0.07 0.04 0.08 0.65 0.29 0.16 0.19 0.20 0.23 0.16 0.12 0.13 0.13 0.15 0.19 0.41 0.70 0.96 0.77 0.80 0.83 0.68 0.80 0.77 0.71 0.93 0.88 0.96 1.56 1.33 0.80 0.42 0.45 0.43 0.47 0.86 0.82 0.89 0.54 0.48 0.52 0.45 0.43
0.00 0.00 0.00 0.00 0.02 0.02 0.04 0.07 0.11 0.65 0.30 0.05 0.06 0.07 0.06 0.06 0.04 0.04 0.03 0.03 0.15 0.40 0.62 1.00 1.21 0.86 0.88 0.65 0.61 0.60 0.55 0.78 1.04 0.86 1.10 1.56 0.95 0.56 0.60 0.53 0.44 0.62 0.62 0.69 0.60 0.34 0.49 0.62 0.47
0.00 0.00 0.00 0.00 0.01 0.02 0.04 0.10 0.17 0.40 0.14 0.05 0.00 0.01 0.05 0.09 0.04 0.01 0.00 0.01 0.03 0.15 0.29 1.14 1.62 1.19 1.05 0.62 0.67 0.66 0.70 0.68 0.80 0.93 1.22 1.34 1.04 0.76 0.63 0.66 0.51 0.44 0.47 0.44 0.55 0.53 0.53 0.54 0.54
0.00 0.00 0.00 0.02 0.00 0.02 0.04 0.48 0.14 0.06 0.07 0.06 0.00 0.00 0.03 0.05 0.02 0.01 0.00 0.01 0.01 0.03 0.25 1.32 1.42 0.99 1.08 0.84 0.95 1.34 0.75 0.51 0.66 0.78 0.92 1.05 1.08 0.87 0.80 0.70 0.55 0.54 0.46 0.31 0.43 0.34 0.44 0.48 0.43
0.00 0.00 0.00 0.00 0.00 0.01 0.02 0.19 0.15 0.05 0.06 0.08 0.01 0.00 0.00 0.00 0.02 0.00 0.02 0.02 0.02 0.04 0.31 0.89 0.98 0.99 1.33 1.64 1.71 1.23 0.67 0.45 0.69 0.65 0.67 0.87 1.23 0.93 0.81 0.75 0.56 0.64 0.62 0.36 0.35 0.33 0.36 0.40 0.38
0.00 0.00 0.00 0.00 0.00 0.00 0.00 0.02 0.15 0.05 0.06 0.06 0.02 0.00 0.01 0.00 0.00 0.02 0.08 0.06 0.03 0.07 0.47 0.76 0.84 1.33 1.82 1.57 0.78 0.47 0.51 0.52 0.64 0.56 0.60 0.78 1.40 1.13 0.96 0.96 0.87 0.78 0.61 0.52 0.55 0.48 0.45 0.39 0.30
0.01 0.01 0.03 0.01 0.00 0.00 0.00 0.01 0.02 0.03 0.04 0.04 0.02 0.01 0.01 0.00 0.01 0.05 0.08 0.11 0.12 0.20 0.56 0.70 0.86 0.73 0.54 0.42 0.41 0.38 0.41 0.33 0.38 0.37 0.55 0.72 1.14 1.32 1.08 1.08 1.04 0.98 0.79 0.58 0.47 0.56 0.70 0.58 0.57
0.05 0.09 0.04 0.01 0.01 0.06 0.04 0.01 0.00 0.01 0.17 0.03 0.01 0.01 0.00 0.00 0.00 0.01 0.02 0.08 0.22 0.43 0.48 0.41 0.33 0.20 0.20 0.17 0.28 0.34 0.37 0.30 0.25 0.32 0.43 1.00 1.07 1.14 1.10 1.10 0.94 0.87 1.02 1.13 1.05 0.87 0.81 0.62 0.74
0.02 0.02 0.00 0.01 0.05 0.17 0.11 0.03 0.00 0.00 0.02 0.05 0.03 0.03 0.01 0.01 0.04 0.06 0.09 0.12 0.12 0.10 0.06 0.09 0.15 0.10 0.21 0.23 0.23 0.28 0.41 0.48 0.41 0.38 0.42 0.73 0.79 0.89 0.88 1.09 1.05 1.00 1.17 1.33 1.19 1.07 1.00 1.09 1.12
0.06 0.02 0.01 0.02 0.17 0.20 0.18 0.15 0.02 0.01 0.00 0.08 0.02 0.04 0.04 0.05 0.05 0.03 0.01 0.01 0.01 0.05 0.08 0.12 0.13 0.19 0.21 0.33 0.14 0.26 0.20 0.22 0.22 0.26 0.28 0.51 0.64 0.71 0.75 0.74 1.09 0.96 1.21 1.46 1.40 1.22 1.03 1.20 1.25
0.02 0.01 0.04 0.09 0.12 0.17 0.12 0.28 0.05 0.07 0.14 0.23 0.18 0.17 0.10 0.08 0.07 0.06 0.03 0.05 0.06 0.05 0.08 0.09 0.13 0.25 0.27 0.26 0.20 0.35 0.30 0.22 0.19 0.27 0.36 0.47 0.62 0.57 0.77 0.90 0.90 1.16 1.41 1.49 1.54 1.72 1.57 1.35 1.18
0.06 0.06 0.20 0.22 0.17 0.24 0.03 0.18 0.11 0.17 0.45 0.45 0.49 0.26 0.14 0.13 0.18 0.16 0.14 0.14 0.12 0.11 0.23 0.12 0.13 0.13 0.29 0.35 0.39 0.48 0.63 0.47 0.29 0.23 0.25 0.34 0.54 0.49 0.72 1.09 1.30 1.21 1.26 1.63 1.59 1.74 1.75 1.81 1.69
0.06 0.16 0.37 0.52 0.43 0.16 0.09 0.15 0.17 0.27 0.31 0.61 0.77 0.46 0.19 0.20 0.17 0.16 0.21 0.32 0.29 0.28 0.35 0.18 0.10 0.16 0.23 0.41 0.55 0.60 1.09 1.25 1.16 0.74 0.44 0.52 0.60 0.47 0.50 0.86 1.34 1.49 1.47 1.59 1.85 1.81 1.98 1.99 1.91
0.06 0.15 0.32 0.70 0.53 0.27 0.19 0.24 0.42 0.38 0.52 0.45 0.31 0.64 0.26 0.25 0.24 0.28 0.61 0.43 0.38 0.50 0.57 0.39 0.22 0.28 0.31 0.46 0.72 0.74 0.80 1.07 1.78 1.93 1.96 1.56 1.09 0.85 0.78 0.98 1.24 1.48 1.45 1.48 1.63 2.00 2.09 2.22 2.44
0.03 0.08 0.11 0.53 0.52 0.72 0.61 0.68 0.77 0.32 0.58 0.92 0.73 0.45 0.41 0.26 0.31 0.46 0.55 0.32 0.31 1.01 1.23 0.70 0.52 0.36 0.37 0.45 0.62 0.65 0.92 1.28 1.58 2.05 2.32 3.07 2.90 2.16 1.75 1.69 1.53 1.45 1.50 1.70 1.81 1.80 1.78 1.66 1.58
0.03 0.09 0.43 0.86 1.13 0.81 0.43 0.79 1.29 1.24 1.33 1.43 1.20 0.83 0.67 0.45 0.39 0.45 0.73 0.31 0.32 1.25 1.06 0.69 0.73 0.83 0.69 0.47 0.49 0.61 0.74 0.95 1.36 1.64 2.56 2.80 3.20 3.51 3.07 2.57 2.24 1.93 1.88 1.79 1.46 1.35 1.47 1.72 1.58
0.02 0.13 0.39 0.62 0.37 0.98 1.06 1.34 1.43 1.87 1.69 1.31 1.48 1.39 0.84 0.69 0.79 0.52 0.66 0.46 0.34 0.66 1.08 1.10 0.89 1.28 1.36 1.21 1.13 0.85 1.10 1.08 1.43 1.59 1.97 2.66 2.50 2.61 3.32 3.30 2.73 2.50 2.05 1.97 1.82 1.46 1.25 1.34 1.75
0.03 0.05 0.20 0.77 0.76 1.08 1.62 1.90 2.13 1.51 0.85 0.74 0.96 1.41 1.13 0.77 1.13 0.84 0.66 0.62 0.60 0.47 0.60 1.23 1.35 1.70 2.01 2.58 2.54 1.68 1.79 1.77 1.64 1.83 1.87 1.86 2.14 2.31 2.20 2.46 2.84 2.55 2.49 2.10 1.97 1.79 1.75 1.71 1.61

GFSSGP_prec_precacc_150.txt.gz
Total_Precipitation_Accumulation
0.00 0.00 0.00 0.00 0.00 0.00 0.00 0.00 0.00 0.11 0.09 0.06 0.13 0.18 0.23 0.35 0.64 0.88 0.72 1.33 1.18 1.16 0.93 2.08 2.07 1.74 1.16 0.62 0.31 0.19 0.12 0.05 0.05 0.07 0.12 0.20 0.17 0.25 0.15 0.05 0.08 0.20 0.39 0.37 0.34 0.30 0.26 0.24 0.11
0.00 0.00 0.00 0.00 0.00 0.00 0.00 0.00 0.02 0.09 0.16 0.24 0.26 0.18 0.17 0.55 0.47 0.51 0.68 0.76 0.66 0.57 0.62 0.91 1.81 1.96 1.60 1.35 1.03 0.72 0.42 0.11 0.06 0.06 0.22 0.49 0.55 0.56 0.56 0.48 0.32 0.36 0.51 0.61 0.53 0.48 0.34 0.20 0.06
0.00 0.00 0.00 0.00 0.00 0.00 0.00 0.02 0.04 0.08 0.16 0.15 0.09 0.08 0.31 1.03 0.77 0.70 0.54 0.93 1.02 0.67 0.86 0.73 1.17 1.45 1.70 1.92 2.21 1.85 1.26 0.66 0.35 0.42 0.68 0.92 1.12 1.17 1.03 0.95 0.84 0.84 0.95 0.91 0.94 0.80 0.42 0.11 0.04
0.00 0.00 0.00 0.00 0.00 0.00 0.00 0.01 0.10 0.03 0.09 0.11 0.07 0.12 0.43 0.55 0.63 0.51 0.48 0.86 1.45 1.35 1.55 1.23 1.85 2.82 2.37 2.47 2.90 2.47 2.01 1.97 1.60 1.37 0.94 0.74 0.69 0.79 0.86 1.15 1.57 1.84 1.82 1.36 1.38 1.27 0.53 0.21 0.14
0.00 0.00 0.00 0.00 0.00 0.00 0.00 0.00 0.01 0.06 0.14 0.14 0.12 0.07 0.74 0.69 0.42 0.66 1.14 1.60 2.09 2.06 2.45 1.44 1.71 2.05 2.42 3.13 2.95 2.72 2.63 2.13 1.87 1.79 1.66 1.06 0.77 0.60 0.62 0.69 1.08 1.83 3.18 2.58 1.55 1.05 0.52 0.38 0.41
0.00 0.00 0.00 0.00 0.00 0.00 0.02 0.02 0.06 0.19 0.28 0.29 0.19 0.31 0.71 0.44 0.52 0.81 2.00 2.48 3.22 3.16 3.45 2.49 2.37 2.59 1.97 1.87 3.64 3.10 3.09 2.60 1.70 1.26 1.92 1.24 0.89 0.76 0.66 0.64 0.57 0.62 0.99 1.47 1.42 1.54 0.90 0.47 0.37
0.00 0.00 0.00 0.00 0.00 0.00 0.02 0.10 0.33 0.58 0.31 0.13 0.10 0.51 0.99 0.79 0.56 0.66 1.63 3.73 5.19 6.82 7.53 6.08 3.85 3.32 3.56 2.42 2.36 3.32 3.32 2.81 1.82 1.41 1.20 1.33 1.00 0.86 0.72 0.55 0.51 0.45 0.42 0.54 0.56 0.66 0.68 0.55 0.40
0.00 0.00 0.00 0.00 0.00 0.02 0.08 0.18 0.24 0.28 0.45 0.39 0.14 0.69 1.00 0.63 0.56 0.86 1.20 2.92 4.49 9.09 9.74 7.11 5.14 3.17 1.75 2.48 2.23 2.24 3.06 3.68 2.41 1.93 1.75 1.41 1.27 1.06 0.69 0.51 0.54 0.74 0.68 0.46 0.33 0.44 0.52 0.47 0.32
0.00 0.00 0.00 0.00 0.01 0.04 0.10 0.14 0.33 0.26 0.22 0.31 0.21 0.48 0.64 0.77 0.77 0.82 1.07 1.95 3.72 5.13 5.31 6.64 6.40 3.97 2.72 2.47 2.35 1.80 1.70 2.69 3.65 2.49 2.06 1.76 1.04 1.04 0.80 0.83 0.79 0.81 0.72 0.71 0.64 0.53 0.47 0.42 0.32
0.00 0.00 0.00 0.00 0.01 0.08 0.27 0.30 0.29 0.16 0.34 0.23 0.37 0.52 0.80 0.81 0.65 0.60 0.93 1.29 2.06 2.41 3.31 2.92 3.25 3.02 2.32 2.98 3.04 1.71 1.39 1.17 2.63 2.93 2.17 1.60 1.02 1.03 0.95 0.71 0.77 0.84 0.76 0.84 0.81 0.77 0.61 0.44 0.23
0.00 0.00 0.00 0.00 0.01 0.08 0.10 0.06 0.12 0.07 0.26 0.43 0.81 0.78 0.91 0.76 0.54 0.31 0.40 0.83 0.88 0.94 1.06 1.24 1.51 1.46 1.49 1.99 1.60 1.49 1.27 1.07 1.35 2.54 2.03 1.32 0.92 0.87 1.14 0.61 0.70 1.07 1.14 0.89 0.73 0.56 0.47 0.35 0.29
0.00 0.00 0.00 0.00 0.00 0.01 0.01 0.09 0.18 0.18 0.75 0.41 0.48 0.42 0.55 0.33 0.24 0.27 0.30 0.33 0.35 0.55 0.76 1.01 0.80 1.00 1.16 1.41 1.42 1.09 1.10 1.01 0.95 1.79 1.84 1.26 0.90 0.61 0.70 0.37 0.47 1.06 1.05 0.79 0.62 0.39 0.42 0.43 0.41
0.00 0.00 0.00 0.00 0.03 0.02 0.07 0.04 0.08 0.65 0.29 0.16 0.19 0.20 0.23 0.16 0.12 0.13 0.13 0.15 0.19 0.41 0.70 0.96 0.77 0.80 0.83 0.68 0.80 0.77 0.71 0.93 0.88 0.96 1.56 1.33 0.80 0.42 0.45 0.43 0.47 0.86 0.82 0.89 0.54 0.48 0.56 0.53 0.54
0.00 0.00 0.00 0.00 0.02 0.02 0.04 0.07 0.11 0.65 0.30 0.05 0.06 0.07 0.06 0.06 0.04 0.04 0.03 0.03 0.15 0.40 0.62 1.00 1.21 0.86 0.88 0.65 0.61 0.60 0.55 0.78 1.04 0.86 1.10 1.56 0.95 0.56 0.60 0.53 0.44 0.62 0.62 0.69 0.60 0.34 0.49 0.63 0.54
0.00 0.00 0.00 0.00 0.01 0.02 0.04 0.10 0.17 0.40 0.14 0.05 0.00 0.01 0.05 0.09 0.04 0.01 0.00 0.01 0.03 0.15 0.29 1.14 1.62 1.19 1.05 0.62 0.67 0.66 0.70 0.68 0.80 0.93 1.22 1.34 1.04 0.76 0.63 0.66 0.51 0.44 0.47 0.44 0.55 0.53 0.53 0.54 0.55
0.00 0.00 0.00 0.02 0.00 0.02 0.04 0.48 0.14 0.06 0.07 0.06 0.00 0.00 0.03 0.05 0.02 0.01 0.00 0.01 0.01 0.03 0.25 1.32 1.42 0.99 1.08 0.84 0.95 1.34 0.75 0.51 0.66 0.78 0.92 1.05 1.08 0.87 0.80 0.70 0.55 0.54 0.46 0.31 0.43 0.34 0.44 0.48 0.43
0.00 0.00 0.00 0.00 0.00 0.01 0.02 0.19 0.15 0.05 0.06 0.08 0.01 0.00 0.00 0.00 0.02 0.00 0.02 0.02 0.02 0.04 0.31 0.89 0.98 0.99 1.33 1.64 1.71 1.23 0.67 0.45 0.69 0.65 0.67 0.87 1.23 0.93 0.81 0.75 0.56 0.64 0.62 0.36 0.35 0.33 0.36 0.40 0.38
0.00 0.00 0.00 0.00 0.00 0.00 0.00 0.02 0.15 0.05 0.06 0.06 0.02 0.00 0.01 0.00 0.00 0.02 0.08 0.06 0.03 0.07 0.47 0.76 0.84 1.33 1.82 1.57 0.78 0.47 0.51 0.52 0.64 0.56 0.60 0.78 1.40 1.13 0.96 0.96 0.87 0.78 0.61 0.52 0.55 0.48 0.45 0.39 0.30
0.01 0.01 0.03 0.01 0.00 0.00 0.00 0.01 0.02 0.03 0.04 0.04 0.02 0.01 0.01 0.00 0.01 0.05 0.08 0.11 0.12 0.20 0.56 0.70 0.86 0.73 0.54 0.42 0.41 0.38 0.41 0.33 0.38 0.37 0.55 0.72 1.14 1.32 1.08 1.08 1.04 0.98 0.79 0.58 0.47 0.56 0.70 0.58 0.57
0.05 0.09 0.04 0.01 0.01 0.06 0.04 0.01 0.00 0.01 0.17 0.03 0.01 0.01 0.00 0.00 0.00 0.01 0.02 0.08 0.22 0.43 0.48 0.41 0.33 0.20 0.20 0.17 0.28 0.34 0.37 0.30 0.25 0.32 0.43 1.00 1.07 1.14 1.10 1.10 0.94 0.87 1.03 1.13 1.05 0.87 0.81 0.62 0.74
0.02 0.02 0.00 0.01 0.05 0.17 0.11 0.03 0.00 0.00 0.02 0.05 0.03 0.03 0.01 0.01 0.04 0.06 0.09 0.12 0.12 0.10 0.06 0.09 0.15 0.10 0.21 0.23 0.23 0.28 0.41 0.48 0.41 0.38 0.42 0.73 0.79 0.89 0.88 1.09 1.06 1.00 1.18 1.34 1.20 1.07 1.01 1.09 1.12
0.06 0.02 0.01 0.02 0.17 0.20 0.18 0.15 0.02 0.01 0.00 0.08 0.02 0.04 0.04 0.05 0.05 0.03 0.01 0.01 0.01 0.05 0.08 0.12 0.13 0.19 0.21 0.33 0.14 0.26 0.20 0.22 0.22 0.26 0.28 0.51 0.64 0.71 0.76 0.74 1.09 0.96 1.22 1.46 1.41 1.23 1.04 1.20 1.25
0.02 0.01 0.04 0.09 0.12 0.17 0.12 0.28 0.05 0.07 0.14 0.23 0.18 0.17 0.10 0.08 0.07 0.06 0.03 0.05 0.06 0.05 0.08 0.09 0.13 0.25 0.27 0.26 0.20 0.35 0.30 0.22 0.19 0.27 0.36 0.47 0.62 0.57 0.77 0.90 0.90 1.16 1.42 1.49 1.55 1.73 1.58 1.36 1.19
0.06 0.06 0.20 0.22 0.17 0.24 0.03 0.18 0.11 0.17 0.45 0.45 0.49 0.26 0.14 0.13 0.18 0.16 0.14 0.14 0.12 0.11 0.23 0.12 0.13 0.13 0.29 0.35 0.39 0.48 0.63 0.47 0.29 0.23 0.25 0.34 0.54 0.49 0.72 1.09 1.30 1.22 1.27 1.63 1.59 1.74 1.75 1.81 1.70
0.06 0.16 0.37 0.52 0.43 0.16 0.09 0.15 0.17 0.27 0.31 0.61 0.77 0.46 0.19 0.20 0.17 0.16 0.21 0.32 0.29 0.28 0.35 0.18 0.10 0.16 0.23 0.41 0.55 0.60 1.09 1.25 1.16 0.74 0.44 0.53 0.60 0.47 0.51 0.86 1.34 1.49 1.47 1.59 1.85 1.82 1.98 2.00 1.92
0.06 0.15 0.32 0.70 0.53 0.27 0.19 0.24 0.42 0.38 0.52 0.45 0.31 0.64 0.26 0.25 0.24 0.28 0.61 0.43 0.38 0.50 0.57 0.39 0.22 0.28 0.31 0.46 0.72 0.74 0.80 1.07 1.78 1.93 1.96 1.57 1.10 0.86 0.79 0.98 1.24 1.48 1.45 1.48 1.63 2.01 2.09 2.23 2.45
0.03 0.08 0.11 0.53 0.52 0.72 0.61 0.68 0.77 0.32 0.58 0.92 0.73 0.45 0.41 0.26 0.31 0.46 0.55 0.32 0.31 1.01 1.23 0.70 0.52 0.36 0.37 0.45 0.62 0.65 0.92 1.28 1.58 2.05 2.33 3.07 2.91 2.17 1.75 1.69 1.53 1.46 1.50 1.70 1.82 1.81 1.81 1.67 1.59
0.03 0.09 0.43 0.86 1.13 0.81 0.43 0.79 1.29 1.24 1.34 1.43 1.20 0.83 0.67 0.45 0.39 0.45 0.73 0.31 0.32 1.25 1.06 0.69 0.73 0.83 0.69 0.47 0.49 0.61 0.74 0.95 1.36 1.64 2.56 2.80 3.21 3.52 3.07 2.58 2.24 1.93 1.89 1.80 1.47 1.37 1.51 1.76 1.60
0.02 0.13 0.39 0.62 0.37 0.98 1.07 1.34 1.44 1.87 1.69 1.31 1.48 1.39 0.84 0.69 0.79 0.52 0.66 0.46 0.34 0.66 1.08 1.10 0.89 1.28 1.36 1.21 1.13 0.85 1.10 1.08 1.43 1.59 1.97 2.66 2.51 2.62 3.32 3.31 2.74 2.50 2.06 1.99 1.85 1.50 1.28 1.35 1.79
0.03 0.05 0.20 0.77 0.76 1.08 1.65 1.91 2.13 1.51 0.85 0.74 0.96 1.41 1.13 0.77 1.13 0.84 0.66 0.62 0.60 0.47 0.60 1.23 1.35 1.70 2.01 2.58 2.54 1.68 1.79 1.77 1.64 1.83 1.87 1.87 2.14 2.32 2.21 2.46 2.85 2.57 2.52 2.14 2.07 1.91 1.82 1.82 1.68